<?xml version="1.0" encoding="UTF-8" standalone="no" ?>
<gpx xmlns="http://www.topografix.com/GPX/1/1" xmlns:xsi="http://www.w3.org/2001/XMLSchema-instance" xsi:schemaLocation="http://www.topografix.com/GPX/1/1 http://www.topografix.com/GPX/1/1/gpx.xsd" version="1.1" creator="VisuGPX - https://www.visugpx.com">
  <metadata>
    <name>Boucle nouvion sur meuse - lume</name>
    <desc><![CDATA[Boucle nouvion sur meuse - lume]]></desc>
  </metadata>
  <trk>
    <name><![CDATA[LOG 13/02/11 11:52]]></name>
    <desc><![CDATA[Max. speed: 38.7km/h, avg. speed: 11.0km/h, distance: 17.206km, up: 540m, down: 546m, total time: 01:33:54]]></desc>
    <trkseg>
      <trkpt lat="49.6977" lon="4.7919">
        <ele>164.8</ele>
        <time>2011-02-13T09:18:13Z</time>
      </trkpt>
      <trkpt lat="49.6977" lon="4.7919">
        <ele>164.8</ele>
        <time>2011-02-13T09:18:16Z</time>
      </trkpt>
      <trkpt lat="49.6977" lon="4.7919">
        <ele>164.8</ele>
        <time>2011-02-13T09:18:17Z</time>
      </trkpt>
      <trkpt lat="49.6977" lon="4.7919">
        <ele>164.8</ele>
        <time>2011-02-13T09:18:19Z</time>
      </trkpt>
      <trkpt lat="49.6977" lon="4.7919">
        <ele>164.8</ele>
        <time>2011-02-13T09:18:20Z</time>
      </trkpt>
      <trkpt lat="49.6977" lon="4.7919">
        <ele>164.8</ele>
        <time>2011-02-13T09:18:23Z</time>
      </trkpt>
      <trkpt lat="49.6977" lon="4.7919">
        <ele>164.8</ele>
        <time>2011-02-13T09:18:24Z</time>
      </trkpt>
      <trkpt lat="49.6977" lon="4.79189">
        <ele>164.38</ele>
        <time>2011-02-13T09:18:25Z</time>
      </trkpt>
      <trkpt lat="49.69769" lon="4.79188">
        <ele>163.98</ele>
        <time>2011-02-13T09:18:26Z</time>
      </trkpt>
      <trkpt lat="49.69768" lon="4.79185">
        <ele>163.25</ele>
        <time>2011-02-13T09:18:28Z</time>
      </trkpt>
      <trkpt lat="49.69766" lon="4.79183">
        <ele>163.06</ele>
        <time>2011-02-13T09:18:29Z</time>
      </trkpt>
      <trkpt lat="49.69763" lon="4.7918">
        <ele>162.63</ele>
        <time>2011-02-13T09:18:31Z</time>
      </trkpt>
      <trkpt lat="49.6976" lon="4.79179">
        <ele>162.155</ele>
        <time>2011-02-13T09:18:34Z</time>
      </trkpt>
      <trkpt lat="49.69759" lon="4.79177">
        <ele>161.936</ele>
        <time>2011-02-13T09:18:35Z</time>
      </trkpt>
      <trkpt lat="49.69763" lon="4.79169">
        <ele>161.561</ele>
        <time>2011-02-13T09:18:37Z</time>
      </trkpt>
      <trkpt lat="49.69766" lon="4.79164">
        <ele>161.229</ele>
        <time>2011-02-13T09:18:38Z</time>
      </trkpt>
      <trkpt lat="49.69771" lon="4.7915">
        <ele>159.9</ele>
        <time>2011-02-13T09:18:40Z</time>
      </trkpt>
      <trkpt lat="49.6977" lon="4.79141">
        <ele>158.4</ele>
        <time>2011-02-13T09:18:41Z</time>
      </trkpt>
      <trkpt lat="49.69763" lon="4.79132">
        <ele>156.75</ele>
        <time>2011-02-13T09:18:43Z</time>
      </trkpt>
      <trkpt lat="49.69759" lon="4.79128">
        <ele>155.79</ele>
        <time>2011-02-13T09:18:44Z</time>
      </trkpt>
      <trkpt lat="49.69751" lon="4.79122">
        <ele>153.95</ele>
        <time>2011-02-13T09:18:46Z</time>
      </trkpt>
      <trkpt lat="49.69745" lon="4.79119">
        <ele>152.81</ele>
        <time>2011-02-13T09:18:47Z</time>
      </trkpt>
      <trkpt lat="49.69739" lon="4.79116">
        <ele>151.78</ele>
        <time>2011-02-13T09:18:48Z</time>
      </trkpt>
      <trkpt lat="49.6973" lon="4.79107">
        <ele>149.83</ele>
        <time>2011-02-13T09:18:50Z</time>
      </trkpt>
      <trkpt lat="49.69727" lon="4.79092">
        <ele>148.12</ele>
        <time>2011-02-13T09:18:52Z</time>
      </trkpt>
      <trkpt lat="49.69727" lon="4.79083">
        <ele>147.46</ele>
        <time>2011-02-13T09:18:53Z</time>
      </trkpt>
      <trkpt lat="49.69727" lon="4.79065">
        <ele>146.55</ele>
        <time>2011-02-13T09:18:55Z</time>
      </trkpt>
      <trkpt lat="49.69727" lon="4.79049">
        <ele>146.31</ele>
        <time>2011-02-13T09:18:57Z</time>
      </trkpt>
      <trkpt lat="49.69728" lon="4.79032">
        <ele>146.53</ele>
        <time>2011-02-13T09:18:59Z</time>
      </trkpt>
      <trkpt lat="49.69729" lon="4.79013">
        <ele>147.14</ele>
        <time>2011-02-13T09:19:01Z</time>
      </trkpt>
      <trkpt lat="49.69729" lon="4.79003">
        <ele>147.52</ele>
        <time>2011-02-13T09:19:02Z</time>
      </trkpt>
      <trkpt lat="49.6973" lon="4.78987">
        <ele>148.29</ele>
        <time>2011-02-13T09:19:04Z</time>
      </trkpt>
      <trkpt lat="49.6973" lon="4.78972">
        <ele>148.72</ele>
        <time>2011-02-13T09:19:06Z</time>
      </trkpt>
      <trkpt lat="49.6973" lon="4.78964">
        <ele>148.92</ele>
        <time>2011-02-13T09:19:07Z</time>
      </trkpt>
      <trkpt lat="49.69731" lon="4.78946">
        <ele>149.13</ele>
        <time>2011-02-13T09:19:09Z</time>
      </trkpt>
      <trkpt lat="49.69732" lon="4.78938">
        <ele>149.21</ele>
        <time>2011-02-13T09:19:10Z</time>
      </trkpt>
      <trkpt lat="49.69733" lon="4.78929">
        <ele>149.19</ele>
        <time>2011-02-13T09:19:11Z</time>
      </trkpt>
      <trkpt lat="49.69734" lon="4.78922">
        <ele>149.2</ele>
        <time>2011-02-13T09:19:12Z</time>
      </trkpt>
      <trkpt lat="49.69737" lon="4.78906">
        <ele>149.14</ele>
        <time>2011-02-13T09:19:14Z</time>
      </trkpt>
      <trkpt lat="49.69739" lon="4.78889">
        <ele>149.19</ele>
        <time>2011-02-13T09:19:16Z</time>
      </trkpt>
      <trkpt lat="49.69742" lon="4.78873">
        <ele>149.29</ele>
        <time>2011-02-13T09:19:18Z</time>
      </trkpt>
      <trkpt lat="49.69745" lon="4.78858">
        <ele>149.42</ele>
        <time>2011-02-13T09:19:20Z</time>
      </trkpt>
      <trkpt lat="49.69744" lon="4.78841">
        <ele>149.68</ele>
        <time>2011-02-13T09:19:22Z</time>
      </trkpt>
      <trkpt lat="49.69743" lon="4.7883">
        <ele>149.74</ele>
        <time>2011-02-13T09:19:23Z</time>
      </trkpt>
      <trkpt lat="49.69742" lon="4.7881">
        <ele>149.74</ele>
        <time>2011-02-13T09:19:26Z</time>
      </trkpt>
      <trkpt lat="49.69742" lon="4.78791">
        <ele>149.57</ele>
        <time>2011-02-13T09:19:27Z</time>
      </trkpt>
      <trkpt lat="49.69744" lon="4.78777">
        <ele>149.25</ele>
        <time>2011-02-13T09:19:29Z</time>
      </trkpt>
      <trkpt lat="49.69747" lon="4.78762">
        <ele>148.67</ele>
        <time>2011-02-13T09:19:31Z</time>
      </trkpt>
      <trkpt lat="49.69748" lon="4.78754">
        <ele>148.44</ele>
        <time>2011-02-13T09:19:33Z</time>
      </trkpt>
      <trkpt lat="49.69751" lon="4.78741">
        <ele>148.05</ele>
        <time>2011-02-13T09:19:34Z</time>
      </trkpt>
      <trkpt lat="49.69753" lon="4.78728">
        <ele>147.58</ele>
        <time>2011-02-13T09:19:35Z</time>
      </trkpt>
      <trkpt lat="49.69755" lon="4.78722">
        <ele>147.46</ele>
        <time>2011-02-13T09:19:36Z</time>
      </trkpt>
      <trkpt lat="49.69757" lon="4.78714">
        <ele>147.37</ele>
        <time>2011-02-13T09:19:37Z</time>
      </trkpt>
      <trkpt lat="49.6976" lon="4.78708">
        <ele>147.29</ele>
        <time>2011-02-13T09:19:38Z</time>
      </trkpt>
      <trkpt lat="49.69763" lon="4.78701">
        <ele>147.22</ele>
        <time>2011-02-13T09:19:39Z</time>
      </trkpt>
      <trkpt lat="49.69769" lon="4.78688">
        <ele>147.3</ele>
        <time>2011-02-13T09:19:41Z</time>
      </trkpt>
      <trkpt lat="49.69771" lon="4.78682">
        <ele>147.41</ele>
        <time>2011-02-13T09:19:42Z</time>
      </trkpt>
      <trkpt lat="49.69775" lon="4.78671">
        <ele>147.68</ele>
        <time>2011-02-13T09:19:44Z</time>
      </trkpt>
      <trkpt lat="49.69777" lon="4.78665">
        <ele>147.76</ele>
        <time>2011-02-13T09:19:45Z</time>
      </trkpt>
      <trkpt lat="49.69779" lon="4.7866">
        <ele>147.75</ele>
        <time>2011-02-13T09:19:46Z</time>
      </trkpt>
      <trkpt lat="49.69782" lon="4.78649">
        <ele>147.66</ele>
        <time>2011-02-13T09:19:48Z</time>
      </trkpt>
      <trkpt lat="49.69784" lon="4.78643">
        <ele>147.6</ele>
        <time>2011-02-13T09:19:49Z</time>
      </trkpt>
      <trkpt lat="49.69787" lon="4.78632">
        <ele>147.38</ele>
        <time>2011-02-13T09:19:51Z</time>
      </trkpt>
      <trkpt lat="49.69788" lon="4.78622">
        <ele>147.07</ele>
        <time>2011-02-13T09:19:53Z</time>
      </trkpt>
      <trkpt lat="49.69791" lon="4.78611">
        <ele>146.9</ele>
        <time>2011-02-13T09:19:55Z</time>
      </trkpt>
      <trkpt lat="49.69792" lon="4.78605">
        <ele>146.87</ele>
        <time>2011-02-13T09:19:56Z</time>
      </trkpt>
      <trkpt lat="49.69795" lon="4.78594">
        <ele>146.86</ele>
        <time>2011-02-13T09:19:58Z</time>
      </trkpt>
      <trkpt lat="49.69797" lon="4.78581">
        <ele>147.09</ele>
        <time>2011-02-13T09:20:00Z</time>
      </trkpt>
      <trkpt lat="49.69797" lon="4.78575">
        <ele>147.2</ele>
        <time>2011-02-13T09:20:01Z</time>
      </trkpt>
      <trkpt lat="49.69799" lon="4.78563">
        <ele>147.39</ele>
        <time>2011-02-13T09:20:03Z</time>
      </trkpt>
      <trkpt lat="49.69801" lon="4.78557">
        <ele>147.49</ele>
        <time>2011-02-13T09:20:04Z</time>
      </trkpt>
      <trkpt lat="49.69804" lon="4.78546">
        <ele>147.7</ele>
        <time>2011-02-13T09:20:06Z</time>
      </trkpt>
      <trkpt lat="49.69807" lon="4.78533">
        <ele>147.82</ele>
        <time>2011-02-13T09:20:08Z</time>
      </trkpt>
      <trkpt lat="49.69808" lon="4.78526">
        <ele>147.81</ele>
        <time>2011-02-13T09:20:09Z</time>
      </trkpt>
      <trkpt lat="49.69812" lon="4.78513">
        <ele>147.95</ele>
        <time>2011-02-13T09:20:11Z</time>
      </trkpt>
      <trkpt lat="49.69813" lon="4.78504">
        <ele>148.09</ele>
        <time>2011-02-13T09:20:12Z</time>
      </trkpt>
      <trkpt lat="49.69813" lon="4.78496">
        <ele>148.22</ele>
        <time>2011-02-13T09:20:13Z</time>
      </trkpt>
      <trkpt lat="49.69814" lon="4.7848">
        <ele>148.15</ele>
        <time>2011-02-13T09:20:15Z</time>
      </trkpt>
      <trkpt lat="49.69814" lon="4.78473">
        <ele>148.09</ele>
        <time>2011-02-13T09:20:16Z</time>
      </trkpt>
      <trkpt lat="49.69814" lon="4.78463">
        <ele>147.98</ele>
        <time>2011-02-13T09:20:18Z</time>
      </trkpt>
      <trkpt lat="49.69814" lon="4.78452">
        <ele>147.76</ele>
        <time>2011-02-13T09:20:21Z</time>
      </trkpt>
      <trkpt lat="49.69813" lon="4.78443">
        <ele>147.2</ele>
        <time>2011-02-13T09:20:22Z</time>
      </trkpt>
      <trkpt lat="49.69812" lon="4.78436">
        <ele>146.74</ele>
        <time>2011-02-13T09:20:23Z</time>
      </trkpt>
      <trkpt lat="49.6981" lon="4.78429">
        <ele>146.62</ele>
        <time>2011-02-13T09:20:25Z</time>
      </trkpt>
      <trkpt lat="49.69809" lon="4.78425">
        <ele>146.64</ele>
        <time>2011-02-13T09:20:26Z</time>
      </trkpt>
      <trkpt lat="49.69808" lon="4.78421">
        <ele>146.7</ele>
        <time>2011-02-13T09:20:27Z</time>
      </trkpt>
      <trkpt lat="49.69804" lon="4.78413">
        <ele>146.54</ele>
        <time>2011-02-13T09:20:29Z</time>
      </trkpt>
      <trkpt lat="49.69802" lon="4.78409">
        <ele>146.45</ele>
        <time>2011-02-13T09:20:30Z</time>
      </trkpt>
      <trkpt lat="49.69796" lon="4.78403">
        <ele>146.73</ele>
        <time>2011-02-13T09:20:32Z</time>
      </trkpt>
      <trkpt lat="49.69793" lon="4.78401">
        <ele>147.19</ele>
        <time>2011-02-13T09:20:34Z</time>
      </trkpt>
      <trkpt lat="49.69787" lon="4.78398">
        <ele>148.01</ele>
        <time>2011-02-13T09:20:35Z</time>
      </trkpt>
      <trkpt lat="49.69783" lon="4.78396">
        <ele>148.55</ele>
        <time>2011-02-13T09:20:36Z</time>
      </trkpt>
      <trkpt lat="49.69781" lon="4.78392">
        <ele>149.31</ele>
        <time>2011-02-13T09:20:38Z</time>
      </trkpt>
      <trkpt lat="49.6978" lon="4.7839">
        <ele>149.67</ele>
        <time>2011-02-13T09:20:39Z</time>
      </trkpt>
      <trkpt lat="49.6978" lon="4.78386">
        <ele>149.89</ele>
        <time>2011-02-13T09:20:42Z</time>
      </trkpt>
      <trkpt lat="49.69782" lon="4.78381">
        <ele>149.52</ele>
        <time>2011-02-13T09:20:43Z</time>
      </trkpt>
      <trkpt lat="49.69784" lon="4.78378">
        <ele>149.49</ele>
        <time>2011-02-13T09:20:44Z</time>
      </trkpt>
      <trkpt lat="49.69787" lon="4.78372">
        <ele>149.29</ele>
        <time>2011-02-13T09:20:46Z</time>
      </trkpt>
      <trkpt lat="49.69792" lon="4.78366">
        <ele>148.93</ele>
        <time>2011-02-13T09:20:48Z</time>
      </trkpt>
      <trkpt lat="49.69794" lon="4.78362">
        <ele>148.77</ele>
        <time>2011-02-13T09:20:49Z</time>
      </trkpt>
      <trkpt lat="49.69799" lon="4.78351">
        <ele>148.41</ele>
        <time>2011-02-13T09:20:52Z</time>
      </trkpt>
      <trkpt lat="49.69804" lon="4.78336">
        <ele>147.9</ele>
        <time>2011-02-13T09:20:54Z</time>
      </trkpt>
      <trkpt lat="49.69806" lon="4.7833">
        <ele>147.8</ele>
        <time>2011-02-13T09:20:55Z</time>
      </trkpt>
      <trkpt lat="49.69807" lon="4.78322">
        <ele>147.88</ele>
        <time>2011-02-13T09:20:56Z</time>
      </trkpt>
      <trkpt lat="49.69808" lon="4.78318">
        <ele>147.93</ele>
        <time>2011-02-13T09:20:57Z</time>
      </trkpt>
      <trkpt lat="49.6981" lon="4.78308">
        <ele>148.1</ele>
        <time>2011-02-13T09:20:59Z</time>
      </trkpt>
      <trkpt lat="49.69813" lon="4.78297">
        <ele>148.24</ele>
        <time>2011-02-13T09:21:01Z</time>
      </trkpt>
      <trkpt lat="49.69816" lon="4.78285">
        <ele>148.12</ele>
        <time>2011-02-13T09:21:03Z</time>
      </trkpt>
      <trkpt lat="49.6982" lon="4.78274">
        <ele>148.04</ele>
        <time>2011-02-13T09:21:05Z</time>
      </trkpt>
      <trkpt lat="49.69824" lon="4.78263">
        <ele>148.27</ele>
        <time>2011-02-13T09:21:07Z</time>
      </trkpt>
      <trkpt lat="49.69827" lon="4.78251">
        <ele>148.62</ele>
        <time>2011-02-13T09:21:09Z</time>
      </trkpt>
      <trkpt lat="49.69832" lon="4.78239">
        <ele>148.92</ele>
        <time>2011-02-13T09:21:11Z</time>
      </trkpt>
      <trkpt lat="49.69837" lon="4.78229">
        <ele>149.28</ele>
        <time>2011-02-13T09:21:13Z</time>
      </trkpt>
      <trkpt lat="49.69841" lon="4.78219">
        <ele>149.47</ele>
        <time>2011-02-13T09:21:15Z</time>
      </trkpt>
      <trkpt lat="49.69845" lon="4.78209">
        <ele>149.4</ele>
        <time>2011-02-13T09:21:17Z</time>
      </trkpt>
      <trkpt lat="49.69847" lon="4.78203">
        <ele>149.33</ele>
        <time>2011-02-13T09:21:18Z</time>
      </trkpt>
      <trkpt lat="49.69851" lon="4.78191">
        <ele>149.51</ele>
        <time>2011-02-13T09:21:20Z</time>
      </trkpt>
      <trkpt lat="49.69853" lon="4.78186">
        <ele>149.71</ele>
        <time>2011-02-13T09:21:21Z</time>
      </trkpt>
      <trkpt lat="49.69857" lon="4.78171">
        <ele>150.33</ele>
        <time>2011-02-13T09:21:23Z</time>
      </trkpt>
      <trkpt lat="49.69862" lon="4.78156">
        <ele>151.06</ele>
        <time>2011-02-13T09:21:25Z</time>
      </trkpt>
      <trkpt lat="49.69865" lon="4.78139">
        <ele>151.85</ele>
        <time>2011-02-13T09:21:27Z</time>
      </trkpt>
      <trkpt lat="49.69867" lon="4.78132">
        <ele>152.16</ele>
        <time>2011-02-13T09:21:28Z</time>
      </trkpt>
      <trkpt lat="49.69869" lon="4.78119">
        <ele>152.62</ele>
        <time>2011-02-13T09:21:30Z</time>
      </trkpt>
      <trkpt lat="49.69872" lon="4.78113">
        <ele>152.78</ele>
        <time>2011-02-13T09:21:31Z</time>
      </trkpt>
      <trkpt lat="49.69879" lon="4.78102">
        <ele>152.67</ele>
        <time>2011-02-13T09:21:33Z</time>
      </trkpt>
      <trkpt lat="49.69882" lon="4.78096">
        <ele>152.62</ele>
        <time>2011-02-13T09:21:34Z</time>
      </trkpt>
      <trkpt lat="49.69891" lon="4.78087">
        <ele>152.42</ele>
        <time>2011-02-13T09:21:37Z</time>
      </trkpt>
      <trkpt lat="49.69897" lon="4.7808">
        <ele>152.16</ele>
        <time>2011-02-13T09:21:38Z</time>
      </trkpt>
      <trkpt lat="49.69904" lon="4.78078">
        <ele>151.79</ele>
        <time>2011-02-13T09:21:40Z</time>
      </trkpt>
      <trkpt lat="49.69911" lon="4.78081">
        <ele>151.39</ele>
        <time>2011-02-13T09:21:41Z</time>
      </trkpt>
      <trkpt lat="49.69915" lon="4.78083">
        <ele>151.23</ele>
        <time>2011-02-13T09:21:42Z</time>
      </trkpt>
      <trkpt lat="49.69922" lon="4.78088">
        <ele>151.1</ele>
        <time>2011-02-13T09:21:44Z</time>
      </trkpt>
      <trkpt lat="49.69929" lon="4.78095">
        <ele>151.38</ele>
        <time>2011-02-13T09:21:46Z</time>
      </trkpt>
      <trkpt lat="49.69936" lon="4.78098">
        <ele>151.68</ele>
        <time>2011-02-13T09:21:48Z</time>
      </trkpt>
      <trkpt lat="49.69943" lon="4.78096">
        <ele>151.88</ele>
        <time>2011-02-13T09:21:50Z</time>
      </trkpt>
      <trkpt lat="49.69946" lon="4.78092">
        <ele>151.84</ele>
        <time>2011-02-13T09:21:51Z</time>
      </trkpt>
      <trkpt lat="49.69953" lon="4.78082">
        <ele>151.61</ele>
        <time>2011-02-13T09:21:53Z</time>
      </trkpt>
      <trkpt lat="49.69956" lon="4.78076">
        <ele>151.55</ele>
        <time>2011-02-13T09:21:54Z</time>
      </trkpt>
      <trkpt lat="49.6996" lon="4.78064">
        <ele>151.06</ele>
        <time>2011-02-13T09:21:56Z</time>
      </trkpt>
      <trkpt lat="49.69965" lon="4.78054">
        <ele>150.3</ele>
        <time>2011-02-13T09:21:58Z</time>
      </trkpt>
      <trkpt lat="49.69967" lon="4.78048">
        <ele>149.94</ele>
        <time>2011-02-13T09:21:59Z</time>
      </trkpt>
      <trkpt lat="49.69972" lon="4.78035">
        <ele>149.74</ele>
        <time>2011-02-13T09:22:01Z</time>
      </trkpt>
      <trkpt lat="49.69975" lon="4.78029">
        <ele>150.07</ele>
        <time>2011-02-13T09:22:02Z</time>
      </trkpt>
      <trkpt lat="49.69977" lon="4.78022">
        <ele>150.4</ele>
        <time>2011-02-13T09:22:04Z</time>
      </trkpt>
      <trkpt lat="49.69981" lon="4.78011">
        <ele>150.77</ele>
        <time>2011-02-13T09:22:05Z</time>
      </trkpt>
      <trkpt lat="49.69986" lon="4.78006">
        <ele>151.25</ele>
        <time>2011-02-13T09:22:07Z</time>
      </trkpt>
      <trkpt lat="49.69988" lon="4.78003">
        <ele>151.58</ele>
        <time>2011-02-13T09:22:08Z</time>
      </trkpt>
      <trkpt lat="49.69991" lon="4.77999">
        <ele>151.89</ele>
        <time>2011-02-13T09:22:09Z</time>
      </trkpt>
      <trkpt lat="49.69996" lon="4.77994">
        <ele>152.08</ele>
        <time>2011-02-13T09:22:11Z</time>
      </trkpt>
      <trkpt lat="49.69998" lon="4.77992">
        <ele>151.86</ele>
        <time>2011-02-13T09:22:12Z</time>
      </trkpt>
      <trkpt lat="49.70004" lon="4.77991">
        <ele>151.26</ele>
        <time>2011-02-13T09:22:14Z</time>
      </trkpt>
      <trkpt lat="49.70011" lon="4.7799">
        <ele>150.38</ele>
        <time>2011-02-13T09:22:16Z</time>
      </trkpt>
      <trkpt lat="49.70018" lon="4.77989">
        <ele>149.36</ele>
        <time>2011-02-13T09:22:17Z</time>
      </trkpt>
      <trkpt lat="49.70025" lon="4.77986">
        <ele>148.2</ele>
        <time>2011-02-13T09:22:19Z</time>
      </trkpt>
      <trkpt lat="49.70031" lon="4.77985">
        <ele>146.95</ele>
        <time>2011-02-13T09:22:21Z</time>
      </trkpt>
      <trkpt lat="49.70036" lon="4.77983">
        <ele>146</ele>
        <time>2011-02-13T09:22:23Z</time>
      </trkpt>
      <trkpt lat="49.70038" lon="4.77982">
        <ele>145.75</ele>
        <time>2011-02-13T09:22:24Z</time>
      </trkpt>
      <trkpt lat="49.70044" lon="4.77979">
        <ele>145.34</ele>
        <time>2011-02-13T09:22:26Z</time>
      </trkpt>
      <trkpt lat="49.7005" lon="4.77975">
        <ele>145.13</ele>
        <time>2011-02-13T09:22:28Z</time>
      </trkpt>
      <trkpt lat="49.70056" lon="4.77971">
        <ele>145.43</ele>
        <time>2011-02-13T09:22:31Z</time>
      </trkpt>
      <trkpt lat="49.70062" lon="4.77969">
        <ele>145.874</ele>
        <time>2011-02-13T09:22:32Z</time>
      </trkpt>
      <trkpt lat="49.70065" lon="4.77967">
        <ele>146.136</ele>
        <time>2011-02-13T09:22:33Z</time>
      </trkpt>
      <trkpt lat="49.70071" lon="4.77962">
        <ele>146.891</ele>
        <time>2011-02-13T09:22:35Z</time>
      </trkpt>
      <trkpt lat="49.70077" lon="4.77958">
        <ele>147.55</ele>
        <time>2011-02-13T09:22:37Z</time>
      </trkpt>
      <trkpt lat="49.70082" lon="4.77958">
        <ele>147.979</ele>
        <time>2011-02-13T09:22:39Z</time>
      </trkpt>
      <trkpt lat="49.70086" lon="4.77962">
        <ele>148</ele>
        <time>2011-02-13T09:22:41Z</time>
      </trkpt>
      <trkpt lat="49.70088" lon="4.77965">
        <ele>147.826</ele>
        <time>2011-02-13T09:22:42Z</time>
      </trkpt>
      <trkpt lat="49.7009" lon="4.77969">
        <ele>147.511</ele>
        <time>2011-02-13T09:22:43Z</time>
      </trkpt>
      <trkpt lat="49.70092" lon="4.77973">
        <ele>146.99</ele>
        <time>2011-02-13T09:22:44Z</time>
      </trkpt>
      <trkpt lat="49.70095" lon="4.77982">
        <ele>145.98</ele>
        <time>2011-02-13T09:22:46Z</time>
      </trkpt>
      <trkpt lat="49.70098" lon="4.77989">
        <ele>145.07</ele>
        <time>2011-02-13T09:22:48Z</time>
      </trkpt>
      <trkpt lat="49.70099" lon="4.77994">
        <ele>144.64</ele>
        <time>2011-02-13T09:22:49Z</time>
      </trkpt>
      <trkpt lat="49.70103" lon="4.78003">
        <ele>143.96</ele>
        <time>2011-02-13T09:22:51Z</time>
      </trkpt>
      <trkpt lat="49.70104" lon="4.78008">
        <ele>143.74</ele>
        <time>2011-02-13T09:22:52Z</time>
      </trkpt>
      <trkpt lat="49.70109" lon="4.78017">
        <ele>143.52</ele>
        <time>2011-02-13T09:22:54Z</time>
      </trkpt>
      <trkpt lat="49.70113" lon="4.78024">
        <ele>143.495</ele>
        <time>2011-02-13T09:22:56Z</time>
      </trkpt>
      <trkpt lat="49.70117" lon="4.78031">
        <ele>143.755</ele>
        <time>2011-02-13T09:22:58Z</time>
      </trkpt>
      <trkpt lat="49.70118" lon="4.78034">
        <ele>143.894</ele>
        <time>2011-02-13T09:22:59Z</time>
      </trkpt>
      <trkpt lat="49.70121" lon="4.78041">
        <ele>144.161</ele>
        <time>2011-02-13T09:23:01Z</time>
      </trkpt>
      <trkpt lat="49.70124" lon="4.78049">
        <ele>144.465</ele>
        <time>2011-02-13T09:23:03Z</time>
      </trkpt>
      <trkpt lat="49.70125" lon="4.78052">
        <ele>144.589</ele>
        <time>2011-02-13T09:23:04Z</time>
      </trkpt>
      <trkpt lat="49.70128" lon="4.78059">
        <ele>144.973</ele>
        <time>2011-02-13T09:23:06Z</time>
      </trkpt>
      <trkpt lat="49.70132" lon="4.78066">
        <ele>145.237</ele>
        <time>2011-02-13T09:23:08Z</time>
      </trkpt>
      <trkpt lat="49.70137" lon="4.78073">
        <ele>145.54</ele>
        <time>2011-02-13T09:23:10Z</time>
      </trkpt>
      <trkpt lat="49.70139" lon="4.78076">
        <ele>145.66</ele>
        <time>2011-02-13T09:23:11Z</time>
      </trkpt>
      <trkpt lat="49.70143" lon="4.78083">
        <ele>145.882</ele>
        <time>2011-02-13T09:23:13Z</time>
      </trkpt>
      <trkpt lat="49.70144" lon="4.78086">
        <ele>145.975</ele>
        <time>2011-02-13T09:23:14Z</time>
      </trkpt>
      <trkpt lat="49.70148" lon="4.78088">
        <ele>146.112</ele>
        <time>2011-02-13T09:23:15Z</time>
      </trkpt>
      <trkpt lat="49.7015" lon="4.78089">
        <ele>146.378</ele>
        <time>2011-02-13T09:23:17Z</time>
      </trkpt>
      <trkpt lat="49.70155" lon="4.78087">
        <ele>146.795</ele>
        <time>2011-02-13T09:23:18Z</time>
      </trkpt>
      <trkpt lat="49.70156" lon="4.78084">
        <ele>147.07</ele>
        <time>2011-02-13T09:23:20Z</time>
      </trkpt>
      <trkpt lat="49.70158" lon="4.7808">
        <ele>147.69</ele>
        <time>2011-02-13T09:23:22Z</time>
      </trkpt>
      <trkpt lat="49.70162" lon="4.78076">
        <ele>148.38</ele>
        <time>2011-02-13T09:23:25Z</time>
      </trkpt>
      <trkpt lat="49.70165" lon="4.78073">
        <ele>148.72</ele>
        <time>2011-02-13T09:23:26Z</time>
      </trkpt>
      <trkpt lat="49.70168" lon="4.78068">
        <ele>149.35</ele>
        <time>2011-02-13T09:23:27Z</time>
      </trkpt>
      <trkpt lat="49.70172" lon="4.78063">
        <ele>150.03</ele>
        <time>2011-02-13T09:23:29Z</time>
      </trkpt>
      <trkpt lat="49.70176" lon="4.7806">
        <ele>150.15</ele>
        <time>2011-02-13T09:23:31Z</time>
      </trkpt>
      <trkpt lat="49.70178" lon="4.78059">
        <ele>150</ele>
        <time>2011-02-13T09:23:32Z</time>
      </trkpt>
      <trkpt lat="49.7018" lon="4.78059">
        <ele>149.77</ele>
        <time>2011-02-13T09:23:34Z</time>
      </trkpt>
      <trkpt lat="49.70183" lon="4.78057">
        <ele>149.17</ele>
        <time>2011-02-13T09:23:35Z</time>
      </trkpt>
      <trkpt lat="49.70184" lon="4.78055">
        <ele>148.8</ele>
        <time>2011-02-13T09:23:36Z</time>
      </trkpt>
      <trkpt lat="49.70186" lon="4.78053">
        <ele>148.29</ele>
        <time>2011-02-13T09:23:37Z</time>
      </trkpt>
      <trkpt lat="49.70189" lon="4.78048">
        <ele>147.36</ele>
        <time>2011-02-13T09:23:39Z</time>
      </trkpt>
      <trkpt lat="49.70192" lon="4.78042">
        <ele>146.73</ele>
        <time>2011-02-13T09:23:41Z</time>
      </trkpt>
      <trkpt lat="49.70193" lon="4.78039">
        <ele>146.59</ele>
        <time>2011-02-13T09:23:42Z</time>
      </trkpt>
      <trkpt lat="49.70193" lon="4.78036">
        <ele>146.46</ele>
        <time>2011-02-13T09:23:43Z</time>
      </trkpt>
      <trkpt lat="49.70195" lon="4.78031">
        <ele>146.41</ele>
        <time>2011-02-13T09:23:45Z</time>
      </trkpt>
      <trkpt lat="49.70195" lon="4.78028">
        <ele>146.47</ele>
        <time>2011-02-13T09:23:46Z</time>
      </trkpt>
      <trkpt lat="49.70196" lon="4.78023">
        <ele>146.54</ele>
        <time>2011-02-13T09:23:48Z</time>
      </trkpt>
      <trkpt lat="49.70197" lon="4.7802">
        <ele>146.56</ele>
        <time>2011-02-13T09:23:49Z</time>
      </trkpt>
      <trkpt lat="49.70198" lon="4.78017">
        <ele>146.65</ele>
        <time>2011-02-13T09:23:50Z</time>
      </trkpt>
      <trkpt lat="49.702" lon="4.78012">
        <ele>146.901</ele>
        <time>2011-02-13T09:23:52Z</time>
      </trkpt>
      <trkpt lat="49.702" lon="4.78009">
        <ele>147.035</ele>
        <time>2011-02-13T09:23:53Z</time>
      </trkpt>
      <trkpt lat="49.70201" lon="4.78001">
        <ele>147.303</ele>
        <time>2011-02-13T09:23:55Z</time>
      </trkpt>
      <trkpt lat="49.70201" lon="4.77993">
        <ele>147.561</ele>
        <time>2011-02-13T09:23:56Z</time>
      </trkpt>
      <trkpt lat="49.702" lon="4.77987">
        <ele>147.816</ele>
        <time>2011-02-13T09:23:58Z</time>
      </trkpt>
      <trkpt lat="49.70199" lon="4.77985">
        <ele>147.837</ele>
        <time>2011-02-13T09:23:59Z</time>
      </trkpt>
      <trkpt lat="49.70196" lon="4.77979">
        <ele>147.774</ele>
        <time>2011-02-13T09:24:01Z</time>
      </trkpt>
      <trkpt lat="49.70193" lon="4.77972">
        <ele>147.427</ele>
        <time>2011-02-13T09:24:03Z</time>
      </trkpt>
      <trkpt lat="49.70189" lon="4.77966">
        <ele>146.887</ele>
        <time>2011-02-13T09:24:05Z</time>
      </trkpt>
      <trkpt lat="49.70187" lon="4.7796">
        <ele>146.24</ele>
        <time>2011-02-13T09:24:07Z</time>
      </trkpt>
      <trkpt lat="49.70184" lon="4.77955">
        <ele>145.78</ele>
        <time>2011-02-13T09:24:08Z</time>
      </trkpt>
      <trkpt lat="49.70182" lon="4.77949">
        <ele>145.59</ele>
        <time>2011-02-13T09:24:11Z</time>
      </trkpt>
      <trkpt lat="49.7018" lon="4.77945">
        <ele>145.74</ele>
        <time>2011-02-13T09:24:12Z</time>
      </trkpt>
      <trkpt lat="49.70178" lon="4.7794">
        <ele>146.27</ele>
        <time>2011-02-13T09:24:14Z</time>
      </trkpt>
      <trkpt lat="49.70177" lon="4.77937">
        <ele>146.6</ele>
        <time>2011-02-13T09:24:15Z</time>
      </trkpt>
      <trkpt lat="49.70174" lon="4.77929">
        <ele>147.24</ele>
        <time>2011-02-13T09:24:17Z</time>
      </trkpt>
      <trkpt lat="49.70173" lon="4.77925">
        <ele>147.49</ele>
        <time>2011-02-13T09:24:18Z</time>
      </trkpt>
      <trkpt lat="49.70171" lon="4.77922">
        <ele>147.66</ele>
        <time>2011-02-13T09:24:19Z</time>
      </trkpt>
      <trkpt lat="49.70168" lon="4.77918">
        <ele>147.85</ele>
        <time>2011-02-13T09:24:21Z</time>
      </trkpt>
      <trkpt lat="49.70166" lon="4.77915">
        <ele>147.78</ele>
        <time>2011-02-13T09:24:22Z</time>
      </trkpt>
      <trkpt lat="49.70163" lon="4.7791">
        <ele>147.56</ele>
        <time>2011-02-13T09:24:24Z</time>
      </trkpt>
      <trkpt lat="49.7016" lon="4.77905">
        <ele>147.37</ele>
        <time>2011-02-13T09:24:25Z</time>
      </trkpt>
      <trkpt lat="49.70157" lon="4.779">
        <ele>147.48</ele>
        <time>2011-02-13T09:24:26Z</time>
      </trkpt>
      <trkpt lat="49.70155" lon="4.77898">
        <ele>147.72</ele>
        <time>2011-02-13T09:24:27Z</time>
      </trkpt>
      <trkpt lat="49.70154" lon="4.77895">
        <ele>148.03</ele>
        <time>2011-02-13T09:24:29Z</time>
      </trkpt>
      <trkpt lat="49.70152" lon="4.77891">
        <ele>148.74</ele>
        <time>2011-02-13T09:24:30Z</time>
      </trkpt>
      <trkpt lat="49.7015" lon="4.77886">
        <ele>149.47</ele>
        <time>2011-02-13T09:24:32Z</time>
      </trkpt>
      <trkpt lat="49.70148" lon="4.77882">
        <ele>150.26</ele>
        <time>2011-02-13T09:24:34Z</time>
      </trkpt>
      <trkpt lat="49.70145" lon="4.77876">
        <ele>150.67</ele>
        <time>2011-02-13T09:24:36Z</time>
      </trkpt>
      <trkpt lat="49.70142" lon="4.7787">
        <ele>150.62</ele>
        <time>2011-02-13T09:24:37Z</time>
      </trkpt>
      <trkpt lat="49.7014" lon="4.77865">
        <ele>150.62</ele>
        <time>2011-02-13T09:24:39Z</time>
      </trkpt>
      <trkpt lat="49.70137" lon="4.7786">
        <ele>150.83</ele>
        <time>2011-02-13T09:24:40Z</time>
      </trkpt>
      <trkpt lat="49.70136" lon="4.77857">
        <ele>150.95</ele>
        <time>2011-02-13T09:24:42Z</time>
      </trkpt>
      <trkpt lat="49.70134" lon="4.77853">
        <ele>151.16</ele>
        <time>2011-02-13T09:24:43Z</time>
      </trkpt>
      <trkpt lat="49.70132" lon="4.77846">
        <ele>151.43</ele>
        <time>2011-02-13T09:24:45Z</time>
      </trkpt>
      <trkpt lat="49.70131" lon="4.77842">
        <ele>151.48</ele>
        <time>2011-02-13T09:24:46Z</time>
      </trkpt>
      <trkpt lat="49.70129" lon="4.77838">
        <ele>151.51</ele>
        <time>2011-02-13T09:24:47Z</time>
      </trkpt>
      <trkpt lat="49.70127" lon="4.77828">
        <ele>151.58</ele>
        <time>2011-02-13T09:24:49Z</time>
      </trkpt>
      <trkpt lat="49.70127" lon="4.77824">
        <ele>151.5</ele>
        <time>2011-02-13T09:24:50Z</time>
      </trkpt>
      <trkpt lat="49.70126" lon="4.77819">
        <ele>151.47</ele>
        <time>2011-02-13T09:24:51Z</time>
      </trkpt>
      <trkpt lat="49.70125" lon="4.77809">
        <ele>151.46</ele>
        <time>2011-02-13T09:24:53Z</time>
      </trkpt>
      <trkpt lat="49.70125" lon="4.77802">
        <ele>151.62</ele>
        <time>2011-02-13T09:24:54Z</time>
      </trkpt>
      <trkpt lat="49.70126" lon="4.77799">
        <ele>151.78</ele>
        <time>2011-02-13T09:24:55Z</time>
      </trkpt>
      <trkpt lat="49.70127" lon="4.77795">
        <ele>151.98</ele>
        <time>2011-02-13T09:24:57Z</time>
      </trkpt>
      <trkpt lat="49.70128" lon="4.77792">
        <ele>151.98</ele>
        <time>2011-02-13T09:24:58Z</time>
      </trkpt>
      <trkpt lat="49.7013" lon="4.77789">
        <ele>151.95</ele>
        <time>2011-02-13T09:24:59Z</time>
      </trkpt>
      <trkpt lat="49.70134" lon="4.77784">
        <ele>151.38</ele>
        <time>2011-02-13T09:25:01Z</time>
      </trkpt>
      <trkpt lat="49.70139" lon="4.77779">
        <ele>150.59</ele>
        <time>2011-02-13T09:25:02Z</time>
      </trkpt>
      <trkpt lat="49.70144" lon="4.77773">
        <ele>149.58</ele>
        <time>2011-02-13T09:25:03Z</time>
      </trkpt>
      <trkpt lat="49.70149" lon="4.77764">
        <ele>148.35</ele>
        <time>2011-02-13T09:25:05Z</time>
      </trkpt>
      <trkpt lat="49.70154" lon="4.77755">
        <ele>147.24</ele>
        <time>2011-02-13T09:25:07Z</time>
      </trkpt>
      <trkpt lat="49.70161" lon="4.77747">
        <ele>146.68</ele>
        <time>2011-02-13T09:25:09Z</time>
      </trkpt>
      <trkpt lat="49.70168" lon="4.77741">
        <ele>146.988</ele>
        <time>2011-02-13T09:25:11Z</time>
      </trkpt>
      <trkpt lat="49.70172" lon="4.77737">
        <ele>147.273</ele>
        <time>2011-02-13T09:25:12Z</time>
      </trkpt>
      <trkpt lat="49.70177" lon="4.77729">
        <ele>147.947</ele>
        <time>2011-02-13T09:25:15Z</time>
      </trkpt>
      <trkpt lat="49.70181" lon="4.77722">
        <ele>148.733</ele>
        <time>2011-02-13T09:25:16Z</time>
      </trkpt>
      <trkpt lat="49.70182" lon="4.77715">
        <ele>149.416</ele>
        <time>2011-02-13T09:25:17Z</time>
      </trkpt>
      <trkpt lat="49.70185" lon="4.77707">
        <ele>150.141</ele>
        <time>2011-02-13T09:25:19Z</time>
      </trkpt>
      <trkpt lat="49.70186" lon="4.77703">
        <ele>150.288</ele>
        <time>2011-02-13T09:25:20Z</time>
      </trkpt>
      <trkpt lat="49.70188" lon="4.77695">
        <ele>150.696</ele>
        <time>2011-02-13T09:25:22Z</time>
      </trkpt>
      <trkpt lat="49.70187" lon="4.77688">
        <ele>151.159</ele>
        <time>2011-02-13T09:25:24Z</time>
      </trkpt>
      <trkpt lat="49.70187" lon="4.77684">
        <ele>151.416</ele>
        <time>2011-02-13T09:25:26Z</time>
      </trkpt>
      <trkpt lat="49.70187" lon="4.77677">
        <ele>151.912</ele>
        <time>2011-02-13T09:25:27Z</time>
      </trkpt>
      <trkpt lat="49.70188" lon="4.77668">
        <ele>151.719</ele>
        <time>2011-02-13T09:25:29Z</time>
      </trkpt>
      <trkpt lat="49.70189" lon="4.77659">
        <ele>151.58</ele>
        <time>2011-02-13T09:25:30Z</time>
      </trkpt>
      <trkpt lat="49.7019" lon="4.77648">
        <ele>151.521</ele>
        <time>2011-02-13T09:25:31Z</time>
      </trkpt>
      <trkpt lat="49.70191" lon="4.77645">
        <ele>151.517</ele>
        <time>2011-02-13T09:25:32Z</time>
      </trkpt>
      <trkpt lat="49.70195" lon="4.77639">
        <ele>151.56</ele>
        <time>2011-02-13T09:25:34Z</time>
      </trkpt>
      <trkpt lat="49.70198" lon="4.77638">
        <ele>151.67</ele>
        <time>2011-02-13T09:25:35Z</time>
      </trkpt>
      <trkpt lat="49.70201" lon="4.77637">
        <ele>151.83</ele>
        <time>2011-02-13T09:25:37Z</time>
      </trkpt>
      <trkpt lat="49.70206" lon="4.77635">
        <ele>151.98</ele>
        <time>2011-02-13T09:25:38Z</time>
      </trkpt>
      <trkpt lat="49.70208" lon="4.77634">
        <ele>152.06</ele>
        <time>2011-02-13T09:25:39Z</time>
      </trkpt>
      <trkpt lat="49.70212" lon="4.7763">
        <ele>152.2</ele>
        <time>2011-02-13T09:25:41Z</time>
      </trkpt>
      <trkpt lat="49.70215" lon="4.77627">
        <ele>152.24</ele>
        <time>2011-02-13T09:25:42Z</time>
      </trkpt>
      <trkpt lat="49.70219" lon="4.77623">
        <ele>152.3</ele>
        <time>2011-02-13T09:25:44Z</time>
      </trkpt>
      <trkpt lat="49.70222" lon="4.7762">
        <ele>152.31</ele>
        <time>2011-02-13T09:25:45Z</time>
      </trkpt>
      <trkpt lat="49.70225" lon="4.77619">
        <ele>152.24</ele>
        <time>2011-02-13T09:25:47Z</time>
      </trkpt>
      <trkpt lat="49.70228" lon="4.77617">
        <ele>152.04</ele>
        <time>2011-02-13T09:25:48Z</time>
      </trkpt>
      <trkpt lat="49.7023" lon="4.77616">
        <ele>151.93</ele>
        <time>2011-02-13T09:25:49Z</time>
      </trkpt>
      <trkpt lat="49.70235" lon="4.77614">
        <ele>151.46</ele>
        <time>2011-02-13T09:25:51Z</time>
      </trkpt>
      <trkpt lat="49.70241" lon="4.77612">
        <ele>150.89</ele>
        <time>2011-02-13T09:25:52Z</time>
      </trkpt>
      <trkpt lat="49.70246" lon="4.7761">
        <ele>150.17</ele>
        <time>2011-02-13T09:25:54Z</time>
      </trkpt>
      <trkpt lat="49.70249" lon="4.77609">
        <ele>149.41</ele>
        <time>2011-02-13T09:25:55Z</time>
      </trkpt>
      <trkpt lat="49.70253" lon="4.77608">
        <ele>148.86</ele>
        <time>2011-02-13T09:25:57Z</time>
      </trkpt>
      <trkpt lat="49.70259" lon="4.77605">
        <ele>148.61</ele>
        <time>2011-02-13T09:25:59Z</time>
      </trkpt>
      <trkpt lat="49.70264" lon="4.77603">
        <ele>148.67</ele>
        <time>2011-02-13T09:26:00Z</time>
      </trkpt>
      <trkpt lat="49.70269" lon="4.776">
        <ele>149.12</ele>
        <time>2011-02-13T09:26:01Z</time>
      </trkpt>
      <trkpt lat="49.70271" lon="4.776">
        <ele>149.57</ele>
        <time>2011-02-13T09:26:02Z</time>
      </trkpt>
      <trkpt lat="49.70277" lon="4.77598">
        <ele>150.34</ele>
        <time>2011-02-13T09:26:04Z</time>
      </trkpt>
      <trkpt lat="49.70282" lon="4.77595">
        <ele>151.03</ele>
        <time>2011-02-13T09:26:06Z</time>
      </trkpt>
      <trkpt lat="49.70284" lon="4.77593">
        <ele>151.38</ele>
        <time>2011-02-13T09:26:07Z</time>
      </trkpt>
      <trkpt lat="49.7029" lon="4.77587">
        <ele>151.83</ele>
        <time>2011-02-13T09:26:10Z</time>
      </trkpt>
      <trkpt lat="49.70294" lon="4.77583">
        <ele>151.94</ele>
        <time>2011-02-13T09:26:11Z</time>
      </trkpt>
      <trkpt lat="49.70299" lon="4.77579">
        <ele>151.67</ele>
        <time>2011-02-13T09:26:12Z</time>
      </trkpt>
      <trkpt lat="49.70304" lon="4.77575">
        <ele>151.73</ele>
        <time>2011-02-13T09:26:14Z</time>
      </trkpt>
      <trkpt lat="49.7031" lon="4.77571">
        <ele>151.72</ele>
        <time>2011-02-13T09:26:17Z</time>
      </trkpt>
      <trkpt lat="49.70317" lon="4.77564">
        <ele>152.02</ele>
        <time>2011-02-13T09:26:18Z</time>
      </trkpt>
      <trkpt lat="49.7032" lon="4.77559">
        <ele>152.54</ele>
        <time>2011-02-13T09:26:21Z</time>
      </trkpt>
      <trkpt lat="49.70323" lon="4.77556">
        <ele>153.01</ele>
        <time>2011-02-13T09:26:22Z</time>
      </trkpt>
      <trkpt lat="49.70327" lon="4.77553">
        <ele>153.15</ele>
        <time>2011-02-13T09:26:24Z</time>
      </trkpt>
      <trkpt lat="49.70332" lon="4.77549">
        <ele>153.19</ele>
        <time>2011-02-13T09:26:26Z</time>
      </trkpt>
      <trkpt lat="49.70337" lon="4.77546">
        <ele>153.05</ele>
        <time>2011-02-13T09:26:28Z</time>
      </trkpt>
      <trkpt lat="49.7034" lon="4.77545">
        <ele>152.75</ele>
        <time>2011-02-13T09:26:29Z</time>
      </trkpt>
      <trkpt lat="49.70346" lon="4.77543">
        <ele>151.84</ele>
        <time>2011-02-13T09:26:31Z</time>
      </trkpt>
      <trkpt lat="49.70349" lon="4.77542">
        <ele>151.44</ele>
        <time>2011-02-13T09:26:32Z</time>
      </trkpt>
      <trkpt lat="49.70352" lon="4.77541">
        <ele>151.07</ele>
        <time>2011-02-13T09:26:33Z</time>
      </trkpt>
      <trkpt lat="49.70359" lon="4.77538">
        <ele>150.27</ele>
        <time>2011-02-13T09:26:35Z</time>
      </trkpt>
      <trkpt lat="49.70365" lon="4.77534">
        <ele>149.45</ele>
        <time>2011-02-13T09:26:37Z</time>
      </trkpt>
      <trkpt lat="49.70369" lon="4.77531">
        <ele>149.12</ele>
        <time>2011-02-13T09:26:38Z</time>
      </trkpt>
      <trkpt lat="49.70375" lon="4.77527">
        <ele>148.71</ele>
        <time>2011-02-13T09:26:40Z</time>
      </trkpt>
      <trkpt lat="49.70381" lon="4.77524">
        <ele>148.21</ele>
        <time>2011-02-13T09:26:42Z</time>
      </trkpt>
      <trkpt lat="49.70386" lon="4.77521">
        <ele>147.75</ele>
        <time>2011-02-13T09:26:44Z</time>
      </trkpt>
      <trkpt lat="49.70389" lon="4.7752">
        <ele>147.64</ele>
        <time>2011-02-13T09:26:45Z</time>
      </trkpt>
      <trkpt lat="49.70394" lon="4.77516">
        <ele>147.44</ele>
        <time>2011-02-13T09:26:47Z</time>
      </trkpt>
      <trkpt lat="49.70399" lon="4.77512">
        <ele>147.16</ele>
        <time>2011-02-13T09:26:49Z</time>
      </trkpt>
      <trkpt lat="49.70404" lon="4.77509">
        <ele>146.97</ele>
        <time>2011-02-13T09:26:51Z</time>
      </trkpt>
      <trkpt lat="49.70409" lon="4.77504">
        <ele>147.12</ele>
        <time>2011-02-13T09:26:53Z</time>
      </trkpt>
      <trkpt lat="49.70412" lon="4.77502">
        <ele>147.2</ele>
        <time>2011-02-13T09:26:54Z</time>
      </trkpt>
      <trkpt lat="49.70414" lon="4.77499">
        <ele>147.22</ele>
        <time>2011-02-13T09:26:55Z</time>
      </trkpt>
      <trkpt lat="49.7042" lon="4.77494">
        <ele>147.23</ele>
        <time>2011-02-13T09:26:57Z</time>
      </trkpt>
      <trkpt lat="49.70422" lon="4.77492">
        <ele>147.27</ele>
        <time>2011-02-13T09:26:58Z</time>
      </trkpt>
      <trkpt lat="49.70428" lon="4.77488">
        <ele>147.13</ele>
        <time>2011-02-13T09:27:00Z</time>
      </trkpt>
      <trkpt lat="49.70431" lon="4.77486">
        <ele>146.99</ele>
        <time>2011-02-13T09:27:01Z</time>
      </trkpt>
      <trkpt lat="49.70436" lon="4.77481">
        <ele>146.27</ele>
        <time>2011-02-13T09:27:03Z</time>
      </trkpt>
      <trkpt lat="49.70439" lon="4.77479">
        <ele>145.89</ele>
        <time>2011-02-13T09:27:04Z</time>
      </trkpt>
      <trkpt lat="49.70442" lon="4.77477">
        <ele>145.59</ele>
        <time>2011-02-13T09:27:05Z</time>
      </trkpt>
      <trkpt lat="49.70444" lon="4.77474">
        <ele>145.4</ele>
        <time>2011-02-13T09:27:06Z</time>
      </trkpt>
      <trkpt lat="49.70449" lon="4.7747">
        <ele>145.06</ele>
        <time>2011-02-13T09:27:08Z</time>
      </trkpt>
      <trkpt lat="49.70454" lon="4.77468">
        <ele>145.04</ele>
        <time>2011-02-13T09:27:10Z</time>
      </trkpt>
      <trkpt lat="49.7046" lon="4.77466">
        <ele>145.02</ele>
        <time>2011-02-13T09:27:12Z</time>
      </trkpt>
      <trkpt lat="49.70464" lon="4.77465">
        <ele>145.11</ele>
        <time>2011-02-13T09:27:13Z</time>
      </trkpt>
      <trkpt lat="49.70468" lon="4.77463">
        <ele>144.83</ele>
        <time>2011-02-13T09:27:15Z</time>
      </trkpt>
      <trkpt lat="49.70471" lon="4.7746">
        <ele>144.46</ele>
        <time>2011-02-13T09:27:17Z</time>
      </trkpt>
      <trkpt lat="49.70474" lon="4.77458">
        <ele>144.13</ele>
        <time>2011-02-13T09:27:18Z</time>
      </trkpt>
      <trkpt lat="49.70476" lon="4.77457">
        <ele>144.05</ele>
        <time>2011-02-13T09:27:19Z</time>
      </trkpt>
      <trkpt lat="49.70478" lon="4.77457">
        <ele>144.1</ele>
        <time>2011-02-13T09:27:20Z</time>
      </trkpt>
      <trkpt lat="49.70482" lon="4.77454">
        <ele>144.33</ele>
        <time>2011-02-13T09:27:22Z</time>
      </trkpt>
      <trkpt lat="49.70487" lon="4.77446">
        <ele>145.27</ele>
        <time>2011-02-13T09:27:24Z</time>
      </trkpt>
      <trkpt lat="49.7049" lon="4.77443">
        <ele>145.96</ele>
        <time>2011-02-13T09:27:25Z</time>
      </trkpt>
      <trkpt lat="49.70492" lon="4.77439">
        <ele>146.5</ele>
        <time>2011-02-13T09:27:27Z</time>
      </trkpt>
      <trkpt lat="49.70496" lon="4.77435">
        <ele>147.4</ele>
        <time>2011-02-13T09:27:28Z</time>
      </trkpt>
      <trkpt lat="49.70497" lon="4.77434">
        <ele>147.74</ele>
        <time>2011-02-13T09:27:29Z</time>
      </trkpt>
      <trkpt lat="49.70501" lon="4.77431">
        <ele>148.19</ele>
        <time>2011-02-13T09:27:31Z</time>
      </trkpt>
      <trkpt lat="49.70505" lon="4.77428">
        <ele>148.46</ele>
        <time>2011-02-13T09:27:33Z</time>
      </trkpt>
      <trkpt lat="49.70507" lon="4.77426">
        <ele>148.71</ele>
        <time>2011-02-13T09:27:35Z</time>
      </trkpt>
      <trkpt lat="49.7051" lon="4.77423">
        <ele>149.17</ele>
        <time>2011-02-13T09:27:36Z</time>
      </trkpt>
      <trkpt lat="49.70513" lon="4.7742">
        <ele>149.29</ele>
        <time>2011-02-13T09:27:38Z</time>
      </trkpt>
      <trkpt lat="49.70516" lon="4.77417">
        <ele>149.44</ele>
        <time>2011-02-13T09:27:40Z</time>
      </trkpt>
      <trkpt lat="49.70519" lon="4.77414">
        <ele>149.56</ele>
        <time>2011-02-13T09:27:42Z</time>
      </trkpt>
      <trkpt lat="49.70524" lon="4.77411">
        <ele>149.35</ele>
        <time>2011-02-13T09:27:44Z</time>
      </trkpt>
      <trkpt lat="49.70528" lon="4.77409">
        <ele>149.16</ele>
        <time>2011-02-13T09:27:45Z</time>
      </trkpt>
      <trkpt lat="49.70532" lon="4.77406">
        <ele>149.02</ele>
        <time>2011-02-13T09:27:47Z</time>
      </trkpt>
      <trkpt lat="49.70538" lon="4.77401">
        <ele>148.93</ele>
        <time>2011-02-13T09:27:49Z</time>
      </trkpt>
      <trkpt lat="49.70542" lon="4.77398">
        <ele>148.96</ele>
        <time>2011-02-13T09:27:50Z</time>
      </trkpt>
      <trkpt lat="49.70547" lon="4.77395">
        <ele>148.92</ele>
        <time>2011-02-13T09:27:52Z</time>
      </trkpt>
      <trkpt lat="49.70551" lon="4.77392">
        <ele>148.64</ele>
        <time>2011-02-13T09:27:53Z</time>
      </trkpt>
      <trkpt lat="49.70554" lon="4.7739">
        <ele>148.36</ele>
        <time>2011-02-13T09:27:54Z</time>
      </trkpt>
      <trkpt lat="49.70559" lon="4.77388">
        <ele>147.78</ele>
        <time>2011-02-13T09:27:56Z</time>
      </trkpt>
      <trkpt lat="49.70563" lon="4.77385">
        <ele>147.38</ele>
        <time>2011-02-13T09:27:58Z</time>
      </trkpt>
      <trkpt lat="49.70566" lon="4.77381">
        <ele>147.02</ele>
        <time>2011-02-13T09:27:59Z</time>
      </trkpt>
      <trkpt lat="49.7057" lon="4.77378">
        <ele>147.06</ele>
        <time>2011-02-13T09:28:01Z</time>
      </trkpt>
      <trkpt lat="49.70572" lon="4.77376">
        <ele>147.16</ele>
        <time>2011-02-13T09:28:02Z</time>
      </trkpt>
      <trkpt lat="49.70575" lon="4.77374">
        <ele>147.38</ele>
        <time>2011-02-13T09:28:03Z</time>
      </trkpt>
      <trkpt lat="49.70577" lon="4.77372">
        <ele>147.62</ele>
        <time>2011-02-13T09:28:04Z</time>
      </trkpt>
      <trkpt lat="49.70582" lon="4.77369">
        <ele>148.05</ele>
        <time>2011-02-13T09:28:06Z</time>
      </trkpt>
      <trkpt lat="49.70584" lon="4.77366">
        <ele>148.55</ele>
        <time>2011-02-13T09:28:07Z</time>
      </trkpt>
      <trkpt lat="49.70588" lon="4.7736">
        <ele>149.67</ele>
        <time>2011-02-13T09:28:09Z</time>
      </trkpt>
      <trkpt lat="49.70591" lon="4.77355">
        <ele>150.46</ele>
        <time>2011-02-13T09:28:11Z</time>
      </trkpt>
      <trkpt lat="49.70596" lon="4.77355">
        <ele>151.07</ele>
        <time>2011-02-13T09:28:13Z</time>
      </trkpt>
      <trkpt lat="49.70598" lon="4.77355">
        <ele>151.38</ele>
        <time>2011-02-13T09:28:14Z</time>
      </trkpt>
      <trkpt lat="49.70602" lon="4.77353">
        <ele>151.97</ele>
        <time>2011-02-13T09:28:16Z</time>
      </trkpt>
      <trkpt lat="49.70604" lon="4.77352">
        <ele>151.9</ele>
        <time>2011-02-13T09:28:17Z</time>
      </trkpt>
      <trkpt lat="49.70608" lon="4.77349">
        <ele>151.57</ele>
        <time>2011-02-13T09:28:19Z</time>
      </trkpt>
      <trkpt lat="49.70612" lon="4.77346">
        <ele>151.2</ele>
        <time>2011-02-13T09:28:20Z</time>
      </trkpt>
      <trkpt lat="49.70615" lon="4.77344">
        <ele>151</ele>
        <time>2011-02-13T09:28:22Z</time>
      </trkpt>
      <trkpt lat="49.70622" lon="4.77341">
        <ele>150.17</ele>
        <time>2011-02-13T09:28:23Z</time>
      </trkpt>
      <trkpt lat="49.70624" lon="4.7734">
        <ele>149.94</ele>
        <time>2011-02-13T09:28:25Z</time>
      </trkpt>
      <trkpt lat="49.70628" lon="4.77339">
        <ele>149.56</ele>
        <time>2011-02-13T09:28:26Z</time>
      </trkpt>
      <trkpt lat="49.70631" lon="4.77338">
        <ele>149.18</ele>
        <time>2011-02-13T09:28:27Z</time>
      </trkpt>
      <trkpt lat="49.70633" lon="4.77336">
        <ele>149.01</ele>
        <time>2011-02-13T09:28:29Z</time>
      </trkpt>
      <trkpt lat="49.70636" lon="4.77334">
        <ele>148.73</ele>
        <time>2011-02-13T09:28:30Z</time>
      </trkpt>
      <trkpt lat="49.70641" lon="4.7733">
        <ele>148.583</ele>
        <time>2011-02-13T09:28:32Z</time>
      </trkpt>
      <trkpt lat="49.70649" lon="4.77324">
        <ele>148.178</ele>
        <time>2011-02-13T09:28:34Z</time>
      </trkpt>
      <trkpt lat="49.70652" lon="4.77322">
        <ele>147.984</ele>
        <time>2011-02-13T09:28:35Z</time>
      </trkpt>
      <trkpt lat="49.70654" lon="4.77321">
        <ele>147.963</ele>
        <time>2011-02-13T09:28:36Z</time>
      </trkpt>
      <trkpt lat="49.70658" lon="4.77318">
        <ele>147.943</ele>
        <time>2011-02-13T09:28:37Z</time>
      </trkpt>
      <trkpt lat="49.7066" lon="4.77316">
        <ele>148.005</ele>
        <time>2011-02-13T09:28:39Z</time>
      </trkpt>
      <trkpt lat="49.70663" lon="4.77313">
        <ele>148.117</ele>
        <time>2011-02-13T09:28:40Z</time>
      </trkpt>
      <trkpt lat="49.70667" lon="4.7731">
        <ele>148.377</ele>
        <time>2011-02-13T09:28:42Z</time>
      </trkpt>
      <trkpt lat="49.70673" lon="4.77304">
        <ele>149.096</ele>
        <time>2011-02-13T09:28:44Z</time>
      </trkpt>
      <trkpt lat="49.70675" lon="4.77302">
        <ele>149.596</ele>
        <time>2011-02-13T09:28:45Z</time>
      </trkpt>
      <trkpt lat="49.70678" lon="4.77299">
        <ele>149.714</ele>
        <time>2011-02-13T09:28:47Z</time>
      </trkpt>
      <trkpt lat="49.70681" lon="4.77297">
        <ele>149.68</ele>
        <time>2011-02-13T09:28:48Z</time>
      </trkpt>
      <trkpt lat="49.70683" lon="4.77295">
        <ele>149.56</ele>
        <time>2011-02-13T09:28:49Z</time>
      </trkpt>
      <trkpt lat="49.70685" lon="4.77292">
        <ele>149.36</ele>
        <time>2011-02-13T09:28:50Z</time>
      </trkpt>
      <trkpt lat="49.70687" lon="4.7729">
        <ele>149.02</ele>
        <time>2011-02-13T09:28:51Z</time>
      </trkpt>
      <trkpt lat="49.70693" lon="4.77284">
        <ele>148.06</ele>
        <time>2011-02-13T09:28:53Z</time>
      </trkpt>
      <trkpt lat="49.707" lon="4.77279">
        <ele>147.18</ele>
        <time>2011-02-13T09:28:55Z</time>
      </trkpt>
      <trkpt lat="49.70705" lon="4.77275">
        <ele>146.64</ele>
        <time>2011-02-13T09:28:57Z</time>
      </trkpt>
      <trkpt lat="49.70708" lon="4.77273">
        <ele>146.47</ele>
        <time>2011-02-13T09:28:58Z</time>
      </trkpt>
      <trkpt lat="49.70713" lon="4.7727">
        <ele>146.421</ele>
        <time>2011-02-13T09:29:00Z</time>
      </trkpt>
      <trkpt lat="49.70715" lon="4.77269">
        <ele>146.453</ele>
        <time>2011-02-13T09:29:01Z</time>
      </trkpt>
      <trkpt lat="49.70717" lon="4.77268">
        <ele>146.535</ele>
        <time>2011-02-13T09:29:02Z</time>
      </trkpt>
      <trkpt lat="49.70722" lon="4.77269">
        <ele>146.647</ele>
        <time>2011-02-13T09:29:04Z</time>
      </trkpt>
      <trkpt lat="49.70728" lon="4.77275">
        <ele>146.577</ele>
        <time>2011-02-13T09:29:06Z</time>
      </trkpt>
      <trkpt lat="49.70732" lon="4.77279">
        <ele>146.324</ele>
        <time>2011-02-13T09:29:07Z</time>
      </trkpt>
      <trkpt lat="49.70735" lon="4.77285">
        <ele>146.017</ele>
        <time>2011-02-13T09:29:08Z</time>
      </trkpt>
      <trkpt lat="49.7074" lon="4.77297">
        <ele>145.28</ele>
        <time>2011-02-13T09:29:10Z</time>
      </trkpt>
      <trkpt lat="49.70742" lon="4.77303">
        <ele>144.895</ele>
        <time>2011-02-13T09:29:11Z</time>
      </trkpt>
      <trkpt lat="49.70744" lon="4.77309">
        <ele>144.553</ele>
        <time>2011-02-13T09:29:12Z</time>
      </trkpt>
      <trkpt lat="49.7075" lon="4.77316">
        <ele>144.209</ele>
        <time>2011-02-13T09:29:14Z</time>
      </trkpt>
      <trkpt lat="49.70756" lon="4.7732">
        <ele>144.441</ele>
        <time>2011-02-13T09:29:15Z</time>
      </trkpt>
      <trkpt lat="49.70759" lon="4.7732">
        <ele>144.869</ele>
        <time>2011-02-13T09:29:17Z</time>
      </trkpt>
      <trkpt lat="49.70763" lon="4.7732">
        <ele>145.676</ele>
        <time>2011-02-13T09:29:18Z</time>
      </trkpt>
      <trkpt lat="49.70766" lon="4.7732">
        <ele>146.012</ele>
        <time>2011-02-13T09:29:19Z</time>
      </trkpt>
      <trkpt lat="49.70768" lon="4.7732">
        <ele>146.278</ele>
        <time>2011-02-13T09:29:20Z</time>
      </trkpt>
      <trkpt lat="49.7077" lon="4.77319">
        <ele>146.372</ele>
        <time>2011-02-13T09:29:21Z</time>
      </trkpt>
      <trkpt lat="49.70776" lon="4.77319">
        <ele>146.403</ele>
        <time>2011-02-13T09:29:23Z</time>
      </trkpt>
      <trkpt lat="49.7078" lon="4.77318">
        <ele>146.485</ele>
        <time>2011-02-13T09:29:24Z</time>
      </trkpt>
      <trkpt lat="49.70787" lon="4.77318">
        <ele>146.209</ele>
        <time>2011-02-13T09:29:26Z</time>
      </trkpt>
      <trkpt lat="49.70794" lon="4.77319">
        <ele>145.716</ele>
        <time>2011-02-13T09:29:28Z</time>
      </trkpt>
      <trkpt lat="49.70799" lon="4.77321">
        <ele>145.311</ele>
        <time>2011-02-13T09:29:30Z</time>
      </trkpt>
      <trkpt lat="49.70801" lon="4.77323">
        <ele>145.349</ele>
        <time>2011-02-13T09:29:31Z</time>
      </trkpt>
      <trkpt lat="49.70804" lon="4.77326">
        <ele>145.441</ele>
        <time>2011-02-13T09:29:32Z</time>
      </trkpt>
      <trkpt lat="49.70808" lon="4.77332">
        <ele>145.6</ele>
        <time>2011-02-13T09:29:34Z</time>
      </trkpt>
      <trkpt lat="49.70812" lon="4.77334">
        <ele>145.675</ele>
        <time>2011-02-13T09:29:35Z</time>
      </trkpt>
      <trkpt lat="49.70819" lon="4.77335">
        <ele>145.939</ele>
        <time>2011-02-13T09:29:37Z</time>
      </trkpt>
      <trkpt lat="49.70825" lon="4.77337">
        <ele>146.342</ele>
        <time>2011-02-13T09:29:39Z</time>
      </trkpt>
      <trkpt lat="49.70832" lon="4.77339">
        <ele>146.771</ele>
        <time>2011-02-13T09:29:41Z</time>
      </trkpt>
      <trkpt lat="49.70835" lon="4.7734">
        <ele>146.963</ele>
        <time>2011-02-13T09:29:42Z</time>
      </trkpt>
      <trkpt lat="49.70841" lon="4.77343">
        <ele>147.23</ele>
        <time>2011-02-13T09:29:44Z</time>
      </trkpt>
      <trkpt lat="49.70847" lon="4.77346">
        <ele>147.29</ele>
        <time>2011-02-13T09:29:46Z</time>
      </trkpt>
      <trkpt lat="49.70852" lon="4.77348">
        <ele>147.11</ele>
        <time>2011-02-13T09:29:48Z</time>
      </trkpt>
      <trkpt lat="49.70855" lon="4.7735">
        <ele>147</ele>
        <time>2011-02-13T09:29:49Z</time>
      </trkpt>
      <trkpt lat="49.70858" lon="4.77351">
        <ele>146.9</ele>
        <time>2011-02-13T09:29:50Z</time>
      </trkpt>
      <trkpt lat="49.70864" lon="4.77354">
        <ele>146.7</ele>
        <time>2011-02-13T09:29:52Z</time>
      </trkpt>
      <trkpt lat="49.70867" lon="4.77356">
        <ele>146.57</ele>
        <time>2011-02-13T09:29:53Z</time>
      </trkpt>
      <trkpt lat="49.70873" lon="4.7736">
        <ele>146.25</ele>
        <time>2011-02-13T09:29:55Z</time>
      </trkpt>
      <trkpt lat="49.7088" lon="4.77367">
        <ele>146.06</ele>
        <time>2011-02-13T09:29:57Z</time>
      </trkpt>
      <trkpt lat="49.70883" lon="4.77375">
        <ele>145.94</ele>
        <time>2011-02-13T09:29:59Z</time>
      </trkpt>
      <trkpt lat="49.70885" lon="4.77385">
        <ele>145.713</ele>
        <time>2011-02-13T09:30:01Z</time>
      </trkpt>
      <trkpt lat="49.70887" lon="4.77392">
        <ele>145.491</ele>
        <time>2011-02-13T09:30:03Z</time>
      </trkpt>
      <trkpt lat="49.7089" lon="4.77399">
        <ele>145.423</ele>
        <time>2011-02-13T09:30:05Z</time>
      </trkpt>
      <trkpt lat="49.70892" lon="4.77406">
        <ele>145.39</ele>
        <time>2011-02-13T09:30:07Z</time>
      </trkpt>
      <trkpt lat="49.70895" lon="4.77415">
        <ele>145.36</ele>
        <time>2011-02-13T09:30:09Z</time>
      </trkpt>
      <trkpt lat="49.70896" lon="4.77425">
        <ele>145.38</ele>
        <time>2011-02-13T09:30:11Z</time>
      </trkpt>
      <trkpt lat="49.70897" lon="4.77429">
        <ele>145.48</ele>
        <time>2011-02-13T09:30:12Z</time>
      </trkpt>
      <trkpt lat="49.70899" lon="4.77437">
        <ele>145.66</ele>
        <time>2011-02-13T09:30:14Z</time>
      </trkpt>
      <trkpt lat="49.709" lon="4.77441">
        <ele>145.75</ele>
        <time>2011-02-13T09:30:15Z</time>
      </trkpt>
      <trkpt lat="49.70903" lon="4.7745">
        <ele>145.98</ele>
        <time>2011-02-13T09:30:17Z</time>
      </trkpt>
      <trkpt lat="49.70904" lon="4.77455">
        <ele>146.08</ele>
        <time>2011-02-13T09:30:18Z</time>
      </trkpt>
      <trkpt lat="49.70906" lon="4.77459">
        <ele>146.18</ele>
        <time>2011-02-13T09:30:19Z</time>
      </trkpt>
      <trkpt lat="49.70908" lon="4.77469">
        <ele>146.39</ele>
        <time>2011-02-13T09:30:21Z</time>
      </trkpt>
      <trkpt lat="49.7091" lon="4.77474">
        <ele>146.43</ele>
        <time>2011-02-13T09:30:22Z</time>
      </trkpt>
      <trkpt lat="49.70912" lon="4.77485">
        <ele>146.51</ele>
        <time>2011-02-13T09:30:24Z</time>
      </trkpt>
      <trkpt lat="49.70913" lon="4.77495">
        <ele>146.026</ele>
        <time>2011-02-13T09:30:26Z</time>
      </trkpt>
      <trkpt lat="49.70915" lon="4.77503">
        <ele>145.507</ele>
        <time>2011-02-13T09:30:28Z</time>
      </trkpt>
      <trkpt lat="49.70916" lon="4.77508">
        <ele>145.256</ele>
        <time>2011-02-13T09:30:29Z</time>
      </trkpt>
      <trkpt lat="49.70918" lon="4.77517">
        <ele>144.691</ele>
        <time>2011-02-13T09:30:31Z</time>
      </trkpt>
      <trkpt lat="49.7092" lon="4.77521">
        <ele>144.417</ele>
        <time>2011-02-13T09:30:32Z</time>
      </trkpt>
      <trkpt lat="49.7092" lon="4.7753">
        <ele>144.023</ele>
        <time>2011-02-13T09:30:34Z</time>
      </trkpt>
      <trkpt lat="49.70919" lon="4.77535">
        <ele>144.055</ele>
        <time>2011-02-13T09:30:35Z</time>
      </trkpt>
      <trkpt lat="49.70916" lon="4.77544">
        <ele>143.906</ele>
        <time>2011-02-13T09:30:37Z</time>
      </trkpt>
      <trkpt lat="49.70914" lon="4.77548">
        <ele>143.8</ele>
        <time>2011-02-13T09:30:38Z</time>
      </trkpt>
      <trkpt lat="49.7091" lon="4.77554">
        <ele>143.647</ele>
        <time>2011-02-13T09:30:40Z</time>
      </trkpt>
      <trkpt lat="49.70908" lon="4.77557">
        <ele>143.524</ele>
        <time>2011-02-13T09:30:41Z</time>
      </trkpt>
      <trkpt lat="49.70903" lon="4.77562">
        <ele>143.31</ele>
        <time>2011-02-13T09:30:43Z</time>
      </trkpt>
      <trkpt lat="49.70901" lon="4.77564">
        <ele>143.11</ele>
        <time>2011-02-13T09:30:44Z</time>
      </trkpt>
      <trkpt lat="49.70895" lon="4.77566">
        <ele>142.76</ele>
        <time>2011-02-13T09:30:46Z</time>
      </trkpt>
      <trkpt lat="49.70892" lon="4.77567">
        <ele>142.76</ele>
        <time>2011-02-13T09:30:47Z</time>
      </trkpt>
      <trkpt lat="49.70889" lon="4.77568">
        <ele>142.76</ele>
        <time>2011-02-13T09:30:48Z</time>
      </trkpt>
      <trkpt lat="49.70883" lon="4.77572">
        <ele>142.62</ele>
        <time>2011-02-13T09:30:50Z</time>
      </trkpt>
      <trkpt lat="49.70878" lon="4.77577">
        <ele>142.48</ele>
        <time>2011-02-13T09:30:52Z</time>
      </trkpt>
      <trkpt lat="49.70875" lon="4.7758">
        <ele>142.4</ele>
        <time>2011-02-13T09:30:53Z</time>
      </trkpt>
      <trkpt lat="49.70871" lon="4.77587">
        <ele>142.26</ele>
        <time>2011-02-13T09:30:55Z</time>
      </trkpt>
      <trkpt lat="49.70868" lon="4.77595">
        <ele>142.15</ele>
        <time>2011-02-13T09:30:57Z</time>
      </trkpt>
      <trkpt lat="49.70867" lon="4.776">
        <ele>142.11</ele>
        <time>2011-02-13T09:30:58Z</time>
      </trkpt>
      <trkpt lat="49.70865" lon="4.77609">
        <ele>142.13</ele>
        <time>2011-02-13T09:31:00Z</time>
      </trkpt>
      <trkpt lat="49.70863" lon="4.77618">
        <ele>142.22</ele>
        <time>2011-02-13T09:31:02Z</time>
      </trkpt>
      <trkpt lat="49.70861" lon="4.77628">
        <ele>142.24</ele>
        <time>2011-02-13T09:31:04Z</time>
      </trkpt>
      <trkpt lat="49.7086" lon="4.77632">
        <ele>142.23</ele>
        <time>2011-02-13T09:31:05Z</time>
      </trkpt>
      <trkpt lat="49.70858" lon="4.77641">
        <ele>142.107</ele>
        <time>2011-02-13T09:31:07Z</time>
      </trkpt>
      <trkpt lat="49.70854" lon="4.77649">
        <ele>141.943</ele>
        <time>2011-02-13T09:31:09Z</time>
      </trkpt>
      <trkpt lat="49.70852" lon="4.77652">
        <ele>141.882</ele>
        <time>2011-02-13T09:31:10Z</time>
      </trkpt>
      <trkpt lat="49.70848" lon="4.7766">
        <ele>141.824</ele>
        <time>2011-02-13T09:31:12Z</time>
      </trkpt>
      <trkpt lat="49.70844" lon="4.77668">
        <ele>141.908</ele>
        <time>2011-02-13T09:31:14Z</time>
      </trkpt>
      <trkpt lat="49.70843" lon="4.77673">
        <ele>141.984</ele>
        <time>2011-02-13T09:31:15Z</time>
      </trkpt>
      <trkpt lat="49.70843" lon="4.77678">
        <ele>142.092</ele>
        <time>2011-02-13T09:31:16Z</time>
      </trkpt>
      <trkpt lat="49.70844" lon="4.77688">
        <ele>142.365</ele>
        <time>2011-02-13T09:31:18Z</time>
      </trkpt>
      <trkpt lat="49.70846" lon="4.77697">
        <ele>142.629</ele>
        <time>2011-02-13T09:31:20Z</time>
      </trkpt>
      <trkpt lat="49.70846" lon="4.77702">
        <ele>142.75</ele>
        <time>2011-02-13T09:31:21Z</time>
      </trkpt>
      <trkpt lat="49.70847" lon="4.77711">
        <ele>142.959</ele>
        <time>2011-02-13T09:31:23Z</time>
      </trkpt>
      <trkpt lat="49.70848" lon="4.7772">
        <ele>143.234</ele>
        <time>2011-02-13T09:31:25Z</time>
      </trkpt>
      <trkpt lat="49.70849" lon="4.77729">
        <ele>143.529</ele>
        <time>2011-02-13T09:31:27Z</time>
      </trkpt>
      <trkpt lat="49.70851" lon="4.77738">
        <ele>143.725</ele>
        <time>2011-02-13T09:31:29Z</time>
      </trkpt>
      <trkpt lat="49.70853" lon="4.77748">
        <ele>143.909</ele>
        <time>2011-02-13T09:31:31Z</time>
      </trkpt>
      <trkpt lat="49.70854" lon="4.77756">
        <ele>144.058</ele>
        <time>2011-02-13T09:31:33Z</time>
      </trkpt>
      <trkpt lat="49.70855" lon="4.77761">
        <ele>144.069</ele>
        <time>2011-02-13T09:31:34Z</time>
      </trkpt>
      <trkpt lat="49.70856" lon="4.77766">
        <ele>144.08</ele>
        <time>2011-02-13T09:31:35Z</time>
      </trkpt>
      <trkpt lat="49.70857" lon="4.77776">
        <ele>144.13</ele>
        <time>2011-02-13T09:31:37Z</time>
      </trkpt>
      <trkpt lat="49.70859" lon="4.77787">
        <ele>144.3</ele>
        <time>2011-02-13T09:31:39Z</time>
      </trkpt>
      <trkpt lat="49.7086" lon="4.77797">
        <ele>144.45</ele>
        <time>2011-02-13T09:31:41Z</time>
      </trkpt>
      <trkpt lat="49.70861" lon="4.77802">
        <ele>144.534</ele>
        <time>2011-02-13T09:31:42Z</time>
      </trkpt>
      <trkpt lat="49.70863" lon="4.77812">
        <ele>144.752</ele>
        <time>2011-02-13T09:31:44Z</time>
      </trkpt>
      <trkpt lat="49.70866" lon="4.77821">
        <ele>144.969</ele>
        <time>2011-02-13T09:31:46Z</time>
      </trkpt>
      <trkpt lat="49.70867" lon="4.77826">
        <ele>145.062</ele>
        <time>2011-02-13T09:31:47Z</time>
      </trkpt>
      <trkpt lat="49.70868" lon="4.77831">
        <ele>145.124</ele>
        <time>2011-02-13T09:31:48Z</time>
      </trkpt>
      <trkpt lat="49.7087" lon="4.77841">
        <ele>145.244</ele>
        <time>2011-02-13T09:31:50Z</time>
      </trkpt>
      <trkpt lat="49.70871" lon="4.77846">
        <ele>145.303</ele>
        <time>2011-02-13T09:31:51Z</time>
      </trkpt>
      <trkpt lat="49.70873" lon="4.77851">
        <ele>145.334</ele>
        <time>2011-02-13T09:31:52Z</time>
      </trkpt>
      <trkpt lat="49.70875" lon="4.77861">
        <ele>145.35</ele>
        <time>2011-02-13T09:31:54Z</time>
      </trkpt>
      <trkpt lat="49.70879" lon="4.7787">
        <ele>145.37</ele>
        <time>2011-02-13T09:31:56Z</time>
      </trkpt>
      <trkpt lat="49.70882" lon="4.77875">
        <ele>145.35</ele>
        <time>2011-02-13T09:31:58Z</time>
      </trkpt>
      <trkpt lat="49.70884" lon="4.77875">
        <ele>145.31</ele>
        <time>2011-02-13T09:31:59Z</time>
      </trkpt>
      <trkpt lat="49.70888" lon="4.77873">
        <ele>145.2</ele>
        <time>2011-02-13T09:32:01Z</time>
      </trkpt>
      <trkpt lat="49.70894" lon="4.7787">
        <ele>145.13</ele>
        <time>2011-02-13T09:32:03Z</time>
      </trkpt>
      <trkpt lat="49.70897" lon="4.77868">
        <ele>145.06</ele>
        <time>2011-02-13T09:32:04Z</time>
      </trkpt>
      <trkpt lat="49.70904" lon="4.77866">
        <ele>144.85</ele>
        <time>2011-02-13T09:32:06Z</time>
      </trkpt>
      <trkpt lat="49.70914" lon="4.77862">
        <ele>144.52</ele>
        <time>2011-02-13T09:32:08Z</time>
      </trkpt>
      <trkpt lat="49.70925" lon="4.77857">
        <ele>144.13</ele>
        <time>2011-02-13T09:32:10Z</time>
      </trkpt>
      <trkpt lat="49.70936" lon="4.77852">
        <ele>143.74</ele>
        <time>2011-02-13T09:32:12Z</time>
      </trkpt>
      <trkpt lat="49.70947" lon="4.77847">
        <ele>143.34</ele>
        <time>2011-02-13T09:32:14Z</time>
      </trkpt>
      <trkpt lat="49.70957" lon="4.77843">
        <ele>143.13</ele>
        <time>2011-02-13T09:32:16Z</time>
      </trkpt>
      <trkpt lat="49.70961" lon="4.7784">
        <ele>143.11</ele>
        <time>2011-02-13T09:32:17Z</time>
      </trkpt>
      <trkpt lat="49.70969" lon="4.77835">
        <ele>143.41</ele>
        <time>2011-02-13T09:32:19Z</time>
      </trkpt>
      <trkpt lat="49.70973" lon="4.77833">
        <ele>143.62</ele>
        <time>2011-02-13T09:32:20Z</time>
      </trkpt>
      <trkpt lat="49.70981" lon="4.7783">
        <ele>144.05</ele>
        <time>2011-02-13T09:32:22Z</time>
      </trkpt>
      <trkpt lat="49.70985" lon="4.7783">
        <ele>144.3</ele>
        <time>2011-02-13T09:32:23Z</time>
      </trkpt>
      <trkpt lat="49.7099" lon="4.7783">
        <ele>144.55</ele>
        <time>2011-02-13T09:32:24Z</time>
      </trkpt>
      <trkpt lat="49.70994" lon="4.77831">
        <ele>144.79</ele>
        <time>2011-02-13T09:32:25Z</time>
      </trkpt>
      <trkpt lat="49.70998" lon="4.77832">
        <ele>144.89</ele>
        <time>2011-02-13T09:32:26Z</time>
      </trkpt>
      <trkpt lat="49.71001" lon="4.77833">
        <ele>144.98</ele>
        <time>2011-02-13T09:32:27Z</time>
      </trkpt>
      <trkpt lat="49.71008" lon="4.77834">
        <ele>145.1</ele>
        <time>2011-02-13T09:32:29Z</time>
      </trkpt>
      <trkpt lat="49.71015" lon="4.77834">
        <ele>145.15</ele>
        <time>2011-02-13T09:32:30Z</time>
      </trkpt>
      <trkpt lat="49.71019" lon="4.77833">
        <ele>145.18</ele>
        <time>2011-02-13T09:32:32Z</time>
      </trkpt>
      <trkpt lat="49.71029" lon="4.77833">
        <ele>145.06</ele>
        <time>2011-02-13T09:32:33Z</time>
      </trkpt>
      <trkpt lat="49.71037" lon="4.77833">
        <ele>144.75</ele>
        <time>2011-02-13T09:32:35Z</time>
      </trkpt>
      <trkpt lat="49.71042" lon="4.77834">
        <ele>144.57</ele>
        <time>2011-02-13T09:32:36Z</time>
      </trkpt>
      <trkpt lat="49.71046" lon="4.77835">
        <ele>144.4</ele>
        <time>2011-02-13T09:32:37Z</time>
      </trkpt>
      <trkpt lat="49.71051" lon="4.77836">
        <ele>144.23</ele>
        <time>2011-02-13T09:32:39Z</time>
      </trkpt>
      <trkpt lat="49.71059" lon="4.77839">
        <ele>143.75</ele>
        <time>2011-02-13T09:32:40Z</time>
      </trkpt>
      <trkpt lat="49.71067" lon="4.7784">
        <ele>143.25</ele>
        <time>2011-02-13T09:32:41Z</time>
      </trkpt>
      <trkpt lat="49.71077" lon="4.77841">
        <ele>142.92</ele>
        <time>2011-02-13T09:32:43Z</time>
      </trkpt>
      <trkpt lat="49.71082" lon="4.77842">
        <ele>142.86</ele>
        <time>2011-02-13T09:32:44Z</time>
      </trkpt>
      <trkpt lat="49.71087" lon="4.77843">
        <ele>142.85</ele>
        <time>2011-02-13T09:32:46Z</time>
      </trkpt>
      <trkpt lat="49.71096" lon="4.77846">
        <ele>142.72</ele>
        <time>2011-02-13T09:32:47Z</time>
      </trkpt>
      <trkpt lat="49.71105" lon="4.77849">
        <ele>142.62</ele>
        <time>2011-02-13T09:32:49Z</time>
      </trkpt>
      <trkpt lat="49.71111" lon="4.77853">
        <ele>142.66</ele>
        <time>2011-02-13T09:32:50Z</time>
      </trkpt>
      <trkpt lat="49.71124" lon="4.77863">
        <ele>142.87</ele>
        <time>2011-02-13T09:32:52Z</time>
      </trkpt>
      <trkpt lat="49.71135" lon="4.77873">
        <ele>143.12</ele>
        <time>2011-02-13T09:32:53Z</time>
      </trkpt>
      <trkpt lat="49.71146" lon="4.7788">
        <ele>143.45</ele>
        <time>2011-02-13T09:32:56Z</time>
      </trkpt>
      <trkpt lat="49.71156" lon="4.77887">
        <ele>143.9</ele>
        <time>2011-02-13T09:32:57Z</time>
      </trkpt>
      <trkpt lat="49.7116" lon="4.77891">
        <ele>144.1</ele>
        <time>2011-02-13T09:32:58Z</time>
      </trkpt>
      <trkpt lat="49.71167" lon="4.77898">
        <ele>144.39</ele>
        <time>2011-02-13T09:33:00Z</time>
      </trkpt>
      <trkpt lat="49.71174" lon="4.77906">
        <ele>144.71</ele>
        <time>2011-02-13T09:33:02Z</time>
      </trkpt>
      <trkpt lat="49.71178" lon="4.77909">
        <ele>144.89</ele>
        <time>2011-02-13T09:33:03Z</time>
      </trkpt>
      <trkpt lat="49.71185" lon="4.77916">
        <ele>145.03</ele>
        <time>2011-02-13T09:33:04Z</time>
      </trkpt>
      <trkpt lat="49.71188" lon="4.7792">
        <ele>145.16</ele>
        <time>2011-02-13T09:33:06Z</time>
      </trkpt>
      <trkpt lat="49.71195" lon="4.77925">
        <ele>145.52</ele>
        <time>2011-02-13T09:33:07Z</time>
      </trkpt>
      <trkpt lat="49.71202" lon="4.77931">
        <ele>145.95</ele>
        <time>2011-02-13T09:33:09Z</time>
      </trkpt>
      <trkpt lat="49.71209" lon="4.77937">
        <ele>146.42</ele>
        <time>2011-02-13T09:33:10Z</time>
      </trkpt>
      <trkpt lat="49.71212" lon="4.7794">
        <ele>146.68</ele>
        <time>2011-02-13T09:33:11Z</time>
      </trkpt>
      <trkpt lat="49.71219" lon="4.77948">
        <ele>147.25</ele>
        <time>2011-02-13T09:33:12Z</time>
      </trkpt>
      <trkpt lat="49.71227" lon="4.77956">
        <ele>148.02</ele>
        <time>2011-02-13T09:33:14Z</time>
      </trkpt>
      <trkpt lat="49.71235" lon="4.77966">
        <ele>148.86</ele>
        <time>2011-02-13T09:33:17Z</time>
      </trkpt>
      <trkpt lat="49.71242" lon="4.77974">
        <ele>149.53</ele>
        <time>2011-02-13T09:33:18Z</time>
      </trkpt>
      <trkpt lat="49.71247" lon="4.77979">
        <ele>149.79</ele>
        <time>2011-02-13T09:33:19Z</time>
      </trkpt>
      <trkpt lat="49.71256" lon="4.77986">
        <ele>150.23</ele>
        <time>2011-02-13T09:33:20Z</time>
      </trkpt>
      <trkpt lat="49.71261" lon="4.77991">
        <ele>150.42</ele>
        <time>2011-02-13T09:33:22Z</time>
      </trkpt>
      <trkpt lat="49.7127" lon="4.77997">
        <ele>150.37</ele>
        <time>2011-02-13T09:33:23Z</time>
      </trkpt>
      <trkpt lat="49.71273" lon="4.78001">
        <ele>150.28</ele>
        <time>2011-02-13T09:33:24Z</time>
      </trkpt>
      <trkpt lat="49.71282" lon="4.78009">
        <ele>150.16</ele>
        <time>2011-02-13T09:33:26Z</time>
      </trkpt>
      <trkpt lat="49.71292" lon="4.78018">
        <ele>150.17</ele>
        <time>2011-02-13T09:33:28Z</time>
      </trkpt>
      <trkpt lat="49.71299" lon="4.78024">
        <ele>150.24</ele>
        <time>2011-02-13T09:33:29Z</time>
      </trkpt>
      <trkpt lat="49.71303" lon="4.78027">
        <ele>150.27</ele>
        <time>2011-02-13T09:33:30Z</time>
      </trkpt>
      <trkpt lat="49.7131" lon="4.78033">
        <ele>150.42</ele>
        <time>2011-02-13T09:33:32Z</time>
      </trkpt>
      <trkpt lat="49.7132" lon="4.78043">
        <ele>150.96</ele>
        <time>2011-02-13T09:33:34Z</time>
      </trkpt>
      <trkpt lat="49.71324" lon="4.78049">
        <ele>151.35</ele>
        <time>2011-02-13T09:33:35Z</time>
      </trkpt>
      <trkpt lat="49.71329" lon="4.78057">
        <ele>151.69</ele>
        <time>2011-02-13T09:33:37Z</time>
      </trkpt>
      <trkpt lat="49.7134" lon="4.78065">
        <ele>152.36</ele>
        <time>2011-02-13T09:33:38Z</time>
      </trkpt>
      <trkpt lat="49.71344" lon="4.78068">
        <ele>152.78</ele>
        <time>2011-02-13T09:33:40Z</time>
      </trkpt>
      <trkpt lat="49.71351" lon="4.78072">
        <ele>153.37</ele>
        <time>2011-02-13T09:33:41Z</time>
      </trkpt>
      <trkpt lat="49.71359" lon="4.78077">
        <ele>153.92</ele>
        <time>2011-02-13T09:33:42Z</time>
      </trkpt>
      <trkpt lat="49.71363" lon="4.78079">
        <ele>154.26</ele>
        <time>2011-02-13T09:33:44Z</time>
      </trkpt>
      <trkpt lat="49.71371" lon="4.78083">
        <ele>154.88</ele>
        <time>2011-02-13T09:33:45Z</time>
      </trkpt>
      <trkpt lat="49.71378" lon="4.78087">
        <ele>155.29</ele>
        <time>2011-02-13T09:33:46Z</time>
      </trkpt>
      <trkpt lat="49.71381" lon="4.7809">
        <ele>155.28</ele>
        <time>2011-02-13T09:33:47Z</time>
      </trkpt>
      <trkpt lat="49.71389" lon="4.78096">
        <ele>155.11</ele>
        <time>2011-02-13T09:33:50Z</time>
      </trkpt>
      <trkpt lat="49.71396" lon="4.78101">
        <ele>154.73</ele>
        <time>2011-02-13T09:33:51Z</time>
      </trkpt>
      <trkpt lat="49.71405" lon="4.78105">
        <ele>154.17</ele>
        <time>2011-02-13T09:33:52Z</time>
      </trkpt>
      <trkpt lat="49.71409" lon="4.78108">
        <ele>154.16</ele>
        <time>2011-02-13T09:33:53Z</time>
      </trkpt>
      <trkpt lat="49.71419" lon="4.78113">
        <ele>154.08</ele>
        <time>2011-02-13T09:33:55Z</time>
      </trkpt>
      <trkpt lat="49.71424" lon="4.78115">
        <ele>153.96</ele>
        <time>2011-02-13T09:33:56Z</time>
      </trkpt>
      <trkpt lat="49.71433" lon="4.7812">
        <ele>153.76</ele>
        <time>2011-02-13T09:33:58Z</time>
      </trkpt>
      <trkpt lat="49.71437" lon="4.78122">
        <ele>153.65</ele>
        <time>2011-02-13T09:33:59Z</time>
      </trkpt>
      <trkpt lat="49.71446" lon="4.78129">
        <ele>153.4</ele>
        <time>2011-02-13T09:34:01Z</time>
      </trkpt>
      <trkpt lat="49.71457" lon="4.78136">
        <ele>152.61</ele>
        <time>2011-02-13T09:34:04Z</time>
      </trkpt>
      <trkpt lat="49.71467" lon="4.78141">
        <ele>151.6</ele>
        <time>2011-02-13T09:34:05Z</time>
      </trkpt>
      <trkpt lat="49.71478" lon="4.78145">
        <ele>150.8</ele>
        <time>2011-02-13T09:34:07Z</time>
      </trkpt>
      <trkpt lat="49.71492" lon="4.78149">
        <ele>149.9</ele>
        <time>2011-02-13T09:34:09Z</time>
      </trkpt>
      <trkpt lat="49.71498" lon="4.7815">
        <ele>149.63</ele>
        <time>2011-02-13T09:34:10Z</time>
      </trkpt>
      <trkpt lat="49.71507" lon="4.78153">
        <ele>149.53</ele>
        <time>2011-02-13T09:34:11Z</time>
      </trkpt>
      <trkpt lat="49.71511" lon="4.78155">
        <ele>149.53</ele>
        <time>2011-02-13T09:34:12Z</time>
      </trkpt>
      <trkpt lat="49.7152" lon="4.7816">
        <ele>149.47</ele>
        <time>2011-02-13T09:34:14Z</time>
      </trkpt>
      <trkpt lat="49.71524" lon="4.78162">
        <ele>149.43</ele>
        <time>2011-02-13T09:34:16Z</time>
      </trkpt>
      <trkpt lat="49.71531" lon="4.78167">
        <ele>149.36</ele>
        <time>2011-02-13T09:34:17Z</time>
      </trkpt>
      <trkpt lat="49.7154" lon="4.78172">
        <ele>149.34</ele>
        <time>2011-02-13T09:34:18Z</time>
      </trkpt>
      <trkpt lat="49.7155" lon="4.78178">
        <ele>149.22</ele>
        <time>2011-02-13T09:34:20Z</time>
      </trkpt>
      <trkpt lat="49.71559" lon="4.78184">
        <ele>148.97</ele>
        <time>2011-02-13T09:34:22Z</time>
      </trkpt>
      <trkpt lat="49.71564" lon="4.78187">
        <ele>148.68</ele>
        <time>2011-02-13T09:34:23Z</time>
      </trkpt>
      <trkpt lat="49.71571" lon="4.7819">
        <ele>148.36</ele>
        <time>2011-02-13T09:34:24Z</time>
      </trkpt>
      <trkpt lat="49.71583" lon="4.78194">
        <ele>147.48</ele>
        <time>2011-02-13T09:34:26Z</time>
      </trkpt>
      <trkpt lat="49.71589" lon="4.78197">
        <ele>147.09</ele>
        <time>2011-02-13T09:34:27Z</time>
      </trkpt>
      <trkpt lat="49.71594" lon="4.78199">
        <ele>146.74</ele>
        <time>2011-02-13T09:34:28Z</time>
      </trkpt>
      <trkpt lat="49.71604" lon="4.78202">
        <ele>146.433</ele>
        <time>2011-02-13T09:34:30Z</time>
      </trkpt>
      <trkpt lat="49.7161" lon="4.78204">
        <ele>146.481</ele>
        <time>2011-02-13T09:34:32Z</time>
      </trkpt>
      <trkpt lat="49.71619" lon="4.78206">
        <ele>146.947</ele>
        <time>2011-02-13T09:34:33Z</time>
      </trkpt>
      <trkpt lat="49.71623" lon="4.78206">
        <ele>147.284</ele>
        <time>2011-02-13T09:34:34Z</time>
      </trkpt>
      <trkpt lat="49.71626" lon="4.78206">
        <ele>147.728</ele>
        <time>2011-02-13T09:34:35Z</time>
      </trkpt>
      <trkpt lat="49.71633" lon="4.78204">
        <ele>148.441</ele>
        <time>2011-02-13T09:34:37Z</time>
      </trkpt>
      <trkpt lat="49.71636" lon="4.78203">
        <ele>148.713</ele>
        <time>2011-02-13T09:34:38Z</time>
      </trkpt>
      <trkpt lat="49.71641" lon="4.78201">
        <ele>148.852</ele>
        <time>2011-02-13T09:34:39Z</time>
      </trkpt>
      <trkpt lat="49.71645" lon="4.782">
        <ele>148.819</ele>
        <time>2011-02-13T09:34:40Z</time>
      </trkpt>
      <trkpt lat="49.7165" lon="4.78199">
        <ele>148.692</ele>
        <time>2011-02-13T09:34:41Z</time>
      </trkpt>
      <trkpt lat="49.71655" lon="4.78199">
        <ele>148.558</ele>
        <time>2011-02-13T09:34:42Z</time>
      </trkpt>
      <trkpt lat="49.71666" lon="4.782">
        <ele>148.163</ele>
        <time>2011-02-13T09:34:44Z</time>
      </trkpt>
      <trkpt lat="49.71676" lon="4.78203">
        <ele>147.722</ele>
        <time>2011-02-13T09:34:46Z</time>
      </trkpt>
      <trkpt lat="49.71687" lon="4.78209">
        <ele>147.5</ele>
        <time>2011-02-13T09:34:48Z</time>
      </trkpt>
      <trkpt lat="49.71692" lon="4.78213">
        <ele>147.45</ele>
        <time>2011-02-13T09:34:49Z</time>
      </trkpt>
      <trkpt lat="49.71704" lon="4.78221">
        <ele>147.37</ele>
        <time>2011-02-13T09:34:51Z</time>
      </trkpt>
      <trkpt lat="49.71715" lon="4.78227">
        <ele>147.32</ele>
        <time>2011-02-13T09:34:52Z</time>
      </trkpt>
      <trkpt lat="49.71727" lon="4.78231">
        <ele>147.265</ele>
        <time>2011-02-13T09:34:54Z</time>
      </trkpt>
      <trkpt lat="49.71733" lon="4.78231">
        <ele>147.219</ele>
        <time>2011-02-13T09:34:56Z</time>
      </trkpt>
      <trkpt lat="49.71743" lon="4.78232">
        <ele>146.977</ele>
        <time>2011-02-13T09:34:57Z</time>
      </trkpt>
      <trkpt lat="49.71752" lon="4.78233">
        <ele>146.8</ele>
        <time>2011-02-13T09:34:59Z</time>
      </trkpt>
      <trkpt lat="49.7176" lon="4.78234">
        <ele>146.709</ele>
        <time>2011-02-13T09:35:00Z</time>
      </trkpt>
      <trkpt lat="49.7177" lon="4.78235">
        <ele>146.72</ele>
        <time>2011-02-13T09:35:02Z</time>
      </trkpt>
      <trkpt lat="49.71785" lon="4.78236">
        <ele>147.05</ele>
        <time>2011-02-13T09:35:03Z</time>
      </trkpt>
      <trkpt lat="49.71796" lon="4.78237">
        <ele>147.79</ele>
        <time>2011-02-13T09:35:06Z</time>
      </trkpt>
      <trkpt lat="49.71807" lon="4.78237">
        <ele>148.43</ele>
        <time>2011-02-13T09:35:07Z</time>
      </trkpt>
      <trkpt lat="49.71818" lon="4.78236">
        <ele>149.15</ele>
        <time>2011-02-13T09:35:09Z</time>
      </trkpt>
      <trkpt lat="49.71829" lon="4.78233">
        <ele>149.71</ele>
        <time>2011-02-13T09:35:10Z</time>
      </trkpt>
      <trkpt lat="49.71839" lon="4.78229">
        <ele>149.83</ele>
        <time>2011-02-13T09:35:12Z</time>
      </trkpt>
      <trkpt lat="49.71851" lon="4.78226">
        <ele>149.21</ele>
        <time>2011-02-13T09:35:14Z</time>
      </trkpt>
      <trkpt lat="49.71865" lon="4.78223">
        <ele>149.025</ele>
        <time>2011-02-13T09:35:16Z</time>
      </trkpt>
      <trkpt lat="49.71878" lon="4.78221">
        <ele>148.615</ele>
        <time>2011-02-13T09:35:19Z</time>
      </trkpt>
      <trkpt lat="49.71889" lon="4.78221">
        <ele>148.242</ele>
        <time>2011-02-13T09:35:20Z</time>
      </trkpt>
      <trkpt lat="49.71901" lon="4.78222">
        <ele>148.219</ele>
        <time>2011-02-13T09:35:21Z</time>
      </trkpt>
      <trkpt lat="49.71907" lon="4.78223">
        <ele>148.387</ele>
        <time>2011-02-13T09:35:22Z</time>
      </trkpt>
      <trkpt lat="49.71923" lon="4.78224">
        <ele>148.419</ele>
        <time>2011-02-13T09:35:25Z</time>
      </trkpt>
      <trkpt lat="49.71935" lon="4.78224">
        <ele>148.182</ele>
        <time>2011-02-13T09:35:26Z</time>
      </trkpt>
      <trkpt lat="49.71941" lon="4.78227">
        <ele>148.151</ele>
        <time>2011-02-13T09:35:27Z</time>
      </trkpt>
      <trkpt lat="49.71945" lon="4.78232">
        <ele>148.317</ele>
        <time>2011-02-13T09:35:30Z</time>
      </trkpt>
      <trkpt lat="49.7195" lon="4.78236">
        <ele>148.439</ele>
        <time>2011-02-13T09:35:31Z</time>
      </trkpt>
      <trkpt lat="49.71953" lon="4.78237">
        <ele>148.49</ele>
        <time>2011-02-13T09:35:32Z</time>
      </trkpt>
      <trkpt lat="49.71961" lon="4.78241">
        <ele>148.73</ele>
        <time>2011-02-13T09:35:33Z</time>
      </trkpt>
      <trkpt lat="49.71972" lon="4.78247">
        <ele>149.03</ele>
        <time>2011-02-13T09:35:35Z</time>
      </trkpt>
      <trkpt lat="49.71985" lon="4.78252">
        <ele>149.566</ele>
        <time>2011-02-13T09:35:37Z</time>
      </trkpt>
      <trkpt lat="49.71999" lon="4.78256">
        <ele>150.313</ele>
        <time>2011-02-13T09:35:39Z</time>
      </trkpt>
      <trkpt lat="49.72011" lon="4.78258">
        <ele>151.673</ele>
        <time>2011-02-13T09:35:41Z</time>
      </trkpt>
      <trkpt lat="49.72017" lon="4.78258">
        <ele>152.409</ele>
        <time>2011-02-13T09:35:43Z</time>
      </trkpt>
      <trkpt lat="49.72026" lon="4.7826">
        <ele>153.79</ele>
        <time>2011-02-13T09:35:44Z</time>
      </trkpt>
      <trkpt lat="49.72031" lon="4.78261">
        <ele>154.293</ele>
        <time>2011-02-13T09:35:45Z</time>
      </trkpt>
      <trkpt lat="49.72038" lon="4.78264">
        <ele>154.6</ele>
        <time>2011-02-13T09:35:47Z</time>
      </trkpt>
      <trkpt lat="49.72044" lon="4.78267">
        <ele>154.45</ele>
        <time>2011-02-13T09:35:48Z</time>
      </trkpt>
      <trkpt lat="49.72047" lon="4.78268">
        <ele>154.02</ele>
        <time>2011-02-13T09:35:49Z</time>
      </trkpt>
      <trkpt lat="49.72057" lon="4.78268">
        <ele>153.05</ele>
        <time>2011-02-13T09:35:50Z</time>
      </trkpt>
      <trkpt lat="49.7207" lon="4.78267">
        <ele>152.17</ele>
        <time>2011-02-13T09:35:52Z</time>
      </trkpt>
      <trkpt lat="49.72077" lon="4.78268">
        <ele>151.82</ele>
        <time>2011-02-13T09:35:54Z</time>
      </trkpt>
      <trkpt lat="49.72089" lon="4.78268">
        <ele>151.55</ele>
        <time>2011-02-13T09:35:55Z</time>
      </trkpt>
      <trkpt lat="49.72102" lon="4.78271">
        <ele>151.39</ele>
        <time>2011-02-13T09:35:57Z</time>
      </trkpt>
      <trkpt lat="49.72117" lon="4.78275">
        <ele>151.07</ele>
        <time>2011-02-13T09:35:59Z</time>
      </trkpt>
      <trkpt lat="49.72124" lon="4.78277">
        <ele>150.64</ele>
        <time>2011-02-13T09:36:00Z</time>
      </trkpt>
      <trkpt lat="49.72134" lon="4.7828">
        <ele>150.08</ele>
        <time>2011-02-13T09:36:02Z</time>
      </trkpt>
      <trkpt lat="49.72148" lon="4.78284">
        <ele>149.11</ele>
        <time>2011-02-13T09:36:03Z</time>
      </trkpt>
      <trkpt lat="49.72158" lon="4.78287">
        <ele>148.45</ele>
        <time>2011-02-13T09:36:06Z</time>
      </trkpt>
      <trkpt lat="49.72174" lon="4.7829">
        <ele>147.55</ele>
        <time>2011-02-13T09:36:08Z</time>
      </trkpt>
      <trkpt lat="49.72183" lon="4.78292">
        <ele>146.97</ele>
        <time>2011-02-13T09:36:09Z</time>
      </trkpt>
      <trkpt lat="49.7219" lon="4.78293">
        <ele>146.73</ele>
        <time>2011-02-13T09:36:10Z</time>
      </trkpt>
      <trkpt lat="49.72202" lon="4.78295">
        <ele>146.5</ele>
        <time>2011-02-13T09:36:12Z</time>
      </trkpt>
      <trkpt lat="49.72217" lon="4.78298">
        <ele>146.46</ele>
        <time>2011-02-13T09:36:14Z</time>
      </trkpt>
      <trkpt lat="49.72227" lon="4.783">
        <ele>146.43</ele>
        <time>2011-02-13T09:36:15Z</time>
      </trkpt>
      <trkpt lat="49.72233" lon="4.78302">
        <ele>146.43</ele>
        <time>2011-02-13T09:36:16Z</time>
      </trkpt>
      <trkpt lat="49.72244" lon="4.78305">
        <ele>146.42</ele>
        <time>2011-02-13T09:36:17Z</time>
      </trkpt>
      <trkpt lat="49.72259" lon="4.78307">
        <ele>146.44</ele>
        <time>2011-02-13T09:36:19Z</time>
      </trkpt>
      <trkpt lat="49.72267" lon="4.78309">
        <ele>146.4</ele>
        <time>2011-02-13T09:36:20Z</time>
      </trkpt>
      <trkpt lat="49.72273" lon="4.7831">
        <ele>146.32</ele>
        <time>2011-02-13T09:36:21Z</time>
      </trkpt>
      <trkpt lat="49.7228" lon="4.78312">
        <ele>146.19</ele>
        <time>2011-02-13T09:36:23Z</time>
      </trkpt>
      <trkpt lat="49.72292" lon="4.78315">
        <ele>145.96</ele>
        <time>2011-02-13T09:36:24Z</time>
      </trkpt>
      <trkpt lat="49.72303" lon="4.78317">
        <ele>145.72</ele>
        <time>2011-02-13T09:36:25Z</time>
      </trkpt>
      <trkpt lat="49.72308" lon="4.78317">
        <ele>145.56</ele>
        <time>2011-02-13T09:36:27Z</time>
      </trkpt>
      <trkpt lat="49.72316" lon="4.78317">
        <ele>145.2</ele>
        <time>2011-02-13T09:36:28Z</time>
      </trkpt>
      <trkpt lat="49.72325" lon="4.78318">
        <ele>144.8</ele>
        <time>2011-02-13T09:36:30Z</time>
      </trkpt>
      <trkpt lat="49.7233" lon="4.78319">
        <ele>144.68</ele>
        <time>2011-02-13T09:36:31Z</time>
      </trkpt>
      <trkpt lat="49.72342" lon="4.7832">
        <ele>144.45</ele>
        <time>2011-02-13T09:36:33Z</time>
      </trkpt>
      <trkpt lat="49.72349" lon="4.78321">
        <ele>144.41</ele>
        <time>2011-02-13T09:36:34Z</time>
      </trkpt>
      <trkpt lat="49.72363" lon="4.78322">
        <ele>144.51</ele>
        <time>2011-02-13T09:36:36Z</time>
      </trkpt>
      <trkpt lat="49.72373" lon="4.78324">
        <ele>144.63</ele>
        <time>2011-02-13T09:36:37Z</time>
      </trkpt>
      <trkpt lat="49.72384" lon="4.78325">
        <ele>144.81</ele>
        <time>2011-02-13T09:36:39Z</time>
      </trkpt>
      <trkpt lat="49.72394" lon="4.78327">
        <ele>145.11</ele>
        <time>2011-02-13T09:36:40Z</time>
      </trkpt>
      <trkpt lat="49.72404" lon="4.78331">
        <ele>145.54</ele>
        <time>2011-02-13T09:36:42Z</time>
      </trkpt>
      <trkpt lat="49.72418" lon="4.78341">
        <ele>145.88</ele>
        <time>2011-02-13T09:36:43Z</time>
      </trkpt>
      <trkpt lat="49.72429" lon="4.78351">
        <ele>145.913</ele>
        <time>2011-02-13T09:36:45Z</time>
      </trkpt>
      <trkpt lat="49.72442" lon="4.78363">
        <ele>146.01</ele>
        <time>2011-02-13T09:36:48Z</time>
      </trkpt>
      <trkpt lat="49.72453" lon="4.7837">
        <ele>145.85</ele>
        <time>2011-02-13T09:36:49Z</time>
      </trkpt>
      <trkpt lat="49.72465" lon="4.78381">
        <ele>145.27</ele>
        <time>2011-02-13T09:36:50Z</time>
      </trkpt>
      <trkpt lat="49.7248" lon="4.78393">
        <ele>144.939</ele>
        <time>2011-02-13T09:36:52Z</time>
      </trkpt>
      <trkpt lat="49.72487" lon="4.784">
        <ele>144.869</ele>
        <time>2011-02-13T09:36:54Z</time>
      </trkpt>
      <trkpt lat="49.72499" lon="4.78409">
        <ele>144.7</ele>
        <time>2011-02-13T09:36:55Z</time>
      </trkpt>
      <trkpt lat="49.72508" lon="4.78416">
        <ele>144.261</ele>
        <time>2011-02-13T09:36:57Z</time>
      </trkpt>
      <trkpt lat="49.72516" lon="4.78421">
        <ele>143.811</ele>
        <time>2011-02-13T09:36:59Z</time>
      </trkpt>
      <trkpt lat="49.72523" lon="4.78426">
        <ele>143.431</ele>
        <time>2011-02-13T09:37:00Z</time>
      </trkpt>
      <trkpt lat="49.7253" lon="4.78432">
        <ele>142.92</ele>
        <time>2011-02-13T09:37:01Z</time>
      </trkpt>
      <trkpt lat="49.72541" lon="4.78438">
        <ele>142.28</ele>
        <time>2011-02-13T09:37:03Z</time>
      </trkpt>
      <trkpt lat="49.72547" lon="4.7844">
        <ele>142.03</ele>
        <time>2011-02-13T09:37:05Z</time>
      </trkpt>
      <trkpt lat="49.72557" lon="4.78443">
        <ele>141.568</ele>
        <time>2011-02-13T09:37:06Z</time>
      </trkpt>
      <trkpt lat="49.72562" lon="4.78444">
        <ele>141.433</ele>
        <time>2011-02-13T09:37:07Z</time>
      </trkpt>
      <trkpt lat="49.72567" lon="4.78446">
        <ele>141.301</ele>
        <time>2011-02-13T09:37:08Z</time>
      </trkpt>
      <trkpt lat="49.72576" lon="4.78452">
        <ele>141.046</ele>
        <time>2011-02-13T09:37:10Z</time>
      </trkpt>
      <trkpt lat="49.72581" lon="4.78456">
        <ele>140.965</ele>
        <time>2011-02-13T09:37:11Z</time>
      </trkpt>
      <trkpt lat="49.72591" lon="4.78462">
        <ele>141.006</ele>
        <time>2011-02-13T09:37:13Z</time>
      </trkpt>
      <trkpt lat="49.726" lon="4.78466">
        <ele>141.199</ele>
        <time>2011-02-13T09:37:14Z</time>
      </trkpt>
      <trkpt lat="49.7261" lon="4.7847">
        <ele>141.9</ele>
        <time>2011-02-13T09:37:16Z</time>
      </trkpt>
      <trkpt lat="49.72619" lon="4.78475">
        <ele>142.83</ele>
        <time>2011-02-13T09:37:17Z</time>
      </trkpt>
      <trkpt lat="49.72628" lon="4.78476">
        <ele>143.71</ele>
        <time>2011-02-13T09:37:18Z</time>
      </trkpt>
      <trkpt lat="49.72638" lon="4.78478">
        <ele>144.28</ele>
        <time>2011-02-13T09:37:21Z</time>
      </trkpt>
      <trkpt lat="49.72646" lon="4.78479">
        <ele>144.75</ele>
        <time>2011-02-13T09:37:22Z</time>
      </trkpt>
      <trkpt lat="49.72655" lon="4.78483">
        <ele>144.88</ele>
        <time>2011-02-13T09:37:24Z</time>
      </trkpt>
      <trkpt lat="49.72664" lon="4.78486">
        <ele>144.83</ele>
        <time>2011-02-13T09:37:25Z</time>
      </trkpt>
      <trkpt lat="49.72669" lon="4.78487">
        <ele>144.85</ele>
        <time>2011-02-13T09:37:26Z</time>
      </trkpt>
      <trkpt lat="49.72679" lon="4.78489">
        <ele>145.08</ele>
        <time>2011-02-13T09:37:28Z</time>
      </trkpt>
      <trkpt lat="49.72689" lon="4.7849">
        <ele>145.48</ele>
        <time>2011-02-13T09:37:29Z</time>
      </trkpt>
      <trkpt lat="49.727" lon="4.78491">
        <ele>145.996</ele>
        <time>2011-02-13T09:37:31Z</time>
      </trkpt>
      <trkpt lat="49.72709" lon="4.78493">
        <ele>146.446</ele>
        <time>2011-02-13T09:37:32Z</time>
      </trkpt>
      <trkpt lat="49.72718" lon="4.78496">
        <ele>146.864</ele>
        <time>2011-02-13T09:37:34Z</time>
      </trkpt>
      <trkpt lat="49.72726" lon="4.78499">
        <ele>147.133</ele>
        <time>2011-02-13T09:37:35Z</time>
      </trkpt>
      <trkpt lat="49.72733" lon="4.78501">
        <ele>147.133</ele>
        <time>2011-02-13T09:37:36Z</time>
      </trkpt>
      <trkpt lat="49.72738" lon="4.78502">
        <ele>147.015</ele>
        <time>2011-02-13T09:37:37Z</time>
      </trkpt>
      <trkpt lat="49.72744" lon="4.78504">
        <ele>147.031</ele>
        <time>2011-02-13T09:37:39Z</time>
      </trkpt>
      <trkpt lat="49.72752" lon="4.78508">
        <ele>147.028</ele>
        <time>2011-02-13T09:37:40Z</time>
      </trkpt>
      <trkpt lat="49.72762" lon="4.78511">
        <ele>147.04</ele>
        <time>2011-02-13T09:37:41Z</time>
      </trkpt>
      <trkpt lat="49.72768" lon="4.78512">
        <ele>147.09</ele>
        <time>2011-02-13T09:37:42Z</time>
      </trkpt>
      <trkpt lat="49.72781" lon="4.78514">
        <ele>147.42</ele>
        <time>2011-02-13T09:37:44Z</time>
      </trkpt>
      <trkpt lat="49.72787" lon="4.78514">
        <ele>147.57</ele>
        <time>2011-02-13T09:37:46Z</time>
      </trkpt>
      <trkpt lat="49.72796" lon="4.78516">
        <ele>147.72</ele>
        <time>2011-02-13T09:37:47Z</time>
      </trkpt>
      <trkpt lat="49.72804" lon="4.78517">
        <ele>147.66</ele>
        <time>2011-02-13T09:37:48Z</time>
      </trkpt>
      <trkpt lat="49.72808" lon="4.78518">
        <ele>147.6</ele>
        <time>2011-02-13T09:37:49Z</time>
      </trkpt>
      <trkpt lat="49.72812" lon="4.78518">
        <ele>147.47</ele>
        <time>2011-02-13T09:37:51Z</time>
      </trkpt>
      <trkpt lat="49.72819" lon="4.78518">
        <ele>147.09</ele>
        <time>2011-02-13T09:37:52Z</time>
      </trkpt>
      <trkpt lat="49.72828" lon="4.78518">
        <ele>146.96</ele>
        <time>2011-02-13T09:37:54Z</time>
      </trkpt>
      <trkpt lat="49.72844" lon="4.78517">
        <ele>146.85</ele>
        <time>2011-02-13T09:37:56Z</time>
      </trkpt>
      <trkpt lat="49.72852" lon="4.78518">
        <ele>146.74</ele>
        <time>2011-02-13T09:37:57Z</time>
      </trkpt>
      <trkpt lat="49.72862" lon="4.78519">
        <ele>146.78</ele>
        <time>2011-02-13T09:37:59Z</time>
      </trkpt>
      <trkpt lat="49.72868" lon="4.78519">
        <ele>146.77</ele>
        <time>2011-02-13T09:38:00Z</time>
      </trkpt>
      <trkpt lat="49.72882" lon="4.78518">
        <ele>146.61</ele>
        <time>2011-02-13T09:38:01Z</time>
      </trkpt>
      <trkpt lat="49.72888" lon="4.78518">
        <ele>146.64</ele>
        <time>2011-02-13T09:38:03Z</time>
      </trkpt>
      <trkpt lat="49.72898" lon="4.78516">
        <ele>146.86</ele>
        <time>2011-02-13T09:38:04Z</time>
      </trkpt>
      <trkpt lat="49.72909" lon="4.78514">
        <ele>147.13</ele>
        <time>2011-02-13T09:38:06Z</time>
      </trkpt>
      <trkpt lat="49.7292" lon="4.78513">
        <ele>147.47</ele>
        <time>2011-02-13T09:38:07Z</time>
      </trkpt>
      <trkpt lat="49.72931" lon="4.78511">
        <ele>148.23</ele>
        <time>2011-02-13T09:38:08Z</time>
      </trkpt>
      <trkpt lat="49.72943" lon="4.78508">
        <ele>149</ele>
        <time>2011-02-13T09:38:10Z</time>
      </trkpt>
      <trkpt lat="49.72954" lon="4.78506">
        <ele>149.71</ele>
        <time>2011-02-13T09:38:12Z</time>
      </trkpt>
      <trkpt lat="49.72968" lon="4.78503">
        <ele>150.41</ele>
        <time>2011-02-13T09:38:14Z</time>
      </trkpt>
      <trkpt lat="49.72975" lon="4.78502">
        <ele>150.63</ele>
        <time>2011-02-13T09:38:15Z</time>
      </trkpt>
      <trkpt lat="49.7299" lon="4.78498">
        <ele>150.86</ele>
        <time>2011-02-13T09:38:18Z</time>
      </trkpt>
      <trkpt lat="49.73002" lon="4.78493">
        <ele>150.69</ele>
        <time>2011-02-13T09:38:19Z</time>
      </trkpt>
      <trkpt lat="49.73013" lon="4.78488">
        <ele>150.99</ele>
        <time>2011-02-13T09:38:20Z</time>
      </trkpt>
      <trkpt lat="49.73018" lon="4.78486">
        <ele>151.28</ele>
        <time>2011-02-13T09:38:21Z</time>
      </trkpt>
      <trkpt lat="49.73025" lon="4.78484">
        <ele>151.57</ele>
        <time>2011-02-13T09:38:23Z</time>
      </trkpt>
      <trkpt lat="49.73035" lon="4.78481">
        <ele>152.29</ele>
        <time>2011-02-13T09:38:24Z</time>
      </trkpt>
      <trkpt lat="49.73045" lon="4.78479">
        <ele>153.43</ele>
        <time>2011-02-13T09:38:25Z</time>
      </trkpt>
      <trkpt lat="49.7305" lon="4.78478">
        <ele>154.09</ele>
        <time>2011-02-13T09:38:27Z</time>
      </trkpt>
      <trkpt lat="49.73063" lon="4.78474">
        <ele>155.24</ele>
        <time>2011-02-13T09:38:29Z</time>
      </trkpt>
      <trkpt lat="49.73071" lon="4.78469">
        <ele>155.36</ele>
        <time>2011-02-13T09:38:30Z</time>
      </trkpt>
      <trkpt lat="49.73082" lon="4.78463">
        <ele>155.41</ele>
        <time>2011-02-13T09:38:32Z</time>
      </trkpt>
      <trkpt lat="49.73096" lon="4.78455">
        <ele>154.97</ele>
        <time>2011-02-13T09:38:33Z</time>
      </trkpt>
      <trkpt lat="49.73108" lon="4.78449">
        <ele>154.26</ele>
        <time>2011-02-13T09:38:36Z</time>
      </trkpt>
      <trkpt lat="49.7312" lon="4.78442">
        <ele>153.72</ele>
        <time>2011-02-13T09:38:37Z</time>
      </trkpt>
      <trkpt lat="49.73133" lon="4.78433">
        <ele>153.02</ele>
        <time>2011-02-13T09:38:38Z</time>
      </trkpt>
      <trkpt lat="49.73146" lon="4.78423">
        <ele>152.2</ele>
        <time>2011-02-13T09:38:41Z</time>
      </trkpt>
      <trkpt lat="49.73157" lon="4.78414">
        <ele>151.4</ele>
        <time>2011-02-13T09:38:42Z</time>
      </trkpt>
      <trkpt lat="49.73168" lon="4.78404">
        <ele>151.16</ele>
        <time>2011-02-13T09:38:43Z</time>
      </trkpt>
      <trkpt lat="49.73173" lon="4.784">
        <ele>151.26</ele>
        <time>2011-02-13T09:38:44Z</time>
      </trkpt>
      <trkpt lat="49.7318" lon="4.78395">
        <ele>151.36</ele>
        <time>2011-02-13T09:38:45Z</time>
      </trkpt>
      <trkpt lat="49.73186" lon="4.7839">
        <ele>151.51</ele>
        <time>2011-02-13T09:38:47Z</time>
      </trkpt>
      <trkpt lat="49.73202" lon="4.78376">
        <ele>152.34</ele>
        <time>2011-02-13T09:38:48Z</time>
      </trkpt>
      <trkpt lat="49.73207" lon="4.78371">
        <ele>152.85</ele>
        <time>2011-02-13T09:38:50Z</time>
      </trkpt>
      <trkpt lat="49.73217" lon="4.78364">
        <ele>153.76</ele>
        <time>2011-02-13T09:38:51Z</time>
      </trkpt>
      <trkpt lat="49.73226" lon="4.78357">
        <ele>154.07</ele>
        <time>2011-02-13T09:38:53Z</time>
      </trkpt>
      <trkpt lat="49.73235" lon="4.78351">
        <ele>154.23</ele>
        <time>2011-02-13T09:38:54Z</time>
      </trkpt>
      <trkpt lat="49.73244" lon="4.78343">
        <ele>154.14</ele>
        <time>2011-02-13T09:38:56Z</time>
      </trkpt>
      <trkpt lat="49.73255" lon="4.78328">
        <ele>153.69</ele>
        <time>2011-02-13T09:38:58Z</time>
      </trkpt>
      <trkpt lat="49.73267" lon="4.78311">
        <ele>153.11</ele>
        <time>2011-02-13T09:39:00Z</time>
      </trkpt>
      <trkpt lat="49.73272" lon="4.78303">
        <ele>152.83</ele>
        <time>2011-02-13T09:39:01Z</time>
      </trkpt>
      <trkpt lat="49.73283" lon="4.78287">
        <ele>152.28</ele>
        <time>2011-02-13T09:39:03Z</time>
      </trkpt>
      <trkpt lat="49.73294" lon="4.78273">
        <ele>151.6</ele>
        <time>2011-02-13T09:39:05Z</time>
      </trkpt>
      <trkpt lat="49.733" lon="4.78266">
        <ele>151.3</ele>
        <time>2011-02-13T09:39:06Z</time>
      </trkpt>
      <trkpt lat="49.73306" lon="4.7826">
        <ele>150.97</ele>
        <time>2011-02-13T09:39:07Z</time>
      </trkpt>
      <trkpt lat="49.73318" lon="4.78247">
        <ele>150.09</ele>
        <time>2011-02-13T09:39:09Z</time>
      </trkpt>
      <trkpt lat="49.7333" lon="4.78234">
        <ele>149.25</ele>
        <time>2011-02-13T09:39:11Z</time>
      </trkpt>
      <trkpt lat="49.73336" lon="4.78228">
        <ele>148.84</ele>
        <time>2011-02-13T09:39:12Z</time>
      </trkpt>
      <trkpt lat="49.73347" lon="4.78216">
        <ele>148.12</ele>
        <time>2011-02-13T09:39:14Z</time>
      </trkpt>
      <trkpt lat="49.73357" lon="4.78204">
        <ele>147.58</ele>
        <time>2011-02-13T09:39:16Z</time>
      </trkpt>
      <trkpt lat="49.73367" lon="4.78189">
        <ele>147.06</ele>
        <time>2011-02-13T09:39:18Z</time>
      </trkpt>
      <trkpt lat="49.73371" lon="4.78182">
        <ele>146.88</ele>
        <time>2011-02-13T09:39:19Z</time>
      </trkpt>
      <trkpt lat="49.73376" lon="4.78174">
        <ele>146.7</ele>
        <time>2011-02-13T09:39:20Z</time>
      </trkpt>
      <trkpt lat="49.73385" lon="4.78159">
        <ele>146.16</ele>
        <time>2011-02-13T09:39:22Z</time>
      </trkpt>
      <trkpt lat="49.73394" lon="4.78144">
        <ele>145.64</ele>
        <time>2011-02-13T09:39:24Z</time>
      </trkpt>
      <trkpt lat="49.73398" lon="4.78136">
        <ele>145.41</ele>
        <time>2011-02-13T09:39:25Z</time>
      </trkpt>
      <trkpt lat="49.73405" lon="4.78118">
        <ele>145.07</ele>
        <time>2011-02-13T09:39:27Z</time>
      </trkpt>
      <trkpt lat="49.73408" lon="4.78109">
        <ele>144.91</ele>
        <time>2011-02-13T09:39:28Z</time>
      </trkpt>
      <trkpt lat="49.73411" lon="4.781">
        <ele>144.77</ele>
        <time>2011-02-13T09:39:29Z</time>
      </trkpt>
      <trkpt lat="49.73416" lon="4.78084">
        <ele>144.61</ele>
        <time>2011-02-13T09:39:31Z</time>
      </trkpt>
      <trkpt lat="49.73422" lon="4.78069">
        <ele>144.77</ele>
        <time>2011-02-13T09:39:33Z</time>
      </trkpt>
      <trkpt lat="49.73425" lon="4.78062">
        <ele>144.85</ele>
        <time>2011-02-13T09:39:34Z</time>
      </trkpt>
      <trkpt lat="49.73428" lon="4.78056">
        <ele>144.93</ele>
        <time>2011-02-13T09:39:35Z</time>
      </trkpt>
      <trkpt lat="49.73435" lon="4.78044">
        <ele>145.11</ele>
        <time>2011-02-13T09:39:37Z</time>
      </trkpt>
      <trkpt lat="49.73442" lon="4.78033">
        <ele>145.33</ele>
        <time>2011-02-13T09:39:39Z</time>
      </trkpt>
      <trkpt lat="49.73449" lon="4.78021">
        <ele>145.53</ele>
        <time>2011-02-13T09:39:41Z</time>
      </trkpt>
      <trkpt lat="49.73453" lon="4.78016">
        <ele>145.6</ele>
        <time>2011-02-13T09:39:42Z</time>
      </trkpt>
      <trkpt lat="49.73459" lon="4.78004">
        <ele>145.67</ele>
        <time>2011-02-13T09:39:43Z</time>
      </trkpt>
      <trkpt lat="49.73462" lon="4.77998">
        <ele>145.7</ele>
        <time>2011-02-13T09:39:45Z</time>
      </trkpt>
      <trkpt lat="49.73468" lon="4.77988">
        <ele>145.72</ele>
        <time>2011-02-13T09:39:46Z</time>
      </trkpt>
      <trkpt lat="49.73472" lon="4.77979">
        <ele>145.78</ele>
        <time>2011-02-13T09:39:48Z</time>
      </trkpt>
      <trkpt lat="49.73475" lon="4.77971">
        <ele>145.82</ele>
        <time>2011-02-13T09:39:49Z</time>
      </trkpt>
      <trkpt lat="49.73476" lon="4.77967">
        <ele>145.72</ele>
        <time>2011-02-13T09:39:50Z</time>
      </trkpt>
      <trkpt lat="49.73481" lon="4.77958">
        <ele>145.5</ele>
        <time>2011-02-13T09:39:52Z</time>
      </trkpt>
      <trkpt lat="49.73483" lon="4.77952">
        <ele>145.33</ele>
        <time>2011-02-13T09:39:53Z</time>
      </trkpt>
      <trkpt lat="49.73486" lon="4.77945">
        <ele>145.16</ele>
        <time>2011-02-13T09:39:54Z</time>
      </trkpt>
      <trkpt lat="49.7349" lon="4.77933">
        <ele>144.77</ele>
        <time>2011-02-13T09:39:56Z</time>
      </trkpt>
      <trkpt lat="49.73492" lon="4.77927">
        <ele>144.53</ele>
        <time>2011-02-13T09:39:57Z</time>
      </trkpt>
      <trkpt lat="49.73495" lon="4.7792">
        <ele>144.25</ele>
        <time>2011-02-13T09:39:58Z</time>
      </trkpt>
      <trkpt lat="49.73499" lon="4.77905">
        <ele>143.9</ele>
        <time>2011-02-13T09:40:00Z</time>
      </trkpt>
      <trkpt lat="49.73501" lon="4.77898">
        <ele>143.76</ele>
        <time>2011-02-13T09:40:01Z</time>
      </trkpt>
      <trkpt lat="49.73504" lon="4.77882">
        <ele>143.68</ele>
        <time>2011-02-13T09:40:03Z</time>
      </trkpt>
      <trkpt lat="49.73507" lon="4.77866">
        <ele>143.89</ele>
        <time>2011-02-13T09:40:05Z</time>
      </trkpt>
      <trkpt lat="49.7351" lon="4.77849">
        <ele>144.23</ele>
        <time>2011-02-13T09:40:06Z</time>
      </trkpt>
      <trkpt lat="49.73511" lon="4.77842">
        <ele>144.45</ele>
        <time>2011-02-13T09:40:07Z</time>
      </trkpt>
      <trkpt lat="49.73514" lon="4.77828">
        <ele>145.03</ele>
        <time>2011-02-13T09:40:09Z</time>
      </trkpt>
      <trkpt lat="49.73517" lon="4.77816">
        <ele>146.09</ele>
        <time>2011-02-13T09:40:11Z</time>
      </trkpt>
      <trkpt lat="49.73519" lon="4.77803">
        <ele>147.24</ele>
        <time>2011-02-13T09:40:13Z</time>
      </trkpt>
      <trkpt lat="49.7352" lon="4.77795">
        <ele>147.748</ele>
        <time>2011-02-13T09:40:14Z</time>
      </trkpt>
      <trkpt lat="49.73522" lon="4.77777">
        <ele>148.772</ele>
        <time>2011-02-13T09:40:16Z</time>
      </trkpt>
      <trkpt lat="49.73523" lon="4.77767">
        <ele>149.187</ele>
        <time>2011-02-13T09:40:17Z</time>
      </trkpt>
      <trkpt lat="49.73526" lon="4.77752">
        <ele>149.83</ele>
        <time>2011-02-13T09:40:19Z</time>
      </trkpt>
      <trkpt lat="49.73529" lon="4.77736">
        <ele>150.173</ele>
        <time>2011-02-13T09:40:21Z</time>
      </trkpt>
      <trkpt lat="49.7353" lon="4.77721">
        <ele>150.196</ele>
        <time>2011-02-13T09:40:23Z</time>
      </trkpt>
      <trkpt lat="49.73531" lon="4.77704">
        <ele>150.036</ele>
        <time>2011-02-13T09:40:25Z</time>
      </trkpt>
      <trkpt lat="49.73532" lon="4.77696">
        <ele>149.953</ele>
        <time>2011-02-13T09:40:26Z</time>
      </trkpt>
      <trkpt lat="49.73534" lon="4.77679">
        <ele>150.167</ele>
        <time>2011-02-13T09:40:28Z</time>
      </trkpt>
      <trkpt lat="49.73536" lon="4.77672">
        <ele>150.36</ele>
        <time>2011-02-13T09:40:29Z</time>
      </trkpt>
      <trkpt lat="49.7354" lon="4.77661">
        <ele>150.564</ele>
        <time>2011-02-13T09:40:31Z</time>
      </trkpt>
      <trkpt lat="49.73543" lon="4.77648">
        <ele>150.768</ele>
        <time>2011-02-13T09:40:33Z</time>
      </trkpt>
      <trkpt lat="49.73543" lon="4.77632">
        <ele>151.001</ele>
        <time>2011-02-13T09:40:35Z</time>
      </trkpt>
      <trkpt lat="49.73544" lon="4.77625">
        <ele>151.08</ele>
        <time>2011-02-13T09:40:36Z</time>
      </trkpt>
      <trkpt lat="49.73548" lon="4.77615">
        <ele>151.12</ele>
        <time>2011-02-13T09:40:38Z</time>
      </trkpt>
      <trkpt lat="49.73551" lon="4.77612">
        <ele>151.16</ele>
        <time>2011-02-13T09:40:40Z</time>
      </trkpt>
      <trkpt lat="49.73557" lon="4.77608">
        <ele>151.2</ele>
        <time>2011-02-13T09:40:41Z</time>
      </trkpt>
      <trkpt lat="49.73564" lon="4.77605">
        <ele>151.25</ele>
        <time>2011-02-13T09:40:43Z</time>
      </trkpt>
      <trkpt lat="49.73566" lon="4.77604">
        <ele>151.31</ele>
        <time>2011-02-13T09:40:44Z</time>
      </trkpt>
      <trkpt lat="49.73571" lon="4.77599">
        <ele>151.454</ele>
        <time>2011-02-13T09:40:46Z</time>
      </trkpt>
      <trkpt lat="49.73574" lon="4.77597">
        <ele>151.327</ele>
        <time>2011-02-13T09:40:47Z</time>
      </trkpt>
      <trkpt lat="49.73575" lon="4.77596">
        <ele>151.156</ele>
        <time>2011-02-13T09:40:48Z</time>
      </trkpt>
      <trkpt lat="49.73581" lon="4.77596">
        <ele>151.052</ele>
        <time>2011-02-13T09:40:50Z</time>
      </trkpt>
      <trkpt lat="49.73589" lon="4.77597">
        <ele>150.99</ele>
        <time>2011-02-13T09:40:52Z</time>
      </trkpt>
      <trkpt lat="49.73595" lon="4.77597">
        <ele>150.883</ele>
        <time>2011-02-13T09:40:53Z</time>
      </trkpt>
      <trkpt lat="49.73605" lon="4.77598">
        <ele>150.695</ele>
        <time>2011-02-13T09:40:55Z</time>
      </trkpt>
      <trkpt lat="49.73617" lon="4.77599">
        <ele>150.427</ele>
        <time>2011-02-13T09:40:57Z</time>
      </trkpt>
      <trkpt lat="49.73622" lon="4.776">
        <ele>150.16</ele>
        <time>2011-02-13T09:40:59Z</time>
      </trkpt>
      <trkpt lat="49.73632" lon="4.77602">
        <ele>149.184</ele>
        <time>2011-02-13T09:41:00Z</time>
      </trkpt>
      <trkpt lat="49.73641" lon="4.77601">
        <ele>147.843</ele>
        <time>2011-02-13T09:41:01Z</time>
      </trkpt>
      <trkpt lat="49.73652" lon="4.77601">
        <ele>146.67</ele>
        <time>2011-02-13T09:41:03Z</time>
      </trkpt>
      <trkpt lat="49.73657" lon="4.77601">
        <ele>146.167</ele>
        <time>2011-02-13T09:41:04Z</time>
      </trkpt>
      <trkpt lat="49.73667" lon="4.77603">
        <ele>145.346</ele>
        <time>2011-02-13T09:41:06Z</time>
      </trkpt>
      <trkpt lat="49.73671" lon="4.77604">
        <ele>145.031</ele>
        <time>2011-02-13T09:41:07Z</time>
      </trkpt>
      <trkpt lat="49.73679" lon="4.77606">
        <ele>144.21</ele>
        <time>2011-02-13T09:41:10Z</time>
      </trkpt>
      <trkpt lat="49.73687" lon="4.77605">
        <ele>143.59</ele>
        <time>2011-02-13T09:41:11Z</time>
      </trkpt>
      <trkpt lat="49.73695" lon="4.776">
        <ele>142.748</ele>
        <time>2011-02-13T09:41:12Z</time>
      </trkpt>
      <trkpt lat="49.73699" lon="4.77596">
        <ele>142.343</ele>
        <time>2011-02-13T09:41:13Z</time>
      </trkpt>
      <trkpt lat="49.73708" lon="4.77588">
        <ele>141.385</ele>
        <time>2011-02-13T09:41:15Z</time>
      </trkpt>
      <trkpt lat="49.73713" lon="4.77584">
        <ele>140.961</ele>
        <time>2011-02-13T09:41:16Z</time>
      </trkpt>
      <trkpt lat="49.73724" lon="4.77578">
        <ele>140.746</ele>
        <time>2011-02-13T09:41:18Z</time>
      </trkpt>
      <trkpt lat="49.73732" lon="4.77573">
        <ele>141.007</ele>
        <time>2011-02-13T09:41:20Z</time>
      </trkpt>
      <trkpt lat="49.73736" lon="4.7757">
        <ele>141.33</ele>
        <time>2011-02-13T09:41:21Z</time>
      </trkpt>
      <trkpt lat="49.73744" lon="4.77564">
        <ele>142.082</ele>
        <time>2011-02-13T09:41:23Z</time>
      </trkpt>
      <trkpt lat="49.73747" lon="4.77561">
        <ele>142.378</ele>
        <time>2011-02-13T09:41:24Z</time>
      </trkpt>
      <trkpt lat="49.73751" lon="4.77559">
        <ele>142.777</ele>
        <time>2011-02-13T09:41:25Z</time>
      </trkpt>
      <trkpt lat="49.7376" lon="4.77554">
        <ele>143.69</ele>
        <time>2011-02-13T09:41:27Z</time>
      </trkpt>
      <trkpt lat="49.7377" lon="4.77552">
        <ele>144.24</ele>
        <time>2011-02-13T09:41:29Z</time>
      </trkpt>
      <trkpt lat="49.7378" lon="4.77552">
        <ele>144.498</ele>
        <time>2011-02-13T09:41:31Z</time>
      </trkpt>
      <trkpt lat="49.73784" lon="4.77553">
        <ele>144.555</ele>
        <time>2011-02-13T09:41:32Z</time>
      </trkpt>
      <trkpt lat="49.73788" lon="4.7756">
        <ele>144.862</ele>
        <time>2011-02-13T09:41:34Z</time>
      </trkpt>
      <trkpt lat="49.73789" lon="4.77565">
        <ele>145.069</ele>
        <time>2011-02-13T09:41:35Z</time>
      </trkpt>
      <trkpt lat="49.7379" lon="4.77576">
        <ele>145.408</ele>
        <time>2011-02-13T09:41:37Z</time>
      </trkpt>
      <trkpt lat="49.73789" lon="4.77582">
        <ele>145.672</ele>
        <time>2011-02-13T09:41:39Z</time>
      </trkpt>
      <trkpt lat="49.73789" lon="4.77593">
        <ele>146.33</ele>
        <time>2011-02-13T09:41:40Z</time>
      </trkpt>
      <trkpt lat="49.73787" lon="4.77604">
        <ele>147.18</ele>
        <time>2011-02-13T09:41:41Z</time>
      </trkpt>
      <trkpt lat="49.73786" lon="4.77616">
        <ele>147.84</ele>
        <time>2011-02-13T09:41:44Z</time>
      </trkpt>
      <trkpt lat="49.73784" lon="4.77627">
        <ele>148.06</ele>
        <time>2011-02-13T09:41:45Z</time>
      </trkpt>
      <trkpt lat="49.7378" lon="4.77637">
        <ele>147.7</ele>
        <time>2011-02-13T09:41:46Z</time>
      </trkpt>
      <trkpt lat="49.73778" lon="4.77641">
        <ele>147.542</ele>
        <time>2011-02-13T09:41:47Z</time>
      </trkpt>
      <trkpt lat="49.73771" lon="4.77652">
        <ele>147.153</ele>
        <time>2011-02-13T09:41:49Z</time>
      </trkpt>
      <trkpt lat="49.73769" lon="4.77657">
        <ele>146.889</ele>
        <time>2011-02-13T09:41:50Z</time>
      </trkpt>
      <trkpt lat="49.73763" lon="4.77667">
        <ele>146.352</ele>
        <time>2011-02-13T09:41:52Z</time>
      </trkpt>
      <trkpt lat="49.7376" lon="4.77672">
        <ele>146.107</ele>
        <time>2011-02-13T09:41:53Z</time>
      </trkpt>
      <trkpt lat="49.73754" lon="4.77683">
        <ele>146.146</ele>
        <time>2011-02-13T09:41:55Z</time>
      </trkpt>
      <trkpt lat="49.73748" lon="4.77696">
        <ele>146.22</ele>
        <time>2011-02-13T09:41:57Z</time>
      </trkpt>
      <trkpt lat="49.73742" lon="4.77706">
        <ele>146.27</ele>
        <time>2011-02-13T09:41:59Z</time>
      </trkpt>
      <trkpt lat="49.73738" lon="4.77712">
        <ele>146.41</ele>
        <time>2011-02-13T09:42:00Z</time>
      </trkpt>
      <trkpt lat="49.73735" lon="4.77717">
        <ele>146.55</ele>
        <time>2011-02-13T09:42:01Z</time>
      </trkpt>
      <trkpt lat="49.73729" lon="4.7773">
        <ele>146.8</ele>
        <time>2011-02-13T09:42:03Z</time>
      </trkpt>
      <trkpt lat="49.73727" lon="4.77736">
        <ele>146.93</ele>
        <time>2011-02-13T09:42:04Z</time>
      </trkpt>
      <trkpt lat="49.73723" lon="4.77749">
        <ele>147.21</ele>
        <time>2011-02-13T09:42:06Z</time>
      </trkpt>
      <trkpt lat="49.7372" lon="4.77755">
        <ele>147.37</ele>
        <time>2011-02-13T09:42:07Z</time>
      </trkpt>
      <trkpt lat="49.73713" lon="4.77767">
        <ele>147.82</ele>
        <time>2011-02-13T09:42:09Z</time>
      </trkpt>
      <trkpt lat="49.7371" lon="4.77774">
        <ele>148.07</ele>
        <time>2011-02-13T09:42:11Z</time>
      </trkpt>
      <trkpt lat="49.73704" lon="4.77783">
        <ele>148.49</ele>
        <time>2011-02-13T09:42:12Z</time>
      </trkpt>
      <trkpt lat="49.737" lon="4.77792">
        <ele>148.69</ele>
        <time>2011-02-13T09:42:14Z</time>
      </trkpt>
      <trkpt lat="49.73697" lon="4.77801">
        <ele>148.81</ele>
        <time>2011-02-13T09:42:15Z</time>
      </trkpt>
      <trkpt lat="49.73692" lon="4.77812">
        <ele>148.75</ele>
        <time>2011-02-13T09:42:17Z</time>
      </trkpt>
      <trkpt lat="49.73688" lon="4.77824">
        <ele>148.239</ele>
        <time>2011-02-13T09:42:19Z</time>
      </trkpt>
      <trkpt lat="49.73682" lon="4.77837">
        <ele>147.637</ele>
        <time>2011-02-13T09:42:21Z</time>
      </trkpt>
      <trkpt lat="49.73677" lon="4.77847">
        <ele>147.076</ele>
        <time>2011-02-13T09:42:23Z</time>
      </trkpt>
      <trkpt lat="49.73672" lon="4.77857">
        <ele>146.537</ele>
        <time>2011-02-13T09:42:25Z</time>
      </trkpt>
      <trkpt lat="49.73669" lon="4.77863">
        <ele>146.277</ele>
        <time>2011-02-13T09:42:26Z</time>
      </trkpt>
      <trkpt lat="49.73663" lon="4.77875">
        <ele>146.27</ele>
        <time>2011-02-13T09:42:28Z</time>
      </trkpt>
      <trkpt lat="49.73661" lon="4.7788">
        <ele>146.304</ele>
        <time>2011-02-13T09:42:29Z</time>
      </trkpt>
      <trkpt lat="49.73658" lon="4.77886">
        <ele>146.206</ele>
        <time>2011-02-13T09:42:30Z</time>
      </trkpt>
      <trkpt lat="49.73652" lon="4.77896">
        <ele>146.069</ele>
        <time>2011-02-13T09:42:32Z</time>
      </trkpt>
      <trkpt lat="49.73649" lon="4.77902">
        <ele>146.001</ele>
        <time>2011-02-13T09:42:33Z</time>
      </trkpt>
      <trkpt lat="49.73644" lon="4.77915">
        <ele>146.185</ele>
        <time>2011-02-13T09:42:35Z</time>
      </trkpt>
      <trkpt lat="49.7364" lon="4.77928">
        <ele>146.45</ele>
        <time>2011-02-13T09:42:37Z</time>
      </trkpt>
      <trkpt lat="49.73639" lon="4.77935">
        <ele>146.54</ele>
        <time>2011-02-13T09:42:39Z</time>
      </trkpt>
      <trkpt lat="49.73635" lon="4.77947">
        <ele>146.886</ele>
        <time>2011-02-13T09:42:40Z</time>
      </trkpt>
      <trkpt lat="49.73633" lon="4.77954">
        <ele>147.099</ele>
        <time>2011-02-13T09:42:41Z</time>
      </trkpt>
      <trkpt lat="49.7363" lon="4.77965">
        <ele>147.657</ele>
        <time>2011-02-13T09:42:42Z</time>
      </trkpt>
      <trkpt lat="49.73629" lon="4.77977">
        <ele>148.015</ele>
        <time>2011-02-13T09:42:44Z</time>
      </trkpt>
      <trkpt lat="49.73628" lon="4.77989">
        <ele>148.235</ele>
        <time>2011-02-13T09:42:46Z</time>
      </trkpt>
      <trkpt lat="49.73627" lon="4.78004">
        <ele>148.54</ele>
        <time>2011-02-13T09:42:49Z</time>
      </trkpt>
      <trkpt lat="49.73625" lon="4.78025">
        <ele>149.169</ele>
        <time>2011-02-13T09:42:50Z</time>
      </trkpt>
      <trkpt lat="49.73624" lon="4.7803">
        <ele>149.376</ele>
        <time>2011-02-13T09:42:51Z</time>
      </trkpt>
      <trkpt lat="49.73621" lon="4.78043">
        <ele>149.346</ele>
        <time>2011-02-13T09:42:53Z</time>
      </trkpt>
      <trkpt lat="49.73618" lon="4.78055">
        <ele>149.082</ele>
        <time>2011-02-13T09:42:56Z</time>
      </trkpt>
      <trkpt lat="49.73615" lon="4.78066">
        <ele>148.624</ele>
        <time>2011-02-13T09:42:57Z</time>
      </trkpt>
      <trkpt lat="49.73615" lon="4.78078">
        <ele>148.136</ele>
        <time>2011-02-13T09:42:58Z</time>
      </trkpt>
      <trkpt lat="49.73615" lon="4.78084">
        <ele>148.005</ele>
        <time>2011-02-13T09:42:59Z</time>
      </trkpt>
      <trkpt lat="49.73615" lon="4.78091">
        <ele>147.915</ele>
        <time>2011-02-13T09:43:01Z</time>
      </trkpt>
      <trkpt lat="49.73616" lon="4.78107">
        <ele>148.397</ele>
        <time>2011-02-13T09:43:02Z</time>
      </trkpt>
      <trkpt lat="49.73617" lon="4.78116">
        <ele>148.672</ele>
        <time>2011-02-13T09:43:04Z</time>
      </trkpt>
      <trkpt lat="49.73619" lon="4.78126">
        <ele>148.96</ele>
        <time>2011-02-13T09:43:06Z</time>
      </trkpt>
      <trkpt lat="49.7362" lon="4.78138">
        <ele>149.1</ele>
        <time>2011-02-13T09:43:08Z</time>
      </trkpt>
      <trkpt lat="49.7362" lon="4.78145">
        <ele>149.194</ele>
        <time>2011-02-13T09:43:10Z</time>
      </trkpt>
      <trkpt lat="49.73619" lon="4.78154">
        <ele>149.311</ele>
        <time>2011-02-13T09:43:11Z</time>
      </trkpt>
      <trkpt lat="49.73617" lon="4.78164">
        <ele>149.564</ele>
        <time>2011-02-13T09:43:12Z</time>
      </trkpt>
      <trkpt lat="49.73617" lon="4.78169">
        <ele>149.757</ele>
        <time>2011-02-13T09:43:13Z</time>
      </trkpt>
      <trkpt lat="49.73616" lon="4.78174">
        <ele>149.92</ele>
        <time>2011-02-13T09:43:15Z</time>
      </trkpt>
      <trkpt lat="49.73616" lon="4.78182">
        <ele>150.123</ele>
        <time>2011-02-13T09:43:16Z</time>
      </trkpt>
      <trkpt lat="49.73616" lon="4.7819">
        <ele>150.03</ele>
        <time>2011-02-13T09:43:18Z</time>
      </trkpt>
      <trkpt lat="49.73616" lon="4.78198">
        <ele>149.785</ele>
        <time>2011-02-13T09:43:19Z</time>
      </trkpt>
      <trkpt lat="49.73616" lon="4.78205">
        <ele>149.358</ele>
        <time>2011-02-13T09:43:21Z</time>
      </trkpt>
      <trkpt lat="49.73616" lon="4.78215">
        <ele>148.816</ele>
        <time>2011-02-13T09:43:22Z</time>
      </trkpt>
      <trkpt lat="49.73616" lon="4.78218">
        <ele>148.845</ele>
        <time>2011-02-13T09:43:24Z</time>
      </trkpt>
      <trkpt lat="49.73617" lon="4.78225">
        <ele>149.111</ele>
        <time>2011-02-13T09:43:25Z</time>
      </trkpt>
      <trkpt lat="49.73619" lon="4.78234">
        <ele>149.525</ele>
        <time>2011-02-13T09:43:26Z</time>
      </trkpt>
      <trkpt lat="49.7362" lon="4.78239">
        <ele>149.579</ele>
        <time>2011-02-13T09:43:27Z</time>
      </trkpt>
      <trkpt lat="49.7362" lon="4.7825">
        <ele>149.71</ele>
        <time>2011-02-13T09:43:30Z</time>
      </trkpt>
      <trkpt lat="49.7362" lon="4.78259">
        <ele>149.68</ele>
        <time>2011-02-13T09:43:31Z</time>
      </trkpt>
      <trkpt lat="49.73619" lon="4.78262">
        <ele>149.73</ele>
        <time>2011-02-13T09:43:32Z</time>
      </trkpt>
      <trkpt lat="49.73617" lon="4.7827">
        <ele>149.95</ele>
        <time>2011-02-13T09:43:34Z</time>
      </trkpt>
      <trkpt lat="49.73615" lon="4.78278">
        <ele>149.981</ele>
        <time>2011-02-13T09:43:36Z</time>
      </trkpt>
      <trkpt lat="49.73613" lon="4.78286">
        <ele>150.011</ele>
        <time>2011-02-13T09:43:38Z</time>
      </trkpt>
      <trkpt lat="49.73612" lon="4.7829">
        <ele>150.098</ele>
        <time>2011-02-13T09:43:39Z</time>
      </trkpt>
      <trkpt lat="49.7361" lon="4.78294">
        <ele>150.163</ele>
        <time>2011-02-13T09:43:40Z</time>
      </trkpt>
      <trkpt lat="49.73609" lon="4.78297">
        <ele>150.13</ele>
        <time>2011-02-13T09:43:41Z</time>
      </trkpt>
      <trkpt lat="49.73605" lon="4.78305">
        <ele>149.945</ele>
        <time>2011-02-13T09:43:42Z</time>
      </trkpt>
      <trkpt lat="49.73599" lon="4.78312">
        <ele>149.591</ele>
        <time>2011-02-13T09:43:44Z</time>
      </trkpt>
      <trkpt lat="49.73596" lon="4.78316">
        <ele>149.503</ele>
        <time>2011-02-13T09:43:45Z</time>
      </trkpt>
      <trkpt lat="49.73594" lon="4.7832">
        <ele>149.477</ele>
        <time>2011-02-13T09:43:46Z</time>
      </trkpt>
      <trkpt lat="49.73589" lon="4.78329">
        <ele>149.475</ele>
        <time>2011-02-13T09:43:48Z</time>
      </trkpt>
      <trkpt lat="49.73583" lon="4.78337">
        <ele>149.526</ele>
        <time>2011-02-13T09:43:50Z</time>
      </trkpt>
      <trkpt lat="49.73577" lon="4.78344">
        <ele>149.382</ele>
        <time>2011-02-13T09:43:52Z</time>
      </trkpt>
      <trkpt lat="49.73569" lon="4.78352">
        <ele>149.213</ele>
        <time>2011-02-13T09:43:54Z</time>
      </trkpt>
      <trkpt lat="49.73562" lon="4.78361">
        <ele>149.474</ele>
        <time>2011-02-13T09:43:56Z</time>
      </trkpt>
      <trkpt lat="49.73558" lon="4.78367">
        <ele>149.643</ele>
        <time>2011-02-13T09:43:57Z</time>
      </trkpt>
      <trkpt lat="49.73552" lon="4.78376">
        <ele>149.866</ele>
        <time>2011-02-13T09:43:59Z</time>
      </trkpt>
      <trkpt lat="49.73551" lon="4.78379">
        <ele>149.813</ele>
        <time>2011-02-13T09:44:01Z</time>
      </trkpt>
      <trkpt lat="49.73543" lon="4.7839">
        <ele>149.845</ele>
        <time>2011-02-13T09:44:02Z</time>
      </trkpt>
      <trkpt lat="49.7354" lon="4.78393">
        <ele>149.782</ele>
        <time>2011-02-13T09:44:04Z</time>
      </trkpt>
      <trkpt lat="49.73535" lon="4.78398">
        <ele>149.51</ele>
        <time>2011-02-13T09:44:05Z</time>
      </trkpt>
      <trkpt lat="49.73529" lon="4.78404">
        <ele>149.43</ele>
        <time>2011-02-13T09:44:06Z</time>
      </trkpt>
      <trkpt lat="49.73522" lon="4.78412">
        <ele>149.75</ele>
        <time>2011-02-13T09:44:08Z</time>
      </trkpt>
      <trkpt lat="49.73518" lon="4.78417">
        <ele>149.64</ele>
        <time>2011-02-13T09:44:10Z</time>
      </trkpt>
      <trkpt lat="49.73517" lon="4.78419">
        <ele>149.52</ele>
        <time>2011-02-13T09:44:11Z</time>
      </trkpt>
      <trkpt lat="49.73515" lon="4.78419">
        <ele>149.5</ele>
        <time>2011-02-13T09:44:12Z</time>
      </trkpt>
      <trkpt lat="49.73511" lon="4.78417">
        <ele>149.434</ele>
        <time>2011-02-13T09:44:14Z</time>
      </trkpt>
      <trkpt lat="49.73505" lon="4.78416">
        <ele>149.062</ele>
        <time>2011-02-13T09:44:16Z</time>
      </trkpt>
      <trkpt lat="49.73503" lon="4.78416">
        <ele>148.75</ele>
        <time>2011-02-13T09:44:17Z</time>
      </trkpt>
      <trkpt lat="49.73496" lon="4.78415">
        <ele>148.177</ele>
        <time>2011-02-13T09:44:19Z</time>
      </trkpt>
      <trkpt lat="49.73493" lon="4.78415">
        <ele>148.07</ele>
        <time>2011-02-13T09:44:20Z</time>
      </trkpt>
      <trkpt lat="49.73484" lon="4.78416">
        <ele>147.916</ele>
        <time>2011-02-13T09:44:22Z</time>
      </trkpt>
      <trkpt lat="49.73475" lon="4.78416">
        <ele>148.07</ele>
        <time>2011-02-13T09:44:24Z</time>
      </trkpt>
      <trkpt lat="49.73468" lon="4.78413">
        <ele>148.33</ele>
        <time>2011-02-13T09:44:26Z</time>
      </trkpt>
      <trkpt lat="49.73465" lon="4.7841">
        <ele>148.53</ele>
        <time>2011-02-13T09:44:27Z</time>
      </trkpt>
      <trkpt lat="49.73459" lon="4.78405">
        <ele>149.1</ele>
        <time>2011-02-13T09:44:29Z</time>
      </trkpt>
      <trkpt lat="49.73452" lon="4.78398">
        <ele>149.69</ele>
        <time>2011-02-13T09:44:31Z</time>
      </trkpt>
      <trkpt lat="49.73445" lon="4.7839">
        <ele>149.91</ele>
        <time>2011-02-13T09:44:33Z</time>
      </trkpt>
      <trkpt lat="49.73439" lon="4.78383">
        <ele>149.54</ele>
        <time>2011-02-13T09:44:35Z</time>
      </trkpt>
      <trkpt lat="49.73436" lon="4.78381">
        <ele>149.23</ele>
        <time>2011-02-13T09:44:36Z</time>
      </trkpt>
      <trkpt lat="49.73429" lon="4.7838">
        <ele>148.75</ele>
        <time>2011-02-13T09:44:38Z</time>
      </trkpt>
      <trkpt lat="49.73423" lon="4.78383">
        <ele>148.9</ele>
        <time>2011-02-13T09:44:40Z</time>
      </trkpt>
      <trkpt lat="49.73417" lon="4.78388">
        <ele>149.57</ele>
        <time>2011-02-13T09:44:42Z</time>
      </trkpt>
      <trkpt lat="49.73414" lon="4.78397">
        <ele>150.6</ele>
        <time>2011-02-13T09:44:45Z</time>
      </trkpt>
      <trkpt lat="49.73412" lon="4.78407">
        <ele>152.09</ele>
        <time>2011-02-13T09:44:46Z</time>
      </trkpt>
      <trkpt lat="49.73411" lon="4.78416">
        <ele>153.41</ele>
        <time>2011-02-13T09:44:47Z</time>
      </trkpt>
      <trkpt lat="49.73411" lon="4.78427">
        <ele>154.2</ele>
        <time>2011-02-13T09:44:49Z</time>
      </trkpt>
      <trkpt lat="49.7341" lon="4.78439">
        <ele>154.11</ele>
        <time>2011-02-13T09:44:52Z</time>
      </trkpt>
      <trkpt lat="49.73411" lon="4.78449">
        <ele>153.865</ele>
        <time>2011-02-13T09:44:53Z</time>
      </trkpt>
      <trkpt lat="49.73412" lon="4.78458">
        <ele>153.945</ele>
        <time>2011-02-13T09:44:54Z</time>
      </trkpt>
      <trkpt lat="49.73414" lon="4.78463">
        <ele>154.115</ele>
        <time>2011-02-13T09:44:55Z</time>
      </trkpt>
      <trkpt lat="49.73417" lon="4.78474">
        <ele>154.564</ele>
        <time>2011-02-13T09:44:58Z</time>
      </trkpt>
      <trkpt lat="49.73418" lon="4.78483">
        <ele>155.122</ele>
        <time>2011-02-13T09:44:59Z</time>
      </trkpt>
      <trkpt lat="49.73418" lon="4.78488">
        <ele>155.478</ele>
        <time>2011-02-13T09:45:00Z</time>
      </trkpt>
      <trkpt lat="49.73419" lon="4.78493">
        <ele>155.83</ele>
        <time>2011-02-13T09:45:01Z</time>
      </trkpt>
      <trkpt lat="49.73419" lon="4.78504">
        <ele>156.27</ele>
        <time>2011-02-13T09:45:02Z</time>
      </trkpt>
      <trkpt lat="49.73421" lon="4.78516">
        <ele>156.517</ele>
        <time>2011-02-13T09:45:04Z</time>
      </trkpt>
      <trkpt lat="49.73421" lon="4.78521">
        <ele>156.563</ele>
        <time>2011-02-13T09:45:05Z</time>
      </trkpt>
      <trkpt lat="49.73422" lon="4.78527">
        <ele>156.59</ele>
        <time>2011-02-13T09:45:07Z</time>
      </trkpt>
      <trkpt lat="49.73423" lon="4.7854">
        <ele>156.56</ele>
        <time>2011-02-13T09:45:08Z</time>
      </trkpt>
      <trkpt lat="49.73424" lon="4.78544">
        <ele>156.53</ele>
        <time>2011-02-13T09:45:09Z</time>
      </trkpt>
      <trkpt lat="49.73424" lon="4.78551">
        <ele>156.33</ele>
        <time>2011-02-13T09:45:11Z</time>
      </trkpt>
      <trkpt lat="49.73425" lon="4.78555">
        <ele>156.12</ele>
        <time>2011-02-13T09:45:12Z</time>
      </trkpt>
      <trkpt lat="49.73425" lon="4.78563">
        <ele>155.45</ele>
        <time>2011-02-13T09:45:15Z</time>
      </trkpt>
      <trkpt lat="49.73425" lon="4.78569">
        <ele>154.77</ele>
        <time>2011-02-13T09:45:16Z</time>
      </trkpt>
      <trkpt lat="49.73424" lon="4.78575">
        <ele>154.252</ele>
        <time>2011-02-13T09:45:18Z</time>
      </trkpt>
      <trkpt lat="49.73422" lon="4.78581">
        <ele>154.034</ele>
        <time>2011-02-13T09:45:20Z</time>
      </trkpt>
      <trkpt lat="49.73419" lon="4.78587">
        <ele>153.895</ele>
        <time>2011-02-13T09:45:22Z</time>
      </trkpt>
      <trkpt lat="49.73414" lon="4.78591">
        <ele>153.742</ele>
        <time>2011-02-13T09:45:24Z</time>
      </trkpt>
      <trkpt lat="49.73412" lon="4.78593">
        <ele>153.66</ele>
        <time>2011-02-13T09:45:25Z</time>
      </trkpt>
      <trkpt lat="49.73408" lon="4.78599">
        <ele>153.64</ele>
        <time>2011-02-13T09:45:27Z</time>
      </trkpt>
      <trkpt lat="49.73405" lon="4.78606">
        <ele>153.62</ele>
        <time>2011-02-13T09:45:29Z</time>
      </trkpt>
      <trkpt lat="49.73403" lon="4.78612">
        <ele>153.73</ele>
        <time>2011-02-13T09:45:31Z</time>
      </trkpt>
      <trkpt lat="49.734" lon="4.78618">
        <ele>153.97</ele>
        <time>2011-02-13T09:45:33Z</time>
      </trkpt>
      <trkpt lat="49.73399" lon="4.78621">
        <ele>154.17</ele>
        <time>2011-02-13T09:45:34Z</time>
      </trkpt>
      <trkpt lat="49.73395" lon="4.78627">
        <ele>154.62</ele>
        <time>2011-02-13T09:45:36Z</time>
      </trkpt>
      <trkpt lat="49.73391" lon="4.78633">
        <ele>154.98</ele>
        <time>2011-02-13T09:45:38Z</time>
      </trkpt>
      <trkpt lat="49.73389" lon="4.78636">
        <ele>155.17</ele>
        <time>2011-02-13T09:45:39Z</time>
      </trkpt>
      <trkpt lat="49.73386" lon="4.78644">
        <ele>155.5</ele>
        <time>2011-02-13T09:45:41Z</time>
      </trkpt>
      <trkpt lat="49.73382" lon="4.78652">
        <ele>155.93</ele>
        <time>2011-02-13T09:45:43Z</time>
      </trkpt>
      <trkpt lat="49.7338" lon="4.78656">
        <ele>156.23</ele>
        <time>2011-02-13T09:45:44Z</time>
      </trkpt>
      <trkpt lat="49.73376" lon="4.78661">
        <ele>156.87</ele>
        <time>2011-02-13T09:45:46Z</time>
      </trkpt>
      <trkpt lat="49.73374" lon="4.78664">
        <ele>157.19</ele>
        <time>2011-02-13T09:45:47Z</time>
      </trkpt>
      <trkpt lat="49.7337" lon="4.78668">
        <ele>157.83</ele>
        <time>2011-02-13T09:45:49Z</time>
      </trkpt>
      <trkpt lat="49.73368" lon="4.7867">
        <ele>158.15</ele>
        <time>2011-02-13T09:45:50Z</time>
      </trkpt>
      <trkpt lat="49.73364" lon="4.78674">
        <ele>158.69</ele>
        <time>2011-02-13T09:45:52Z</time>
      </trkpt>
      <trkpt lat="49.73363" lon="4.78676">
        <ele>158.92</ele>
        <time>2011-02-13T09:45:53Z</time>
      </trkpt>
      <trkpt lat="49.73361" lon="4.78679">
        <ele>159.11</ele>
        <time>2011-02-13T09:45:54Z</time>
      </trkpt>
      <trkpt lat="49.7336" lon="4.7868">
        <ele>159.23</ele>
        <time>2011-02-13T09:45:55Z</time>
      </trkpt>
      <trkpt lat="49.73357" lon="4.78685">
        <ele>159.45</ele>
        <time>2011-02-13T09:45:57Z</time>
      </trkpt>
      <trkpt lat="49.73355" lon="4.7869">
        <ele>159.53</ele>
        <time>2011-02-13T09:45:59Z</time>
      </trkpt>
      <trkpt lat="49.73354" lon="4.78692">
        <ele>159.52</ele>
        <time>2011-02-13T09:46:00Z</time>
      </trkpt>
      <trkpt lat="49.73351" lon="4.78696">
        <ele>159.65</ele>
        <time>2011-02-13T09:46:02Z</time>
      </trkpt>
      <trkpt lat="49.7335" lon="4.78697">
        <ele>159.73</ele>
        <time>2011-02-13T09:46:03Z</time>
      </trkpt>
      <trkpt lat="49.73346" lon="4.787">
        <ele>159.872</ele>
        <time>2011-02-13T09:46:05Z</time>
      </trkpt>
      <trkpt lat="49.73344" lon="4.78703">
        <ele>160.055</ele>
        <time>2011-02-13T09:46:07Z</time>
      </trkpt>
      <trkpt lat="49.73341" lon="4.78707">
        <ele>160.325</ele>
        <time>2011-02-13T09:46:09Z</time>
      </trkpt>
      <trkpt lat="49.73339" lon="4.78711">
        <ele>160.638</ele>
        <time>2011-02-13T09:46:11Z</time>
      </trkpt>
      <trkpt lat="49.73336" lon="4.78716">
        <ele>160.856</ele>
        <time>2011-02-13T09:46:13Z</time>
      </trkpt>
      <trkpt lat="49.73333" lon="4.7872">
        <ele>160.973</ele>
        <time>2011-02-13T09:46:15Z</time>
      </trkpt>
      <trkpt lat="49.7333" lon="4.78725">
        <ele>161.286</ele>
        <time>2011-02-13T09:46:17Z</time>
      </trkpt>
      <trkpt lat="49.73327" lon="4.78729">
        <ele>161.696</ele>
        <time>2011-02-13T09:46:19Z</time>
      </trkpt>
      <trkpt lat="49.73323" lon="4.78733">
        <ele>162.122</ele>
        <time>2011-02-13T09:46:20Z</time>
      </trkpt>
      <trkpt lat="49.7332" lon="4.78736">
        <ele>162.517</ele>
        <time>2011-02-13T09:46:23Z</time>
      </trkpt>
      <trkpt lat="49.73318" lon="4.78739">
        <ele>162.799</ele>
        <time>2011-02-13T09:46:24Z</time>
      </trkpt>
      <trkpt lat="49.73315" lon="4.78742">
        <ele>162.637</ele>
        <time>2011-02-13T09:46:26Z</time>
      </trkpt>
      <trkpt lat="49.73312" lon="4.78746">
        <ele>162.561</ele>
        <time>2011-02-13T09:46:27Z</time>
      </trkpt>
      <trkpt lat="49.7331" lon="4.78749">
        <ele>162.77</ele>
        <time>2011-02-13T09:46:30Z</time>
      </trkpt>
      <trkpt lat="49.73308" lon="4.78753">
        <ele>163.1</ele>
        <time>2011-02-13T09:46:31Z</time>
      </trkpt>
      <trkpt lat="49.73307" lon="4.78755">
        <ele>163.29</ele>
        <time>2011-02-13T09:46:32Z</time>
      </trkpt>
      <trkpt lat="49.73307" lon="4.78757">
        <ele>163.59</ele>
        <time>2011-02-13T09:46:33Z</time>
      </trkpt>
      <trkpt lat="49.73306" lon="4.7876">
        <ele>163.95</ele>
        <time>2011-02-13T09:46:34Z</time>
      </trkpt>
      <trkpt lat="49.73304" lon="4.78766">
        <ele>164.73</ele>
        <time>2011-02-13T09:46:35Z</time>
      </trkpt>
      <trkpt lat="49.73303" lon="4.78769">
        <ele>165.16</ele>
        <time>2011-02-13T09:46:38Z</time>
      </trkpt>
      <trkpt lat="49.73302" lon="4.78772">
        <ele>165.46</ele>
        <time>2011-02-13T09:46:39Z</time>
      </trkpt>
      <trkpt lat="49.73301" lon="4.78774">
        <ele>165.67</ele>
        <time>2011-02-13T09:46:40Z</time>
      </trkpt>
      <trkpt lat="49.733" lon="4.7878">
        <ele>166.08</ele>
        <time>2011-02-13T09:46:42Z</time>
      </trkpt>
      <trkpt lat="49.73298" lon="4.78788">
        <ele>166.37</ele>
        <time>2011-02-13T09:46:44Z</time>
      </trkpt>
      <trkpt lat="49.73297" lon="4.78797">
        <ele>166.52</ele>
        <time>2011-02-13T09:46:46Z</time>
      </trkpt>
      <trkpt lat="49.73296" lon="4.78806">
        <ele>166.62</ele>
        <time>2011-02-13T09:46:48Z</time>
      </trkpt>
      <trkpt lat="49.73296" lon="4.7881">
        <ele>166.36</ele>
        <time>2011-02-13T09:46:49Z</time>
      </trkpt>
      <trkpt lat="49.73295" lon="4.78814">
        <ele>165.97</ele>
        <time>2011-02-13T09:46:50Z</time>
      </trkpt>
      <trkpt lat="49.73295" lon="4.78822">
        <ele>165.2</ele>
        <time>2011-02-13T09:46:51Z</time>
      </trkpt>
      <trkpt lat="49.73295" lon="4.78828">
        <ele>164.6</ele>
        <time>2011-02-13T09:46:54Z</time>
      </trkpt>
      <trkpt lat="49.73296" lon="4.78833">
        <ele>164.06</ele>
        <time>2011-02-13T09:46:55Z</time>
      </trkpt>
      <trkpt lat="49.73296" lon="4.78835">
        <ele>163.81</ele>
        <time>2011-02-13T09:46:56Z</time>
      </trkpt>
      <trkpt lat="49.73296" lon="4.78838">
        <ele>163.59</ele>
        <time>2011-02-13T09:46:57Z</time>
      </trkpt>
      <trkpt lat="49.73295" lon="4.78845">
        <ele>163.81</ele>
        <time>2011-02-13T09:46:59Z</time>
      </trkpt>
      <trkpt lat="49.73295" lon="4.78852">
        <ele>164.21</ele>
        <time>2011-02-13T09:47:01Z</time>
      </trkpt>
      <trkpt lat="49.73294" lon="4.78855">
        <ele>164.44</ele>
        <time>2011-02-13T09:47:02Z</time>
      </trkpt>
      <trkpt lat="49.73293" lon="4.78862">
        <ele>164.95</ele>
        <time>2011-02-13T09:47:04Z</time>
      </trkpt>
      <trkpt lat="49.73291" lon="4.78868">
        <ele>165.52</ele>
        <time>2011-02-13T09:47:06Z</time>
      </trkpt>
      <trkpt lat="49.73291" lon="4.78871">
        <ele>165.8</ele>
        <time>2011-02-13T09:47:07Z</time>
      </trkpt>
      <trkpt lat="49.7329" lon="4.78877">
        <ele>166.42</ele>
        <time>2011-02-13T09:47:09Z</time>
      </trkpt>
      <trkpt lat="49.73289" lon="4.7888">
        <ele>166.73</ele>
        <time>2011-02-13T09:47:10Z</time>
      </trkpt>
      <trkpt lat="49.73288" lon="4.78886">
        <ele>167.18</ele>
        <time>2011-02-13T09:47:12Z</time>
      </trkpt>
      <trkpt lat="49.73286" lon="4.78891">
        <ele>167.51</ele>
        <time>2011-02-13T09:47:14Z</time>
      </trkpt>
      <trkpt lat="49.73285" lon="4.78894">
        <ele>167.74</ele>
        <time>2011-02-13T09:47:15Z</time>
      </trkpt>
      <trkpt lat="49.73285" lon="4.78899">
        <ele>168.11</ele>
        <time>2011-02-13T09:47:17Z</time>
      </trkpt>
      <trkpt lat="49.73284" lon="4.78901">
        <ele>168.31</ele>
        <time>2011-02-13T09:47:18Z</time>
      </trkpt>
      <trkpt lat="49.73284" lon="4.78907">
        <ele>168.74</ele>
        <time>2011-02-13T09:47:20Z</time>
      </trkpt>
      <trkpt lat="49.73283" lon="4.78913">
        <ele>169.28</ele>
        <time>2011-02-13T09:47:22Z</time>
      </trkpt>
      <trkpt lat="49.73282" lon="4.7892">
        <ele>169.91</ele>
        <time>2011-02-13T09:47:24Z</time>
      </trkpt>
      <trkpt lat="49.7328" lon="4.78926">
        <ele>170.47</ele>
        <time>2011-02-13T09:47:26Z</time>
      </trkpt>
      <trkpt lat="49.7328" lon="4.78929">
        <ele>170.74</ele>
        <time>2011-02-13T09:47:27Z</time>
      </trkpt>
      <trkpt lat="49.73278" lon="4.78934">
        <ele>171.15</ele>
        <time>2011-02-13T09:47:29Z</time>
      </trkpt>
      <trkpt lat="49.73278" lon="4.78937">
        <ele>171.27</ele>
        <time>2011-02-13T09:47:30Z</time>
      </trkpt>
      <trkpt lat="49.73278" lon="4.7894">
        <ele>171.32</ele>
        <time>2011-02-13T09:47:31Z</time>
      </trkpt>
      <trkpt lat="49.73278" lon="4.78947">
        <ele>171.36</ele>
        <time>2011-02-13T09:47:33Z</time>
      </trkpt>
      <trkpt lat="49.73278" lon="4.7895">
        <ele>171.38</ele>
        <time>2011-02-13T09:47:34Z</time>
      </trkpt>
      <trkpt lat="49.73278" lon="4.78953">
        <ele>171.34</ele>
        <time>2011-02-13T09:47:35Z</time>
      </trkpt>
      <trkpt lat="49.73279" lon="4.7896">
        <ele>171.22</ele>
        <time>2011-02-13T09:47:37Z</time>
      </trkpt>
      <trkpt lat="49.7328" lon="4.78967">
        <ele>171.21</ele>
        <time>2011-02-13T09:47:39Z</time>
      </trkpt>
      <trkpt lat="49.73281" lon="4.78973">
        <ele>171.41</ele>
        <time>2011-02-13T09:47:41Z</time>
      </trkpt>
      <trkpt lat="49.73282" lon="4.78976">
        <ele>171.52</ele>
        <time>2011-02-13T09:47:42Z</time>
      </trkpt>
      <trkpt lat="49.73282" lon="4.78981">
        <ele>171.58</ele>
        <time>2011-02-13T09:47:44Z</time>
      </trkpt>
      <trkpt lat="49.73282" lon="4.78988">
        <ele>171.95</ele>
        <time>2011-02-13T09:47:46Z</time>
      </trkpt>
      <trkpt lat="49.73284" lon="4.78996">
        <ele>172.34</ele>
        <time>2011-02-13T09:47:48Z</time>
      </trkpt>
      <trkpt lat="49.73285" lon="4.78999">
        <ele>172.47</ele>
        <time>2011-02-13T09:47:49Z</time>
      </trkpt>
      <trkpt lat="49.73287" lon="4.79005">
        <ele>172.65</ele>
        <time>2011-02-13T09:47:51Z</time>
      </trkpt>
      <trkpt lat="49.73287" lon="4.79009">
        <ele>172.69</ele>
        <time>2011-02-13T09:47:52Z</time>
      </trkpt>
      <trkpt lat="49.73288" lon="4.79012">
        <ele>172.76</ele>
        <time>2011-02-13T09:47:53Z</time>
      </trkpt>
      <trkpt lat="49.73289" lon="4.79016">
        <ele>173.01</ele>
        <time>2011-02-13T09:47:54Z</time>
      </trkpt>
      <trkpt lat="49.7329" lon="4.79024">
        <ele>173.35</ele>
        <time>2011-02-13T09:47:56Z</time>
      </trkpt>
      <trkpt lat="49.73292" lon="4.79032">
        <ele>173.68</ele>
        <time>2011-02-13T09:47:58Z</time>
      </trkpt>
      <trkpt lat="49.73293" lon="4.79035">
        <ele>173.89</ele>
        <time>2011-02-13T09:47:59Z</time>
      </trkpt>
      <trkpt lat="49.73295" lon="4.79042">
        <ele>174.41</ele>
        <time>2011-02-13T09:48:01Z</time>
      </trkpt>
      <trkpt lat="49.73296" lon="4.7905">
        <ele>175.03</ele>
        <time>2011-02-13T09:48:03Z</time>
      </trkpt>
      <trkpt lat="49.73298" lon="4.79057">
        <ele>175.23</ele>
        <time>2011-02-13T09:48:05Z</time>
      </trkpt>
      <trkpt lat="49.733" lon="4.79065">
        <ele>175.41</ele>
        <time>2011-02-13T09:48:07Z</time>
      </trkpt>
      <trkpt lat="49.73301" lon="4.79069">
        <ele>175.46</ele>
        <time>2011-02-13T09:48:08Z</time>
      </trkpt>
      <trkpt lat="49.73302" lon="4.79073">
        <ele>175.5</ele>
        <time>2011-02-13T09:48:09Z</time>
      </trkpt>
      <trkpt lat="49.73304" lon="4.79081">
        <ele>175.67</ele>
        <time>2011-02-13T09:48:11Z</time>
      </trkpt>
      <trkpt lat="49.73304" lon="4.79085">
        <ele>175.87</ele>
        <time>2011-02-13T09:48:12Z</time>
      </trkpt>
      <trkpt lat="49.73305" lon="4.79093">
        <ele>176.519</ele>
        <time>2011-02-13T09:48:14Z</time>
      </trkpt>
      <trkpt lat="49.73306" lon="4.79101">
        <ele>177.455</ele>
        <time>2011-02-13T09:48:16Z</time>
      </trkpt>
      <trkpt lat="49.73308" lon="4.79108">
        <ele>178.678</ele>
        <time>2011-02-13T09:48:18Z</time>
      </trkpt>
      <trkpt lat="49.73308" lon="4.79112">
        <ele>179.409</ele>
        <time>2011-02-13T09:48:19Z</time>
      </trkpt>
      <trkpt lat="49.7331" lon="4.79119">
        <ele>181.1</ele>
        <time>2011-02-13T09:48:21Z</time>
      </trkpt>
      <trkpt lat="49.73311" lon="4.79127">
        <ele>182.83</ele>
        <time>2011-02-13T09:48:23Z</time>
      </trkpt>
      <trkpt lat="49.73312" lon="4.79131">
        <ele>183.58</ele>
        <time>2011-02-13T09:48:24Z</time>
      </trkpt>
      <trkpt lat="49.73312" lon="4.79135">
        <ele>184.25</ele>
        <time>2011-02-13T09:48:26Z</time>
      </trkpt>
      <trkpt lat="49.73313" lon="4.79142">
        <ele>185.63</ele>
        <time>2011-02-13T09:48:27Z</time>
      </trkpt>
      <trkpt lat="49.73314" lon="4.79148">
        <ele>187.01</ele>
        <time>2011-02-13T09:48:29Z</time>
      </trkpt>
      <trkpt lat="49.73314" lon="4.79151">
        <ele>187.57</ele>
        <time>2011-02-13T09:48:30Z</time>
      </trkpt>
      <trkpt lat="49.73315" lon="4.79155">
        <ele>188.03</ele>
        <time>2011-02-13T09:48:31Z</time>
      </trkpt>
      <trkpt lat="49.73316" lon="4.79161">
        <ele>188.76</ele>
        <time>2011-02-13T09:48:33Z</time>
      </trkpt>
      <trkpt lat="49.73317" lon="4.79166">
        <ele>189.33</ele>
        <time>2011-02-13T09:48:35Z</time>
      </trkpt>
      <trkpt lat="49.73318" lon="4.79173">
        <ele>189.85</ele>
        <time>2011-02-13T09:48:36Z</time>
      </trkpt>
      <trkpt lat="49.73317" lon="4.79179">
        <ele>190.053</ele>
        <time>2011-02-13T09:48:38Z</time>
      </trkpt>
      <trkpt lat="49.73316" lon="4.79185">
        <ele>190.288</ele>
        <time>2011-02-13T09:48:41Z</time>
      </trkpt>
      <trkpt lat="49.73316" lon="4.79189">
        <ele>190.526</ele>
        <time>2011-02-13T09:48:42Z</time>
      </trkpt>
      <trkpt lat="49.73317" lon="4.79192">
        <ele>190.775</ele>
        <time>2011-02-13T09:48:44Z</time>
      </trkpt>
      <trkpt lat="49.73317" lon="4.79194">
        <ele>190.865</ele>
        <time>2011-02-13T09:48:45Z</time>
      </trkpt>
      <trkpt lat="49.73318" lon="4.79198">
        <ele>191.204</ele>
        <time>2011-02-13T09:48:47Z</time>
      </trkpt>
      <trkpt lat="49.73318" lon="4.79204">
        <ele>191.374</ele>
        <time>2011-02-13T09:48:49Z</time>
      </trkpt>
      <trkpt lat="49.73318" lon="4.7921">
        <ele>191.55</ele>
        <time>2011-02-13T09:48:50Z</time>
      </trkpt>
      <trkpt lat="49.73318" lon="4.79213">
        <ele>191.59</ele>
        <time>2011-02-13T09:48:52Z</time>
      </trkpt>
      <trkpt lat="49.73319" lon="4.79219">
        <ele>191.79</ele>
        <time>2011-02-13T09:48:53Z</time>
      </trkpt>
      <trkpt lat="49.7332" lon="4.79224">
        <ele>192.04</ele>
        <time>2011-02-13T09:48:55Z</time>
      </trkpt>
      <trkpt lat="49.7332" lon="4.79226">
        <ele>192.13</ele>
        <time>2011-02-13T09:48:56Z</time>
      </trkpt>
      <trkpt lat="49.7332" lon="4.79231">
        <ele>192.44</ele>
        <time>2011-02-13T09:48:58Z</time>
      </trkpt>
      <trkpt lat="49.73321" lon="4.79235">
        <ele>192.92</ele>
        <time>2011-02-13T09:48:59Z</time>
      </trkpt>
      <trkpt lat="49.73322" lon="4.79237">
        <ele>193.26</ele>
        <time>2011-02-13T09:49:00Z</time>
      </trkpt>
      <trkpt lat="49.73322" lon="4.79239">
        <ele>193.598</ele>
        <time>2011-02-13T09:49:01Z</time>
      </trkpt>
      <trkpt lat="49.73322" lon="4.79241">
        <ele>193.757</ele>
        <time>2011-02-13T09:49:02Z</time>
      </trkpt>
      <trkpt lat="49.73322" lon="4.79247">
        <ele>193.911</ele>
        <time>2011-02-13T09:49:04Z</time>
      </trkpt>
      <trkpt lat="49.73321" lon="4.79251">
        <ele>193.835</ele>
        <time>2011-02-13T09:49:06Z</time>
      </trkpt>
      <trkpt lat="49.7332" lon="4.79255">
        <ele>193.243</ele>
        <time>2011-02-13T09:49:08Z</time>
      </trkpt>
      <trkpt lat="49.73321" lon="4.79259">
        <ele>192.48</ele>
        <time>2011-02-13T09:49:10Z</time>
      </trkpt>
      <trkpt lat="49.73322" lon="4.79263">
        <ele>191.92</ele>
        <time>2011-02-13T09:49:11Z</time>
      </trkpt>
      <trkpt lat="49.73322" lon="4.79264">
        <ele>191.77</ele>
        <time>2011-02-13T09:49:13Z</time>
      </trkpt>
      <trkpt lat="49.73323" lon="4.79267">
        <ele>191.51</ele>
        <time>2011-02-13T09:49:14Z</time>
      </trkpt>
      <trkpt lat="49.73323" lon="4.79268">
        <ele>191.49</ele>
        <time>2011-02-13T09:49:15Z</time>
      </trkpt>
      <trkpt lat="49.73323" lon="4.7927">
        <ele>191.7</ele>
        <time>2011-02-13T09:49:16Z</time>
      </trkpt>
      <trkpt lat="49.73323" lon="4.79275">
        <ele>192.22</ele>
        <time>2011-02-13T09:49:18Z</time>
      </trkpt>
      <trkpt lat="49.73322" lon="4.7928">
        <ele>192.73</ele>
        <time>2011-02-13T09:49:19Z</time>
      </trkpt>
      <trkpt lat="49.73322" lon="4.79284">
        <ele>192.77</ele>
        <time>2011-02-13T09:49:21Z</time>
      </trkpt>
      <trkpt lat="49.73322" lon="4.79286">
        <ele>192.74</ele>
        <time>2011-02-13T09:49:22Z</time>
      </trkpt>
      <trkpt lat="49.73323" lon="4.79289">
        <ele>192.7</ele>
        <time>2011-02-13T09:49:23Z</time>
      </trkpt>
      <trkpt lat="49.73323" lon="4.79294">
        <ele>192.26</ele>
        <time>2011-02-13T09:49:25Z</time>
      </trkpt>
      <trkpt lat="49.73323" lon="4.79297">
        <ele>191.948</ele>
        <time>2011-02-13T09:49:26Z</time>
      </trkpt>
      <trkpt lat="49.73321" lon="4.79301">
        <ele>191.332</ele>
        <time>2011-02-13T09:49:28Z</time>
      </trkpt>
      <trkpt lat="49.73321" lon="4.79306">
        <ele>191.113</ele>
        <time>2011-02-13T09:49:30Z</time>
      </trkpt>
      <trkpt lat="49.7332" lon="4.79308">
        <ele>191.154</ele>
        <time>2011-02-13T09:49:31Z</time>
      </trkpt>
      <trkpt lat="49.7332" lon="4.79312">
        <ele>191.41</ele>
        <time>2011-02-13T09:49:33Z</time>
      </trkpt>
      <trkpt lat="49.73319" lon="4.79316">
        <ele>192.01</ele>
        <time>2011-02-13T09:49:34Z</time>
      </trkpt>
      <trkpt lat="49.73318" lon="4.79317">
        <ele>192.31</ele>
        <time>2011-02-13T09:49:35Z</time>
      </trkpt>
      <trkpt lat="49.73317" lon="4.79321">
        <ele>192.583</ele>
        <time>2011-02-13T09:49:37Z</time>
      </trkpt>
      <trkpt lat="49.73315" lon="4.79324">
        <ele>192.533</ele>
        <time>2011-02-13T09:49:39Z</time>
      </trkpt>
      <trkpt lat="49.73313" lon="4.79327">
        <ele>192.087</ele>
        <time>2011-02-13T09:49:41Z</time>
      </trkpt>
      <trkpt lat="49.73313" lon="4.79327">
        <ele>191.825</ele>
        <time>2011-02-13T09:49:42Z</time>
      </trkpt>
      <trkpt lat="49.7331" lon="4.79329">
        <ele>191.252</ele>
        <time>2011-02-13T09:49:44Z</time>
      </trkpt>
      <trkpt lat="49.73308" lon="4.79331">
        <ele>190.618</ele>
        <time>2011-02-13T09:49:46Z</time>
      </trkpt>
      <trkpt lat="49.73306" lon="4.79332">
        <ele>190.392</ele>
        <time>2011-02-13T09:49:47Z</time>
      </trkpt>
      <trkpt lat="49.73304" lon="4.79334">
        <ele>189.91</ele>
        <time>2011-02-13T09:49:49Z</time>
      </trkpt>
      <trkpt lat="49.73304" lon="4.79337">
        <ele>189.4</ele>
        <time>2011-02-13T09:49:51Z</time>
      </trkpt>
      <trkpt lat="49.73304" lon="4.79338">
        <ele>189.15</ele>
        <time>2011-02-13T09:49:52Z</time>
      </trkpt>
      <trkpt lat="49.73304" lon="4.79342">
        <ele>188.7</ele>
        <time>2011-02-13T09:49:54Z</time>
      </trkpt>
      <trkpt lat="49.73304" lon="4.79345">
        <ele>188.28</ele>
        <time>2011-02-13T09:49:56Z</time>
      </trkpt>
      <trkpt lat="49.73302" lon="4.79346">
        <ele>187.91</ele>
        <time>2011-02-13T09:49:58Z</time>
      </trkpt>
      <trkpt lat="49.73298" lon="4.79346">
        <ele>187.84</ele>
        <time>2011-02-13T09:50:00Z</time>
      </trkpt>
      <trkpt lat="49.73293" lon="4.79346">
        <ele>188.004</ele>
        <time>2011-02-13T09:50:02Z</time>
      </trkpt>
      <trkpt lat="49.73289" lon="4.79347">
        <ele>188.307</ele>
        <time>2011-02-13T09:50:04Z</time>
      </trkpt>
      <trkpt lat="49.73284" lon="4.79347">
        <ele>188.804</ele>
        <time>2011-02-13T09:50:06Z</time>
      </trkpt>
      <trkpt lat="49.7328" lon="4.79347">
        <ele>189.368</ele>
        <time>2011-02-13T09:50:07Z</time>
      </trkpt>
      <trkpt lat="49.73277" lon="4.79349">
        <ele>189.882</ele>
        <time>2011-02-13T09:50:08Z</time>
      </trkpt>
      <trkpt lat="49.73276" lon="4.7935">
        <ele>190.22</ele>
        <time>2011-02-13T09:50:09Z</time>
      </trkpt>
      <trkpt lat="49.73273" lon="4.79355">
        <ele>191.008</ele>
        <time>2011-02-13T09:50:11Z</time>
      </trkpt>
      <trkpt lat="49.73271" lon="4.79358">
        <ele>191.398</ele>
        <time>2011-02-13T09:50:13Z</time>
      </trkpt>
      <trkpt lat="49.73267" lon="4.79362">
        <ele>192.052</ele>
        <time>2011-02-13T09:50:14Z</time>
      </trkpt>
      <trkpt lat="49.73263" lon="4.79363">
        <ele>192.683</ele>
        <time>2011-02-13T09:50:16Z</time>
      </trkpt>
      <trkpt lat="49.7326" lon="4.79363">
        <ele>193.029</ele>
        <time>2011-02-13T09:50:17Z</time>
      </trkpt>
      <trkpt lat="49.73253" lon="4.79363">
        <ele>193.646</ele>
        <time>2011-02-13T09:50:18Z</time>
      </trkpt>
      <trkpt lat="49.73248" lon="4.79362">
        <ele>194.01</ele>
        <time>2011-02-13T09:50:21Z</time>
      </trkpt>
      <trkpt lat="49.73245" lon="4.79362">
        <ele>194.4</ele>
        <time>2011-02-13T09:50:22Z</time>
      </trkpt>
      <trkpt lat="49.73243" lon="4.79366">
        <ele>194.83</ele>
        <time>2011-02-13T09:50:24Z</time>
      </trkpt>
      <trkpt lat="49.7324" lon="4.79371">
        <ele>195.22</ele>
        <time>2011-02-13T09:50:26Z</time>
      </trkpt>
      <trkpt lat="49.73238" lon="4.79372">
        <ele>195.42</ele>
        <time>2011-02-13T09:50:27Z</time>
      </trkpt>
      <trkpt lat="49.73235" lon="4.79375">
        <ele>195.85</ele>
        <time>2011-02-13T09:50:29Z</time>
      </trkpt>
      <trkpt lat="49.73233" lon="4.79377">
        <ele>195.85</ele>
        <time>2011-02-13T09:50:30Z</time>
      </trkpt>
      <trkpt lat="49.7323" lon="4.7938">
        <ele>195.79</ele>
        <time>2011-02-13T09:50:32Z</time>
      </trkpt>
      <trkpt lat="49.73226" lon="4.79383">
        <ele>195.742</ele>
        <time>2011-02-13T09:50:34Z</time>
      </trkpt>
      <trkpt lat="49.73222" lon="4.79387">
        <ele>195.702</ele>
        <time>2011-02-13T09:50:36Z</time>
      </trkpt>
      <trkpt lat="49.73221" lon="4.79389">
        <ele>195.712</ele>
        <time>2011-02-13T09:50:37Z</time>
      </trkpt>
      <trkpt lat="49.73219" lon="4.79391">
        <ele>195.702</ele>
        <time>2011-02-13T09:50:38Z</time>
      </trkpt>
      <trkpt lat="49.73217" lon="4.79393">
        <ele>195.671</ele>
        <time>2011-02-13T09:50:39Z</time>
      </trkpt>
      <trkpt lat="49.73215" lon="4.79397">
        <ele>195.732</ele>
        <time>2011-02-13T09:50:41Z</time>
      </trkpt>
      <trkpt lat="49.73212" lon="4.79402">
        <ele>195.883</ele>
        <time>2011-02-13T09:50:43Z</time>
      </trkpt>
      <trkpt lat="49.73209" lon="4.79407">
        <ele>195.96</ele>
        <time>2011-02-13T09:50:45Z</time>
      </trkpt>
      <trkpt lat="49.73206" lon="4.79411">
        <ele>195.94</ele>
        <time>2011-02-13T09:50:47Z</time>
      </trkpt>
      <trkpt lat="49.73205" lon="4.79413">
        <ele>195.88</ele>
        <time>2011-02-13T09:50:48Z</time>
      </trkpt>
      <trkpt lat="49.73204" lon="4.79415">
        <ele>195.86</ele>
        <time>2011-02-13T09:50:50Z</time>
      </trkpt>
      <trkpt lat="49.73202" lon="4.79415">
        <ele>196.04</ele>
        <time>2011-02-13T09:50:52Z</time>
      </trkpt>
      <trkpt lat="49.732" lon="4.79417">
        <ele>196.68</ele>
        <time>2011-02-13T09:50:54Z</time>
      </trkpt>
      <trkpt lat="49.73197" lon="4.7942">
        <ele>197.47</ele>
        <time>2011-02-13T09:50:55Z</time>
      </trkpt>
      <trkpt lat="49.73194" lon="4.79423">
        <ele>198.68</ele>
        <time>2011-02-13T09:50:57Z</time>
      </trkpt>
      <trkpt lat="49.73192" lon="4.79427">
        <ele>200.02</ele>
        <time>2011-02-13T09:50:59Z</time>
      </trkpt>
      <trkpt lat="49.7319" lon="4.79428">
        <ele>200.61</ele>
        <time>2011-02-13T09:51:00Z</time>
      </trkpt>
      <trkpt lat="49.73189" lon="4.7943">
        <ele>201.05</ele>
        <time>2011-02-13T09:51:01Z</time>
      </trkpt>
      <trkpt lat="49.73188" lon="4.79431">
        <ele>201.3</ele>
        <time>2011-02-13T09:51:02Z</time>
      </trkpt>
      <trkpt lat="49.73185" lon="4.79434">
        <ele>201.77</ele>
        <time>2011-02-13T09:51:04Z</time>
      </trkpt>
      <trkpt lat="49.73182" lon="4.79438">
        <ele>201.72</ele>
        <time>2011-02-13T09:51:06Z</time>
      </trkpt>
      <trkpt lat="49.7318" lon="4.79441">
        <ele>201.31</ele>
        <time>2011-02-13T09:51:07Z</time>
      </trkpt>
      <trkpt lat="49.73179" lon="4.79442">
        <ele>201.09</ele>
        <time>2011-02-13T09:51:09Z</time>
      </trkpt>
      <trkpt lat="49.73178" lon="4.79444">
        <ele>200.81</ele>
        <time>2011-02-13T09:51:10Z</time>
      </trkpt>
      <trkpt lat="49.73177" lon="4.79445">
        <ele>200.67</ele>
        <time>2011-02-13T09:51:11Z</time>
      </trkpt>
      <trkpt lat="49.73176" lon="4.79448">
        <ele>200.38</ele>
        <time>2011-02-13T09:51:13Z</time>
      </trkpt>
      <trkpt lat="49.73174" lon="4.79452">
        <ele>200.29</ele>
        <time>2011-02-13T09:51:15Z</time>
      </trkpt>
      <trkpt lat="49.73173" lon="4.79454">
        <ele>200.31</ele>
        <time>2011-02-13T09:51:16Z</time>
      </trkpt>
      <trkpt lat="49.73171" lon="4.79457">
        <ele>200.29</ele>
        <time>2011-02-13T09:51:18Z</time>
      </trkpt>
      <trkpt lat="49.73169" lon="4.7946">
        <ele>200.23</ele>
        <time>2011-02-13T09:51:20Z</time>
      </trkpt>
      <trkpt lat="49.73166" lon="4.79463">
        <ele>200.34</ele>
        <time>2011-02-13T09:51:22Z</time>
      </trkpt>
      <trkpt lat="49.73163" lon="4.79467">
        <ele>200.52</ele>
        <time>2011-02-13T09:51:24Z</time>
      </trkpt>
      <trkpt lat="49.73161" lon="4.79468">
        <ele>200.57</ele>
        <time>2011-02-13T09:51:25Z</time>
      </trkpt>
      <trkpt lat="49.73158" lon="4.79472">
        <ele>200.58</ele>
        <time>2011-02-13T09:51:27Z</time>
      </trkpt>
      <trkpt lat="49.73156" lon="4.79473">
        <ele>200.64</ele>
        <time>2011-02-13T09:51:28Z</time>
      </trkpt>
      <trkpt lat="49.73153" lon="4.79476">
        <ele>200.82</ele>
        <time>2011-02-13T09:51:30Z</time>
      </trkpt>
      <trkpt lat="49.73152" lon="4.79478">
        <ele>200.86</ele>
        <time>2011-02-13T09:51:31Z</time>
      </trkpt>
      <trkpt lat="49.73148" lon="4.79481">
        <ele>200.67</ele>
        <time>2011-02-13T09:51:33Z</time>
      </trkpt>
      <trkpt lat="49.73146" lon="4.79482">
        <ele>200.55</ele>
        <time>2011-02-13T09:51:34Z</time>
      </trkpt>
      <trkpt lat="49.73143" lon="4.79486">
        <ele>200.51</ele>
        <time>2011-02-13T09:51:36Z</time>
      </trkpt>
      <trkpt lat="49.73142" lon="4.79488">
        <ele>200.6</ele>
        <time>2011-02-13T09:51:37Z</time>
      </trkpt>
      <trkpt lat="49.73139" lon="4.79491">
        <ele>200.74</ele>
        <time>2011-02-13T09:51:39Z</time>
      </trkpt>
      <trkpt lat="49.73136" lon="4.79494">
        <ele>200.97</ele>
        <time>2011-02-13T09:51:41Z</time>
      </trkpt>
      <trkpt lat="49.73134" lon="4.79496">
        <ele>201.48</ele>
        <time>2011-02-13T09:51:42Z</time>
      </trkpt>
      <trkpt lat="49.73133" lon="4.79498">
        <ele>201.79</ele>
        <time>2011-02-13T09:51:43Z</time>
      </trkpt>
      <trkpt lat="49.7313" lon="4.795">
        <ele>202.3</ele>
        <time>2011-02-13T09:51:45Z</time>
      </trkpt>
      <trkpt lat="49.73129" lon="4.79501">
        <ele>202.51</ele>
        <time>2011-02-13T09:51:46Z</time>
      </trkpt>
      <trkpt lat="49.73125" lon="4.79503">
        <ele>202.72</ele>
        <time>2011-02-13T09:51:48Z</time>
      </trkpt>
      <trkpt lat="49.73123" lon="4.79505">
        <ele>202.77</ele>
        <time>2011-02-13T09:51:50Z</time>
      </trkpt>
      <trkpt lat="49.7312" lon="4.79507">
        <ele>202.79</ele>
        <time>2011-02-13T09:51:52Z</time>
      </trkpt>
      <trkpt lat="49.73117" lon="4.79509">
        <ele>202.7</ele>
        <time>2011-02-13T09:51:54Z</time>
      </trkpt>
      <trkpt lat="49.73113" lon="4.79511">
        <ele>202.48</ele>
        <time>2011-02-13T09:51:56Z</time>
      </trkpt>
      <trkpt lat="49.7311" lon="4.79512">
        <ele>202.43</ele>
        <time>2011-02-13T09:51:57Z</time>
      </trkpt>
      <trkpt lat="49.73106" lon="4.79516">
        <ele>202.46</ele>
        <time>2011-02-13T09:51:58Z</time>
      </trkpt>
      <trkpt lat="49.73103" lon="4.79519">
        <ele>202.71</ele>
        <time>2011-02-13T09:52:00Z</time>
      </trkpt>
      <trkpt lat="49.73099" lon="4.79521">
        <ele>203.1</ele>
        <time>2011-02-13T09:52:02Z</time>
      </trkpt>
      <trkpt lat="49.73098" lon="4.79522">
        <ele>203.34</ele>
        <time>2011-02-13T09:52:03Z</time>
      </trkpt>
      <trkpt lat="49.73096" lon="4.79523">
        <ele>203.59</ele>
        <time>2011-02-13T09:52:04Z</time>
      </trkpt>
      <trkpt lat="49.73092" lon="4.79527">
        <ele>204.51</ele>
        <time>2011-02-13T09:52:06Z</time>
      </trkpt>
      <trkpt lat="49.73091" lon="4.79528">
        <ele>205.06</ele>
        <time>2011-02-13T09:52:07Z</time>
      </trkpt>
      <trkpt lat="49.73087" lon="4.7953">
        <ele>206.15</ele>
        <time>2011-02-13T09:52:09Z</time>
      </trkpt>
      <trkpt lat="49.73083" lon="4.79533">
        <ele>206.84</ele>
        <time>2011-02-13T09:52:11Z</time>
      </trkpt>
      <trkpt lat="49.73078" lon="4.79535">
        <ele>207.377</ele>
        <time>2011-02-13T09:52:13Z</time>
      </trkpt>
      <trkpt lat="49.73073" lon="4.79537">
        <ele>207.646</ele>
        <time>2011-02-13T09:52:15Z</time>
      </trkpt>
      <trkpt lat="49.73071" lon="4.79538">
        <ele>207.636</ele>
        <time>2011-02-13T09:52:16Z</time>
      </trkpt>
      <trkpt lat="49.73066" lon="4.7954">
        <ele>207.251</ele>
        <time>2011-02-13T09:52:18Z</time>
      </trkpt>
      <trkpt lat="49.73061" lon="4.79538">
        <ele>206.539</ele>
        <time>2011-02-13T09:52:20Z</time>
      </trkpt>
      <trkpt lat="49.73058" lon="4.79537">
        <ele>206.404</ele>
        <time>2011-02-13T09:52:22Z</time>
      </trkpt>
      <trkpt lat="49.73056" lon="4.79537">
        <ele>206.747</ele>
        <time>2011-02-13T09:52:23Z</time>
      </trkpt>
      <trkpt lat="49.73054" lon="4.79539">
        <ele>207.148</ele>
        <time>2011-02-13T09:52:24Z</time>
      </trkpt>
      <trkpt lat="49.73048" lon="4.79543">
        <ele>207.875</ele>
        <time>2011-02-13T09:52:26Z</time>
      </trkpt>
      <trkpt lat="49.73042" lon="4.79549">
        <ele>208.49</ele>
        <time>2011-02-13T09:52:28Z</time>
      </trkpt>
      <trkpt lat="49.73037" lon="4.79555">
        <ele>209.72</ele>
        <time>2011-02-13T09:52:30Z</time>
      </trkpt>
      <trkpt lat="49.73032" lon="4.79561">
        <ele>210.82</ele>
        <time>2011-02-13T09:52:32Z</time>
      </trkpt>
      <trkpt lat="49.73029" lon="4.79564">
        <ele>211.15</ele>
        <time>2011-02-13T09:52:33Z</time>
      </trkpt>
      <trkpt lat="49.73025" lon="4.79567">
        <ele>211.36</ele>
        <time>2011-02-13T09:52:35Z</time>
      </trkpt>
      <trkpt lat="49.73021" lon="4.79569">
        <ele>211.62</ele>
        <time>2011-02-13T09:52:37Z</time>
      </trkpt>
      <trkpt lat="49.73017" lon="4.7957">
        <ele>211.64</ele>
        <time>2011-02-13T09:52:39Z</time>
      </trkpt>
      <trkpt lat="49.73015" lon="4.7957">
        <ele>211.43</ele>
        <time>2011-02-13T09:52:40Z</time>
      </trkpt>
      <trkpt lat="49.73012" lon="4.79571">
        <ele>210.89</ele>
        <time>2011-02-13T09:52:42Z</time>
      </trkpt>
      <trkpt lat="49.73009" lon="4.79572">
        <ele>210.45</ele>
        <time>2011-02-13T09:52:44Z</time>
      </trkpt>
      <trkpt lat="49.73007" lon="4.79572">
        <ele>210.36</ele>
        <time>2011-02-13T09:52:45Z</time>
      </trkpt>
      <trkpt lat="49.73004" lon="4.79574">
        <ele>210.25</ele>
        <time>2011-02-13T09:52:47Z</time>
      </trkpt>
      <trkpt lat="49.73001" lon="4.79577">
        <ele>210.32</ele>
        <time>2011-02-13T09:52:49Z</time>
      </trkpt>
      <trkpt lat="49.72998" lon="4.79579">
        <ele>210.5</ele>
        <time>2011-02-13T09:52:50Z</time>
      </trkpt>
      <trkpt lat="49.72996" lon="4.7958">
        <ele>210.6</ele>
        <time>2011-02-13T09:52:51Z</time>
      </trkpt>
      <trkpt lat="49.72994" lon="4.79581">
        <ele>210.82</ele>
        <time>2011-02-13T09:52:52Z</time>
      </trkpt>
      <trkpt lat="49.72989" lon="4.79585">
        <ele>211.474</ele>
        <time>2011-02-13T09:52:54Z</time>
      </trkpt>
      <trkpt lat="49.72984" lon="4.79593">
        <ele>212.048</ele>
        <time>2011-02-13T09:52:56Z</time>
      </trkpt>
      <trkpt lat="49.72978" lon="4.79604">
        <ele>212.573</ele>
        <time>2011-02-13T09:52:58Z</time>
      </trkpt>
      <trkpt lat="49.72975" lon="4.79608">
        <ele>212.865</ele>
        <time>2011-02-13T09:52:59Z</time>
      </trkpt>
      <trkpt lat="49.72972" lon="4.79609">
        <ele>213.066</ele>
        <time>2011-02-13T09:53:00Z</time>
      </trkpt>
      <trkpt lat="49.72969" lon="4.7961">
        <ele>213.38</ele>
        <time>2011-02-13T09:53:01Z</time>
      </trkpt>
      <trkpt lat="49.72966" lon="4.79612">
        <ele>213.593</ele>
        <time>2011-02-13T09:53:02Z</time>
      </trkpt>
      <trkpt lat="49.72961" lon="4.79616">
        <ele>213.795</ele>
        <time>2011-02-13T09:53:04Z</time>
      </trkpt>
      <trkpt lat="49.72957" lon="4.7962">
        <ele>214.125</ele>
        <time>2011-02-13T09:53:06Z</time>
      </trkpt>
      <trkpt lat="49.72955" lon="4.79622">
        <ele>214.31</ele>
        <time>2011-02-13T09:53:07Z</time>
      </trkpt>
      <trkpt lat="49.72952" lon="4.79623">
        <ele>214.664</ele>
        <time>2011-02-13T09:53:09Z</time>
      </trkpt>
      <trkpt lat="49.72951" lon="4.79623">
        <ele>214.819</ele>
        <time>2011-02-13T09:53:10Z</time>
      </trkpt>
      <trkpt lat="49.72949" lon="4.79622">
        <ele>214.798</ele>
        <time>2011-02-13T09:53:12Z</time>
      </trkpt>
      <trkpt lat="49.72948" lon="4.79621">
        <ele>214.726</ele>
        <time>2011-02-13T09:53:13Z</time>
      </trkpt>
      <trkpt lat="49.72946" lon="4.79619">
        <ele>214.499</ele>
        <time>2011-02-13T09:53:14Z</time>
      </trkpt>
      <trkpt lat="49.72943" lon="4.79616">
        <ele>213.824</ele>
        <time>2011-02-13T09:53:16Z</time>
      </trkpt>
      <trkpt lat="49.72942" lon="4.79615">
        <ele>213.48</ele>
        <time>2011-02-13T09:53:17Z</time>
      </trkpt>
      <trkpt lat="49.7294" lon="4.79614">
        <ele>212.99</ele>
        <time>2011-02-13T09:53:18Z</time>
      </trkpt>
      <trkpt lat="49.72937" lon="4.79619">
        <ele>212.01</ele>
        <time>2011-02-13T09:53:20Z</time>
      </trkpt>
      <trkpt lat="49.72935" lon="4.79624">
        <ele>211.65</ele>
        <time>2011-02-13T09:53:21Z</time>
      </trkpt>
      <trkpt lat="49.7293" lon="4.79639">
        <ele>211.05</ele>
        <time>2011-02-13T09:53:23Z</time>
      </trkpt>
      <trkpt lat="49.72928" lon="4.79641">
        <ele>210.57</ele>
        <time>2011-02-13T09:53:24Z</time>
      </trkpt>
      <trkpt lat="49.72924" lon="4.79645">
        <ele>209.69</ele>
        <time>2011-02-13T09:53:26Z</time>
      </trkpt>
      <trkpt lat="49.72921" lon="4.79641">
        <ele>209.36</ele>
        <time>2011-02-13T09:53:28Z</time>
      </trkpt>
      <trkpt lat="49.72917" lon="4.79643">
        <ele>209.4</ele>
        <time>2011-02-13T09:53:30Z</time>
      </trkpt>
      <trkpt lat="49.72913" lon="4.7965">
        <ele>209.7</ele>
        <time>2011-02-13T09:53:32Z</time>
      </trkpt>
      <trkpt lat="49.72911" lon="4.79653">
        <ele>209.87</ele>
        <time>2011-02-13T09:53:33Z</time>
      </trkpt>
      <trkpt lat="49.72909" lon="4.79655">
        <ele>210.37</ele>
        <time>2011-02-13T09:53:34Z</time>
      </trkpt>
      <trkpt lat="49.72906" lon="4.79657">
        <ele>211.55</ele>
        <time>2011-02-13T09:53:36Z</time>
      </trkpt>
      <trkpt lat="49.72905" lon="4.79657">
        <ele>211.96</ele>
        <time>2011-02-13T09:53:37Z</time>
      </trkpt>
      <trkpt lat="49.72904" lon="4.79657">
        <ele>211.96</ele>
        <time>2011-02-13T09:53:38Z</time>
      </trkpt>
      <trkpt lat="49.729" lon="4.79662">
        <ele>211.79</ele>
        <time>2011-02-13T09:53:40Z</time>
      </trkpt>
      <trkpt lat="49.72896" lon="4.79666">
        <ele>211.25</ele>
        <time>2011-02-13T09:53:42Z</time>
      </trkpt>
      <trkpt lat="49.72894" lon="4.79668">
        <ele>211.04</ele>
        <time>2011-02-13T09:53:43Z</time>
      </trkpt>
      <trkpt lat="49.72893" lon="4.7967">
        <ele>210.956</ele>
        <time>2011-02-13T09:53:44Z</time>
      </trkpt>
      <trkpt lat="49.72889" lon="4.79672">
        <ele>210.545</ele>
        <time>2011-02-13T09:53:46Z</time>
      </trkpt>
      <trkpt lat="49.72885" lon="4.79674">
        <ele>210.474</ele>
        <time>2011-02-13T09:53:48Z</time>
      </trkpt>
      <trkpt lat="49.72883" lon="4.79674">
        <ele>210.677</ele>
        <time>2011-02-13T09:53:49Z</time>
      </trkpt>
      <trkpt lat="49.7288" lon="4.79674">
        <ele>211.287</ele>
        <time>2011-02-13T09:53:51Z</time>
      </trkpt>
      <trkpt lat="49.72876" lon="4.79674">
        <ele>211.713</ele>
        <time>2011-02-13T09:53:53Z</time>
      </trkpt>
      <trkpt lat="49.72872" lon="4.79675">
        <ele>211.887</ele>
        <time>2011-02-13T09:53:55Z</time>
      </trkpt>
      <trkpt lat="49.72869" lon="4.79676">
        <ele>212.187</ele>
        <time>2011-02-13T09:53:57Z</time>
      </trkpt>
      <trkpt lat="49.72867" lon="4.79678">
        <ele>212.313</ele>
        <time>2011-02-13T09:53:58Z</time>
      </trkpt>
      <trkpt lat="49.72862" lon="4.79685">
        <ele>212.334</ele>
        <time>2011-02-13T09:54:00Z</time>
      </trkpt>
      <trkpt lat="49.7286" lon="4.79689">
        <ele>212.344</ele>
        <time>2011-02-13T09:54:01Z</time>
      </trkpt>
      <trkpt lat="49.72855" lon="4.79693">
        <ele>212.502</ele>
        <time>2011-02-13T09:54:03Z</time>
      </trkpt>
      <trkpt lat="49.72849" lon="4.79696">
        <ele>212.625</ele>
        <time>2011-02-13T09:54:05Z</time>
      </trkpt>
      <trkpt lat="49.72847" lon="4.79697">
        <ele>212.657</ele>
        <time>2011-02-13T09:54:06Z</time>
      </trkpt>
      <trkpt lat="49.72841" lon="4.79704">
        <ele>212.906</ele>
        <time>2011-02-13T09:54:08Z</time>
      </trkpt>
      <trkpt lat="49.72838" lon="4.79707">
        <ele>213.135</ele>
        <time>2011-02-13T09:54:09Z</time>
      </trkpt>
      <trkpt lat="49.72835" lon="4.7971">
        <ele>213.341</ele>
        <time>2011-02-13T09:54:10Z</time>
      </trkpt>
      <trkpt lat="49.72833" lon="4.79713">
        <ele>213.625</ele>
        <time>2011-02-13T09:54:11Z</time>
      </trkpt>
      <trkpt lat="49.72831" lon="4.79716">
        <ele>213.923</ele>
        <time>2011-02-13T09:54:12Z</time>
      </trkpt>
      <trkpt lat="49.72826" lon="4.79723">
        <ele>214.239</ele>
        <time>2011-02-13T09:54:14Z</time>
      </trkpt>
      <trkpt lat="49.72821" lon="4.7973">
        <ele>214.535</ele>
        <time>2011-02-13T09:54:16Z</time>
      </trkpt>
      <trkpt lat="49.72816" lon="4.79737">
        <ele>214.85</ele>
        <time>2011-02-13T09:54:18Z</time>
      </trkpt>
      <trkpt lat="49.7281" lon="4.79742">
        <ele>215.118</ele>
        <time>2011-02-13T09:54:20Z</time>
      </trkpt>
      <trkpt lat="49.72808" lon="4.79744">
        <ele>215.159</ele>
        <time>2011-02-13T09:54:21Z</time>
      </trkpt>
      <trkpt lat="49.72804" lon="4.79743">
        <ele>215.489</ele>
        <time>2011-02-13T09:54:23Z</time>
      </trkpt>
      <trkpt lat="49.728" lon="4.79742">
        <ele>215.84</ele>
        <time>2011-02-13T09:54:25Z</time>
      </trkpt>
      <trkpt lat="49.72798" lon="4.79742">
        <ele>215.902</ele>
        <time>2011-02-13T09:54:26Z</time>
      </trkpt>
      <trkpt lat="49.72795" lon="4.79743">
        <ele>215.564</ele>
        <time>2011-02-13T09:54:28Z</time>
      </trkpt>
      <trkpt lat="49.7279" lon="4.79745">
        <ele>214.906</ele>
        <time>2011-02-13T09:54:30Z</time>
      </trkpt>
      <trkpt lat="49.72788" lon="4.79746">
        <ele>214.563</ele>
        <time>2011-02-13T09:54:31Z</time>
      </trkpt>
      <trkpt lat="49.72785" lon="4.79749">
        <ele>214.232</ele>
        <time>2011-02-13T09:54:32Z</time>
      </trkpt>
      <trkpt lat="49.72781" lon="4.79755">
        <ele>213.786</ele>
        <time>2011-02-13T09:54:33Z</time>
      </trkpt>
      <trkpt lat="49.72775" lon="4.79767">
        <ele>212.967</ele>
        <time>2011-02-13T09:54:35Z</time>
      </trkpt>
      <trkpt lat="49.72768" lon="4.79779">
        <ele>212.329</ele>
        <time>2011-02-13T09:54:37Z</time>
      </trkpt>
      <trkpt lat="49.72764" lon="4.79783">
        <ele>212.35</ele>
        <time>2011-02-13T09:54:38Z</time>
      </trkpt>
      <trkpt lat="49.72757" lon="4.79792">
        <ele>212.727</ele>
        <time>2011-02-13T09:54:40Z</time>
      </trkpt>
      <trkpt lat="49.72752" lon="4.79797">
        <ele>213.507</ele>
        <time>2011-02-13T09:54:42Z</time>
      </trkpt>
      <trkpt lat="49.72749" lon="4.79799">
        <ele>213.881</ele>
        <time>2011-02-13T09:54:43Z</time>
      </trkpt>
      <trkpt lat="49.72747" lon="4.79801">
        <ele>214.167</ele>
        <time>2011-02-13T09:54:44Z</time>
      </trkpt>
      <trkpt lat="49.72745" lon="4.79803">
        <ele>214.434</ele>
        <time>2011-02-13T09:54:45Z</time>
      </trkpt>
      <trkpt lat="49.72742" lon="4.79806">
        <ele>214.725</ele>
        <time>2011-02-13T09:54:46Z</time>
      </trkpt>
      <trkpt lat="49.72736" lon="4.79812">
        <ele>215.158</ele>
        <time>2011-02-13T09:54:48Z</time>
      </trkpt>
      <trkpt lat="49.7273" lon="4.79819">
        <ele>215.374</ele>
        <time>2011-02-13T09:54:50Z</time>
      </trkpt>
      <trkpt lat="49.72727" lon="4.79822">
        <ele>215.365</ele>
        <time>2011-02-13T09:54:51Z</time>
      </trkpt>
      <trkpt lat="49.72725" lon="4.79824">
        <ele>215.348</ele>
        <time>2011-02-13T09:54:52Z</time>
      </trkpt>
      <trkpt lat="49.72721" lon="4.79828">
        <ele>215.62</ele>
        <time>2011-02-13T09:54:54Z</time>
      </trkpt>
      <trkpt lat="49.72717" lon="4.79832">
        <ele>215.85</ele>
        <time>2011-02-13T09:54:56Z</time>
      </trkpt>
      <trkpt lat="49.72713" lon="4.79833">
        <ele>216.05</ele>
        <time>2011-02-13T09:54:58Z</time>
      </trkpt>
      <trkpt lat="49.72707" lon="4.79834">
        <ele>216.14</ele>
        <time>2011-02-13T09:55:00Z</time>
      </trkpt>
      <trkpt lat="49.72704" lon="4.79834">
        <ele>216.2</ele>
        <time>2011-02-13T09:55:01Z</time>
      </trkpt>
      <trkpt lat="49.72699" lon="4.79836">
        <ele>216.29</ele>
        <time>2011-02-13T09:55:03Z</time>
      </trkpt>
      <trkpt lat="49.72694" lon="4.79838">
        <ele>216.37</ele>
        <time>2011-02-13T09:55:05Z</time>
      </trkpt>
      <trkpt lat="49.72691" lon="4.7984">
        <ele>216.51</ele>
        <time>2011-02-13T09:55:06Z</time>
      </trkpt>
      <trkpt lat="49.72689" lon="4.79841">
        <ele>216.59</ele>
        <time>2011-02-13T09:55:07Z</time>
      </trkpt>
      <trkpt lat="49.72687" lon="4.79843">
        <ele>216.69</ele>
        <time>2011-02-13T09:55:08Z</time>
      </trkpt>
      <trkpt lat="49.72684" lon="4.79845">
        <ele>216.79</ele>
        <time>2011-02-13T09:55:09Z</time>
      </trkpt>
      <trkpt lat="49.72679" lon="4.79848">
        <ele>216.91</ele>
        <time>2011-02-13T09:55:11Z</time>
      </trkpt>
      <trkpt lat="49.72677" lon="4.79849">
        <ele>216.88</ele>
        <time>2011-02-13T09:55:12Z</time>
      </trkpt>
      <trkpt lat="49.72672" lon="4.79849">
        <ele>216.66</ele>
        <time>2011-02-13T09:55:14Z</time>
      </trkpt>
      <trkpt lat="49.72667" lon="4.7985">
        <ele>216.39</ele>
        <time>2011-02-13T09:55:16Z</time>
      </trkpt>
      <trkpt lat="49.72662" lon="4.79854">
        <ele>215.91</ele>
        <time>2011-02-13T09:55:18Z</time>
      </trkpt>
      <trkpt lat="49.72656" lon="4.79857">
        <ele>215.03</ele>
        <time>2011-02-13T09:55:20Z</time>
      </trkpt>
      <trkpt lat="49.72654" lon="4.79859">
        <ele>214.62</ele>
        <time>2011-02-13T09:55:21Z</time>
      </trkpt>
      <trkpt lat="49.72651" lon="4.79859">
        <ele>214.19</ele>
        <time>2011-02-13T09:55:22Z</time>
      </trkpt>
      <trkpt lat="49.72645" lon="4.79861">
        <ele>213.38</ele>
        <time>2011-02-13T09:55:24Z</time>
      </trkpt>
      <trkpt lat="49.72642" lon="4.79861">
        <ele>213.01</ele>
        <time>2011-02-13T09:55:25Z</time>
      </trkpt>
      <trkpt lat="49.72637" lon="4.79863">
        <ele>212.45</ele>
        <time>2011-02-13T09:55:27Z</time>
      </trkpt>
      <trkpt lat="49.72632" lon="4.79867">
        <ele>212.19</ele>
        <time>2011-02-13T09:55:29Z</time>
      </trkpt>
      <trkpt lat="49.7263" lon="4.79868">
        <ele>212.17</ele>
        <time>2011-02-13T09:55:31Z</time>
      </trkpt>
      <trkpt lat="49.72627" lon="4.7987">
        <ele>212.19</ele>
        <time>2011-02-13T09:55:32Z</time>
      </trkpt>
      <trkpt lat="49.72623" lon="4.79871">
        <ele>212.54</ele>
        <time>2011-02-13T09:55:33Z</time>
      </trkpt>
      <trkpt lat="49.72621" lon="4.79872">
        <ele>212.78</ele>
        <time>2011-02-13T09:55:34Z</time>
      </trkpt>
      <trkpt lat="49.72615" lon="4.79872">
        <ele>213.09</ele>
        <time>2011-02-13T09:55:36Z</time>
      </trkpt>
      <trkpt lat="49.72612" lon="4.79873">
        <ele>213.213</ele>
        <time>2011-02-13T09:55:38Z</time>
      </trkpt>
      <trkpt lat="49.72606" lon="4.79874">
        <ele>213.497</ele>
        <time>2011-02-13T09:55:39Z</time>
      </trkpt>
      <trkpt lat="49.726" lon="4.79877">
        <ele>213.737</ele>
        <time>2011-02-13T09:55:40Z</time>
      </trkpt>
      <trkpt lat="49.72594" lon="4.79879">
        <ele>213.654</ele>
        <time>2011-02-13T09:55:43Z</time>
      </trkpt>
      <trkpt lat="49.72588" lon="4.79881">
        <ele>213.278</ele>
        <time>2011-02-13T09:55:44Z</time>
      </trkpt>
      <trkpt lat="49.72585" lon="4.79882">
        <ele>213.069</ele>
        <time>2011-02-13T09:55:45Z</time>
      </trkpt>
      <trkpt lat="49.72582" lon="4.79883">
        <ele>212.775</ele>
        <time>2011-02-13T09:55:46Z</time>
      </trkpt>
      <trkpt lat="49.72574" lon="4.79885">
        <ele>211.94</ele>
        <time>2011-02-13T09:55:47Z</time>
      </trkpt>
      <trkpt lat="49.72571" lon="4.79886">
        <ele>211.41</ele>
        <time>2011-02-13T09:55:49Z</time>
      </trkpt>
      <trkpt lat="49.72565" lon="4.79886">
        <ele>210.38</ele>
        <time>2011-02-13T09:55:50Z</time>
      </trkpt>
      <trkpt lat="49.72563" lon="4.79887">
        <ele>209.89</ele>
        <time>2011-02-13T09:55:51Z</time>
      </trkpt>
      <trkpt lat="49.72561" lon="4.79888">
        <ele>209.455</ele>
        <time>2011-02-13T09:55:52Z</time>
      </trkpt>
      <trkpt lat="49.72556" lon="4.7989">
        <ele>208.77</ele>
        <time>2011-02-13T09:55:54Z</time>
      </trkpt>
      <trkpt lat="49.72551" lon="4.79892">
        <ele>208.377</ele>
        <time>2011-02-13T09:55:55Z</time>
      </trkpt>
      <trkpt lat="49.72546" lon="4.79893">
        <ele>208.308</ele>
        <time>2011-02-13T09:55:56Z</time>
      </trkpt>
      <trkpt lat="49.72544" lon="4.79893">
        <ele>208.416</ele>
        <time>2011-02-13T09:55:57Z</time>
      </trkpt>
      <trkpt lat="49.72542" lon="4.79894">
        <ele>208.561</ele>
        <time>2011-02-13T09:55:58Z</time>
      </trkpt>
      <trkpt lat="49.72539" lon="4.79896">
        <ele>208.71</ele>
        <time>2011-02-13T09:55:59Z</time>
      </trkpt>
      <trkpt lat="49.72533" lon="4.79899">
        <ele>209.16</ele>
        <time>2011-02-13T09:56:01Z</time>
      </trkpt>
      <trkpt lat="49.72523" lon="4.79904">
        <ele>209.65</ele>
        <time>2011-02-13T09:56:04Z</time>
      </trkpt>
      <trkpt lat="49.72515" lon="4.79907">
        <ele>210.2</ele>
        <time>2011-02-13T09:56:05Z</time>
      </trkpt>
      <trkpt lat="49.72511" lon="4.79908">
        <ele>210.556</ele>
        <time>2011-02-13T09:56:06Z</time>
      </trkpt>
      <trkpt lat="49.72509" lon="4.79909">
        <ele>210.784</ele>
        <time>2011-02-13T09:56:07Z</time>
      </trkpt>
      <trkpt lat="49.72503" lon="4.79911">
        <ele>211.211</ele>
        <time>2011-02-13T09:56:09Z</time>
      </trkpt>
      <trkpt lat="49.725" lon="4.79912">
        <ele>211.302</ele>
        <time>2011-02-13T09:56:10Z</time>
      </trkpt>
      <trkpt lat="49.72495" lon="4.79913">
        <ele>211.455</ele>
        <time>2011-02-13T09:56:11Z</time>
      </trkpt>
      <trkpt lat="49.72489" lon="4.79914">
        <ele>212.074</ele>
        <time>2011-02-13T09:56:13Z</time>
      </trkpt>
      <trkpt lat="49.72483" lon="4.79914">
        <ele>212.76</ele>
        <time>2011-02-13T09:56:15Z</time>
      </trkpt>
      <trkpt lat="49.72478" lon="4.79916">
        <ele>213.379</ele>
        <time>2011-02-13T09:56:17Z</time>
      </trkpt>
      <trkpt lat="49.72473" lon="4.79918">
        <ele>213.986</ele>
        <time>2011-02-13T09:56:19Z</time>
      </trkpt>
      <trkpt lat="49.72471" lon="4.7992">
        <ele>214.402</ele>
        <time>2011-02-13T09:56:20Z</time>
      </trkpt>
      <trkpt lat="49.72465" lon="4.79922">
        <ele>215.21</ele>
        <time>2011-02-13T09:56:22Z</time>
      </trkpt>
      <trkpt lat="49.72461" lon="4.79922">
        <ele>215.49</ele>
        <time>2011-02-13T09:56:23Z</time>
      </trkpt>
      <trkpt lat="49.72453" lon="4.79925">
        <ele>216.067</ele>
        <time>2011-02-13T09:56:25Z</time>
      </trkpt>
      <trkpt lat="49.7245" lon="4.79927">
        <ele>216.329</ele>
        <time>2011-02-13T09:56:27Z</time>
      </trkpt>
      <trkpt lat="49.72443" lon="4.79933">
        <ele>217.005</ele>
        <time>2011-02-13T09:56:28Z</time>
      </trkpt>
      <trkpt lat="49.72439" lon="4.79936">
        <ele>216.963</ele>
        <time>2011-02-13T09:56:30Z</time>
      </trkpt>
      <trkpt lat="49.72436" lon="4.79939">
        <ele>216.48</ele>
        <time>2011-02-13T09:56:32Z</time>
      </trkpt>
      <trkpt lat="49.72432" lon="4.79942">
        <ele>215.379</ele>
        <time>2011-02-13T09:56:34Z</time>
      </trkpt>
      <trkpt lat="49.72425" lon="4.79944">
        <ele>214.444</ele>
        <time>2011-02-13T09:56:36Z</time>
      </trkpt>
      <trkpt lat="49.72418" lon="4.79949">
        <ele>213.716</ele>
        <time>2011-02-13T09:56:38Z</time>
      </trkpt>
      <trkpt lat="49.72411" lon="4.79953">
        <ele>212.921</ele>
        <time>2011-02-13T09:56:40Z</time>
      </trkpt>
      <trkpt lat="49.72405" lon="4.79958">
        <ele>212.174</ele>
        <time>2011-02-13T09:56:42Z</time>
      </trkpt>
      <trkpt lat="49.72402" lon="4.79961">
        <ele>212.075</ele>
        <time>2011-02-13T09:56:43Z</time>
      </trkpt>
      <trkpt lat="49.72397" lon="4.79968">
        <ele>212.184</ele>
        <time>2011-02-13T09:56:45Z</time>
      </trkpt>
      <trkpt lat="49.72395" lon="4.79972">
        <ele>212.105</ele>
        <time>2011-02-13T09:56:46Z</time>
      </trkpt>
      <trkpt lat="49.7239" lon="4.7998">
        <ele>211.908</ele>
        <time>2011-02-13T09:56:48Z</time>
      </trkpt>
      <trkpt lat="49.72388" lon="4.79984">
        <ele>211.957</ele>
        <time>2011-02-13T09:56:49Z</time>
      </trkpt>
      <trkpt lat="49.72384" lon="4.79992">
        <ele>212.233</ele>
        <time>2011-02-13T09:56:51Z</time>
      </trkpt>
      <trkpt lat="49.72381" lon="4.79995">
        <ele>212.43</ele>
        <time>2011-02-13T09:56:52Z</time>
      </trkpt>
      <trkpt lat="49.72377" lon="4.80002">
        <ele>212.847</ele>
        <time>2011-02-13T09:56:54Z</time>
      </trkpt>
      <trkpt lat="49.72373" lon="4.80006">
        <ele>213.167</ele>
        <time>2011-02-13T09:56:56Z</time>
      </trkpt>
      <trkpt lat="49.7237" lon="4.8001">
        <ele>213.634</ele>
        <time>2011-02-13T09:56:58Z</time>
      </trkpt>
      <trkpt lat="49.72369" lon="4.80013">
        <ele>213.667</ele>
        <time>2011-02-13T09:56:59Z</time>
      </trkpt>
      <trkpt lat="49.72365" lon="4.8002">
        <ele>213.666</ele>
        <time>2011-02-13T09:57:01Z</time>
      </trkpt>
      <trkpt lat="49.72364" lon="4.80023">
        <ele>213.626</ele>
        <time>2011-02-13T09:57:02Z</time>
      </trkpt>
      <trkpt lat="49.72359" lon="4.80031">
        <ele>213.59</ele>
        <time>2011-02-13T09:57:04Z</time>
      </trkpt>
      <trkpt lat="49.72354" lon="4.80038">
        <ele>213.36</ele>
        <time>2011-02-13T09:57:06Z</time>
      </trkpt>
      <trkpt lat="49.72347" lon="4.80044">
        <ele>212.747</ele>
        <time>2011-02-13T09:57:08Z</time>
      </trkpt>
      <trkpt lat="49.72345" lon="4.80046">
        <ele>212.442</ele>
        <time>2011-02-13T09:57:09Z</time>
      </trkpt>
      <trkpt lat="49.7234" lon="4.80052">
        <ele>212.459</ele>
        <time>2011-02-13T09:57:11Z</time>
      </trkpt>
      <trkpt lat="49.72336" lon="4.8006">
        <ele>212.823</ele>
        <time>2011-02-13T09:57:13Z</time>
      </trkpt>
      <trkpt lat="49.72332" lon="4.80069">
        <ele>213.03</ele>
        <time>2011-02-13T09:57:15Z</time>
      </trkpt>
      <trkpt lat="49.72328" lon="4.80075">
        <ele>214.01</ele>
        <time>2011-02-13T09:57:17Z</time>
      </trkpt>
      <trkpt lat="49.72326" lon="4.80077">
        <ele>214.638</ele>
        <time>2011-02-13T09:57:18Z</time>
      </trkpt>
      <trkpt lat="49.72322" lon="4.80084">
        <ele>215.716</ele>
        <time>2011-02-13T09:57:20Z</time>
      </trkpt>
      <trkpt lat="49.72319" lon="4.8009">
        <ele>216.176</ele>
        <time>2011-02-13T09:57:22Z</time>
      </trkpt>
      <trkpt lat="49.72315" lon="4.80095">
        <ele>216.531</ele>
        <time>2011-02-13T09:57:24Z</time>
      </trkpt>
      <trkpt lat="49.72311" lon="4.80101">
        <ele>216.646</ele>
        <time>2011-02-13T09:57:26Z</time>
      </trkpt>
      <trkpt lat="49.72309" lon="4.80105">
        <ele>216.521</ele>
        <time>2011-02-13T09:57:27Z</time>
      </trkpt>
      <trkpt lat="49.72305" lon="4.8011">
        <ele>216.461</ele>
        <time>2011-02-13T09:57:29Z</time>
      </trkpt>
      <trkpt lat="49.72301" lon="4.80114">
        <ele>216.77</ele>
        <time>2011-02-13T09:57:31Z</time>
      </trkpt>
      <trkpt lat="49.72296" lon="4.80119">
        <ele>217.419</ele>
        <time>2011-02-13T09:57:33Z</time>
      </trkpt>
      <trkpt lat="49.72292" lon="4.80123">
        <ele>218.026</ele>
        <time>2011-02-13T09:57:35Z</time>
      </trkpt>
      <trkpt lat="49.7229" lon="4.80125">
        <ele>218.264</ele>
        <time>2011-02-13T09:57:36Z</time>
      </trkpt>
      <trkpt lat="49.72288" lon="4.8013">
        <ele>218.562</ele>
        <time>2011-02-13T09:57:38Z</time>
      </trkpt>
      <trkpt lat="49.72286" lon="4.80133">
        <ele>218.477</ele>
        <time>2011-02-13T09:57:39Z</time>
      </trkpt>
      <trkpt lat="49.72285" lon="4.80136">
        <ele>218.35</ele>
        <time>2011-02-13T09:57:40Z</time>
      </trkpt>
      <trkpt lat="49.72282" lon="4.80143">
        <ele>217.857</ele>
        <time>2011-02-13T09:57:42Z</time>
      </trkpt>
      <trkpt lat="49.72279" lon="4.8015">
        <ele>217.251</ele>
        <time>2011-02-13T09:57:44Z</time>
      </trkpt>
      <trkpt lat="49.72276" lon="4.80156">
        <ele>217.094</ele>
        <time>2011-02-13T09:57:46Z</time>
      </trkpt>
      <trkpt lat="49.72273" lon="4.80161">
        <ele>217.24</ele>
        <time>2011-02-13T09:57:48Z</time>
      </trkpt>
      <trkpt lat="49.72269" lon="4.80165">
        <ele>217.501</ele>
        <time>2011-02-13T09:57:50Z</time>
      </trkpt>
      <trkpt lat="49.72268" lon="4.80167">
        <ele>217.613</ele>
        <time>2011-02-13T09:57:51Z</time>
      </trkpt>
      <trkpt lat="49.72266" lon="4.80169">
        <ele>217.734</ele>
        <time>2011-02-13T09:57:52Z</time>
      </trkpt>
      <trkpt lat="49.72263" lon="4.80172">
        <ele>217.806</ele>
        <time>2011-02-13T09:57:54Z</time>
      </trkpt>
      <trkpt lat="49.72261" lon="4.80174">
        <ele>217.775</ele>
        <time>2011-02-13T09:57:55Z</time>
      </trkpt>
      <trkpt lat="49.7226" lon="4.80177">
        <ele>217.497</ele>
        <time>2011-02-13T09:57:56Z</time>
      </trkpt>
      <trkpt lat="49.72257" lon="4.80181">
        <ele>216.949</ele>
        <time>2011-02-13T09:57:58Z</time>
      </trkpt>
      <trkpt lat="49.72256" lon="4.80183">
        <ele>216.682</ele>
        <time>2011-02-13T09:57:59Z</time>
      </trkpt>
      <trkpt lat="49.72253" lon="4.80188">
        <ele>216.17</ele>
        <time>2011-02-13T09:58:01Z</time>
      </trkpt>
      <trkpt lat="49.72247" lon="4.80196">
        <ele>215.734</ele>
        <time>2011-02-13T09:58:03Z</time>
      </trkpt>
      <trkpt lat="49.72242" lon="4.80203">
        <ele>215.546</ele>
        <time>2011-02-13T09:58:05Z</time>
      </trkpt>
      <trkpt lat="49.7224" lon="4.80207">
        <ele>215.557</ele>
        <time>2011-02-13T09:58:06Z</time>
      </trkpt>
      <trkpt lat="49.72238" lon="4.8021">
        <ele>215.384</ele>
        <time>2011-02-13T09:58:08Z</time>
      </trkpt>
      <trkpt lat="49.72237" lon="4.80211">
        <ele>215.01</ele>
        <time>2011-02-13T09:58:10Z</time>
      </trkpt>
      <trkpt lat="49.72235" lon="4.80212">
        <ele>214.77</ele>
        <time>2011-02-13T09:58:12Z</time>
      </trkpt>
      <trkpt lat="49.72233" lon="4.80213">
        <ele>214.77</ele>
        <time>2011-02-13T09:58:13Z</time>
      </trkpt>
      <trkpt lat="49.72231" lon="4.80216">
        <ele>214.53</ele>
        <time>2011-02-13T09:58:16Z</time>
      </trkpt>
      <trkpt lat="49.72228" lon="4.8022">
        <ele>214.14</ele>
        <time>2011-02-13T09:58:17Z</time>
      </trkpt>
      <trkpt lat="49.72226" lon="4.80223">
        <ele>213.89</ele>
        <time>2011-02-13T09:58:18Z</time>
      </trkpt>
      <trkpt lat="49.72225" lon="4.80225">
        <ele>213.81</ele>
        <time>2011-02-13T09:58:19Z</time>
      </trkpt>
      <trkpt lat="49.72221" lon="4.80229">
        <ele>213.397</ele>
        <time>2011-02-13T09:58:21Z</time>
      </trkpt>
      <trkpt lat="49.72219" lon="4.80232">
        <ele>213.001</ele>
        <time>2011-02-13T09:58:22Z</time>
      </trkpt>
      <trkpt lat="49.72217" lon="4.80234">
        <ele>212.626</ele>
        <time>2011-02-13T09:58:23Z</time>
      </trkpt>
      <trkpt lat="49.72212" lon="4.80241">
        <ele>212.119</ele>
        <time>2011-02-13T09:58:25Z</time>
      </trkpt>
      <trkpt lat="49.72211" lon="4.80243">
        <ele>211.865</ele>
        <time>2011-02-13T09:58:27Z</time>
      </trkpt>
      <trkpt lat="49.72207" lon="4.80249">
        <ele>211.196</ele>
        <time>2011-02-13T09:58:28Z</time>
      </trkpt>
      <trkpt lat="49.72205" lon="4.80253">
        <ele>211.001</ele>
        <time>2011-02-13T09:58:30Z</time>
      </trkpt>
      <trkpt lat="49.72202" lon="4.80259">
        <ele>211.028</ele>
        <time>2011-02-13T09:58:32Z</time>
      </trkpt>
      <trkpt lat="49.72199" lon="4.80264">
        <ele>211.171</ele>
        <time>2011-02-13T09:58:34Z</time>
      </trkpt>
      <trkpt lat="49.72196" lon="4.80267">
        <ele>211.574</ele>
        <time>2011-02-13T09:58:36Z</time>
      </trkpt>
      <trkpt lat="49.72193" lon="4.80272">
        <ele>212.01</ele>
        <time>2011-02-13T09:58:38Z</time>
      </trkpt>
      <trkpt lat="49.72189" lon="4.80277">
        <ele>212.414</ele>
        <time>2011-02-13T09:58:40Z</time>
      </trkpt>
      <trkpt lat="49.72186" lon="4.80283">
        <ele>212.886</ele>
        <time>2011-02-13T09:58:42Z</time>
      </trkpt>
      <trkpt lat="49.72185" lon="4.80286">
        <ele>213.17</ele>
        <time>2011-02-13T09:58:43Z</time>
      </trkpt>
      <trkpt lat="49.72183" lon="4.80291">
        <ele>213.2</ele>
        <time>2011-02-13T09:58:45Z</time>
      </trkpt>
      <trkpt lat="49.72182" lon="4.80293">
        <ele>213.29</ele>
        <time>2011-02-13T09:58:46Z</time>
      </trkpt>
      <trkpt lat="49.72179" lon="4.80296">
        <ele>213.3</ele>
        <time>2011-02-13T09:58:48Z</time>
      </trkpt>
      <trkpt lat="49.72174" lon="4.80301">
        <ele>213.15</ele>
        <time>2011-02-13T09:58:50Z</time>
      </trkpt>
      <trkpt lat="49.72171" lon="4.80305">
        <ele>213.07</ele>
        <time>2011-02-13T09:58:51Z</time>
      </trkpt>
      <trkpt lat="49.72166" lon="4.80313">
        <ele>213.01</ele>
        <time>2011-02-13T09:58:53Z</time>
      </trkpt>
      <trkpt lat="49.72164" lon="4.80317">
        <ele>213.05</ele>
        <time>2011-02-13T09:58:54Z</time>
      </trkpt>
      <trkpt lat="49.72158" lon="4.80324">
        <ele>213.41</ele>
        <time>2011-02-13T09:58:56Z</time>
      </trkpt>
      <trkpt lat="49.72153" lon="4.80329">
        <ele>213.97</ele>
        <time>2011-02-13T09:58:59Z</time>
      </trkpt>
      <trkpt lat="49.7215" lon="4.80333">
        <ele>214.52</ele>
        <time>2011-02-13T09:59:00Z</time>
      </trkpt>
      <trkpt lat="49.72148" lon="4.80335">
        <ele>214.76</ele>
        <time>2011-02-13T09:59:01Z</time>
      </trkpt>
      <trkpt lat="49.72145" lon="4.80339">
        <ele>215.06</ele>
        <time>2011-02-13T09:59:03Z</time>
      </trkpt>
      <trkpt lat="49.72142" lon="4.80343">
        <ele>215.27</ele>
        <time>2011-02-13T09:59:05Z</time>
      </trkpt>
      <trkpt lat="49.7214" lon="4.80347">
        <ele>215.27</ele>
        <time>2011-02-13T09:59:07Z</time>
      </trkpt>
      <trkpt lat="49.7214" lon="4.8035">
        <ele>215.31</ele>
        <time>2011-02-13T09:59:08Z</time>
      </trkpt>
      <trkpt lat="49.72139" lon="4.80354">
        <ele>215.38</ele>
        <time>2011-02-13T09:59:10Z</time>
      </trkpt>
      <trkpt lat="49.72139" lon="4.80358">
        <ele>215.35</ele>
        <time>2011-02-13T09:59:12Z</time>
      </trkpt>
      <trkpt lat="49.72139" lon="4.80361">
        <ele>215.31</ele>
        <time>2011-02-13T09:59:13Z</time>
      </trkpt>
      <trkpt lat="49.72137" lon="4.80365">
        <ele>215.18</ele>
        <time>2011-02-13T09:59:15Z</time>
      </trkpt>
      <trkpt lat="49.72135" lon="4.80367">
        <ele>215.04</ele>
        <time>2011-02-13T09:59:17Z</time>
      </trkpt>
      <trkpt lat="49.72135" lon="4.8037">
        <ele>215</ele>
        <time>2011-02-13T09:59:18Z</time>
      </trkpt>
      <trkpt lat="49.72132" lon="4.80376">
        <ele>215.08</ele>
        <time>2011-02-13T09:59:20Z</time>
      </trkpt>
      <trkpt lat="49.72126" lon="4.80383">
        <ele>214.95</ele>
        <time>2011-02-13T09:59:23Z</time>
      </trkpt>
      <trkpt lat="49.7212" lon="4.80388">
        <ele>214.8</ele>
        <time>2011-02-13T09:59:24Z</time>
      </trkpt>
      <trkpt lat="49.72117" lon="4.8039">
        <ele>214.77</ele>
        <time>2011-02-13T09:59:25Z</time>
      </trkpt>
      <trkpt lat="49.72116" lon="4.80393">
        <ele>214.76</ele>
        <time>2011-02-13T09:59:26Z</time>
      </trkpt>
      <trkpt lat="49.72114" lon="4.80398">
        <ele>214.96</ele>
        <time>2011-02-13T09:59:28Z</time>
      </trkpt>
      <trkpt lat="49.72113" lon="4.80401">
        <ele>215.21</ele>
        <time>2011-02-13T09:59:29Z</time>
      </trkpt>
      <trkpt lat="49.72111" lon="4.80403">
        <ele>216</ele>
        <time>2011-02-13T09:59:31Z</time>
      </trkpt>
      <trkpt lat="49.7211" lon="4.80404">
        <ele>216.43</ele>
        <time>2011-02-13T09:59:32Z</time>
      </trkpt>
      <trkpt lat="49.72109" lon="4.80405">
        <ele>216.87</ele>
        <time>2011-02-13T09:59:33Z</time>
      </trkpt>
      <trkpt lat="49.72109" lon="4.80406">
        <ele>217.3</ele>
        <time>2011-02-13T09:59:34Z</time>
      </trkpt>
      <trkpt lat="49.72107" lon="4.80408">
        <ele>218.64</ele>
        <time>2011-02-13T09:59:36Z</time>
      </trkpt>
      <trkpt lat="49.72106" lon="4.8041">
        <ele>219.28</ele>
        <time>2011-02-13T09:59:37Z</time>
      </trkpt>
      <trkpt lat="49.72103" lon="4.80413">
        <ele>220.758</ele>
        <time>2011-02-13T09:59:39Z</time>
      </trkpt>
      <trkpt lat="49.72102" lon="4.80415">
        <ele>221.416</ele>
        <time>2011-02-13T09:59:40Z</time>
      </trkpt>
      <trkpt lat="49.721" lon="4.80418">
        <ele>222.741</ele>
        <time>2011-02-13T09:59:42Z</time>
      </trkpt>
      <trkpt lat="49.72098" lon="4.80422">
        <ele>223.838</ele>
        <time>2011-02-13T09:59:44Z</time>
      </trkpt>
      <trkpt lat="49.72095" lon="4.80425">
        <ele>224.366</ele>
        <time>2011-02-13T09:59:46Z</time>
      </trkpt>
      <trkpt lat="49.72092" lon="4.80429">
        <ele>224.647</ele>
        <time>2011-02-13T09:59:47Z</time>
      </trkpt>
      <trkpt lat="49.72091" lon="4.80432">
        <ele>224.744</ele>
        <time>2011-02-13T09:59:49Z</time>
      </trkpt>
      <trkpt lat="49.72088" lon="4.80438">
        <ele>225.15</ele>
        <time>2011-02-13T09:59:51Z</time>
      </trkpt>
      <trkpt lat="49.72085" lon="4.80442">
        <ele>225.5</ele>
        <time>2011-02-13T09:59:52Z</time>
      </trkpt>
      <trkpt lat="49.72082" lon="4.80446">
        <ele>225.67</ele>
        <time>2011-02-13T09:59:55Z</time>
      </trkpt>
      <trkpt lat="49.72079" lon="4.8045">
        <ele>225.82</ele>
        <time>2011-02-13T09:59:56Z</time>
      </trkpt>
      <trkpt lat="49.72077" lon="4.80453">
        <ele>225.99</ele>
        <time>2011-02-13T09:59:58Z</time>
      </trkpt>
      <trkpt lat="49.72075" lon="4.80455">
        <ele>226.1</ele>
        <time>2011-02-13T09:59:59Z</time>
      </trkpt>
      <trkpt lat="49.72072" lon="4.8046">
        <ele>226.19</ele>
        <time>2011-02-13T10:00:00Z</time>
      </trkpt>
      <trkpt lat="49.7207" lon="4.80464">
        <ele>226.56</ele>
        <time>2011-02-13T10:00:02Z</time>
      </trkpt>
      <trkpt lat="49.72066" lon="4.80468">
        <ele>227.2</ele>
        <time>2011-02-13T10:00:05Z</time>
      </trkpt>
      <trkpt lat="49.72062" lon="4.80472">
        <ele>227.77</ele>
        <time>2011-02-13T10:00:06Z</time>
      </trkpt>
      <trkpt lat="49.7206" lon="4.80474">
        <ele>227.9</ele>
        <time>2011-02-13T10:00:07Z</time>
      </trkpt>
      <trkpt lat="49.72057" lon="4.80477">
        <ele>228.17</ele>
        <time>2011-02-13T10:00:08Z</time>
      </trkpt>
      <trkpt lat="49.72056" lon="4.80479">
        <ele>228.33</ele>
        <time>2011-02-13T10:00:09Z</time>
      </trkpt>
      <trkpt lat="49.72055" lon="4.80481">
        <ele>228.41</ele>
        <time>2011-02-13T10:00:10Z</time>
      </trkpt>
      <trkpt lat="49.72054" lon="4.80485">
        <ele>228.41</ele>
        <time>2011-02-13T10:00:13Z</time>
      </trkpt>
      <trkpt lat="49.72052" lon="4.8049">
        <ele>228.33</ele>
        <time>2011-02-13T10:00:14Z</time>
      </trkpt>
      <trkpt lat="49.72049" lon="4.80493">
        <ele>228.35</ele>
        <time>2011-02-13T10:00:15Z</time>
      </trkpt>
      <trkpt lat="49.72047" lon="4.80497">
        <ele>228.38</ele>
        <time>2011-02-13T10:00:18Z</time>
      </trkpt>
      <trkpt lat="49.72046" lon="4.80501">
        <ele>228.36</ele>
        <time>2011-02-13T10:00:19Z</time>
      </trkpt>
      <trkpt lat="49.72045" lon="4.80503">
        <ele>228.29</ele>
        <time>2011-02-13T10:00:20Z</time>
      </trkpt>
      <trkpt lat="49.72043" lon="4.80506">
        <ele>228.03</ele>
        <time>2011-02-13T10:00:21Z</time>
      </trkpt>
      <trkpt lat="49.72041" lon="4.80507">
        <ele>227.87</ele>
        <time>2011-02-13T10:00:23Z</time>
      </trkpt>
      <trkpt lat="49.72038" lon="4.80509">
        <ele>227.63</ele>
        <time>2011-02-13T10:00:24Z</time>
      </trkpt>
      <trkpt lat="49.72036" lon="4.8051">
        <ele>227.55</ele>
        <time>2011-02-13T10:00:25Z</time>
      </trkpt>
      <trkpt lat="49.72033" lon="4.80513">
        <ele>227.27</ele>
        <time>2011-02-13T10:00:26Z</time>
      </trkpt>
      <trkpt lat="49.72032" lon="4.80516">
        <ele>227.06</ele>
        <time>2011-02-13T10:00:27Z</time>
      </trkpt>
      <trkpt lat="49.72029" lon="4.8052">
        <ele>226.34</ele>
        <time>2011-02-13T10:00:29Z</time>
      </trkpt>
      <trkpt lat="49.72028" lon="4.80522">
        <ele>225.95</ele>
        <time>2011-02-13T10:00:31Z</time>
      </trkpt>
      <trkpt lat="49.72025" lon="4.80526">
        <ele>225.17</ele>
        <time>2011-02-13T10:00:32Z</time>
      </trkpt>
      <trkpt lat="49.72024" lon="4.80528">
        <ele>224.609</ele>
        <time>2011-02-13T10:00:33Z</time>
      </trkpt>
      <trkpt lat="49.7202" lon="4.80533">
        <ele>223.467</ele>
        <time>2011-02-13T10:00:34Z</time>
      </trkpt>
      <trkpt lat="49.72018" lon="4.80536">
        <ele>222.959</ele>
        <time>2011-02-13T10:00:36Z</time>
      </trkpt>
      <trkpt lat="49.72014" lon="4.8054">
        <ele>222.209</ele>
        <time>2011-02-13T10:00:37Z</time>
      </trkpt>
      <trkpt lat="49.72013" lon="4.80542">
        <ele>221.884</ele>
        <time>2011-02-13T10:00:38Z</time>
      </trkpt>
      <trkpt lat="49.72011" lon="4.80545">
        <ele>221.631</ele>
        <time>2011-02-13T10:00:39Z</time>
      </trkpt>
      <trkpt lat="49.72008" lon="4.80551">
        <ele>221.2</ele>
        <time>2011-02-13T10:00:41Z</time>
      </trkpt>
      <trkpt lat="49.72004" lon="4.80556">
        <ele>221.01</ele>
        <time>2011-02-13T10:00:43Z</time>
      </trkpt>
      <trkpt lat="49.72" lon="4.80561">
        <ele>221.17</ele>
        <time>2011-02-13T10:00:45Z</time>
      </trkpt>
      <trkpt lat="49.71998" lon="4.80565">
        <ele>221.64</ele>
        <time>2011-02-13T10:00:47Z</time>
      </trkpt>
      <trkpt lat="49.71996" lon="4.80568">
        <ele>222.35</ele>
        <time>2011-02-13T10:00:49Z</time>
      </trkpt>
      <trkpt lat="49.71994" lon="4.8057">
        <ele>222.76</ele>
        <time>2011-02-13T10:00:50Z</time>
      </trkpt>
      <trkpt lat="49.71991" lon="4.80574">
        <ele>223.69</ele>
        <time>2011-02-13T10:00:52Z</time>
      </trkpt>
      <trkpt lat="49.71989" lon="4.80577">
        <ele>224.7</ele>
        <time>2011-02-13T10:00:54Z</time>
      </trkpt>
      <trkpt lat="49.71987" lon="4.80582">
        <ele>225.42</ele>
        <time>2011-02-13T10:00:56Z</time>
      </trkpt>
      <trkpt lat="49.71985" lon="4.80585">
        <ele>225.72</ele>
        <time>2011-02-13T10:00:57Z</time>
      </trkpt>
      <trkpt lat="49.71982" lon="4.8059">
        <ele>226.42</ele>
        <time>2011-02-13T10:00:59Z</time>
      </trkpt>
      <trkpt lat="49.71979" lon="4.80596">
        <ele>227.12</ele>
        <time>2011-02-13T10:01:01Z</time>
      </trkpt>
      <trkpt lat="49.71978" lon="4.80598">
        <ele>227.36</ele>
        <time>2011-02-13T10:01:02Z</time>
      </trkpt>
      <trkpt lat="49.71977" lon="4.80601">
        <ele>227.51</ele>
        <time>2011-02-13T10:01:03Z</time>
      </trkpt>
      <trkpt lat="49.71975" lon="4.80604">
        <ele>227.85</ele>
        <time>2011-02-13T10:01:05Z</time>
      </trkpt>
      <trkpt lat="49.71974" lon="4.80606">
        <ele>228.03</ele>
        <time>2011-02-13T10:01:06Z</time>
      </trkpt>
      <trkpt lat="49.71972" lon="4.80608">
        <ele>228.207</ele>
        <time>2011-02-13T10:01:07Z</time>
      </trkpt>
      <trkpt lat="49.7197" lon="4.80609">
        <ele>228.329</ele>
        <time>2011-02-13T10:01:08Z</time>
      </trkpt>
      <trkpt lat="49.71967" lon="4.80614">
        <ele>228.439</ele>
        <time>2011-02-13T10:01:10Z</time>
      </trkpt>
      <trkpt lat="49.71964" lon="4.80618">
        <ele>228.502</ele>
        <time>2011-02-13T10:01:12Z</time>
      </trkpt>
      <trkpt lat="49.71963" lon="4.80619">
        <ele>228.535</ele>
        <time>2011-02-13T10:01:13Z</time>
      </trkpt>
      <trkpt lat="49.71961" lon="4.80621">
        <ele>228.558</ele>
        <time>2011-02-13T10:01:14Z</time>
      </trkpt>
      <trkpt lat="49.71959" lon="4.80623">
        <ele>228.85</ele>
        <time>2011-02-13T10:01:16Z</time>
      </trkpt>
      <trkpt lat="49.71958" lon="4.80625">
        <ele>229.19</ele>
        <time>2011-02-13T10:01:17Z</time>
      </trkpt>
      <trkpt lat="49.71956" lon="4.80627">
        <ele>229.53</ele>
        <time>2011-02-13T10:01:18Z</time>
      </trkpt>
      <trkpt lat="49.71954" lon="4.80631">
        <ele>230.17</ele>
        <time>2011-02-13T10:01:20Z</time>
      </trkpt>
      <trkpt lat="49.71953" lon="4.80633">
        <ele>230.48</ele>
        <time>2011-02-13T10:01:21Z</time>
      </trkpt>
      <trkpt lat="49.71952" lon="4.80637">
        <ele>231.13</ele>
        <time>2011-02-13T10:01:23Z</time>
      </trkpt>
      <trkpt lat="49.71951" lon="4.8064">
        <ele>231.84</ele>
        <time>2011-02-13T10:01:25Z</time>
      </trkpt>
      <trkpt lat="49.7195" lon="4.80642">
        <ele>231.96</ele>
        <time>2011-02-13T10:01:26Z</time>
      </trkpt>
      <trkpt lat="49.71948" lon="4.80648">
        <ele>232.03</ele>
        <time>2011-02-13T10:01:28Z</time>
      </trkpt>
      <trkpt lat="49.71945" lon="4.80654">
        <ele>232.08</ele>
        <time>2011-02-13T10:01:30Z</time>
      </trkpt>
      <trkpt lat="49.71943" lon="4.80661">
        <ele>232.102</ele>
        <time>2011-02-13T10:01:32Z</time>
      </trkpt>
      <trkpt lat="49.71941" lon="4.80665">
        <ele>231.988</ele>
        <time>2011-02-13T10:01:33Z</time>
      </trkpt>
      <trkpt lat="49.71938" lon="4.80672">
        <ele>231.571</ele>
        <time>2011-02-13T10:01:35Z</time>
      </trkpt>
      <trkpt lat="49.71935" lon="4.80679">
        <ele>231.339</ele>
        <time>2011-02-13T10:01:37Z</time>
      </trkpt>
      <trkpt lat="49.71933" lon="4.80685">
        <ele>231.068</ele>
        <time>2011-02-13T10:01:39Z</time>
      </trkpt>
      <trkpt lat="49.71931" lon="4.8069">
        <ele>230.76</ele>
        <time>2011-02-13T10:01:41Z</time>
      </trkpt>
      <trkpt lat="49.71928" lon="4.80695">
        <ele>230.61</ele>
        <time>2011-02-13T10:01:43Z</time>
      </trkpt>
      <trkpt lat="49.71926" lon="4.807">
        <ele>230.66</ele>
        <time>2011-02-13T10:01:45Z</time>
      </trkpt>
      <trkpt lat="49.71924" lon="4.80702">
        <ele>230.57</ele>
        <time>2011-02-13T10:01:46Z</time>
      </trkpt>
      <trkpt lat="49.71922" lon="4.80706">
        <ele>230.57</ele>
        <time>2011-02-13T10:01:48Z</time>
      </trkpt>
      <trkpt lat="49.71921" lon="4.80709">
        <ele>230.71</ele>
        <time>2011-02-13T10:01:49Z</time>
      </trkpt>
      <trkpt lat="49.71919" lon="4.80716">
        <ele>231.21</ele>
        <time>2011-02-13T10:01:51Z</time>
      </trkpt>
      <trkpt lat="49.71918" lon="4.80719">
        <ele>231.52</ele>
        <time>2011-02-13T10:01:52Z</time>
      </trkpt>
      <trkpt lat="49.71914" lon="4.80726">
        <ele>232.12</ele>
        <time>2011-02-13T10:01:54Z</time>
      </trkpt>
      <trkpt lat="49.71912" lon="4.80729">
        <ele>232.47</ele>
        <time>2011-02-13T10:01:55Z</time>
      </trkpt>
      <trkpt lat="49.71908" lon="4.80734">
        <ele>233.16</ele>
        <time>2011-02-13T10:01:57Z</time>
      </trkpt>
      <trkpt lat="49.71906" lon="4.80736">
        <ele>233.42</ele>
        <time>2011-02-13T10:01:58Z</time>
      </trkpt>
      <trkpt lat="49.71902" lon="4.80742">
        <ele>233.55</ele>
        <time>2011-02-13T10:02:00Z</time>
      </trkpt>
      <trkpt lat="49.71896" lon="4.80748">
        <ele>233.2</ele>
        <time>2011-02-13T10:02:02Z</time>
      </trkpt>
      <trkpt lat="49.7189" lon="4.80754">
        <ele>232.6</ele>
        <time>2011-02-13T10:02:04Z</time>
      </trkpt>
      <trkpt lat="49.71885" lon="4.8076">
        <ele>231.75</ele>
        <time>2011-02-13T10:02:06Z</time>
      </trkpt>
      <trkpt lat="49.71883" lon="4.80763">
        <ele>231.28</ele>
        <time>2011-02-13T10:02:07Z</time>
      </trkpt>
      <trkpt lat="49.71879" lon="4.80769">
        <ele>230.59</ele>
        <time>2011-02-13T10:02:09Z</time>
      </trkpt>
      <trkpt lat="49.71875" lon="4.80775">
        <ele>230.47</ele>
        <time>2011-02-13T10:02:11Z</time>
      </trkpt>
      <trkpt lat="49.71871" lon="4.80781">
        <ele>230.75</ele>
        <time>2011-02-13T10:02:13Z</time>
      </trkpt>
      <trkpt lat="49.71868" lon="4.80787">
        <ele>231.27</ele>
        <time>2011-02-13T10:02:15Z</time>
      </trkpt>
      <trkpt lat="49.71866" lon="4.80789">
        <ele>231.7</ele>
        <time>2011-02-13T10:02:16Z</time>
      </trkpt>
      <trkpt lat="49.71863" lon="4.80794">
        <ele>232.63</ele>
        <time>2011-02-13T10:02:18Z</time>
      </trkpt>
      <trkpt lat="49.71861" lon="4.80797">
        <ele>232.97</ele>
        <time>2011-02-13T10:02:19Z</time>
      </trkpt>
      <trkpt lat="49.71859" lon="4.808">
        <ele>233.24</ele>
        <time>2011-02-13T10:02:20Z</time>
      </trkpt>
      <trkpt lat="49.71855" lon="4.80805">
        <ele>233.81</ele>
        <time>2011-02-13T10:02:22Z</time>
      </trkpt>
      <trkpt lat="49.71852" lon="4.80811">
        <ele>234.39</ele>
        <time>2011-02-13T10:02:24Z</time>
      </trkpt>
      <trkpt lat="49.7185" lon="4.80814">
        <ele>234.65</ele>
        <time>2011-02-13T10:02:25Z</time>
      </trkpt>
      <trkpt lat="49.71847" lon="4.80821">
        <ele>235.06</ele>
        <time>2011-02-13T10:02:27Z</time>
      </trkpt>
      <trkpt lat="49.71846" lon="4.80824">
        <ele>235.22</ele>
        <time>2011-02-13T10:02:28Z</time>
      </trkpt>
      <trkpt lat="49.71844" lon="4.80827">
        <ele>235.36</ele>
        <time>2011-02-13T10:02:29Z</time>
      </trkpt>
      <trkpt lat="49.71841" lon="4.80834">
        <ele>235.57</ele>
        <time>2011-02-13T10:02:31Z</time>
      </trkpt>
      <trkpt lat="49.71839" lon="4.80837">
        <ele>235.64</ele>
        <time>2011-02-13T10:02:32Z</time>
      </trkpt>
      <trkpt lat="49.71836" lon="4.80845">
        <ele>235.74</ele>
        <time>2011-02-13T10:02:34Z</time>
      </trkpt>
      <trkpt lat="49.71834" lon="4.80851">
        <ele>235.91</ele>
        <time>2011-02-13T10:02:36Z</time>
      </trkpt>
      <trkpt lat="49.71831" lon="4.80856">
        <ele>236.07</ele>
        <time>2011-02-13T10:02:38Z</time>
      </trkpt>
      <trkpt lat="49.7183" lon="4.80859">
        <ele>236.15</ele>
        <time>2011-02-13T10:02:39Z</time>
      </trkpt>
      <trkpt lat="49.71829" lon="4.80862">
        <ele>236.23</ele>
        <time>2011-02-13T10:02:40Z</time>
      </trkpt>
      <trkpt lat="49.71826" lon="4.80867">
        <ele>236.29</ele>
        <time>2011-02-13T10:02:42Z</time>
      </trkpt>
      <trkpt lat="49.71825" lon="4.8087">
        <ele>236.33</ele>
        <time>2011-02-13T10:02:43Z</time>
      </trkpt>
      <trkpt lat="49.71822" lon="4.80876">
        <ele>236.31</ele>
        <time>2011-02-13T10:02:45Z</time>
      </trkpt>
      <trkpt lat="49.71821" lon="4.80879">
        <ele>236.23</ele>
        <time>2011-02-13T10:02:46Z</time>
      </trkpt>
      <trkpt lat="49.71818" lon="4.80885">
        <ele>236.02</ele>
        <time>2011-02-13T10:02:48Z</time>
      </trkpt>
      <trkpt lat="49.71816" lon="4.80891">
        <ele>235.78</ele>
        <time>2011-02-13T10:02:50Z</time>
      </trkpt>
      <trkpt lat="49.71813" lon="4.80896">
        <ele>235.53</ele>
        <time>2011-02-13T10:02:52Z</time>
      </trkpt>
      <trkpt lat="49.7181" lon="4.80902">
        <ele>235.29</ele>
        <time>2011-02-13T10:02:54Z</time>
      </trkpt>
      <trkpt lat="49.71809" lon="4.80905">
        <ele>235.22</ele>
        <time>2011-02-13T10:02:55Z</time>
      </trkpt>
      <trkpt lat="49.71808" lon="4.80908">
        <ele>235.15</ele>
        <time>2011-02-13T10:02:56Z</time>
      </trkpt>
      <trkpt lat="49.71805" lon="4.80913">
        <ele>235.31</ele>
        <time>2011-02-13T10:02:58Z</time>
      </trkpt>
      <trkpt lat="49.71803" lon="4.80918">
        <ele>235.53</ele>
        <time>2011-02-13T10:03:00Z</time>
      </trkpt>
      <trkpt lat="49.718" lon="4.80923">
        <ele>235.67</ele>
        <time>2011-02-13T10:03:02Z</time>
      </trkpt>
      <trkpt lat="49.71798" lon="4.80928">
        <ele>235.85</ele>
        <time>2011-02-13T10:03:04Z</time>
      </trkpt>
      <trkpt lat="49.71795" lon="4.80933">
        <ele>235.92</ele>
        <time>2011-02-13T10:03:06Z</time>
      </trkpt>
      <trkpt lat="49.71793" lon="4.80938">
        <ele>235.32</ele>
        <time>2011-02-13T10:03:08Z</time>
      </trkpt>
      <trkpt lat="49.71792" lon="4.80942">
        <ele>234.94</ele>
        <time>2011-02-13T10:03:10Z</time>
      </trkpt>
      <trkpt lat="49.71791" lon="4.80944">
        <ele>234.86</ele>
        <time>2011-02-13T10:03:11Z</time>
      </trkpt>
      <trkpt lat="49.71788" lon="4.80949">
        <ele>234.77</ele>
        <time>2011-02-13T10:03:13Z</time>
      </trkpt>
      <trkpt lat="49.71786" lon="4.80951">
        <ele>234.73</ele>
        <time>2011-02-13T10:03:14Z</time>
      </trkpt>
      <trkpt lat="49.71785" lon="4.80954">
        <ele>234.7</ele>
        <time>2011-02-13T10:03:15Z</time>
      </trkpt>
      <trkpt lat="49.71783" lon="4.80956">
        <ele>234.87</ele>
        <time>2011-02-13T10:03:16Z</time>
      </trkpt>
      <trkpt lat="49.7178" lon="4.80961">
        <ele>235.6</ele>
        <time>2011-02-13T10:03:18Z</time>
      </trkpt>
      <trkpt lat="49.71777" lon="4.80968">
        <ele>236.12</ele>
        <time>2011-02-13T10:03:20Z</time>
      </trkpt>
      <trkpt lat="49.71775" lon="4.80974">
        <ele>236.35</ele>
        <time>2011-02-13T10:03:22Z</time>
      </trkpt>
      <trkpt lat="49.71774" lon="4.80978">
        <ele>236.42</ele>
        <time>2011-02-13T10:03:23Z</time>
      </trkpt>
      <trkpt lat="49.71773" lon="4.80981">
        <ele>236.42</ele>
        <time>2011-02-13T10:03:24Z</time>
      </trkpt>
      <trkpt lat="49.71772" lon="4.80984">
        <ele>236.39</ele>
        <time>2011-02-13T10:03:25Z</time>
      </trkpt>
      <trkpt lat="49.7177" lon="4.80989">
        <ele>236.27</ele>
        <time>2011-02-13T10:03:27Z</time>
      </trkpt>
      <trkpt lat="49.71768" lon="4.80991">
        <ele>236.19</ele>
        <time>2011-02-13T10:03:28Z</time>
      </trkpt>
      <trkpt lat="49.71765" lon="4.80994">
        <ele>236.09</ele>
        <time>2011-02-13T10:03:30Z</time>
      </trkpt>
      <trkpt lat="49.71762" lon="4.80999">
        <ele>236.05</ele>
        <time>2011-02-13T10:03:32Z</time>
      </trkpt>
      <trkpt lat="49.7176" lon="4.81001">
        <ele>236.29</ele>
        <time>2011-02-13T10:03:33Z</time>
      </trkpt>
      <trkpt lat="49.71757" lon="4.81007">
        <ele>237.28</ele>
        <time>2011-02-13T10:03:35Z</time>
      </trkpt>
      <trkpt lat="49.71753" lon="4.81014">
        <ele>238.5</ele>
        <time>2011-02-13T10:03:37Z</time>
      </trkpt>
      <trkpt lat="49.71751" lon="4.81017">
        <ele>239.12</ele>
        <time>2011-02-13T10:03:38Z</time>
      </trkpt>
      <trkpt lat="49.71748" lon="4.81021">
        <ele>240.39</ele>
        <time>2011-02-13T10:03:40Z</time>
      </trkpt>
      <trkpt lat="49.71746" lon="4.81024">
        <ele>241.74</ele>
        <time>2011-02-13T10:03:42Z</time>
      </trkpt>
      <trkpt lat="49.71744" lon="4.81026">
        <ele>242.14</ele>
        <time>2011-02-13T10:03:43Z</time>
      </trkpt>
      <trkpt lat="49.71743" lon="4.81028">
        <ele>242.33</ele>
        <time>2011-02-13T10:03:44Z</time>
      </trkpt>
      <trkpt lat="49.71742" lon="4.81032">
        <ele>242.34</ele>
        <time>2011-02-13T10:03:46Z</time>
      </trkpt>
      <trkpt lat="49.71741" lon="4.81035">
        <ele>242.25</ele>
        <time>2011-02-13T10:03:47Z</time>
      </trkpt>
      <trkpt lat="49.71742" lon="4.8104">
        <ele>242</ele>
        <time>2011-02-13T10:03:49Z</time>
      </trkpt>
      <trkpt lat="49.71743" lon="4.81042">
        <ele>241.87</ele>
        <time>2011-02-13T10:03:50Z</time>
      </trkpt>
      <trkpt lat="49.71745" lon="4.81045">
        <ele>241.87</ele>
        <time>2011-02-13T10:03:52Z</time>
      </trkpt>
      <trkpt lat="49.71747" lon="4.81046">
        <ele>241.95</ele>
        <time>2011-02-13T10:03:53Z</time>
      </trkpt>
      <trkpt lat="49.71748" lon="4.81048">
        <ele>242.09</ele>
        <time>2011-02-13T10:03:54Z</time>
      </trkpt>
      <trkpt lat="49.71751" lon="4.81051">
        <ele>242.47</ele>
        <time>2011-02-13T10:03:56Z</time>
      </trkpt>
      <trkpt lat="49.71753" lon="4.81052">
        <ele>242.67</ele>
        <time>2011-02-13T10:03:57Z</time>
      </trkpt>
      <trkpt lat="49.71756" lon="4.81055">
        <ele>243.14</ele>
        <time>2011-02-13T10:03:59Z</time>
      </trkpt>
      <trkpt lat="49.71758" lon="4.81056">
        <ele>243.38</ele>
        <time>2011-02-13T10:04:00Z</time>
      </trkpt>
      <trkpt lat="49.71761" lon="4.81058">
        <ele>243.65</ele>
        <time>2011-02-13T10:04:02Z</time>
      </trkpt>
      <trkpt lat="49.71764" lon="4.8106">
        <ele>243.68</ele>
        <time>2011-02-13T10:04:04Z</time>
      </trkpt>
      <trkpt lat="49.71766" lon="4.81062">
        <ele>243.66</ele>
        <time>2011-02-13T10:04:05Z</time>
      </trkpt>
      <trkpt lat="49.71769" lon="4.81064">
        <ele>243.68</ele>
        <time>2011-02-13T10:04:07Z</time>
      </trkpt>
      <trkpt lat="49.71771" lon="4.81064">
        <ele>243.67</ele>
        <time>2011-02-13T10:04:08Z</time>
      </trkpt>
      <trkpt lat="49.71772" lon="4.81063">
        <ele>243.63</ele>
        <time>2011-02-13T10:04:09Z</time>
      </trkpt>
      <trkpt lat="49.71774" lon="4.81063">
        <ele>243.55</ele>
        <time>2011-02-13T10:04:10Z</time>
      </trkpt>
      <trkpt lat="49.71778" lon="4.81064">
        <ele>243.28</ele>
        <time>2011-02-13T10:04:12Z</time>
      </trkpt>
      <trkpt lat="49.7178" lon="4.81065">
        <ele>243.17</ele>
        <time>2011-02-13T10:04:13Z</time>
      </trkpt>
      <trkpt lat="49.71784" lon="4.81066">
        <ele>242.91</ele>
        <time>2011-02-13T10:04:15Z</time>
      </trkpt>
      <trkpt lat="49.71787" lon="4.81067">
        <ele>242.59</ele>
        <time>2011-02-13T10:04:17Z</time>
      </trkpt>
      <trkpt lat="49.7179" lon="4.81067">
        <ele>242.25</ele>
        <time>2011-02-13T10:04:19Z</time>
      </trkpt>
      <trkpt lat="49.71791" lon="4.81067">
        <ele>242.09</ele>
        <time>2011-02-13T10:04:20Z</time>
      </trkpt>
      <trkpt lat="49.71795" lon="4.81068">
        <ele>241.83</ele>
        <time>2011-02-13T10:04:22Z</time>
      </trkpt>
      <trkpt lat="49.71801" lon="4.8107">
        <ele>241.55</ele>
        <time>2011-02-13T10:04:24Z</time>
      </trkpt>
      <trkpt lat="49.71807" lon="4.81072">
        <ele>241.22</ele>
        <time>2011-02-13T10:04:26Z</time>
      </trkpt>
      <trkpt lat="49.7181" lon="4.81073">
        <ele>241.03</ele>
        <time>2011-02-13T10:04:27Z</time>
      </trkpt>
      <trkpt lat="49.71814" lon="4.81075">
        <ele>240.69</ele>
        <time>2011-02-13T10:04:29Z</time>
      </trkpt>
      <trkpt lat="49.71819" lon="4.81076">
        <ele>240.19</ele>
        <time>2011-02-13T10:04:31Z</time>
      </trkpt>
      <trkpt lat="49.71822" lon="4.81077">
        <ele>239.91</ele>
        <time>2011-02-13T10:04:32Z</time>
      </trkpt>
      <trkpt lat="49.71825" lon="4.81078">
        <ele>239.65</ele>
        <time>2011-02-13T10:04:33Z</time>
      </trkpt>
      <trkpt lat="49.71829" lon="4.8108">
        <ele>239.25</ele>
        <time>2011-02-13T10:04:35Z</time>
      </trkpt>
      <trkpt lat="49.71831" lon="4.81083">
        <ele>238.83</ele>
        <time>2011-02-13T10:04:37Z</time>
      </trkpt>
      <trkpt lat="49.71834" lon="4.81085">
        <ele>238.4</ele>
        <time>2011-02-13T10:04:39Z</time>
      </trkpt>
      <trkpt lat="49.71837" lon="4.81086">
        <ele>237.93</ele>
        <time>2011-02-13T10:04:41Z</time>
      </trkpt>
      <trkpt lat="49.71839" lon="4.81087">
        <ele>237.69</ele>
        <time>2011-02-13T10:04:42Z</time>
      </trkpt>
      <trkpt lat="49.71845" lon="4.81091">
        <ele>236.95</ele>
        <time>2011-02-13T10:04:44Z</time>
      </trkpt>
      <trkpt lat="49.7185" lon="4.81096">
        <ele>236.076</ele>
        <time>2011-02-13T10:04:46Z</time>
      </trkpt>
      <trkpt lat="49.71856" lon="4.811">
        <ele>235.18</ele>
        <time>2011-02-13T10:04:48Z</time>
      </trkpt>
      <trkpt lat="49.71862" lon="4.81105">
        <ele>234.364</ele>
        <time>2011-02-13T10:04:50Z</time>
      </trkpt>
      <trkpt lat="49.71867" lon="4.8111">
        <ele>233.679</ele>
        <time>2011-02-13T10:04:52Z</time>
      </trkpt>
      <trkpt lat="49.71872" lon="4.81117">
        <ele>233.266</ele>
        <time>2011-02-13T10:04:54Z</time>
      </trkpt>
      <trkpt lat="49.71877" lon="4.81122">
        <ele>232.95</ele>
        <time>2011-02-13T10:04:56Z</time>
      </trkpt>
      <trkpt lat="49.71882" lon="4.81126">
        <ele>232.31</ele>
        <time>2011-02-13T10:04:58Z</time>
      </trkpt>
      <trkpt lat="49.71885" lon="4.81129">
        <ele>231.65</ele>
        <time>2011-02-13T10:05:00Z</time>
      </trkpt>
      <trkpt lat="49.71889" lon="4.81135">
        <ele>230.934</ele>
        <time>2011-02-13T10:05:02Z</time>
      </trkpt>
      <trkpt lat="49.71894" lon="4.81143">
        <ele>230.199</ele>
        <time>2011-02-13T10:05:04Z</time>
      </trkpt>
      <trkpt lat="49.71897" lon="4.81148">
        <ele>229.851</ele>
        <time>2011-02-13T10:05:05Z</time>
      </trkpt>
      <trkpt lat="49.71901" lon="4.81161">
        <ele>229.204</ele>
        <time>2011-02-13T10:05:07Z</time>
      </trkpt>
      <trkpt lat="49.71905" lon="4.81172">
        <ele>228.898</ele>
        <time>2011-02-13T10:05:09Z</time>
      </trkpt>
      <trkpt lat="49.71908" lon="4.81182">
        <ele>228.834</ele>
        <time>2011-02-13T10:05:11Z</time>
      </trkpt>
      <trkpt lat="49.7191" lon="4.81187">
        <ele>228.808</ele>
        <time>2011-02-13T10:05:12Z</time>
      </trkpt>
      <trkpt lat="49.71914" lon="4.81194">
        <ele>228.588</ele>
        <time>2011-02-13T10:05:14Z</time>
      </trkpt>
      <trkpt lat="49.71914" lon="4.81197">
        <ele>228.15</ele>
        <time>2011-02-13T10:05:15Z</time>
      </trkpt>
      <trkpt lat="49.71913" lon="4.81201">
        <ele>227.29</ele>
        <time>2011-02-13T10:05:17Z</time>
      </trkpt>
      <trkpt lat="49.71912" lon="4.81202">
        <ele>226.88</ele>
        <time>2011-02-13T10:05:18Z</time>
      </trkpt>
      <trkpt lat="49.71911" lon="4.81203">
        <ele>226.01</ele>
        <time>2011-02-13T10:05:20Z</time>
      </trkpt>
      <trkpt lat="49.71911" lon="4.81205">
        <ele>225.15</ele>
        <time>2011-02-13T10:05:22Z</time>
      </trkpt>
      <trkpt lat="49.71911" lon="4.81206">
        <ele>224.81</ele>
        <time>2011-02-13T10:05:23Z</time>
      </trkpt>
      <trkpt lat="49.71912" lon="4.81209">
        <ele>224.37</ele>
        <time>2011-02-13T10:05:25Z</time>
      </trkpt>
      <trkpt lat="49.71912" lon="4.81212">
        <ele>224.04</ele>
        <time>2011-02-13T10:05:27Z</time>
      </trkpt>
      <trkpt lat="49.71912" lon="4.81213">
        <ele>223.5</ele>
        <time>2011-02-13T10:05:29Z</time>
      </trkpt>
      <trkpt lat="49.71912" lon="4.81213">
        <ele>223.194</ele>
        <time>2011-02-13T10:05:30Z</time>
      </trkpt>
      <trkpt lat="49.71912" lon="4.81214">
        <ele>222.558</ele>
        <time>2011-02-13T10:05:32Z</time>
      </trkpt>
      <trkpt lat="49.71912" lon="4.81214">
        <ele>221.878</ele>
        <time>2011-02-13T10:05:34Z</time>
      </trkpt>
      <trkpt lat="49.71912" lon="4.81214">
        <ele>221.655</ele>
        <time>2011-02-13T10:05:35Z</time>
      </trkpt>
      <trkpt lat="49.71912" lon="4.81214">
        <ele>221.361</ele>
        <time>2011-02-13T10:05:37Z</time>
      </trkpt>
      <trkpt lat="49.71913" lon="4.81214">
        <ele>221.278</ele>
        <time>2011-02-13T10:05:39Z</time>
      </trkpt>
      <trkpt lat="49.71913" lon="4.81215">
        <ele>221.413</ele>
        <time>2011-02-13T10:05:40Z</time>
      </trkpt>
      <trkpt lat="49.71915" lon="4.81215">
        <ele>221.813</ele>
        <time>2011-02-13T10:05:42Z</time>
      </trkpt>
      <trkpt lat="49.71916" lon="4.81215">
        <ele>222.282</ele>
        <time>2011-02-13T10:05:44Z</time>
      </trkpt>
      <trkpt lat="49.71917" lon="4.81215">
        <ele>222.565</ele>
        <time>2011-02-13T10:05:45Z</time>
      </trkpt>
      <trkpt lat="49.71917" lon="4.81215">
        <ele>222.798</ele>
        <time>2011-02-13T10:05:46Z</time>
      </trkpt>
      <trkpt lat="49.71917" lon="4.81217">
        <ele>223.204</ele>
        <time>2011-02-13T10:05:48Z</time>
      </trkpt>
      <trkpt lat="49.71917" lon="4.81218">
        <ele>223.259</ele>
        <time>2011-02-13T10:05:49Z</time>
      </trkpt>
      <trkpt lat="49.71917" lon="4.81219">
        <ele>223.169</ele>
        <time>2011-02-13T10:05:50Z</time>
      </trkpt>
      <trkpt lat="49.71917" lon="4.81222">
        <ele>222.917</ele>
        <time>2011-02-13T10:05:52Z</time>
      </trkpt>
      <trkpt lat="49.71917" lon="4.81224">
        <ele>222.72</ele>
        <time>2011-02-13T10:05:53Z</time>
      </trkpt>
      <trkpt lat="49.71917" lon="4.81227">
        <ele>222.384</ele>
        <time>2011-02-13T10:05:54Z</time>
      </trkpt>
      <trkpt lat="49.71917" lon="4.81233">
        <ele>221.506</ele>
        <time>2011-02-13T10:05:56Z</time>
      </trkpt>
      <trkpt lat="49.71918" lon="4.81236">
        <ele>220.722</ele>
        <time>2011-02-13T10:05:58Z</time>
      </trkpt>
      <trkpt lat="49.71918" lon="4.81237">
        <ele>220.394</ele>
        <time>2011-02-13T10:05:59Z</time>
      </trkpt>
      <trkpt lat="49.71919" lon="4.8124">
        <ele>219.741</ele>
        <time>2011-02-13T10:06:01Z</time>
      </trkpt>
      <trkpt lat="49.71922" lon="4.81245">
        <ele>219.437</ele>
        <time>2011-02-13T10:06:03Z</time>
      </trkpt>
      <trkpt lat="49.71926" lon="4.81251">
        <ele>219.533</ele>
        <time>2011-02-13T10:06:05Z</time>
      </trkpt>
      <trkpt lat="49.71929" lon="4.81257">
        <ele>219.962</ele>
        <time>2011-02-13T10:06:07Z</time>
      </trkpt>
      <trkpt lat="49.71931" lon="4.8126">
        <ele>220.363</ele>
        <time>2011-02-13T10:06:09Z</time>
      </trkpt>
      <trkpt lat="49.71931" lon="4.81261">
        <ele>220.525</ele>
        <time>2011-02-13T10:06:10Z</time>
      </trkpt>
      <trkpt lat="49.71933" lon="4.81264">
        <ele>220.477</ele>
        <time>2011-02-13T10:06:12Z</time>
      </trkpt>
      <trkpt lat="49.71934" lon="4.81269">
        <ele>220.33</ele>
        <time>2011-02-13T10:06:14Z</time>
      </trkpt>
      <trkpt lat="49.71935" lon="4.81272">
        <ele>220.108</ele>
        <time>2011-02-13T10:06:15Z</time>
      </trkpt>
      <trkpt lat="49.71937" lon="4.81278">
        <ele>219.232</ele>
        <time>2011-02-13T10:06:17Z</time>
      </trkpt>
      <trkpt lat="49.71938" lon="4.81279">
        <ele>218.86</ele>
        <time>2011-02-13T10:06:18Z</time>
      </trkpt>
      <trkpt lat="49.7194" lon="4.81282">
        <ele>218.152</ele>
        <time>2011-02-13T10:06:20Z</time>
      </trkpt>
      <trkpt lat="49.71942" lon="4.81281">
        <ele>217.664</ele>
        <time>2011-02-13T10:06:22Z</time>
      </trkpt>
      <trkpt lat="49.71942" lon="4.8128">
        <ele>217.424</ele>
        <time>2011-02-13T10:06:23Z</time>
      </trkpt>
      <trkpt lat="49.71942" lon="4.81279">
        <ele>217.118</ele>
        <time>2011-02-13T10:06:25Z</time>
      </trkpt>
      <trkpt lat="49.71942" lon="4.81279">
        <ele>217.214</ele>
        <time>2011-02-13T10:06:27Z</time>
      </trkpt>
      <trkpt lat="49.71942" lon="4.81279">
        <ele>217.048</ele>
        <time>2011-02-13T10:06:29Z</time>
      </trkpt>
      <trkpt lat="49.71942" lon="4.8128">
        <ele>216.593</ele>
        <time>2011-02-13T10:06:30Z</time>
      </trkpt>
      <trkpt lat="49.71942" lon="4.8128">
        <ele>216.196</ele>
        <time>2011-02-13T10:06:31Z</time>
      </trkpt>
      <trkpt lat="49.71942" lon="4.81281">
        <ele>215.625</ele>
        <time>2011-02-13T10:06:33Z</time>
      </trkpt>
      <trkpt lat="49.71943" lon="4.81281">
        <ele>215.105</ele>
        <time>2011-02-13T10:06:35Z</time>
      </trkpt>
      <trkpt lat="49.71943" lon="4.81286">
        <ele>214.657</ele>
        <time>2011-02-13T10:06:37Z</time>
      </trkpt>
      <trkpt lat="49.71944" lon="4.81289">
        <ele>214.442</ele>
        <time>2011-02-13T10:06:38Z</time>
      </trkpt>
      <trkpt lat="49.71946" lon="4.81298">
        <ele>214.427</ele>
        <time>2011-02-13T10:06:40Z</time>
      </trkpt>
      <trkpt lat="49.71947" lon="4.813">
        <ele>214.611</ele>
        <time>2011-02-13T10:06:41Z</time>
      </trkpt>
      <trkpt lat="49.71949" lon="4.81303">
        <ele>214.869</ele>
        <time>2011-02-13T10:06:42Z</time>
      </trkpt>
      <trkpt lat="49.71951" lon="4.81305">
        <ele>215.163</ele>
        <time>2011-02-13T10:06:43Z</time>
      </trkpt>
      <trkpt lat="49.71953" lon="4.81308">
        <ele>215.707</ele>
        <time>2011-02-13T10:06:45Z</time>
      </trkpt>
      <trkpt lat="49.71955" lon="4.81312">
        <ele>215.994</ele>
        <time>2011-02-13T10:06:47Z</time>
      </trkpt>
      <trkpt lat="49.71956" lon="4.81317">
        <ele>216.12</ele>
        <time>2011-02-13T10:06:49Z</time>
      </trkpt>
      <trkpt lat="49.71957" lon="4.81319">
        <ele>216.344</ele>
        <time>2011-02-13T10:06:50Z</time>
      </trkpt>
      <trkpt lat="49.71959" lon="4.81323">
        <ele>217.01</ele>
        <time>2011-02-13T10:06:52Z</time>
      </trkpt>
      <trkpt lat="49.7196" lon="4.81325">
        <ele>217.264</ele>
        <time>2011-02-13T10:06:53Z</time>
      </trkpt>
      <trkpt lat="49.71962" lon="4.81329">
        <ele>217.75</ele>
        <time>2011-02-13T10:06:55Z</time>
      </trkpt>
      <trkpt lat="49.71963" lon="4.81334">
        <ele>218.63</ele>
        <time>2011-02-13T10:06:57Z</time>
      </trkpt>
      <trkpt lat="49.71964" lon="4.81337">
        <ele>219.17</ele>
        <time>2011-02-13T10:06:58Z</time>
      </trkpt>
      <trkpt lat="49.71965" lon="4.81339">
        <ele>219.74</ele>
        <time>2011-02-13T10:06:59Z</time>
      </trkpt>
      <trkpt lat="49.71966" lon="4.81342">
        <ele>220.51</ele>
        <time>2011-02-13T10:07:01Z</time>
      </trkpt>
      <trkpt lat="49.71966" lon="4.81342">
        <ele>221.24</ele>
        <time>2011-02-13T10:07:03Z</time>
      </trkpt>
      <trkpt lat="49.71968" lon="4.81344">
        <ele>222</ele>
        <time>2011-02-13T10:07:05Z</time>
      </trkpt>
      <trkpt lat="49.7197" lon="4.81348">
        <ele>222.5</ele>
        <time>2011-02-13T10:07:07Z</time>
      </trkpt>
      <trkpt lat="49.71975" lon="4.81352">
        <ele>223</ele>
        <time>2011-02-13T10:07:09Z</time>
      </trkpt>
      <trkpt lat="49.7198" lon="4.81357">
        <ele>223.06</ele>
        <time>2011-02-13T10:07:11Z</time>
      </trkpt>
      <trkpt lat="49.71985" lon="4.81361">
        <ele>222.4</ele>
        <time>2011-02-13T10:07:13Z</time>
      </trkpt>
      <trkpt lat="49.71987" lon="4.81364">
        <ele>222.01</ele>
        <time>2011-02-13T10:07:14Z</time>
      </trkpt>
      <trkpt lat="49.71991" lon="4.8137">
        <ele>221.2</ele>
        <time>2011-02-13T10:07:16Z</time>
      </trkpt>
      <trkpt lat="49.71993" lon="4.81372">
        <ele>220.87</ele>
        <time>2011-02-13T10:07:17Z</time>
      </trkpt>
      <trkpt lat="49.71998" lon="4.81374">
        <ele>220.165</ele>
        <time>2011-02-13T10:07:19Z</time>
      </trkpt>
      <trkpt lat="49.72001" lon="4.81375">
        <ele>219.794</ele>
        <time>2011-02-13T10:07:20Z</time>
      </trkpt>
      <trkpt lat="49.72006" lon="4.81375">
        <ele>219.654</ele>
        <time>2011-02-13T10:07:22Z</time>
      </trkpt>
      <trkpt lat="49.72012" lon="4.81376">
        <ele>219.866</ele>
        <time>2011-02-13T10:07:24Z</time>
      </trkpt>
      <trkpt lat="49.72017" lon="4.8138">
        <ele>220.37</ele>
        <time>2011-02-13T10:07:26Z</time>
      </trkpt>
      <trkpt lat="49.72019" lon="4.81384">
        <ele>220.582</ele>
        <time>2011-02-13T10:07:27Z</time>
      </trkpt>
      <trkpt lat="49.72023" lon="4.81392">
        <ele>220.917</ele>
        <time>2011-02-13T10:07:29Z</time>
      </trkpt>
      <trkpt lat="49.72025" lon="4.81396">
        <ele>221.055</ele>
        <time>2011-02-13T10:07:30Z</time>
      </trkpt>
      <trkpt lat="49.72026" lon="4.81401">
        <ele>221.272</ele>
        <time>2011-02-13T10:07:31Z</time>
      </trkpt>
      <trkpt lat="49.72028" lon="4.81408">
        <ele>221.725</ele>
        <time>2011-02-13T10:07:33Z</time>
      </trkpt>
      <trkpt lat="49.7203" lon="4.81414">
        <ele>222.034</ele>
        <time>2011-02-13T10:07:35Z</time>
      </trkpt>
      <trkpt lat="49.72031" lon="4.8142">
        <ele>222.053</ele>
        <time>2011-02-13T10:07:37Z</time>
      </trkpt>
      <trkpt lat="49.72033" lon="4.81425">
        <ele>221.983</ele>
        <time>2011-02-13T10:07:39Z</time>
      </trkpt>
      <trkpt lat="49.72036" lon="4.81429">
        <ele>221.85</ele>
        <time>2011-02-13T10:07:41Z</time>
      </trkpt>
      <trkpt lat="49.72036" lon="4.8143">
        <ele>221.73</ele>
        <time>2011-02-13T10:07:42Z</time>
      </trkpt>
      <trkpt lat="49.72037" lon="4.81432">
        <ele>221.61</ele>
        <time>2011-02-13T10:07:43Z</time>
      </trkpt>
      <trkpt lat="49.72039" lon="4.81435">
        <ele>221.33</ele>
        <time>2011-02-13T10:07:45Z</time>
      </trkpt>
      <trkpt lat="49.72043" lon="4.81442">
        <ele>221.09</ele>
        <time>2011-02-13T10:07:47Z</time>
      </trkpt>
      <trkpt lat="49.72048" lon="4.81448">
        <ele>220.77</ele>
        <time>2011-02-13T10:07:49Z</time>
      </trkpt>
      <trkpt lat="49.72055" lon="4.81452">
        <ele>220.19</ele>
        <time>2011-02-13T10:07:51Z</time>
      </trkpt>
      <trkpt lat="49.72062" lon="4.81455">
        <ele>219.61</ele>
        <time>2011-02-13T10:07:53Z</time>
      </trkpt>
      <trkpt lat="49.72065" lon="4.81457">
        <ele>219.21</ele>
        <time>2011-02-13T10:07:54Z</time>
      </trkpt>
      <trkpt lat="49.72069" lon="4.81461">
        <ele>218.38</ele>
        <time>2011-02-13T10:07:56Z</time>
      </trkpt>
      <trkpt lat="49.72071" lon="4.81466">
        <ele>217.46</ele>
        <time>2011-02-13T10:07:58Z</time>
      </trkpt>
      <trkpt lat="49.72072" lon="4.81469">
        <ele>216.99</ele>
        <time>2011-02-13T10:07:59Z</time>
      </trkpt>
      <trkpt lat="49.72074" lon="4.81476">
        <ele>215.8</ele>
        <time>2011-02-13T10:08:01Z</time>
      </trkpt>
      <trkpt lat="49.72075" lon="4.8148">
        <ele>215.17</ele>
        <time>2011-02-13T10:08:02Z</time>
      </trkpt>
      <trkpt lat="49.72076" lon="4.81483">
        <ele>214.61</ele>
        <time>2011-02-13T10:08:03Z</time>
      </trkpt>
      <trkpt lat="49.72078" lon="4.81488">
        <ele>213.87</ele>
        <time>2011-02-13T10:08:05Z</time>
      </trkpt>
      <trkpt lat="49.72079" lon="4.8149">
        <ele>213.04</ele>
        <time>2011-02-13T10:08:07Z</time>
      </trkpt>
      <trkpt lat="49.7208" lon="4.8149">
        <ele>212.65</ele>
        <time>2011-02-13T10:08:08Z</time>
      </trkpt>
      <trkpt lat="49.7208" lon="4.8149">
        <ele>212.26</ele>
        <time>2011-02-13T10:08:10Z</time>
      </trkpt>
      <trkpt lat="49.72079" lon="4.8149">
        <ele>212.27</ele>
        <time>2011-02-13T10:08:11Z</time>
      </trkpt>
      <trkpt lat="49.72079" lon="4.8149">
        <ele>212.3</ele>
        <time>2011-02-13T10:08:12Z</time>
      </trkpt>
      <trkpt lat="49.72079" lon="4.8149">
        <ele>212.14</ele>
        <time>2011-02-13T10:08:14Z</time>
      </trkpt>
      <trkpt lat="49.72079" lon="4.81491">
        <ele>212.02</ele>
        <time>2011-02-13T10:08:15Z</time>
      </trkpt>
      <trkpt lat="49.72079" lon="4.8149">
        <ele>211.97</ele>
        <time>2011-02-13T10:08:17Z</time>
      </trkpt>
      <trkpt lat="49.72079" lon="4.8149">
        <ele>211.98</ele>
        <time>2011-02-13T10:08:19Z</time>
      </trkpt>
      <trkpt lat="49.72079" lon="4.8149">
        <ele>211.99</ele>
        <time>2011-02-13T10:08:20Z</time>
      </trkpt>
      <trkpt lat="49.72079" lon="4.8149">
        <ele>212.03</ele>
        <time>2011-02-13T10:08:22Z</time>
      </trkpt>
      <trkpt lat="49.72079" lon="4.81489">
        <ele>212.15</ele>
        <time>2011-02-13T10:08:24Z</time>
      </trkpt>
      <trkpt lat="49.72081" lon="4.81489">
        <ele>212.31</ele>
        <time>2011-02-13T10:08:26Z</time>
      </trkpt>
      <trkpt lat="49.72082" lon="4.81489">
        <ele>212.39</ele>
        <time>2011-02-13T10:08:27Z</time>
      </trkpt>
      <trkpt lat="49.72085" lon="4.81489">
        <ele>212.41</ele>
        <time>2011-02-13T10:08:29Z</time>
      </trkpt>
      <trkpt lat="49.72087" lon="4.81491">
        <ele>212.35</ele>
        <time>2011-02-13T10:08:30Z</time>
      </trkpt>
      <trkpt lat="49.72091" lon="4.81493">
        <ele>212.17</ele>
        <time>2011-02-13T10:08:32Z</time>
      </trkpt>
      <trkpt lat="49.72093" lon="4.81496">
        <ele>211.8</ele>
        <time>2011-02-13T10:08:34Z</time>
      </trkpt>
      <trkpt lat="49.72095" lon="4.81497">
        <ele>211.17</ele>
        <time>2011-02-13T10:08:36Z</time>
      </trkpt>
      <trkpt lat="49.72095" lon="4.81497">
        <ele>210.74</ele>
        <time>2011-02-13T10:08:37Z</time>
      </trkpt>
      <trkpt lat="49.72095" lon="4.81499">
        <ele>209.95</ele>
        <time>2011-02-13T10:08:39Z</time>
      </trkpt>
      <trkpt lat="49.72095" lon="4.81499">
        <ele>209.59</ele>
        <time>2011-02-13T10:08:40Z</time>
      </trkpt>
      <trkpt lat="49.72095" lon="4.81499">
        <ele>209.23</ele>
        <time>2011-02-13T10:08:41Z</time>
      </trkpt>
      <trkpt lat="49.72096" lon="4.81499">
        <ele>208.87</ele>
        <time>2011-02-13T10:08:42Z</time>
      </trkpt>
      <trkpt lat="49.72098" lon="4.81499">
        <ele>208.3</ele>
        <time>2011-02-13T10:08:44Z</time>
      </trkpt>
      <trkpt lat="49.721" lon="4.81499">
        <ele>208.01</ele>
        <time>2011-02-13T10:08:45Z</time>
      </trkpt>
      <trkpt lat="49.72106" lon="4.81502">
        <ele>207.43</ele>
        <time>2011-02-13T10:08:47Z</time>
      </trkpt>
      <trkpt lat="49.72111" lon="4.81505">
        <ele>207.05</ele>
        <time>2011-02-13T10:08:49Z</time>
      </trkpt>
      <trkpt lat="49.72113" lon="4.81507">
        <ele>206.94</ele>
        <time>2011-02-13T10:08:50Z</time>
      </trkpt>
      <trkpt lat="49.72117" lon="4.81509">
        <ele>206.72</ele>
        <time>2011-02-13T10:08:52Z</time>
      </trkpt>
      <trkpt lat="49.72118" lon="4.8151">
        <ele>206.65</ele>
        <time>2011-02-13T10:08:53Z</time>
      </trkpt>
      <trkpt lat="49.7212" lon="4.81512">
        <ele>206.66</ele>
        <time>2011-02-13T10:08:55Z</time>
      </trkpt>
      <trkpt lat="49.7212" lon="4.81512">
        <ele>206.83</ele>
        <time>2011-02-13T10:08:56Z</time>
      </trkpt>
      <trkpt lat="49.72121" lon="4.81512">
        <ele>207.01</ele>
        <time>2011-02-13T10:08:57Z</time>
      </trkpt>
      <trkpt lat="49.72121" lon="4.81512">
        <ele>207.21</ele>
        <time>2011-02-13T10:08:58Z</time>
      </trkpt>
      <trkpt lat="49.72121" lon="4.81512">
        <ele>207.53</ele>
        <time>2011-02-13T10:09:00Z</time>
      </trkpt>
      <trkpt lat="49.72121" lon="4.81513">
        <ele>207.83</ele>
        <time>2011-02-13T10:09:02Z</time>
      </trkpt>
      <trkpt lat="49.7212" lon="4.81513">
        <ele>207.93</ele>
        <time>2011-02-13T10:09:03Z</time>
      </trkpt>
      <trkpt lat="49.7212" lon="4.81514">
        <ele>207.99</ele>
        <time>2011-02-13T10:09:05Z</time>
      </trkpt>
      <trkpt lat="49.72122" lon="4.81515">
        <ele>207.93</ele>
        <time>2011-02-13T10:09:07Z</time>
      </trkpt>
      <trkpt lat="49.72123" lon="4.81517">
        <ele>207.78</ele>
        <time>2011-02-13T10:09:09Z</time>
      </trkpt>
      <trkpt lat="49.72124" lon="4.81518">
        <ele>207.63</ele>
        <time>2011-02-13T10:09:10Z</time>
      </trkpt>
      <trkpt lat="49.72126" lon="4.81519">
        <ele>207.35</ele>
        <time>2011-02-13T10:09:12Z</time>
      </trkpt>
      <trkpt lat="49.72128" lon="4.81521">
        <ele>207.37</ele>
        <time>2011-02-13T10:09:14Z</time>
      </trkpt>
      <trkpt lat="49.72129" lon="4.81521">
        <ele>207.5</ele>
        <time>2011-02-13T10:09:15Z</time>
      </trkpt>
      <trkpt lat="49.72129" lon="4.81521">
        <ele>207.61</ele>
        <time>2011-02-13T10:09:16Z</time>
      </trkpt>
      <trkpt lat="49.7213" lon="4.81523">
        <ele>207.89</ele>
        <time>2011-02-13T10:09:18Z</time>
      </trkpt>
      <trkpt lat="49.72131" lon="4.81524">
        <ele>208.24</ele>
        <time>2011-02-13T10:09:20Z</time>
      </trkpt>
      <trkpt lat="49.72133" lon="4.81526">
        <ele>208.7</ele>
        <time>2011-02-13T10:09:22Z</time>
      </trkpt>
      <trkpt lat="49.72137" lon="4.81529">
        <ele>209.17</ele>
        <time>2011-02-13T10:09:24Z</time>
      </trkpt>
      <trkpt lat="49.72139" lon="4.8153">
        <ele>209.52</ele>
        <time>2011-02-13T10:09:25Z</time>
      </trkpt>
      <trkpt lat="49.72144" lon="4.81534">
        <ele>210.5</ele>
        <time>2011-02-13T10:09:27Z</time>
      </trkpt>
      <trkpt lat="49.7215" lon="4.81537">
        <ele>211.68</ele>
        <time>2011-02-13T10:09:29Z</time>
      </trkpt>
      <trkpt lat="49.72153" lon="4.81538">
        <ele>212.16</ele>
        <time>2011-02-13T10:09:30Z</time>
      </trkpt>
      <trkpt lat="49.72158" lon="4.81541">
        <ele>212.98</ele>
        <time>2011-02-13T10:09:32Z</time>
      </trkpt>
      <trkpt lat="49.72161" lon="4.81543">
        <ele>213.2</ele>
        <time>2011-02-13T10:09:33Z</time>
      </trkpt>
      <trkpt lat="49.72166" lon="4.81546">
        <ele>212.92</ele>
        <time>2011-02-13T10:09:35Z</time>
      </trkpt>
      <trkpt lat="49.72169" lon="4.81547">
        <ele>212.6</ele>
        <time>2011-02-13T10:09:36Z</time>
      </trkpt>
      <trkpt lat="49.72173" lon="4.81549">
        <ele>211.67</ele>
        <time>2011-02-13T10:09:38Z</time>
      </trkpt>
      <trkpt lat="49.72175" lon="4.8155">
        <ele>211.17</ele>
        <time>2011-02-13T10:09:39Z</time>
      </trkpt>
      <trkpt lat="49.72179" lon="4.81552">
        <ele>210.39</ele>
        <time>2011-02-13T10:09:41Z</time>
      </trkpt>
      <trkpt lat="49.72182" lon="4.81555">
        <ele>209.84</ele>
        <time>2011-02-13T10:09:43Z</time>
      </trkpt>
      <trkpt lat="49.72187" lon="4.81557">
        <ele>209.86</ele>
        <time>2011-02-13T10:09:45Z</time>
      </trkpt>
      <trkpt lat="49.7219" lon="4.81559">
        <ele>209.96</ele>
        <time>2011-02-13T10:09:46Z</time>
      </trkpt>
      <trkpt lat="49.72195" lon="4.81562">
        <ele>210.22</ele>
        <time>2011-02-13T10:09:48Z</time>
      </trkpt>
      <trkpt lat="49.722" lon="4.81567">
        <ele>210.34</ele>
        <time>2011-02-13T10:09:50Z</time>
      </trkpt>
      <trkpt lat="49.72205" lon="4.81572">
        <ele>210.49</ele>
        <time>2011-02-13T10:09:52Z</time>
      </trkpt>
      <trkpt lat="49.72208" lon="4.81575">
        <ele>210.437</ele>
        <time>2011-02-13T10:09:53Z</time>
      </trkpt>
      <trkpt lat="49.72213" lon="4.8158">
        <ele>210.101</ele>
        <time>2011-02-13T10:09:55Z</time>
      </trkpt>
      <trkpt lat="49.72217" lon="4.81586">
        <ele>209.632</ele>
        <time>2011-02-13T10:09:57Z</time>
      </trkpt>
      <trkpt lat="49.72219" lon="4.81588">
        <ele>209.256</ele>
        <time>2011-02-13T10:09:58Z</time>
      </trkpt>
      <trkpt lat="49.72224" lon="4.81592">
        <ele>208.41</ele>
        <time>2011-02-13T10:10:00Z</time>
      </trkpt>
      <trkpt lat="49.72229" lon="4.81597">
        <ele>207.453</ele>
        <time>2011-02-13T10:10:02Z</time>
      </trkpt>
      <trkpt lat="49.72234" lon="4.81601">
        <ele>206.8</ele>
        <time>2011-02-13T10:10:04Z</time>
      </trkpt>
      <trkpt lat="49.72239" lon="4.81605">
        <ele>206.22</ele>
        <time>2011-02-13T10:10:06Z</time>
      </trkpt>
      <trkpt lat="49.72241" lon="4.81607">
        <ele>205.96</ele>
        <time>2011-02-13T10:10:07Z</time>
      </trkpt>
      <trkpt lat="49.72243" lon="4.81608">
        <ele>205.83</ele>
        <time>2011-02-13T10:10:08Z</time>
      </trkpt>
      <trkpt lat="49.72245" lon="4.8161">
        <ele>205.78</ele>
        <time>2011-02-13T10:10:10Z</time>
      </trkpt>
      <trkpt lat="49.72246" lon="4.81611">
        <ele>205.75</ele>
        <time>2011-02-13T10:10:11Z</time>
      </trkpt>
      <trkpt lat="49.72248" lon="4.81613">
        <ele>205.75</ele>
        <time>2011-02-13T10:10:13Z</time>
      </trkpt>
      <trkpt lat="49.7225" lon="4.81617">
        <ele>205.798</ele>
        <time>2011-02-13T10:10:15Z</time>
      </trkpt>
      <trkpt lat="49.72253" lon="4.81621">
        <ele>205.557</ele>
        <time>2011-02-13T10:10:17Z</time>
      </trkpt>
      <trkpt lat="49.72255" lon="4.81623">
        <ele>205.31</ele>
        <time>2011-02-13T10:10:18Z</time>
      </trkpt>
      <trkpt lat="49.72261" lon="4.81626">
        <ele>204.42</ele>
        <time>2011-02-13T10:10:20Z</time>
      </trkpt>
      <trkpt lat="49.72264" lon="4.81627">
        <ele>203.82</ele>
        <time>2011-02-13T10:10:21Z</time>
      </trkpt>
      <trkpt lat="49.72267" lon="4.81628">
        <ele>203.22</ele>
        <time>2011-02-13T10:10:22Z</time>
      </trkpt>
      <trkpt lat="49.72274" lon="4.81632">
        <ele>202.07</ele>
        <time>2011-02-13T10:10:24Z</time>
      </trkpt>
      <trkpt lat="49.72277" lon="4.81635">
        <ele>201.56</ele>
        <time>2011-02-13T10:10:25Z</time>
      </trkpt>
      <trkpt lat="49.72281" lon="4.81639">
        <ele>200.63</ele>
        <time>2011-02-13T10:10:27Z</time>
      </trkpt>
      <trkpt lat="49.72283" lon="4.8164">
        <ele>200.274</ele>
        <time>2011-02-13T10:10:28Z</time>
      </trkpt>
      <trkpt lat="49.72289" lon="4.81642">
        <ele>199.859</ele>
        <time>2011-02-13T10:10:30Z</time>
      </trkpt>
      <trkpt lat="49.72295" lon="4.81644">
        <ele>199.642</ele>
        <time>2011-02-13T10:10:32Z</time>
      </trkpt>
      <trkpt lat="49.72301" lon="4.81646">
        <ele>199.031</ele>
        <time>2011-02-13T10:10:34Z</time>
      </trkpt>
      <trkpt lat="49.72304" lon="4.81648">
        <ele>198.675</ele>
        <time>2011-02-13T10:10:35Z</time>
      </trkpt>
      <trkpt lat="49.72309" lon="4.81652">
        <ele>198.064</ele>
        <time>2011-02-13T10:10:37Z</time>
      </trkpt>
      <trkpt lat="49.72312" lon="4.81654">
        <ele>197.719</ele>
        <time>2011-02-13T10:10:38Z</time>
      </trkpt>
      <trkpt lat="49.72317" lon="4.81659">
        <ele>197.136</ele>
        <time>2011-02-13T10:10:40Z</time>
      </trkpt>
      <trkpt lat="49.72322" lon="4.81664">
        <ele>196.69</ele>
        <time>2011-02-13T10:10:42Z</time>
      </trkpt>
      <trkpt lat="49.72323" lon="4.81666">
        <ele>196.55</ele>
        <time>2011-02-13T10:10:43Z</time>
      </trkpt>
      <trkpt lat="49.72326" lon="4.81671">
        <ele>196.29</ele>
        <time>2011-02-13T10:10:45Z</time>
      </trkpt>
      <trkpt lat="49.72327" lon="4.81673">
        <ele>196.13</ele>
        <time>2011-02-13T10:10:46Z</time>
      </trkpt>
      <trkpt lat="49.7233" lon="4.81676">
        <ele>195.8</ele>
        <time>2011-02-13T10:10:48Z</time>
      </trkpt>
      <trkpt lat="49.72333" lon="4.81678">
        <ele>195.484</ele>
        <time>2011-02-13T10:10:50Z</time>
      </trkpt>
      <trkpt lat="49.72335" lon="4.81679">
        <ele>195.086</ele>
        <time>2011-02-13T10:10:52Z</time>
      </trkpt>
      <trkpt lat="49.72338" lon="4.81681">
        <ele>194.609</ele>
        <time>2011-02-13T10:10:54Z</time>
      </trkpt>
      <trkpt lat="49.72341" lon="4.81684">
        <ele>194.166</ele>
        <time>2011-02-13T10:10:56Z</time>
      </trkpt>
      <trkpt lat="49.72342" lon="4.81685">
        <ele>194.026</ele>
        <time>2011-02-13T10:10:57Z</time>
      </trkpt>
      <trkpt lat="49.72345" lon="4.81689">
        <ele>193.93</ele>
        <time>2011-02-13T10:10:59Z</time>
      </trkpt>
      <trkpt lat="49.72349" lon="4.81692">
        <ele>193.78</ele>
        <time>2011-02-13T10:11:01Z</time>
      </trkpt>
      <trkpt lat="49.72351" lon="4.81694">
        <ele>193.65</ele>
        <time>2011-02-13T10:11:02Z</time>
      </trkpt>
      <trkpt lat="49.72354" lon="4.81696">
        <ele>193.47</ele>
        <time>2011-02-13T10:11:03Z</time>
      </trkpt>
      <trkpt lat="49.72364" lon="4.81702">
        <ele>192.606</ele>
        <time>2011-02-13T10:11:05Z</time>
      </trkpt>
      <trkpt lat="49.7237" lon="4.81706">
        <ele>191.984</ele>
        <time>2011-02-13T10:11:06Z</time>
      </trkpt>
      <trkpt lat="49.72375" lon="4.81709">
        <ele>191.382</ele>
        <time>2011-02-13T10:11:07Z</time>
      </trkpt>
      <trkpt lat="49.72384" lon="4.81714">
        <ele>190.289</ele>
        <time>2011-02-13T10:11:09Z</time>
      </trkpt>
      <trkpt lat="49.72387" lon="4.81716">
        <ele>189.853</ele>
        <time>2011-02-13T10:11:10Z</time>
      </trkpt>
      <trkpt lat="49.72393" lon="4.81718">
        <ele>189.332</ele>
        <time>2011-02-13T10:11:12Z</time>
      </trkpt>
      <trkpt lat="49.72396" lon="4.81719">
        <ele>189.151</ele>
        <time>2011-02-13T10:11:13Z</time>
      </trkpt>
      <trkpt lat="49.72403" lon="4.81723">
        <ele>188.95</ele>
        <time>2011-02-13T10:11:15Z</time>
      </trkpt>
      <trkpt lat="49.72409" lon="4.81728">
        <ele>189.03</ele>
        <time>2011-02-13T10:11:17Z</time>
      </trkpt>
      <trkpt lat="49.72411" lon="4.81731">
        <ele>189.07</ele>
        <time>2011-02-13T10:11:18Z</time>
      </trkpt>
      <trkpt lat="49.72416" lon="4.81736">
        <ele>188.99</ele>
        <time>2011-02-13T10:11:20Z</time>
      </trkpt>
      <trkpt lat="49.72421" lon="4.81741">
        <ele>188.71</ele>
        <time>2011-02-13T10:11:22Z</time>
      </trkpt>
      <trkpt lat="49.72427" lon="4.81745">
        <ele>188.32</ele>
        <time>2011-02-13T10:11:24Z</time>
      </trkpt>
      <trkpt lat="49.72429" lon="4.81746">
        <ele>188.14</ele>
        <time>2011-02-13T10:11:25Z</time>
      </trkpt>
      <trkpt lat="49.72432" lon="4.81749">
        <ele>187.86</ele>
        <time>2011-02-13T10:11:26Z</time>
      </trkpt>
      <trkpt lat="49.72439" lon="4.81754">
        <ele>187.11</ele>
        <time>2011-02-13T10:11:28Z</time>
      </trkpt>
      <trkpt lat="49.72445" lon="4.81761">
        <ele>186.47</ele>
        <time>2011-02-13T10:11:30Z</time>
      </trkpt>
      <trkpt lat="49.72448" lon="4.81763">
        <ele>186.15</ele>
        <time>2011-02-13T10:11:31Z</time>
      </trkpt>
      <trkpt lat="49.72453" lon="4.81766">
        <ele>185.61</ele>
        <time>2011-02-13T10:11:33Z</time>
      </trkpt>
      <trkpt lat="49.72455" lon="4.81768">
        <ele>185.35</ele>
        <time>2011-02-13T10:11:34Z</time>
      </trkpt>
      <trkpt lat="49.7246" lon="4.81772">
        <ele>184.9</ele>
        <time>2011-02-13T10:11:36Z</time>
      </trkpt>
      <trkpt lat="49.72464" lon="4.81775">
        <ele>184.75</ele>
        <time>2011-02-13T10:11:38Z</time>
      </trkpt>
      <trkpt lat="49.72469" lon="4.81778">
        <ele>184.67</ele>
        <time>2011-02-13T10:11:40Z</time>
      </trkpt>
      <trkpt lat="49.72474" lon="4.8178">
        <ele>184.71</ele>
        <time>2011-02-13T10:11:42Z</time>
      </trkpt>
      <trkpt lat="49.72476" lon="4.81781">
        <ele>184.75</ele>
        <time>2011-02-13T10:11:43Z</time>
      </trkpt>
      <trkpt lat="49.72481" lon="4.81783">
        <ele>184.78</ele>
        <time>2011-02-13T10:11:45Z</time>
      </trkpt>
      <trkpt lat="49.72484" lon="4.81784">
        <ele>184.76</ele>
        <time>2011-02-13T10:11:46Z</time>
      </trkpt>
      <trkpt lat="49.7249" lon="4.81786">
        <ele>184.57</ele>
        <time>2011-02-13T10:11:48Z</time>
      </trkpt>
      <trkpt lat="49.72498" lon="4.81788">
        <ele>184.34</ele>
        <time>2011-02-13T10:11:50Z</time>
      </trkpt>
      <trkpt lat="49.72507" lon="4.81791">
        <ele>184.12</ele>
        <time>2011-02-13T10:11:52Z</time>
      </trkpt>
      <trkpt lat="49.72516" lon="4.81792">
        <ele>184.04</ele>
        <time>2011-02-13T10:11:54Z</time>
      </trkpt>
      <trkpt lat="49.72525" lon="4.81794">
        <ele>184.04</ele>
        <time>2011-02-13T10:11:56Z</time>
      </trkpt>
      <trkpt lat="49.72529" lon="4.81795">
        <ele>184.11</ele>
        <time>2011-02-13T10:11:57Z</time>
      </trkpt>
      <trkpt lat="49.72536" lon="4.81798">
        <ele>184.13</ele>
        <time>2011-02-13T10:11:59Z</time>
      </trkpt>
      <trkpt lat="49.7254" lon="4.818">
        <ele>184.03</ele>
        <time>2011-02-13T10:12:00Z</time>
      </trkpt>
      <trkpt lat="49.72547" lon="4.81803">
        <ele>183.79</ele>
        <time>2011-02-13T10:12:02Z</time>
      </trkpt>
      <trkpt lat="49.72556" lon="4.81805">
        <ele>183.47</ele>
        <time>2011-02-13T10:12:04Z</time>
      </trkpt>
      <trkpt lat="49.72564" lon="4.81806">
        <ele>183.07</ele>
        <time>2011-02-13T10:12:06Z</time>
      </trkpt>
      <trkpt lat="49.72568" lon="4.81807">
        <ele>182.87</ele>
        <time>2011-02-13T10:12:07Z</time>
      </trkpt>
      <trkpt lat="49.72576" lon="4.81808">
        <ele>182.59</ele>
        <time>2011-02-13T10:12:09Z</time>
      </trkpt>
      <trkpt lat="49.7258" lon="4.81808">
        <ele>182.5</ele>
        <time>2011-02-13T10:12:10Z</time>
      </trkpt>
      <trkpt lat="49.7259" lon="4.81809">
        <ele>182.3</ele>
        <time>2011-02-13T10:12:12Z</time>
      </trkpt>
      <trkpt lat="49.72599" lon="4.8181">
        <ele>182.11</ele>
        <time>2011-02-13T10:12:14Z</time>
      </trkpt>
      <trkpt lat="49.72607" lon="4.8181">
        <ele>182.01</ele>
        <time>2011-02-13T10:12:16Z</time>
      </trkpt>
      <trkpt lat="49.72616" lon="4.81811">
        <ele>181.86</ele>
        <time>2011-02-13T10:12:18Z</time>
      </trkpt>
      <trkpt lat="49.7262" lon="4.81811">
        <ele>181.76</ele>
        <time>2011-02-13T10:12:19Z</time>
      </trkpt>
      <trkpt lat="49.72624" lon="4.81812">
        <ele>181.67</ele>
        <time>2011-02-13T10:12:20Z</time>
      </trkpt>
      <trkpt lat="49.72633" lon="4.81814">
        <ele>181.51</ele>
        <time>2011-02-13T10:12:22Z</time>
      </trkpt>
      <trkpt lat="49.72637" lon="4.81815">
        <ele>181.43</ele>
        <time>2011-02-13T10:12:23Z</time>
      </trkpt>
      <trkpt lat="49.72641" lon="4.81816">
        <ele>181.34</ele>
        <time>2011-02-13T10:12:24Z</time>
      </trkpt>
      <trkpt lat="49.72649" lon="4.81818">
        <ele>181.05</ele>
        <time>2011-02-13T10:12:26Z</time>
      </trkpt>
      <trkpt lat="49.72653" lon="4.81819">
        <ele>180.8</ele>
        <time>2011-02-13T10:12:27Z</time>
      </trkpt>
      <trkpt lat="49.72661" lon="4.8182">
        <ele>180.35</ele>
        <time>2011-02-13T10:12:29Z</time>
      </trkpt>
      <trkpt lat="49.72664" lon="4.8182">
        <ele>180.12</ele>
        <time>2011-02-13T10:12:30Z</time>
      </trkpt>
      <trkpt lat="49.72672" lon="4.8182">
        <ele>179.26</ele>
        <time>2011-02-13T10:12:32Z</time>
      </trkpt>
      <trkpt lat="49.72679" lon="4.81821">
        <ele>178.19</ele>
        <time>2011-02-13T10:12:34Z</time>
      </trkpt>
      <trkpt lat="49.72686" lon="4.81822">
        <ele>177.18</ele>
        <time>2011-02-13T10:12:36Z</time>
      </trkpt>
      <trkpt lat="49.72694" lon="4.81823">
        <ele>176.38</ele>
        <time>2011-02-13T10:12:38Z</time>
      </trkpt>
      <trkpt lat="49.72701" lon="4.81824">
        <ele>175.65</ele>
        <time>2011-02-13T10:12:40Z</time>
      </trkpt>
      <trkpt lat="49.72709" lon="4.81824">
        <ele>175.39</ele>
        <time>2011-02-13T10:12:42Z</time>
      </trkpt>
      <trkpt lat="49.72717" lon="4.81824">
        <ele>174.93</ele>
        <time>2011-02-13T10:12:44Z</time>
      </trkpt>
      <trkpt lat="49.72721" lon="4.81824">
        <ele>174.63</ele>
        <time>2011-02-13T10:12:45Z</time>
      </trkpt>
      <trkpt lat="49.72728" lon="4.81824">
        <ele>173.84</ele>
        <time>2011-02-13T10:12:47Z</time>
      </trkpt>
      <trkpt lat="49.72731" lon="4.81826">
        <ele>173.46</ele>
        <time>2011-02-13T10:12:48Z</time>
      </trkpt>
      <trkpt lat="49.72733" lon="4.81828">
        <ele>173.09</ele>
        <time>2011-02-13T10:12:49Z</time>
      </trkpt>
      <trkpt lat="49.72735" lon="4.81831">
        <ele>172.72</ele>
        <time>2011-02-13T10:12:50Z</time>
      </trkpt>
      <trkpt lat="49.72736" lon="4.81834">
        <ele>172.33</ele>
        <time>2011-02-13T10:12:51Z</time>
      </trkpt>
      <trkpt lat="49.72737" lon="4.81842">
        <ele>171.52</ele>
        <time>2011-02-13T10:12:53Z</time>
      </trkpt>
      <trkpt lat="49.72736" lon="4.81853">
        <ele>171.34</ele>
        <time>2011-02-13T10:12:55Z</time>
      </trkpt>
      <trkpt lat="49.72735" lon="4.81859">
        <ele>171.41</ele>
        <time>2011-02-13T10:12:56Z</time>
      </trkpt>
      <trkpt lat="49.72735" lon="4.81865">
        <ele>171.52</ele>
        <time>2011-02-13T10:12:57Z</time>
      </trkpt>
      <trkpt lat="49.72733" lon="4.81877">
        <ele>171.63</ele>
        <time>2011-02-13T10:12:59Z</time>
      </trkpt>
      <trkpt lat="49.72732" lon="4.81884">
        <ele>171.6</ele>
        <time>2011-02-13T10:13:00Z</time>
      </trkpt>
      <trkpt lat="49.72731" lon="4.81895">
        <ele>171.45</ele>
        <time>2011-02-13T10:13:02Z</time>
      </trkpt>
      <trkpt lat="49.7273" lon="4.81907">
        <ele>171</ele>
        <time>2011-02-13T10:13:04Z</time>
      </trkpt>
      <trkpt lat="49.72729" lon="4.81919">
        <ele>170.15</ele>
        <time>2011-02-13T10:13:06Z</time>
      </trkpt>
      <trkpt lat="49.72728" lon="4.81932">
        <ele>169.25</ele>
        <time>2011-02-13T10:13:08Z</time>
      </trkpt>
      <trkpt lat="49.72727" lon="4.81945">
        <ele>168.45</ele>
        <time>2011-02-13T10:13:10Z</time>
      </trkpt>
      <trkpt lat="49.72726" lon="4.81951">
        <ele>168.05</ele>
        <time>2011-02-13T10:13:11Z</time>
      </trkpt>
      <trkpt lat="49.72724" lon="4.81963">
        <ele>167.39</ele>
        <time>2011-02-13T10:13:13Z</time>
      </trkpt>
      <trkpt lat="49.72722" lon="4.81974">
        <ele>166.98</ele>
        <time>2011-02-13T10:13:15Z</time>
      </trkpt>
      <trkpt lat="49.72719" lon="4.81985">
        <ele>166.56</ele>
        <time>2011-02-13T10:13:17Z</time>
      </trkpt>
      <trkpt lat="49.72719" lon="4.8199">
        <ele>166.35</ele>
        <time>2011-02-13T10:13:18Z</time>
      </trkpt>
      <trkpt lat="49.72717" lon="4.82001">
        <ele>165.99</ele>
        <time>2011-02-13T10:13:20Z</time>
      </trkpt>
      <trkpt lat="49.72715" lon="4.82012">
        <ele>165.77</ele>
        <time>2011-02-13T10:13:22Z</time>
      </trkpt>
      <trkpt lat="49.72715" lon="4.82017">
        <ele>165.67</ele>
        <time>2011-02-13T10:13:23Z</time>
      </trkpt>
      <trkpt lat="49.72714" lon="4.82027">
        <ele>165.7</ele>
        <time>2011-02-13T10:13:25Z</time>
      </trkpt>
      <trkpt lat="49.72715" lon="4.82032">
        <ele>165.94</ele>
        <time>2011-02-13T10:13:26Z</time>
      </trkpt>
      <trkpt lat="49.72715" lon="4.82036">
        <ele>166.22</ele>
        <time>2011-02-13T10:13:27Z</time>
      </trkpt>
      <trkpt lat="49.72715" lon="4.82043">
        <ele>166.83</ele>
        <time>2011-02-13T10:13:29Z</time>
      </trkpt>
      <trkpt lat="49.72715" lon="4.82046">
        <ele>167.14</ele>
        <time>2011-02-13T10:13:30Z</time>
      </trkpt>
      <trkpt lat="49.72714" lon="4.82052">
        <ele>167.67</ele>
        <time>2011-02-13T10:13:32Z</time>
      </trkpt>
      <trkpt lat="49.72714" lon="4.82055">
        <ele>167.94</ele>
        <time>2011-02-13T10:13:33Z</time>
      </trkpt>
      <trkpt lat="49.72713" lon="4.82062">
        <ele>168.12</ele>
        <time>2011-02-13T10:13:35Z</time>
      </trkpt>
      <trkpt lat="49.72712" lon="4.8207">
        <ele>167.79</ele>
        <time>2011-02-13T10:13:37Z</time>
      </trkpt>
      <trkpt lat="49.72711" lon="4.82076">
        <ele>167.35</ele>
        <time>2011-02-13T10:13:39Z</time>
      </trkpt>
      <trkpt lat="49.72709" lon="4.82082">
        <ele>167.11</ele>
        <time>2011-02-13T10:13:41Z</time>
      </trkpt>
      <trkpt lat="49.72707" lon="4.82088">
        <ele>167.29</ele>
        <time>2011-02-13T10:13:43Z</time>
      </trkpt>
      <trkpt lat="49.72706" lon="4.82096">
        <ele>167.57</ele>
        <time>2011-02-13T10:13:45Z</time>
      </trkpt>
      <trkpt lat="49.72705" lon="4.82104">
        <ele>167.82</ele>
        <time>2011-02-13T10:13:47Z</time>
      </trkpt>
      <trkpt lat="49.72705" lon="4.82107">
        <ele>167.94</ele>
        <time>2011-02-13T10:13:48Z</time>
      </trkpt>
      <trkpt lat="49.72705" lon="4.82111">
        <ele>168.01</ele>
        <time>2011-02-13T10:13:49Z</time>
      </trkpt>
      <trkpt lat="49.72704" lon="4.82118">
        <ele>167.91</ele>
        <time>2011-02-13T10:13:51Z</time>
      </trkpt>
      <trkpt lat="49.72704" lon="4.82124">
        <ele>167.38</ele>
        <time>2011-02-13T10:13:53Z</time>
      </trkpt>
      <trkpt lat="49.72703" lon="4.82131">
        <ele>166.83</ele>
        <time>2011-02-13T10:13:55Z</time>
      </trkpt>
      <trkpt lat="49.72703" lon="4.82139">
        <ele>166.37</ele>
        <time>2011-02-13T10:13:57Z</time>
      </trkpt>
      <trkpt lat="49.72703" lon="4.82143">
        <ele>166.14</ele>
        <time>2011-02-13T10:13:58Z</time>
      </trkpt>
      <trkpt lat="49.72703" lon="4.8215">
        <ele>165.92</ele>
        <time>2011-02-13T10:14:00Z</time>
      </trkpt>
      <trkpt lat="49.72704" lon="4.82156">
        <ele>165.79</ele>
        <time>2011-02-13T10:14:02Z</time>
      </trkpt>
      <trkpt lat="49.72704" lon="4.82163">
        <ele>165.78</ele>
        <time>2011-02-13T10:14:04Z</time>
      </trkpt>
      <trkpt lat="49.72704" lon="4.82169">
        <ele>165.73</ele>
        <time>2011-02-13T10:14:06Z</time>
      </trkpt>
      <trkpt lat="49.72704" lon="4.82172">
        <ele>165.83</ele>
        <time>2011-02-13T10:14:07Z</time>
      </trkpt>
      <trkpt lat="49.72703" lon="4.82176">
        <ele>165.94</ele>
        <time>2011-02-13T10:14:09Z</time>
      </trkpt>
      <trkpt lat="49.72703" lon="4.82181">
        <ele>165.92</ele>
        <time>2011-02-13T10:14:11Z</time>
      </trkpt>
      <trkpt lat="49.72702" lon="4.82187">
        <ele>165.93</ele>
        <time>2011-02-13T10:14:13Z</time>
      </trkpt>
      <trkpt lat="49.72701" lon="4.82189">
        <ele>165.95</ele>
        <time>2011-02-13T10:14:14Z</time>
      </trkpt>
      <trkpt lat="49.72699" lon="4.82195">
        <ele>166.24</ele>
        <time>2011-02-13T10:14:16Z</time>
      </trkpt>
      <trkpt lat="49.72698" lon="4.82202">
        <ele>166.54</ele>
        <time>2011-02-13T10:14:18Z</time>
      </trkpt>
      <trkpt lat="49.72697" lon="4.82205">
        <ele>166.76</ele>
        <time>2011-02-13T10:14:19Z</time>
      </trkpt>
      <trkpt lat="49.72696" lon="4.8221">
        <ele>167.29</ele>
        <time>2011-02-13T10:14:21Z</time>
      </trkpt>
      <trkpt lat="49.72695" lon="4.82215">
        <ele>167.95</ele>
        <time>2011-02-13T10:14:23Z</time>
      </trkpt>
      <trkpt lat="49.72695" lon="4.82217">
        <ele>168.31</ele>
        <time>2011-02-13T10:14:24Z</time>
      </trkpt>
      <trkpt lat="49.72694" lon="4.82221">
        <ele>168.92</ele>
        <time>2011-02-13T10:14:26Z</time>
      </trkpt>
      <trkpt lat="49.72694" lon="4.82222">
        <ele>169.19</ele>
        <time>2011-02-13T10:14:27Z</time>
      </trkpt>
      <trkpt lat="49.72693" lon="4.82224">
        <ele>169.9</ele>
        <time>2011-02-13T10:14:29Z</time>
      </trkpt>
      <trkpt lat="49.72693" lon="4.82225">
        <ele>170.33</ele>
        <time>2011-02-13T10:14:30Z</time>
      </trkpt>
      <trkpt lat="49.72693" lon="4.82229">
        <ele>171.12</ele>
        <time>2011-02-13T10:14:32Z</time>
      </trkpt>
      <trkpt lat="49.72692" lon="4.82231">
        <ele>171.48</ele>
        <time>2011-02-13T10:14:33Z</time>
      </trkpt>
      <trkpt lat="49.72691" lon="4.82234">
        <ele>172.13</ele>
        <time>2011-02-13T10:14:35Z</time>
      </trkpt>
      <trkpt lat="49.72691" lon="4.82236">
        <ele>172.39</ele>
        <time>2011-02-13T10:14:36Z</time>
      </trkpt>
      <trkpt lat="49.7269" lon="4.8224">
        <ele>172.75</ele>
        <time>2011-02-13T10:14:38Z</time>
      </trkpt>
      <trkpt lat="49.72689" lon="4.82243">
        <ele>172.73</ele>
        <time>2011-02-13T10:14:39Z</time>
      </trkpt>
      <trkpt lat="49.72688" lon="4.82245">
        <ele>172.61</ele>
        <time>2011-02-13T10:14:40Z</time>
      </trkpt>
      <trkpt lat="49.72687" lon="4.82249">
        <ele>172.35</ele>
        <time>2011-02-13T10:14:42Z</time>
      </trkpt>
      <trkpt lat="49.72686" lon="4.82252">
        <ele>172.11</ele>
        <time>2011-02-13T10:14:44Z</time>
      </trkpt>
      <trkpt lat="49.72686" lon="4.82254">
        <ele>171.99</ele>
        <time>2011-02-13T10:14:45Z</time>
      </trkpt>
      <trkpt lat="49.72685" lon="4.82257">
        <ele>171.72</ele>
        <time>2011-02-13T10:14:47Z</time>
      </trkpt>
      <trkpt lat="49.72684" lon="4.82258">
        <ele>171.61</ele>
        <time>2011-02-13T10:14:48Z</time>
      </trkpt>
      <trkpt lat="49.72684" lon="4.82262">
        <ele>171.58</ele>
        <time>2011-02-13T10:14:50Z</time>
      </trkpt>
      <trkpt lat="49.72683" lon="4.82266">
        <ele>171.57</ele>
        <time>2011-02-13T10:14:52Z</time>
      </trkpt>
      <trkpt lat="49.72682" lon="4.82268">
        <ele>171.58</ele>
        <time>2011-02-13T10:14:54Z</time>
      </trkpt>
      <trkpt lat="49.72681" lon="4.82271">
        <ele>171.82</ele>
        <time>2011-02-13T10:14:56Z</time>
      </trkpt>
      <trkpt lat="49.72681" lon="4.82273">
        <ele>171.93</ele>
        <time>2011-02-13T10:14:57Z</time>
      </trkpt>
      <trkpt lat="49.72681" lon="4.82275">
        <ele>172.03</ele>
        <time>2011-02-13T10:14:58Z</time>
      </trkpt>
      <trkpt lat="49.72681" lon="4.82277">
        <ele>172.13</ele>
        <time>2011-02-13T10:14:59Z</time>
      </trkpt>
      <trkpt lat="49.7268" lon="4.82282">
        <ele>172.29</ele>
        <time>2011-02-13T10:15:01Z</time>
      </trkpt>
      <trkpt lat="49.7268" lon="4.82287">
        <ele>172.43</ele>
        <time>2011-02-13T10:15:03Z</time>
      </trkpt>
      <trkpt lat="49.72679" lon="4.82288">
        <ele>172.51</ele>
        <time>2011-02-13T10:15:04Z</time>
      </trkpt>
      <trkpt lat="49.72679" lon="4.82291">
        <ele>172.52</ele>
        <time>2011-02-13T10:15:06Z</time>
      </trkpt>
      <trkpt lat="49.72678" lon="4.82294">
        <ele>173.34</ele>
        <time>2011-02-13T10:15:08Z</time>
      </trkpt>
      <trkpt lat="49.72677" lon="4.82298">
        <ele>174.26</ele>
        <time>2011-02-13T10:15:10Z</time>
      </trkpt>
      <trkpt lat="49.72677" lon="4.82299">
        <ele>174.69</ele>
        <time>2011-02-13T10:15:11Z</time>
      </trkpt>
      <trkpt lat="49.72677" lon="4.82302">
        <ele>175.42</ele>
        <time>2011-02-13T10:15:13Z</time>
      </trkpt>
      <trkpt lat="49.72677" lon="4.82303">
        <ele>175.76</ele>
        <time>2011-02-13T10:15:14Z</time>
      </trkpt>
      <trkpt lat="49.72677" lon="4.82303">
        <ele>176.38</ele>
        <time>2011-02-13T10:15:16Z</time>
      </trkpt>
      <trkpt lat="49.72677" lon="4.82303">
        <ele>176.36</ele>
        <time>2011-02-13T10:15:17Z</time>
      </trkpt>
      <trkpt lat="49.72677" lon="4.82303">
        <ele>176.05</ele>
        <time>2011-02-13T10:15:19Z</time>
      </trkpt>
      <trkpt lat="49.72677" lon="4.82303">
        <ele>175.84</ele>
        <time>2011-02-13T10:15:21Z</time>
      </trkpt>
      <trkpt lat="49.72677" lon="4.82303">
        <ele>175.793</ele>
        <time>2011-02-13T10:15:22Z</time>
      </trkpt>
      <trkpt lat="49.72677" lon="4.82303">
        <ele>175.712</ele>
        <time>2011-02-13T10:15:24Z</time>
      </trkpt>
      <trkpt lat="49.72677" lon="4.82303">
        <ele>175.671</ele>
        <time>2011-02-13T10:15:25Z</time>
      </trkpt>
      <trkpt lat="49.72677" lon="4.82303">
        <ele>175.631</ele>
        <time>2011-02-13T10:15:27Z</time>
      </trkpt>
      <trkpt lat="49.72677" lon="4.82303">
        <ele>175.661</ele>
        <time>2011-02-13T10:15:29Z</time>
      </trkpt>
      <trkpt lat="49.72677" lon="4.82303">
        <ele>175.681</ele>
        <time>2011-02-13T10:15:30Z</time>
      </trkpt>
      <trkpt lat="49.72677" lon="4.82303">
        <ele>175.692</ele>
        <time>2011-02-13T10:15:31Z</time>
      </trkpt>
      <trkpt lat="49.72677" lon="4.82303">
        <ele>175.7</ele>
        <time>2011-02-13T10:15:33Z</time>
      </trkpt>
      <trkpt lat="49.72677" lon="4.82303">
        <ele>175.7</ele>
        <time>2011-02-13T10:15:35Z</time>
      </trkpt>
      <trkpt lat="49.72677" lon="4.82303">
        <ele>175.7</ele>
        <time>2011-02-13T10:15:37Z</time>
      </trkpt>
      <trkpt lat="49.72677" lon="4.82303">
        <ele>175.7</ele>
        <time>2011-02-13T10:15:38Z</time>
      </trkpt>
      <trkpt lat="49.72677" lon="4.82303">
        <ele>175.65</ele>
        <time>2011-02-13T10:15:40Z</time>
      </trkpt>
      <trkpt lat="49.72677" lon="4.82304">
        <ele>175.57</ele>
        <time>2011-02-13T10:15:42Z</time>
      </trkpt>
      <trkpt lat="49.72677" lon="4.82305">
        <ele>175.54</ele>
        <time>2011-02-13T10:15:43Z</time>
      </trkpt>
      <trkpt lat="49.72677" lon="4.82306">
        <ele>175.51</ele>
        <time>2011-02-13T10:15:44Z</time>
      </trkpt>
      <trkpt lat="49.72677" lon="4.82306">
        <ele>175.41</ele>
        <time>2011-02-13T10:15:45Z</time>
      </trkpt>
      <trkpt lat="49.72677" lon="4.82307">
        <ele>175.28</ele>
        <time>2011-02-13T10:15:46Z</time>
      </trkpt>
      <trkpt lat="49.72677" lon="4.8231">
        <ele>174.94</ele>
        <time>2011-02-13T10:15:48Z</time>
      </trkpt>
      <trkpt lat="49.72677" lon="4.82315">
        <ele>174.75</ele>
        <time>2011-02-13T10:15:50Z</time>
      </trkpt>
      <trkpt lat="49.72677" lon="4.82318">
        <ele>174.71</ele>
        <time>2011-02-13T10:15:51Z</time>
      </trkpt>
      <trkpt lat="49.72677" lon="4.82322">
        <ele>174.65</ele>
        <time>2011-02-13T10:15:52Z</time>
      </trkpt>
      <trkpt lat="49.72676" lon="4.82329">
        <ele>174.47</ele>
        <time>2011-02-13T10:15:54Z</time>
      </trkpt>
      <trkpt lat="49.72674" lon="4.82336">
        <ele>174.46</ele>
        <time>2011-02-13T10:15:56Z</time>
      </trkpt>
      <trkpt lat="49.72673" lon="4.82342">
        <ele>174.62</ele>
        <time>2011-02-13T10:15:58Z</time>
      </trkpt>
      <trkpt lat="49.72672" lon="4.82345">
        <ele>174.73</ele>
        <time>2011-02-13T10:15:59Z</time>
      </trkpt>
      <trkpt lat="49.72671" lon="4.82351">
        <ele>174.93</ele>
        <time>2011-02-13T10:16:01Z</time>
      </trkpt>
      <trkpt lat="49.72669" lon="4.82357">
        <ele>175.1</ele>
        <time>2011-02-13T10:16:03Z</time>
      </trkpt>
      <trkpt lat="49.72667" lon="4.82362">
        <ele>175.24</ele>
        <time>2011-02-13T10:16:05Z</time>
      </trkpt>
      <trkpt lat="49.72666" lon="4.82367">
        <ele>175.47</ele>
        <time>2011-02-13T10:16:07Z</time>
      </trkpt>
      <trkpt lat="49.72664" lon="4.82372">
        <ele>175.54</ele>
        <time>2011-02-13T10:16:09Z</time>
      </trkpt>
      <trkpt lat="49.72663" lon="4.82378">
        <ele>175.49</ele>
        <time>2011-02-13T10:16:11Z</time>
      </trkpt>
      <trkpt lat="49.72662" lon="4.82381">
        <ele>175.42</ele>
        <time>2011-02-13T10:16:12Z</time>
      </trkpt>
      <trkpt lat="49.72662" lon="4.82383">
        <ele>175.35</ele>
        <time>2011-02-13T10:16:13Z</time>
      </trkpt>
      <trkpt lat="49.72662" lon="4.82389">
        <ele>175.19</ele>
        <time>2011-02-13T10:16:15Z</time>
      </trkpt>
      <trkpt lat="49.72661" lon="4.82391">
        <ele>175.05</ele>
        <time>2011-02-13T10:16:16Z</time>
      </trkpt>
      <trkpt lat="49.72662" lon="4.82396">
        <ele>174.8</ele>
        <time>2011-02-13T10:16:18Z</time>
      </trkpt>
      <trkpt lat="49.72662" lon="4.82398">
        <ele>174.7</ele>
        <time>2011-02-13T10:16:19Z</time>
      </trkpt>
      <trkpt lat="49.72663" lon="4.82403">
        <ele>174.48</ele>
        <time>2011-02-13T10:16:21Z</time>
      </trkpt>
      <trkpt lat="49.72664" lon="4.82409">
        <ele>174.39</ele>
        <time>2011-02-13T10:16:23Z</time>
      </trkpt>
      <trkpt lat="49.72664" lon="4.82413">
        <ele>174.39</ele>
        <time>2011-02-13T10:16:24Z</time>
      </trkpt>
      <trkpt lat="49.72664" lon="4.8242">
        <ele>174.5</ele>
        <time>2011-02-13T10:16:26Z</time>
      </trkpt>
      <trkpt lat="49.72663" lon="4.82427">
        <ele>174.46</ele>
        <time>2011-02-13T10:16:28Z</time>
      </trkpt>
      <trkpt lat="49.72663" lon="4.8243">
        <ele>174.44</ele>
        <time>2011-02-13T10:16:29Z</time>
      </trkpt>
      <trkpt lat="49.72663" lon="4.82438">
        <ele>174.42</ele>
        <time>2011-02-13T10:16:31Z</time>
      </trkpt>
      <trkpt lat="49.72661" lon="4.82446">
        <ele>174.41</ele>
        <time>2011-02-13T10:16:33Z</time>
      </trkpt>
      <trkpt lat="49.7266" lon="4.8245">
        <ele>174.41</ele>
        <time>2011-02-13T10:16:34Z</time>
      </trkpt>
      <trkpt lat="49.7266" lon="4.82454">
        <ele>174.36</ele>
        <time>2011-02-13T10:16:35Z</time>
      </trkpt>
      <trkpt lat="49.72659" lon="4.82462">
        <ele>174.37</ele>
        <time>2011-02-13T10:16:37Z</time>
      </trkpt>
      <trkpt lat="49.72659" lon="4.82467">
        <ele>174.43</ele>
        <time>2011-02-13T10:16:38Z</time>
      </trkpt>
      <trkpt lat="49.7266" lon="4.82477">
        <ele>174.47</ele>
        <time>2011-02-13T10:16:40Z</time>
      </trkpt>
      <trkpt lat="49.7266" lon="4.82482">
        <ele>174.49</ele>
        <time>2011-02-13T10:16:41Z</time>
      </trkpt>
      <trkpt lat="49.7266" lon="4.82494">
        <ele>174.34</ele>
        <time>2011-02-13T10:16:43Z</time>
      </trkpt>
      <trkpt lat="49.7266" lon="4.82507">
        <ele>174.05</ele>
        <time>2011-02-13T10:16:45Z</time>
      </trkpt>
      <trkpt lat="49.72659" lon="4.82515">
        <ele>173.82</ele>
        <time>2011-02-13T10:16:46Z</time>
      </trkpt>
      <trkpt lat="49.72659" lon="4.82523">
        <ele>173.51</ele>
        <time>2011-02-13T10:16:47Z</time>
      </trkpt>
      <trkpt lat="49.72659" lon="4.8254">
        <ele>172.83</ele>
        <time>2011-02-13T10:16:49Z</time>
      </trkpt>
      <trkpt lat="49.72659" lon="4.82558">
        <ele>172.02</ele>
        <time>2011-02-13T10:16:51Z</time>
      </trkpt>
      <trkpt lat="49.72658" lon="4.82577">
        <ele>171.16</ele>
        <time>2011-02-13T10:16:53Z</time>
      </trkpt>
      <trkpt lat="49.72657" lon="4.82586">
        <ele>170.73</ele>
        <time>2011-02-13T10:16:54Z</time>
      </trkpt>
      <trkpt lat="49.72657" lon="4.82595">
        <ele>170.28</ele>
        <time>2011-02-13T10:16:55Z</time>
      </trkpt>
      <trkpt lat="49.72656" lon="4.82611">
        <ele>169.43</ele>
        <time>2011-02-13T10:16:57Z</time>
      </trkpt>
      <trkpt lat="49.72655" lon="4.82619">
        <ele>168.99</ele>
        <time>2011-02-13T10:16:58Z</time>
      </trkpt>
      <trkpt lat="49.72654" lon="4.82632">
        <ele>167.98</ele>
        <time>2011-02-13T10:17:00Z</time>
      </trkpt>
      <trkpt lat="49.72653" lon="4.82639">
        <ele>167.55</ele>
        <time>2011-02-13T10:17:01Z</time>
      </trkpt>
      <trkpt lat="49.72652" lon="4.8265">
        <ele>166.82</ele>
        <time>2011-02-13T10:17:03Z</time>
      </trkpt>
      <trkpt lat="49.72651" lon="4.82661">
        <ele>166.26</ele>
        <time>2011-02-13T10:17:05Z</time>
      </trkpt>
      <trkpt lat="49.7265" lon="4.82667">
        <ele>166.09</ele>
        <time>2011-02-13T10:17:06Z</time>
      </trkpt>
      <trkpt lat="49.72649" lon="4.82672">
        <ele>165.95</ele>
        <time>2011-02-13T10:17:07Z</time>
      </trkpt>
      <trkpt lat="49.72648" lon="4.82678">
        <ele>165.88</ele>
        <time>2011-02-13T10:17:08Z</time>
      </trkpt>
      <trkpt lat="49.72646" lon="4.82689">
        <ele>165.88</ele>
        <time>2011-02-13T10:17:10Z</time>
      </trkpt>
      <trkpt lat="49.72645" lon="4.82694">
        <ele>165.87</ele>
        <time>2011-02-13T10:17:11Z</time>
      </trkpt>
      <trkpt lat="49.72644" lon="4.82703">
        <ele>165.75</ele>
        <time>2011-02-13T10:17:13Z</time>
      </trkpt>
      <trkpt lat="49.72642" lon="4.82712">
        <ele>165.54</ele>
        <time>2011-02-13T10:17:15Z</time>
      </trkpt>
      <trkpt lat="49.72639" lon="4.8272">
        <ele>165.28</ele>
        <time>2011-02-13T10:17:17Z</time>
      </trkpt>
      <trkpt lat="49.72638" lon="4.82723">
        <ele>165.14</ele>
        <time>2011-02-13T10:17:18Z</time>
      </trkpt>
      <trkpt lat="49.72638" lon="4.82726">
        <ele>165.05</ele>
        <time>2011-02-13T10:17:19Z</time>
      </trkpt>
      <trkpt lat="49.72637" lon="4.82731">
        <ele>165.07</ele>
        <time>2011-02-13T10:17:21Z</time>
      </trkpt>
      <trkpt lat="49.72637" lon="4.82736">
        <ele>165.2</ele>
        <time>2011-02-13T10:17:23Z</time>
      </trkpt>
      <trkpt lat="49.72636" lon="4.82741">
        <ele>165.38</ele>
        <time>2011-02-13T10:17:25Z</time>
      </trkpt>
      <trkpt lat="49.72635" lon="4.82744">
        <ele>165.45</ele>
        <time>2011-02-13T10:17:26Z</time>
      </trkpt>
      <trkpt lat="49.72634" lon="4.82747">
        <ele>165.51</ele>
        <time>2011-02-13T10:17:27Z</time>
      </trkpt>
      <trkpt lat="49.72633" lon="4.82753">
        <ele>165.56</ele>
        <time>2011-02-13T10:17:29Z</time>
      </trkpt>
      <trkpt lat="49.72633" lon="4.82756">
        <ele>165.54</ele>
        <time>2011-02-13T10:17:30Z</time>
      </trkpt>
      <trkpt lat="49.72632" lon="4.82763">
        <ele>165.47</ele>
        <time>2011-02-13T10:17:32Z</time>
      </trkpt>
      <trkpt lat="49.72631" lon="4.8277">
        <ele>165.37</ele>
        <time>2011-02-13T10:17:34Z</time>
      </trkpt>
      <trkpt lat="49.72631" lon="4.82777">
        <ele>165.31</ele>
        <time>2011-02-13T10:17:36Z</time>
      </trkpt>
      <trkpt lat="49.7263" lon="4.8278">
        <ele>165.3</ele>
        <time>2011-02-13T10:17:37Z</time>
      </trkpt>
      <trkpt lat="49.72629" lon="4.82788">
        <ele>165.24</ele>
        <time>2011-02-13T10:17:39Z</time>
      </trkpt>
      <trkpt lat="49.72629" lon="4.82795">
        <ele>165.125</ele>
        <time>2011-02-13T10:17:41Z</time>
      </trkpt>
      <trkpt lat="49.72629" lon="4.82803">
        <ele>165.028</ele>
        <time>2011-02-13T10:17:43Z</time>
      </trkpt>
      <trkpt lat="49.72628" lon="4.8281">
        <ele>164.924</ele>
        <time>2011-02-13T10:17:45Z</time>
      </trkpt>
      <trkpt lat="49.72626" lon="4.82813">
        <ele>164.862</ele>
        <time>2011-02-13T10:17:46Z</time>
      </trkpt>
      <trkpt lat="49.72621" lon="4.82817">
        <ele>164.707</ele>
        <time>2011-02-13T10:17:48Z</time>
      </trkpt>
      <trkpt lat="49.72616" lon="4.82821">
        <ele>164.521</ele>
        <time>2011-02-13T10:17:50Z</time>
      </trkpt>
      <trkpt lat="49.72613" lon="4.82823">
        <ele>164.434</ele>
        <time>2011-02-13T10:17:51Z</time>
      </trkpt>
      <trkpt lat="49.72608" lon="4.82827">
        <ele>164.51</ele>
        <time>2011-02-13T10:17:53Z</time>
      </trkpt>
      <trkpt lat="49.72606" lon="4.82829">
        <ele>164.59</ele>
        <time>2011-02-13T10:17:54Z</time>
      </trkpt>
      <trkpt lat="49.72602" lon="4.82834">
        <ele>164.84</ele>
        <time>2011-02-13T10:17:56Z</time>
      </trkpt>
      <trkpt lat="49.726" lon="4.82835">
        <ele>164.97</ele>
        <time>2011-02-13T10:17:57Z</time>
      </trkpt>
      <trkpt lat="49.72596" lon="4.82839">
        <ele>165.42</ele>
        <time>2011-02-13T10:17:59Z</time>
      </trkpt>
      <trkpt lat="49.72594" lon="4.82841">
        <ele>165.73</ele>
        <time>2011-02-13T10:18:00Z</time>
      </trkpt>
      <trkpt lat="49.72592" lon="4.82843">
        <ele>166.06</ele>
        <time>2011-02-13T10:18:01Z</time>
      </trkpt>
      <trkpt lat="49.7259" lon="4.82845">
        <ele>166.28</ele>
        <time>2011-02-13T10:18:02Z</time>
      </trkpt>
      <trkpt lat="49.72586" lon="4.82848">
        <ele>166.53</ele>
        <time>2011-02-13T10:18:04Z</time>
      </trkpt>
      <trkpt lat="49.72584" lon="4.8285">
        <ele>166.55</ele>
        <time>2011-02-13T10:18:05Z</time>
      </trkpt>
      <trkpt lat="49.72581" lon="4.82853">
        <ele>166.6</ele>
        <time>2011-02-13T10:18:07Z</time>
      </trkpt>
      <trkpt lat="49.72579" lon="4.82856">
        <ele>166.74</ele>
        <time>2011-02-13T10:18:09Z</time>
      </trkpt>
      <trkpt lat="49.72575" lon="4.82859">
        <ele>166.85</ele>
        <time>2011-02-13T10:18:11Z</time>
      </trkpt>
      <trkpt lat="49.72572" lon="4.8286">
        <ele>167.17</ele>
        <time>2011-02-13T10:18:13Z</time>
      </trkpt>
      <trkpt lat="49.72568" lon="4.82862">
        <ele>167.64</ele>
        <time>2011-02-13T10:18:15Z</time>
      </trkpt>
      <trkpt lat="49.72567" lon="4.82863">
        <ele>167.9</ele>
        <time>2011-02-13T10:18:16Z</time>
      </trkpt>
      <trkpt lat="49.72564" lon="4.82866">
        <ele>168.19</ele>
        <time>2011-02-13T10:18:18Z</time>
      </trkpt>
      <trkpt lat="49.72559" lon="4.8287">
        <ele>168.51</ele>
        <time>2011-02-13T10:18:20Z</time>
      </trkpt>
      <trkpt lat="49.72557" lon="4.82872">
        <ele>168.65</ele>
        <time>2011-02-13T10:18:21Z</time>
      </trkpt>
      <trkpt lat="49.72553" lon="4.82876">
        <ele>168.86</ele>
        <time>2011-02-13T10:18:23Z</time>
      </trkpt>
      <trkpt lat="49.72552" lon="4.82878">
        <ele>169.02</ele>
        <time>2011-02-13T10:18:24Z</time>
      </trkpt>
      <trkpt lat="49.72549" lon="4.8288">
        <ele>169.38</ele>
        <time>2011-02-13T10:18:26Z</time>
      </trkpt>
      <trkpt lat="49.72545" lon="4.82883">
        <ele>169.93</ele>
        <time>2011-02-13T10:18:28Z</time>
      </trkpt>
      <trkpt lat="49.72544" lon="4.82884">
        <ele>170.17</ele>
        <time>2011-02-13T10:18:29Z</time>
      </trkpt>
      <trkpt lat="49.72541" lon="4.82888">
        <ele>170.53</ele>
        <time>2011-02-13T10:18:31Z</time>
      </trkpt>
      <trkpt lat="49.72536" lon="4.82893">
        <ele>170.82</ele>
        <time>2011-02-13T10:18:33Z</time>
      </trkpt>
      <trkpt lat="49.72534" lon="4.82895">
        <ele>170.91</ele>
        <time>2011-02-13T10:18:34Z</time>
      </trkpt>
      <trkpt lat="49.72529" lon="4.829">
        <ele>171.13</ele>
        <time>2011-02-13T10:18:36Z</time>
      </trkpt>
      <trkpt lat="49.72527" lon="4.82902">
        <ele>171.26</ele>
        <time>2011-02-13T10:18:37Z</time>
      </trkpt>
      <trkpt lat="49.72523" lon="4.82906">
        <ele>171.56</ele>
        <time>2011-02-13T10:18:39Z</time>
      </trkpt>
      <trkpt lat="49.7252" lon="4.82909">
        <ele>171.8</ele>
        <time>2011-02-13T10:18:41Z</time>
      </trkpt>
      <trkpt lat="49.72516" lon="4.82911">
        <ele>172.12</ele>
        <time>2011-02-13T10:18:43Z</time>
      </trkpt>
      <trkpt lat="49.72512" lon="4.82913">
        <ele>172.5</ele>
        <time>2011-02-13T10:18:45Z</time>
      </trkpt>
      <trkpt lat="49.7251" lon="4.82914">
        <ele>172.65</ele>
        <time>2011-02-13T10:18:46Z</time>
      </trkpt>
      <trkpt lat="49.72506" lon="4.82916">
        <ele>172.85</ele>
        <time>2011-02-13T10:18:48Z</time>
      </trkpt>
      <trkpt lat="49.72503" lon="4.82918">
        <ele>173.11</ele>
        <time>2011-02-13T10:18:50Z</time>
      </trkpt>
      <trkpt lat="49.72501" lon="4.8292">
        <ele>173.39</ele>
        <time>2011-02-13T10:18:52Z</time>
      </trkpt>
      <trkpt lat="49.72497" lon="4.82923">
        <ele>173.66</ele>
        <time>2011-02-13T10:18:54Z</time>
      </trkpt>
      <trkpt lat="49.72495" lon="4.82925">
        <ele>173.76</ele>
        <time>2011-02-13T10:18:55Z</time>
      </trkpt>
      <trkpt lat="49.7249" lon="4.8293">
        <ele>173.99</ele>
        <time>2011-02-13T10:18:57Z</time>
      </trkpt>
      <trkpt lat="49.72486" lon="4.82934">
        <ele>174.18</ele>
        <time>2011-02-13T10:18:59Z</time>
      </trkpt>
      <trkpt lat="49.72484" lon="4.82936">
        <ele>174.29</ele>
        <time>2011-02-13T10:19:00Z</time>
      </trkpt>
      <trkpt lat="49.72481" lon="4.82939">
        <ele>174.52</ele>
        <time>2011-02-13T10:19:02Z</time>
      </trkpt>
      <trkpt lat="49.7248" lon="4.82941">
        <ele>174.6</ele>
        <time>2011-02-13T10:19:03Z</time>
      </trkpt>
      <trkpt lat="49.72478" lon="4.82943">
        <ele>174.63</ele>
        <time>2011-02-13T10:19:04Z</time>
      </trkpt>
      <trkpt lat="49.72476" lon="4.82945">
        <ele>174.65</ele>
        <time>2011-02-13T10:19:06Z</time>
      </trkpt>
      <trkpt lat="49.72473" lon="4.82949">
        <ele>174.54</ele>
        <time>2011-02-13T10:19:07Z</time>
      </trkpt>
      <trkpt lat="49.72469" lon="4.82953">
        <ele>174.14</ele>
        <time>2011-02-13T10:19:09Z</time>
      </trkpt>
      <trkpt lat="49.72464" lon="4.82957">
        <ele>173.67</ele>
        <time>2011-02-13T10:19:11Z</time>
      </trkpt>
      <trkpt lat="49.72461" lon="4.82956">
        <ele>173.43</ele>
        <time>2011-02-13T10:19:12Z</time>
      </trkpt>
      <trkpt lat="49.72459" lon="4.82956">
        <ele>173.21</ele>
        <time>2011-02-13T10:19:13Z</time>
      </trkpt>
      <trkpt lat="49.72457" lon="4.82954">
        <ele>173.04</ele>
        <time>2011-02-13T10:19:14Z</time>
      </trkpt>
      <trkpt lat="49.72454" lon="4.82951">
        <ele>172.72</ele>
        <time>2011-02-13T10:19:16Z</time>
      </trkpt>
      <trkpt lat="49.72454" lon="4.82949">
        <ele>172.683</ele>
        <time>2011-02-13T10:19:17Z</time>
      </trkpt>
      <trkpt lat="49.72453" lon="4.82945">
        <ele>172.805</ele>
        <time>2011-02-13T10:19:19Z</time>
      </trkpt>
      <trkpt lat="49.72452" lon="4.82939">
        <ele>172.927</ele>
        <time>2011-02-13T10:19:21Z</time>
      </trkpt>
      <trkpt lat="49.72451" lon="4.82931">
        <ele>173.08</ele>
        <time>2011-02-13T10:19:23Z</time>
      </trkpt>
      <trkpt lat="49.7245" lon="4.82927">
        <ele>173.171</ele>
        <time>2011-02-13T10:19:24Z</time>
      </trkpt>
      <trkpt lat="49.72448" lon="4.82921">
        <ele>173.415</ele>
        <time>2011-02-13T10:19:26Z</time>
      </trkpt>
      <trkpt lat="49.72445" lon="4.82914">
        <ele>173.6</ele>
        <time>2011-02-13T10:19:28Z</time>
      </trkpt>
      <trkpt lat="49.72443" lon="4.82906">
        <ele>173.79</ele>
        <time>2011-02-13T10:19:30Z</time>
      </trkpt>
      <trkpt lat="49.72442" lon="4.829">
        <ele>174.04</ele>
        <time>2011-02-13T10:19:32Z</time>
      </trkpt>
      <trkpt lat="49.72441" lon="4.82897">
        <ele>174.28</ele>
        <time>2011-02-13T10:19:34Z</time>
      </trkpt>
      <trkpt lat="49.72441" lon="4.82893">
        <ele>174.836</ele>
        <time>2011-02-13T10:19:36Z</time>
      </trkpt>
      <trkpt lat="49.72439" lon="4.82887">
        <ele>175.416</ele>
        <time>2011-02-13T10:19:38Z</time>
      </trkpt>
      <trkpt lat="49.72437" lon="4.82881">
        <ele>175.988</ele>
        <time>2011-02-13T10:19:40Z</time>
      </trkpt>
      <trkpt lat="49.72436" lon="4.82879">
        <ele>176.283</ele>
        <time>2011-02-13T10:19:41Z</time>
      </trkpt>
      <trkpt lat="49.72434" lon="4.82873">
        <ele>176.745</ele>
        <time>2011-02-13T10:19:43Z</time>
      </trkpt>
      <trkpt lat="49.72433" lon="4.82866">
        <ele>177.05</ele>
        <time>2011-02-13T10:19:45Z</time>
      </trkpt>
      <trkpt lat="49.72431" lon="4.8286">
        <ele>177.22</ele>
        <time>2011-02-13T10:19:47Z</time>
      </trkpt>
      <trkpt lat="49.72428" lon="4.82856">
        <ele>177.48</ele>
        <time>2011-02-13T10:19:49Z</time>
      </trkpt>
      <trkpt lat="49.72427" lon="4.82854">
        <ele>177.6</ele>
        <time>2011-02-13T10:19:50Z</time>
      </trkpt>
      <trkpt lat="49.72427" lon="4.82852">
        <ele>177.76</ele>
        <time>2011-02-13T10:19:51Z</time>
      </trkpt>
      <trkpt lat="49.72425" lon="4.82847">
        <ele>178.08</ele>
        <time>2011-02-13T10:19:53Z</time>
      </trkpt>
      <trkpt lat="49.72423" lon="4.82842">
        <ele>178.31</ele>
        <time>2011-02-13T10:19:55Z</time>
      </trkpt>
      <trkpt lat="49.7242" lon="4.82839">
        <ele>178.15</ele>
        <time>2011-02-13T10:19:57Z</time>
      </trkpt>
      <trkpt lat="49.72417" lon="4.82833">
        <ele>178.06</ele>
        <time>2011-02-13T10:19:59Z</time>
      </trkpt>
      <trkpt lat="49.72414" lon="4.82826">
        <ele>177.94</ele>
        <time>2011-02-13T10:20:01Z</time>
      </trkpt>
      <trkpt lat="49.72413" lon="4.82823">
        <ele>177.84</ele>
        <time>2011-02-13T10:20:02Z</time>
      </trkpt>
      <trkpt lat="49.72409" lon="4.82817">
        <ele>177.67</ele>
        <time>2011-02-13T10:20:04Z</time>
      </trkpt>
      <trkpt lat="49.72406" lon="4.82812">
        <ele>178.11</ele>
        <time>2011-02-13T10:20:06Z</time>
      </trkpt>
      <trkpt lat="49.72405" lon="4.82809">
        <ele>178.438</ele>
        <time>2011-02-13T10:20:07Z</time>
      </trkpt>
      <trkpt lat="49.72403" lon="4.82804">
        <ele>179.02</ele>
        <time>2011-02-13T10:20:09Z</time>
      </trkpt>
      <trkpt lat="49.72402" lon="4.82801">
        <ele>179.277</ele>
        <time>2011-02-13T10:20:10Z</time>
      </trkpt>
      <trkpt lat="49.72401" lon="4.82798">
        <ele>179.717</ele>
        <time>2011-02-13T10:20:12Z</time>
      </trkpt>
      <trkpt lat="49.72401" lon="4.82797">
        <ele>179.868</ele>
        <time>2011-02-13T10:20:13Z</time>
      </trkpt>
      <trkpt lat="49.72401" lon="4.82797">
        <ele>180.007</ele>
        <time>2011-02-13T10:20:14Z</time>
      </trkpt>
      <trkpt lat="49.72402" lon="4.82798">
        <ele>179.975</ele>
        <time>2011-02-13T10:20:16Z</time>
      </trkpt>
      <trkpt lat="49.72403" lon="4.82799">
        <ele>179.888</ele>
        <time>2011-02-13T10:20:17Z</time>
      </trkpt>
      <trkpt lat="49.72403" lon="4.828">
        <ele>179.582</ele>
        <time>2011-02-13T10:20:19Z</time>
      </trkpt>
      <trkpt lat="49.72404" lon="4.82801">
        <ele>179.48</ele>
        <time>2011-02-13T10:20:20Z</time>
      </trkpt>
      <trkpt lat="49.72404" lon="4.82801">
        <ele>179.44</ele>
        <time>2011-02-13T10:20:21Z</time>
      </trkpt>
      <trkpt lat="49.72405" lon="4.82801">
        <ele>179.52</ele>
        <time>2011-02-13T10:20:23Z</time>
      </trkpt>
      <trkpt lat="49.72405" lon="4.82801">
        <ele>179.55</ele>
        <time>2011-02-13T10:20:24Z</time>
      </trkpt>
      <trkpt lat="49.72406" lon="4.82801">
        <ele>179.49</ele>
        <time>2011-02-13T10:20:26Z</time>
      </trkpt>
      <trkpt lat="49.72406" lon="4.82801">
        <ele>179.47</ele>
        <time>2011-02-13T10:20:27Z</time>
      </trkpt>
      <trkpt lat="49.72406" lon="4.82801">
        <ele>179.5</ele>
        <time>2011-02-13T10:20:29Z</time>
      </trkpt>
      <trkpt lat="49.72406" lon="4.828">
        <ele>179.53</ele>
        <time>2011-02-13T10:20:30Z</time>
      </trkpt>
      <trkpt lat="49.72406" lon="4.828">
        <ele>179.53</ele>
        <time>2011-02-13T10:20:31Z</time>
      </trkpt>
      <trkpt lat="49.72406" lon="4.828">
        <ele>179.55</ele>
        <time>2011-02-13T10:20:33Z</time>
      </trkpt>
      <trkpt lat="49.72406" lon="4.828">
        <ele>179.57</ele>
        <time>2011-02-13T10:20:34Z</time>
      </trkpt>
      <trkpt lat="49.72405" lon="4.82801">
        <ele>179.56</ele>
        <time>2011-02-13T10:20:36Z</time>
      </trkpt>
      <trkpt lat="49.72405" lon="4.82801">
        <ele>179.52</ele>
        <time>2011-02-13T10:20:38Z</time>
      </trkpt>
      <trkpt lat="49.72405" lon="4.82801">
        <ele>179.41</ele>
        <time>2011-02-13T10:20:40Z</time>
      </trkpt>
      <trkpt lat="49.72405" lon="4.82801">
        <ele>179.03</ele>
        <time>2011-02-13T10:20:42Z</time>
      </trkpt>
      <trkpt lat="49.72405" lon="4.82801">
        <ele>178.71</ele>
        <time>2011-02-13T10:20:44Z</time>
      </trkpt>
      <trkpt lat="49.72405" lon="4.82801">
        <ele>178.53</ele>
        <time>2011-02-13T10:20:46Z</time>
      </trkpt>
      <trkpt lat="49.72405" lon="4.828">
        <ele>178.48</ele>
        <time>2011-02-13T10:20:47Z</time>
      </trkpt>
      <trkpt lat="49.72405" lon="4.828">
        <ele>178.46</ele>
        <time>2011-02-13T10:20:48Z</time>
      </trkpt>
      <trkpt lat="49.72404" lon="4.82799">
        <ele>178.49</ele>
        <time>2011-02-13T10:20:50Z</time>
      </trkpt>
      <trkpt lat="49.72404" lon="4.82799">
        <ele>178.79</ele>
        <time>2011-02-13T10:20:52Z</time>
      </trkpt>
      <trkpt lat="49.72403" lon="4.82798">
        <ele>179.07</ele>
        <time>2011-02-13T10:20:54Z</time>
      </trkpt>
      <trkpt lat="49.72403" lon="4.82798">
        <ele>179.27</ele>
        <time>2011-02-13T10:20:56Z</time>
      </trkpt>
      <trkpt lat="49.72402" lon="4.82796">
        <ele>179.53</ele>
        <time>2011-02-13T10:20:58Z</time>
      </trkpt>
      <trkpt lat="49.72401" lon="4.82793">
        <ele>179.88</ele>
        <time>2011-02-13T10:21:00Z</time>
      </trkpt>
      <trkpt lat="49.72399" lon="4.82788">
        <ele>180.3</ele>
        <time>2011-02-13T10:21:02Z</time>
      </trkpt>
      <trkpt lat="49.72398" lon="4.82785">
        <ele>180.53</ele>
        <time>2011-02-13T10:21:03Z</time>
      </trkpt>
      <trkpt lat="49.72396" lon="4.82779">
        <ele>180.98</ele>
        <time>2011-02-13T10:21:05Z</time>
      </trkpt>
      <trkpt lat="49.72394" lon="4.82776">
        <ele>181.2</ele>
        <time>2011-02-13T10:21:06Z</time>
      </trkpt>
      <trkpt lat="49.72392" lon="4.82774">
        <ele>181.37</ele>
        <time>2011-02-13T10:21:07Z</time>
      </trkpt>
      <trkpt lat="49.72388" lon="4.82767">
        <ele>181.56</ele>
        <time>2011-02-13T10:21:09Z</time>
      </trkpt>
      <trkpt lat="49.72383" lon="4.82761">
        <ele>181.55</ele>
        <time>2011-02-13T10:21:11Z</time>
      </trkpt>
      <trkpt lat="49.72381" lon="4.82757">
        <ele>181.55</ele>
        <time>2011-02-13T10:21:12Z</time>
      </trkpt>
      <trkpt lat="49.72379" lon="4.82754">
        <ele>181.53</ele>
        <time>2011-02-13T10:21:13Z</time>
      </trkpt>
      <trkpt lat="49.72374" lon="4.82749">
        <ele>181.59</ele>
        <time>2011-02-13T10:21:15Z</time>
      </trkpt>
      <trkpt lat="49.72371" lon="4.82742">
        <ele>181.72</ele>
        <time>2011-02-13T10:21:17Z</time>
      </trkpt>
      <trkpt lat="49.72368" lon="4.82735">
        <ele>182.05</ele>
        <time>2011-02-13T10:21:19Z</time>
      </trkpt>
      <trkpt lat="49.72366" lon="4.8273">
        <ele>182.58</ele>
        <time>2011-02-13T10:21:21Z</time>
      </trkpt>
      <trkpt lat="49.72365" lon="4.82727">
        <ele>182.86</ele>
        <time>2011-02-13T10:21:22Z</time>
      </trkpt>
      <trkpt lat="49.72362" lon="4.82722">
        <ele>183.52</ele>
        <time>2011-02-13T10:21:24Z</time>
      </trkpt>
      <trkpt lat="49.72359" lon="4.82715">
        <ele>184.28</ele>
        <time>2011-02-13T10:21:26Z</time>
      </trkpt>
      <trkpt lat="49.72356" lon="4.82709">
        <ele>184.99</ele>
        <time>2011-02-13T10:21:28Z</time>
      </trkpt>
      <trkpt lat="49.72354" lon="4.82706">
        <ele>185.29</ele>
        <time>2011-02-13T10:21:29Z</time>
      </trkpt>
      <trkpt lat="49.72352" lon="4.82704">
        <ele>185.53</ele>
        <time>2011-02-13T10:21:30Z</time>
      </trkpt>
      <trkpt lat="49.72351" lon="4.82701">
        <ele>185.68</ele>
        <time>2011-02-13T10:21:31Z</time>
      </trkpt>
      <trkpt lat="49.72347" lon="4.82696">
        <ele>185.97</ele>
        <time>2011-02-13T10:21:33Z</time>
      </trkpt>
      <trkpt lat="49.72343" lon="4.8269">
        <ele>186.27</ele>
        <time>2011-02-13T10:21:35Z</time>
      </trkpt>
      <trkpt lat="49.72339" lon="4.82683">
        <ele>186.43</ele>
        <time>2011-02-13T10:21:37Z</time>
      </trkpt>
      <trkpt lat="49.72335" lon="4.82675">
        <ele>186.56</ele>
        <time>2011-02-13T10:21:39Z</time>
      </trkpt>
      <trkpt lat="49.72332" lon="4.8267">
        <ele>186.81</ele>
        <time>2011-02-13T10:21:41Z</time>
      </trkpt>
      <trkpt lat="49.7233" lon="4.82668">
        <ele>187.07</ele>
        <time>2011-02-13T10:21:42Z</time>
      </trkpt>
      <trkpt lat="49.72328" lon="4.82663">
        <ele>187.42</ele>
        <time>2011-02-13T10:21:44Z</time>
      </trkpt>
      <trkpt lat="49.72328" lon="4.8266">
        <ele>187.6</ele>
        <time>2011-02-13T10:21:45Z</time>
      </trkpt>
      <trkpt lat="49.72327" lon="4.82657">
        <ele>187.7</ele>
        <time>2011-02-13T10:21:46Z</time>
      </trkpt>
      <trkpt lat="49.72326" lon="4.82653">
        <ele>187.97</ele>
        <time>2011-02-13T10:21:48Z</time>
      </trkpt>
      <trkpt lat="49.72325" lon="4.8265">
        <ele>188.18</ele>
        <time>2011-02-13T10:21:49Z</time>
      </trkpt>
      <trkpt lat="49.72322" lon="4.82644">
        <ele>188.57</ele>
        <time>2011-02-13T10:21:51Z</time>
      </trkpt>
      <trkpt lat="49.7232" lon="4.8264">
        <ele>188.67</ele>
        <time>2011-02-13T10:21:52Z</time>
      </trkpt>
      <trkpt lat="49.72316" lon="4.82633">
        <ele>188.81</ele>
        <time>2011-02-13T10:21:54Z</time>
      </trkpt>
      <trkpt lat="49.72314" lon="4.82629">
        <ele>188.87</ele>
        <time>2011-02-13T10:21:55Z</time>
      </trkpt>
      <trkpt lat="49.72312" lon="4.82622">
        <ele>188.97</ele>
        <time>2011-02-13T10:21:57Z</time>
      </trkpt>
      <trkpt lat="49.72311" lon="4.82616">
        <ele>188.95</ele>
        <time>2011-02-13T10:21:59Z</time>
      </trkpt>
      <trkpt lat="49.72311" lon="4.82613">
        <ele>188.92</ele>
        <time>2011-02-13T10:22:00Z</time>
      </trkpt>
      <trkpt lat="49.7231" lon="4.8261">
        <ele>188.88</ele>
        <time>2011-02-13T10:22:01Z</time>
      </trkpt>
      <trkpt lat="49.72309" lon="4.82604">
        <ele>188.74</ele>
        <time>2011-02-13T10:22:03Z</time>
      </trkpt>
      <trkpt lat="49.72308" lon="4.826">
        <ele>188.54</ele>
        <time>2011-02-13T10:22:05Z</time>
      </trkpt>
      <trkpt lat="49.72308" lon="4.82595">
        <ele>188.491</ele>
        <time>2011-02-13T10:22:07Z</time>
      </trkpt>
      <trkpt lat="49.72308" lon="4.82588">
        <ele>188.565</ele>
        <time>2011-02-13T10:22:09Z</time>
      </trkpt>
      <trkpt lat="49.72308" lon="4.82585">
        <ele>188.604</ele>
        <time>2011-02-13T10:22:10Z</time>
      </trkpt>
      <trkpt lat="49.72307" lon="4.82578">
        <ele>188.601</ele>
        <time>2011-02-13T10:22:12Z</time>
      </trkpt>
      <trkpt lat="49.72306" lon="4.82575">
        <ele>188.554</ele>
        <time>2011-02-13T10:22:13Z</time>
      </trkpt>
      <trkpt lat="49.72305" lon="4.82569">
        <ele>188.357</ele>
        <time>2011-02-13T10:22:15Z</time>
      </trkpt>
      <trkpt lat="49.72304" lon="4.82566">
        <ele>188.229</ele>
        <time>2011-02-13T10:22:16Z</time>
      </trkpt>
      <trkpt lat="49.72303" lon="4.82561">
        <ele>187.949</ele>
        <time>2011-02-13T10:22:18Z</time>
      </trkpt>
      <trkpt lat="49.72301" lon="4.82556">
        <ele>187.737</ele>
        <time>2011-02-13T10:22:20Z</time>
      </trkpt>
      <trkpt lat="49.723" lon="4.8255">
        <ele>187.69</ele>
        <time>2011-02-13T10:22:22Z</time>
      </trkpt>
      <trkpt lat="49.72298" lon="4.82545">
        <ele>187.83</ele>
        <time>2011-02-13T10:22:24Z</time>
      </trkpt>
      <trkpt lat="49.72297" lon="4.82542">
        <ele>187.95</ele>
        <time>2011-02-13T10:22:25Z</time>
      </trkpt>
      <trkpt lat="49.72296" lon="4.82537">
        <ele>188.21</ele>
        <time>2011-02-13T10:22:27Z</time>
      </trkpt>
      <trkpt lat="49.72294" lon="4.82533">
        <ele>188.2</ele>
        <time>2011-02-13T10:22:29Z</time>
      </trkpt>
      <trkpt lat="49.72293" lon="4.82531">
        <ele>188.19</ele>
        <time>2011-02-13T10:22:30Z</time>
      </trkpt>
      <trkpt lat="49.72291" lon="4.82528">
        <ele>188.16</ele>
        <time>2011-02-13T10:22:32Z</time>
      </trkpt>
      <trkpt lat="49.72291" lon="4.82526">
        <ele>188.13</ele>
        <time>2011-02-13T10:22:33Z</time>
      </trkpt>
      <trkpt lat="49.7229" lon="4.82524">
        <ele>188.02</ele>
        <time>2011-02-13T10:22:35Z</time>
      </trkpt>
      <trkpt lat="49.72289" lon="4.82522">
        <ele>187.87</ele>
        <time>2011-02-13T10:22:37Z</time>
      </trkpt>
      <trkpt lat="49.72288" lon="4.82519">
        <ele>187.84</ele>
        <time>2011-02-13T10:22:39Z</time>
      </trkpt>
      <trkpt lat="49.72287" lon="4.82517">
        <ele>187.87</ele>
        <time>2011-02-13T10:22:41Z</time>
      </trkpt>
      <trkpt lat="49.72286" lon="4.82515">
        <ele>187.87</ele>
        <time>2011-02-13T10:22:42Z</time>
      </trkpt>
      <trkpt lat="49.72285" lon="4.82513">
        <ele>187.85</ele>
        <time>2011-02-13T10:22:44Z</time>
      </trkpt>
      <trkpt lat="49.72284" lon="4.82512">
        <ele>187.84</ele>
        <time>2011-02-13T10:22:45Z</time>
      </trkpt>
      <trkpt lat="49.72282" lon="4.82511">
        <ele>187.78</ele>
        <time>2011-02-13T10:22:47Z</time>
      </trkpt>
      <trkpt lat="49.72281" lon="4.82509">
        <ele>187.63</ele>
        <time>2011-02-13T10:22:49Z</time>
      </trkpt>
      <trkpt lat="49.7228" lon="4.82508">
        <ele>187.5</ele>
        <time>2011-02-13T10:22:50Z</time>
      </trkpt>
      <trkpt lat="49.72279" lon="4.82506">
        <ele>187.18</ele>
        <time>2011-02-13T10:22:52Z</time>
      </trkpt>
      <trkpt lat="49.72278" lon="4.82502">
        <ele>186.92</ele>
        <time>2011-02-13T10:22:54Z</time>
      </trkpt>
      <trkpt lat="49.72277" lon="4.82501">
        <ele>186.8</ele>
        <time>2011-02-13T10:22:55Z</time>
      </trkpt>
      <trkpt lat="49.72276" lon="4.82499">
        <ele>186.75</ele>
        <time>2011-02-13T10:22:56Z</time>
      </trkpt>
      <trkpt lat="49.72275" lon="4.82496">
        <ele>186.78</ele>
        <time>2011-02-13T10:22:58Z</time>
      </trkpt>
      <trkpt lat="49.72275" lon="4.82495">
        <ele>186.87</ele>
        <time>2011-02-13T10:22:59Z</time>
      </trkpt>
      <trkpt lat="49.72275" lon="4.82493">
        <ele>187.04</ele>
        <time>2011-02-13T10:23:01Z</time>
      </trkpt>
      <trkpt lat="49.72274" lon="4.82492">
        <ele>187.16</ele>
        <time>2011-02-13T10:23:03Z</time>
      </trkpt>
      <trkpt lat="49.72274" lon="4.82491">
        <ele>187.18</ele>
        <time>2011-02-13T10:23:04Z</time>
      </trkpt>
      <trkpt lat="49.72273" lon="4.82489">
        <ele>187.17</ele>
        <time>2011-02-13T10:23:06Z</time>
      </trkpt>
      <trkpt lat="49.72273" lon="4.82487">
        <ele>187.13</ele>
        <time>2011-02-13T10:23:07Z</time>
      </trkpt>
      <trkpt lat="49.72272" lon="4.82484">
        <ele>186.91</ele>
        <time>2011-02-13T10:23:09Z</time>
      </trkpt>
      <trkpt lat="49.72271" lon="4.82482">
        <ele>186.89</ele>
        <time>2011-02-13T10:23:10Z</time>
      </trkpt>
      <trkpt lat="49.7227" lon="4.8248">
        <ele>186.92</ele>
        <time>2011-02-13T10:23:12Z</time>
      </trkpt>
      <trkpt lat="49.72268" lon="4.82477">
        <ele>187.01</ele>
        <time>2011-02-13T10:23:14Z</time>
      </trkpt>
      <trkpt lat="49.72267" lon="4.82476">
        <ele>187.058</ele>
        <time>2011-02-13T10:23:16Z</time>
      </trkpt>
      <trkpt lat="49.72267" lon="4.82475">
        <ele>187.059</ele>
        <time>2011-02-13T10:23:17Z</time>
      </trkpt>
      <trkpt lat="49.72266" lon="4.82474">
        <ele>187.099</ele>
        <time>2011-02-13T10:23:19Z</time>
      </trkpt>
      <trkpt lat="49.72266" lon="4.82472">
        <ele>187.02</ele>
        <time>2011-02-13T10:23:21Z</time>
      </trkpt>
      <trkpt lat="49.72266" lon="4.82472">
        <ele>186.963</ele>
        <time>2011-02-13T10:23:22Z</time>
      </trkpt>
      <trkpt lat="49.72266" lon="4.82471">
        <ele>186.909</ele>
        <time>2011-02-13T10:23:24Z</time>
      </trkpt>
      <trkpt lat="49.72266" lon="4.82471">
        <ele>186.99</ele>
        <time>2011-02-13T10:23:26Z</time>
      </trkpt>
      <trkpt lat="49.72266" lon="4.82471">
        <ele>187.07</ele>
        <time>2011-02-13T10:23:27Z</time>
      </trkpt>
      <trkpt lat="49.72266" lon="4.82471">
        <ele>187.16</ele>
        <time>2011-02-13T10:23:29Z</time>
      </trkpt>
      <trkpt lat="49.72265" lon="4.8247">
        <ele>187.31</ele>
        <time>2011-02-13T10:23:30Z</time>
      </trkpt>
      <trkpt lat="49.72265" lon="4.8247">
        <ele>187.47</ele>
        <time>2011-02-13T10:23:31Z</time>
      </trkpt>
      <trkpt lat="49.72265" lon="4.8247">
        <ele>187.53</ele>
        <time>2011-02-13T10:23:33Z</time>
      </trkpt>
      <trkpt lat="49.72264" lon="4.82469">
        <ele>187.61</ele>
        <time>2011-02-13T10:23:34Z</time>
      </trkpt>
      <trkpt lat="49.72264" lon="4.82469">
        <ele>187.65</ele>
        <time>2011-02-13T10:23:36Z</time>
      </trkpt>
      <trkpt lat="49.72265" lon="4.82469">
        <ele>187.58</ele>
        <time>2011-02-13T10:23:38Z</time>
      </trkpt>
      <trkpt lat="49.72265" lon="4.82468">
        <ele>187.16</ele>
        <time>2011-02-13T10:23:40Z</time>
      </trkpt>
      <trkpt lat="49.72265" lon="4.82467">
        <ele>186.53</ele>
        <time>2011-02-13T10:23:41Z</time>
      </trkpt>
      <trkpt lat="49.72265" lon="4.82466">
        <ele>186.16</ele>
        <time>2011-02-13T10:23:43Z</time>
      </trkpt>
      <trkpt lat="49.72265" lon="4.82466">
        <ele>185.44</ele>
        <time>2011-02-13T10:23:44Z</time>
      </trkpt>
      <trkpt lat="49.72265" lon="4.82466">
        <ele>184.73</ele>
        <time>2011-02-13T10:23:46Z</time>
      </trkpt>
      <trkpt lat="49.72265" lon="4.82466">
        <ele>184.54</ele>
        <time>2011-02-13T10:23:47Z</time>
      </trkpt>
      <trkpt lat="49.72264" lon="4.82465">
        <ele>184.48</ele>
        <time>2011-02-13T10:23:48Z</time>
      </trkpt>
      <trkpt lat="49.72263" lon="4.82462">
        <ele>184.67</ele>
        <time>2011-02-13T10:23:50Z</time>
      </trkpt>
      <trkpt lat="49.72262" lon="4.82461">
        <ele>184.81</ele>
        <time>2011-02-13T10:23:51Z</time>
      </trkpt>
      <trkpt lat="49.7226" lon="4.82458">
        <ele>185.1</ele>
        <time>2011-02-13T10:23:53Z</time>
      </trkpt>
      <trkpt lat="49.72259" lon="4.82455">
        <ele>185.37</ele>
        <time>2011-02-13T10:23:55Z</time>
      </trkpt>
      <trkpt lat="49.72258" lon="4.82453">
        <ele>185.656</ele>
        <time>2011-02-13T10:23:56Z</time>
      </trkpt>
      <trkpt lat="49.72256" lon="4.8245">
        <ele>186.07</ele>
        <time>2011-02-13T10:23:58Z</time>
      </trkpt>
      <trkpt lat="49.72255" lon="4.82446">
        <ele>186.151</ele>
        <time>2011-02-13T10:24:00Z</time>
      </trkpt>
      <trkpt lat="49.72255" lon="4.82444">
        <ele>186.241</ele>
        <time>2011-02-13T10:24:02Z</time>
      </trkpt>
      <trkpt lat="49.72255" lon="4.82443">
        <ele>186.383</ele>
        <time>2011-02-13T10:24:03Z</time>
      </trkpt>
      <trkpt lat="49.72255" lon="4.82442">
        <ele>186.696</ele>
        <time>2011-02-13T10:24:05Z</time>
      </trkpt>
      <trkpt lat="49.72255" lon="4.82442">
        <ele>186.7</ele>
        <time>2011-02-13T10:24:06Z</time>
      </trkpt>
      <trkpt lat="49.72255" lon="4.82441">
        <ele>186.7</ele>
        <time>2011-02-13T10:24:07Z</time>
      </trkpt>
      <trkpt lat="49.72255" lon="4.82441">
        <ele>186.78</ele>
        <time>2011-02-13T10:24:09Z</time>
      </trkpt>
      <trkpt lat="49.72255" lon="4.82441">
        <ele>186.88</ele>
        <time>2011-02-13T10:24:10Z</time>
      </trkpt>
      <trkpt lat="49.72255" lon="4.82441">
        <ele>186.98</ele>
        <time>2011-02-13T10:24:11Z</time>
      </trkpt>
      <trkpt lat="49.72254" lon="4.8244">
        <ele>187.1</ele>
        <time>2011-02-13T10:24:12Z</time>
      </trkpt>
      <trkpt lat="49.72254" lon="4.8244">
        <ele>187.13</ele>
        <time>2011-02-13T10:24:14Z</time>
      </trkpt>
      <trkpt lat="49.72254" lon="4.8244">
        <ele>187.15</ele>
        <time>2011-02-13T10:24:15Z</time>
      </trkpt>
      <trkpt lat="49.72254" lon="4.82441">
        <ele>187.09</ele>
        <time>2011-02-13T10:24:17Z</time>
      </trkpt>
      <trkpt lat="49.72253" lon="4.82441">
        <ele>187</ele>
        <time>2011-02-13T10:24:18Z</time>
      </trkpt>
      <trkpt lat="49.72252" lon="4.8244">
        <ele>186.86</ele>
        <time>2011-02-13T10:24:20Z</time>
      </trkpt>
      <trkpt lat="49.72252" lon="4.82439">
        <ele>186.79</ele>
        <time>2011-02-13T10:24:22Z</time>
      </trkpt>
      <trkpt lat="49.72251" lon="4.82439">
        <ele>186.82</ele>
        <time>2011-02-13T10:24:23Z</time>
      </trkpt>
      <trkpt lat="49.72251" lon="4.82439">
        <ele>186.85</ele>
        <time>2011-02-13T10:24:25Z</time>
      </trkpt>
      <trkpt lat="49.72251" lon="4.82438">
        <ele>186.98</ele>
        <time>2011-02-13T10:24:26Z</time>
      </trkpt>
      <trkpt lat="49.7225" lon="4.82437">
        <ele>186.93</ele>
        <time>2011-02-13T10:24:28Z</time>
      </trkpt>
      <trkpt lat="49.7225" lon="4.82434">
        <ele>186.9</ele>
        <time>2011-02-13T10:24:30Z</time>
      </trkpt>
      <trkpt lat="49.72251" lon="4.8243">
        <ele>186.87</ele>
        <time>2011-02-13T10:24:32Z</time>
      </trkpt>
      <trkpt lat="49.72251" lon="4.82428">
        <ele>186.88</ele>
        <time>2011-02-13T10:24:34Z</time>
      </trkpt>
      <trkpt lat="49.72251" lon="4.82427">
        <ele>187.01</ele>
        <time>2011-02-13T10:24:35Z</time>
      </trkpt>
      <trkpt lat="49.7225" lon="4.82425">
        <ele>187.19</ele>
        <time>2011-02-13T10:24:36Z</time>
      </trkpt>
      <trkpt lat="49.72249" lon="4.82422">
        <ele>187.64</ele>
        <time>2011-02-13T10:24:38Z</time>
      </trkpt>
      <trkpt lat="49.72246" lon="4.82419">
        <ele>188.17</ele>
        <time>2011-02-13T10:24:40Z</time>
      </trkpt>
      <trkpt lat="49.72245" lon="4.82418">
        <ele>188.44</ele>
        <time>2011-02-13T10:24:41Z</time>
      </trkpt>
      <trkpt lat="49.72243" lon="4.82415">
        <ele>188.99</ele>
        <time>2011-02-13T10:24:43Z</time>
      </trkpt>
      <trkpt lat="49.72242" lon="4.82414">
        <ele>189.23</ele>
        <time>2011-02-13T10:24:44Z</time>
      </trkpt>
      <trkpt lat="49.7224" lon="4.82412">
        <ele>189.5</ele>
        <time>2011-02-13T10:24:46Z</time>
      </trkpt>
      <trkpt lat="49.72239" lon="4.82411">
        <ele>189.64</ele>
        <time>2011-02-13T10:24:47Z</time>
      </trkpt>
      <trkpt lat="49.72238" lon="4.8241">
        <ele>189.8</ele>
        <time>2011-02-13T10:24:48Z</time>
      </trkpt>
      <trkpt lat="49.72238" lon="4.82406">
        <ele>190.33</ele>
        <time>2011-02-13T10:24:50Z</time>
      </trkpt>
      <trkpt lat="49.72237" lon="4.82403">
        <ele>190.9</ele>
        <time>2011-02-13T10:24:52Z</time>
      </trkpt>
      <trkpt lat="49.72235" lon="4.82401">
        <ele>191.57</ele>
        <time>2011-02-13T10:24:54Z</time>
      </trkpt>
      <trkpt lat="49.72235" lon="4.824">
        <ele>191.89</ele>
        <time>2011-02-13T10:24:55Z</time>
      </trkpt>
      <trkpt lat="49.72234" lon="4.82399">
        <ele>192.13</ele>
        <time>2011-02-13T10:24:56Z</time>
      </trkpt>
      <trkpt lat="49.72234" lon="4.82398">
        <ele>192.36</ele>
        <time>2011-02-13T10:24:57Z</time>
      </trkpt>
      <trkpt lat="49.72233" lon="4.82396">
        <ele>192.9</ele>
        <time>2011-02-13T10:24:59Z</time>
      </trkpt>
      <trkpt lat="49.72233" lon="4.82394">
        <ele>193.4</ele>
        <time>2011-02-13T10:25:01Z</time>
      </trkpt>
      <trkpt lat="49.72232" lon="4.82394">
        <ele>193.92</ele>
        <time>2011-02-13T10:25:03Z</time>
      </trkpt>
      <trkpt lat="49.72231" lon="4.82394">
        <ele>194.16</ele>
        <time>2011-02-13T10:25:04Z</time>
      </trkpt>
      <trkpt lat="49.72231" lon="4.82395">
        <ele>194.4</ele>
        <time>2011-02-13T10:25:05Z</time>
      </trkpt>
      <trkpt lat="49.7223" lon="4.82393">
        <ele>195.391</ele>
        <time>2011-02-13T10:25:07Z</time>
      </trkpt>
      <trkpt lat="49.72229" lon="4.82393">
        <ele>195.977</ele>
        <time>2011-02-13T10:25:08Z</time>
      </trkpt>
      <trkpt lat="49.72227" lon="4.82391">
        <ele>196.931</ele>
        <time>2011-02-13T10:25:10Z</time>
      </trkpt>
      <trkpt lat="49.72226" lon="4.82391">
        <ele>197.718</ele>
        <time>2011-02-13T10:25:12Z</time>
      </trkpt>
      <trkpt lat="49.72226" lon="4.82392">
        <ele>198.284</ele>
        <time>2011-02-13T10:25:14Z</time>
      </trkpt>
      <trkpt lat="49.72226" lon="4.82393">
        <ele>198.55</ele>
        <time>2011-02-13T10:25:15Z</time>
      </trkpt>
      <trkpt lat="49.72227" lon="4.82393">
        <ele>198.84</ele>
        <time>2011-02-13T10:25:17Z</time>
      </trkpt>
      <trkpt lat="49.72227" lon="4.82393">
        <ele>198.84</ele>
        <time>2011-02-13T10:25:18Z</time>
      </trkpt>
      <trkpt lat="49.72227" lon="4.82392">
        <ele>198.81</ele>
        <time>2011-02-13T10:25:19Z</time>
      </trkpt>
      <trkpt lat="49.72227" lon="4.82392">
        <ele>198.79</ele>
        <time>2011-02-13T10:25:21Z</time>
      </trkpt>
      <trkpt lat="49.72227" lon="4.82392">
        <ele>198.83</ele>
        <time>2011-02-13T10:25:22Z</time>
      </trkpt>
      <trkpt lat="49.72226" lon="4.82391">
        <ele>198.91</ele>
        <time>2011-02-13T10:25:24Z</time>
      </trkpt>
      <trkpt lat="49.72225" lon="4.82389">
        <ele>198.85</ele>
        <time>2011-02-13T10:25:26Z</time>
      </trkpt>
      <trkpt lat="49.72223" lon="4.82387">
        <ele>198.59</ele>
        <time>2011-02-13T10:25:28Z</time>
      </trkpt>
      <trkpt lat="49.72222" lon="4.82386">
        <ele>198.52</ele>
        <time>2011-02-13T10:25:29Z</time>
      </trkpt>
      <trkpt lat="49.72221" lon="4.82386">
        <ele>198.4</ele>
        <time>2011-02-13T10:25:31Z</time>
      </trkpt>
      <trkpt lat="49.72221" lon="4.82386">
        <ele>198.25</ele>
        <time>2011-02-13T10:25:32Z</time>
      </trkpt>
      <trkpt lat="49.72221" lon="4.82386">
        <ele>198.1</ele>
        <time>2011-02-13T10:25:33Z</time>
      </trkpt>
      <trkpt lat="49.72221" lon="4.82386">
        <ele>197.98</ele>
        <time>2011-02-13T10:25:35Z</time>
      </trkpt>
      <trkpt lat="49.7222" lon="4.82386">
        <ele>198.04</ele>
        <time>2011-02-13T10:25:37Z</time>
      </trkpt>
      <trkpt lat="49.7222" lon="4.82386">
        <ele>198.19</ele>
        <time>2011-02-13T10:25:39Z</time>
      </trkpt>
      <trkpt lat="49.72219" lon="4.82386">
        <ele>198.25</ele>
        <time>2011-02-13T10:25:40Z</time>
      </trkpt>
      <trkpt lat="49.72219" lon="4.82386">
        <ele>198.32</ele>
        <time>2011-02-13T10:25:41Z</time>
      </trkpt>
      <trkpt lat="49.72218" lon="4.82386">
        <ele>198.29</ele>
        <time>2011-02-13T10:25:43Z</time>
      </trkpt>
      <trkpt lat="49.72216" lon="4.82385">
        <ele>198.2</ele>
        <time>2011-02-13T10:25:45Z</time>
      </trkpt>
      <trkpt lat="49.72215" lon="4.82384">
        <ele>198.13</ele>
        <time>2011-02-13T10:25:46Z</time>
      </trkpt>
      <trkpt lat="49.72214" lon="4.82383">
        <ele>197.97</ele>
        <time>2011-02-13T10:25:47Z</time>
      </trkpt>
      <trkpt lat="49.72214" lon="4.82382">
        <ele>197.76</ele>
        <time>2011-02-13T10:25:48Z</time>
      </trkpt>
      <trkpt lat="49.72213" lon="4.82379">
        <ele>197.22</ele>
        <time>2011-02-13T10:25:50Z</time>
      </trkpt>
      <trkpt lat="49.72213" lon="4.82379">
        <ele>196.97</ele>
        <time>2011-02-13T10:25:51Z</time>
      </trkpt>
      <trkpt lat="49.72211" lon="4.82378">
        <ele>196.88</ele>
        <time>2011-02-13T10:25:53Z</time>
      </trkpt>
      <trkpt lat="49.7221" lon="4.82377">
        <ele>197.01</ele>
        <time>2011-02-13T10:25:55Z</time>
      </trkpt>
      <trkpt lat="49.72209" lon="4.82377">
        <ele>197.34</ele>
        <time>2011-02-13T10:25:57Z</time>
      </trkpt>
      <trkpt lat="49.72209" lon="4.82377">
        <ele>197.93</ele>
        <time>2011-02-13T10:25:59Z</time>
      </trkpt>
      <trkpt lat="49.72208" lon="4.82376">
        <ele>198.62</ele>
        <time>2011-02-13T10:26:01Z</time>
      </trkpt>
      <trkpt lat="49.72208" lon="4.82377">
        <ele>198.91</ele>
        <time>2011-02-13T10:26:02Z</time>
      </trkpt>
      <trkpt lat="49.72208" lon="4.82376">
        <ele>199.23</ele>
        <time>2011-02-13T10:26:04Z</time>
      </trkpt>
      <trkpt lat="49.72206" lon="4.82375">
        <ele>199.55</ele>
        <time>2011-02-13T10:26:06Z</time>
      </trkpt>
      <trkpt lat="49.72205" lon="4.82371">
        <ele>200.09</ele>
        <time>2011-02-13T10:26:08Z</time>
      </trkpt>
      <trkpt lat="49.72204" lon="4.8237">
        <ele>200.42</ele>
        <time>2011-02-13T10:26:09Z</time>
      </trkpt>
      <trkpt lat="49.72204" lon="4.82369">
        <ele>200.75</ele>
        <time>2011-02-13T10:26:10Z</time>
      </trkpt>
      <trkpt lat="49.72203" lon="4.82367">
        <ele>201.44</ele>
        <time>2011-02-13T10:26:12Z</time>
      </trkpt>
      <trkpt lat="49.72203" lon="4.82367">
        <ele>202.12</ele>
        <time>2011-02-13T10:26:14Z</time>
      </trkpt>
      <trkpt lat="49.72202" lon="4.82365">
        <ele>202.7</ele>
        <time>2011-02-13T10:26:16Z</time>
      </trkpt>
      <trkpt lat="49.72202" lon="4.82364">
        <ele>202.9</ele>
        <time>2011-02-13T10:26:17Z</time>
      </trkpt>
      <trkpt lat="49.722" lon="4.82362">
        <ele>203.22</ele>
        <time>2011-02-13T10:26:19Z</time>
      </trkpt>
      <trkpt lat="49.72198" lon="4.8236">
        <ele>203.48</ele>
        <time>2011-02-13T10:26:21Z</time>
      </trkpt>
      <trkpt lat="49.72196" lon="4.82359">
        <ele>203.65</ele>
        <time>2011-02-13T10:26:22Z</time>
      </trkpt>
      <trkpt lat="49.72195" lon="4.82358">
        <ele>203.82</ele>
        <time>2011-02-13T10:26:23Z</time>
      </trkpt>
      <trkpt lat="49.72192" lon="4.82357">
        <ele>204.08</ele>
        <time>2011-02-13T10:26:25Z</time>
      </trkpt>
      <trkpt lat="49.7219" lon="4.82356">
        <ele>204.16</ele>
        <time>2011-02-13T10:26:26Z</time>
      </trkpt>
      <trkpt lat="49.72189" lon="4.82354">
        <ele>204.32</ele>
        <time>2011-02-13T10:26:27Z</time>
      </trkpt>
      <trkpt lat="49.72187" lon="4.82352">
        <ele>204.68</ele>
        <time>2011-02-13T10:26:29Z</time>
      </trkpt>
      <trkpt lat="49.72186" lon="4.8235">
        <ele>205.09</ele>
        <time>2011-02-13T10:26:31Z</time>
      </trkpt>
      <trkpt lat="49.72185" lon="4.8235">
        <ele>205.26</ele>
        <time>2011-02-13T10:26:32Z</time>
      </trkpt>
      <trkpt lat="49.72185" lon="4.82348">
        <ele>205.841</ele>
        <time>2011-02-13T10:26:34Z</time>
      </trkpt>
      <trkpt lat="49.72184" lon="4.82347">
        <ele>206.34</ele>
        <time>2011-02-13T10:26:35Z</time>
      </trkpt>
      <trkpt lat="49.72183" lon="4.82345">
        <ele>207.277</ele>
        <time>2011-02-13T10:26:37Z</time>
      </trkpt>
      <trkpt lat="49.72183" lon="4.82345">
        <ele>207.674</ele>
        <time>2011-02-13T10:26:38Z</time>
      </trkpt>
      <trkpt lat="49.72183" lon="4.82344">
        <ele>208.428</ele>
        <time>2011-02-13T10:26:40Z</time>
      </trkpt>
      <trkpt lat="49.72182" lon="4.82345">
        <ele>209.1</ele>
        <time>2011-02-13T10:26:42Z</time>
      </trkpt>
      <trkpt lat="49.72182" lon="4.82345">
        <ele>209.334</ele>
        <time>2011-02-13T10:26:43Z</time>
      </trkpt>
      <trkpt lat="49.72181" lon="4.82346">
        <ele>209.47</ele>
        <time>2011-02-13T10:26:44Z</time>
      </trkpt>
      <trkpt lat="49.7218" lon="4.82346">
        <ele>209.57</ele>
        <time>2011-02-13T10:26:46Z</time>
      </trkpt>
      <trkpt lat="49.7218" lon="4.82347">
        <ele>209.54</ele>
        <time>2011-02-13T10:26:48Z</time>
      </trkpt>
      <trkpt lat="49.72179" lon="4.82347">
        <ele>209.51</ele>
        <time>2011-02-13T10:26:49Z</time>
      </trkpt>
      <trkpt lat="49.72179" lon="4.82348">
        <ele>209.45</ele>
        <time>2011-02-13T10:26:51Z</time>
      </trkpt>
      <trkpt lat="49.72179" lon="4.82347">
        <ele>209.57</ele>
        <time>2011-02-13T10:26:52Z</time>
      </trkpt>
      <trkpt lat="49.72179" lon="4.82346">
        <ele>209.8</ele>
        <time>2011-02-13T10:26:54Z</time>
      </trkpt>
      <trkpt lat="49.7218" lon="4.82345">
        <ele>209.92</ele>
        <time>2011-02-13T10:26:55Z</time>
      </trkpt>
      <trkpt lat="49.7218" lon="4.82344">
        <ele>210.03</ele>
        <time>2011-02-13T10:26:58Z</time>
      </trkpt>
      <trkpt lat="49.7218" lon="4.82342">
        <ele>210.22</ele>
        <time>2011-02-13T10:26:59Z</time>
      </trkpt>
      <trkpt lat="49.72178" lon="4.82342">
        <ele>210.48</ele>
        <time>2011-02-13T10:27:01Z</time>
      </trkpt>
      <trkpt lat="49.72176" lon="4.82343">
        <ele>210.58</ele>
        <time>2011-02-13T10:27:03Z</time>
      </trkpt>
      <trkpt lat="49.72174" lon="4.82343">
        <ele>210.58</ele>
        <time>2011-02-13T10:27:05Z</time>
      </trkpt>
      <trkpt lat="49.72173" lon="4.82343">
        <ele>210.6</ele>
        <time>2011-02-13T10:27:06Z</time>
      </trkpt>
      <trkpt lat="49.72173" lon="4.82343">
        <ele>210.72</ele>
        <time>2011-02-13T10:27:08Z</time>
      </trkpt>
      <trkpt lat="49.72173" lon="4.82344">
        <ele>210.69</ele>
        <time>2011-02-13T10:27:09Z</time>
      </trkpt>
      <trkpt lat="49.72173" lon="4.82344">
        <ele>210.52</ele>
        <time>2011-02-13T10:27:11Z</time>
      </trkpt>
      <trkpt lat="49.72173" lon="4.82344">
        <ele>210.41</ele>
        <time>2011-02-13T10:27:12Z</time>
      </trkpt>
      <trkpt lat="49.72173" lon="4.82343">
        <ele>210.32</ele>
        <time>2011-02-13T10:27:14Z</time>
      </trkpt>
      <trkpt lat="49.72173" lon="4.82343">
        <ele>210.3</ele>
        <time>2011-02-13T10:27:15Z</time>
      </trkpt>
      <trkpt lat="49.72173" lon="4.82343">
        <ele>210.29</ele>
        <time>2011-02-13T10:27:16Z</time>
      </trkpt>
      <trkpt lat="49.72173" lon="4.82343">
        <ele>210.27</ele>
        <time>2011-02-13T10:27:18Z</time>
      </trkpt>
      <trkpt lat="49.72172" lon="4.82343">
        <ele>210.23</ele>
        <time>2011-02-13T10:27:20Z</time>
      </trkpt>
      <trkpt lat="49.72172" lon="4.82342">
        <ele>210.24</ele>
        <time>2011-02-13T10:27:21Z</time>
      </trkpt>
      <trkpt lat="49.72169" lon="4.82341">
        <ele>210.17</ele>
        <time>2011-02-13T10:27:23Z</time>
      </trkpt>
      <trkpt lat="49.72167" lon="4.8234">
        <ele>209.95</ele>
        <time>2011-02-13T10:27:24Z</time>
      </trkpt>
      <trkpt lat="49.72166" lon="4.8234">
        <ele>209.8</ele>
        <time>2011-02-13T10:27:25Z</time>
      </trkpt>
      <trkpt lat="49.72164" lon="4.82339">
        <ele>209.63</ele>
        <time>2011-02-13T10:27:27Z</time>
      </trkpt>
      <trkpt lat="49.72163" lon="4.82338">
        <ele>209.79</ele>
        <time>2011-02-13T10:27:28Z</time>
      </trkpt>
      <trkpt lat="49.72163" lon="4.82335">
        <ele>210.16</ele>
        <time>2011-02-13T10:27:30Z</time>
      </trkpt>
      <trkpt lat="49.72162" lon="4.82334">
        <ele>210.35</ele>
        <time>2011-02-13T10:27:31Z</time>
      </trkpt>
      <trkpt lat="49.72161" lon="4.82334">
        <ele>210.83</ele>
        <time>2011-02-13T10:27:32Z</time>
      </trkpt>
      <trkpt lat="49.72161" lon="4.82335">
        <ele>211.04</ele>
        <time>2011-02-13T10:27:34Z</time>
      </trkpt>
      <trkpt lat="49.7216" lon="4.82335">
        <ele>211.5</ele>
        <time>2011-02-13T10:27:35Z</time>
      </trkpt>
      <trkpt lat="49.72159" lon="4.82335">
        <ele>211.52</ele>
        <time>2011-02-13T10:27:37Z</time>
      </trkpt>
      <trkpt lat="49.72158" lon="4.82334">
        <ele>211.4</ele>
        <time>2011-02-13T10:27:38Z</time>
      </trkpt>
      <trkpt lat="49.72156" lon="4.82331">
        <ele>211.16</ele>
        <time>2011-02-13T10:27:40Z</time>
      </trkpt>
      <trkpt lat="49.72154" lon="4.8233">
        <ele>211.19</ele>
        <time>2011-02-13T10:27:42Z</time>
      </trkpt>
      <trkpt lat="49.72154" lon="4.82329">
        <ele>211.277</ele>
        <time>2011-02-13T10:27:43Z</time>
      </trkpt>
      <trkpt lat="49.72152" lon="4.82327">
        <ele>211.492</ele>
        <time>2011-02-13T10:27:45Z</time>
      </trkpt>
      <trkpt lat="49.72152" lon="4.82326">
        <ele>211.658</ele>
        <time>2011-02-13T10:27:46Z</time>
      </trkpt>
      <trkpt lat="49.7215" lon="4.82324">
        <ele>212.093</ele>
        <time>2011-02-13T10:27:48Z</time>
      </trkpt>
      <trkpt lat="49.7215" lon="4.82324">
        <ele>212.311</ele>
        <time>2011-02-13T10:27:49Z</time>
      </trkpt>
      <trkpt lat="49.72149" lon="4.82323">
        <ele>212.488</ele>
        <time>2011-02-13T10:27:51Z</time>
      </trkpt>
      <trkpt lat="49.72148" lon="4.82323">
        <ele>212.488</ele>
        <time>2011-02-13T10:27:52Z</time>
      </trkpt>
      <trkpt lat="49.72147" lon="4.82323">
        <ele>212.27</ele>
        <time>2011-02-13T10:27:54Z</time>
      </trkpt>
      <trkpt lat="49.72147" lon="4.82322">
        <ele>212.09</ele>
        <time>2011-02-13T10:27:55Z</time>
      </trkpt>
      <trkpt lat="49.72146" lon="4.82321">
        <ele>211.55</ele>
        <time>2011-02-13T10:27:57Z</time>
      </trkpt>
      <trkpt lat="49.72145" lon="4.8232">
        <ele>210.98</ele>
        <time>2011-02-13T10:27:59Z</time>
      </trkpt>
      <trkpt lat="49.72144" lon="4.8232">
        <ele>210.61</ele>
        <time>2011-02-13T10:28:00Z</time>
      </trkpt>
      <trkpt lat="49.72144" lon="4.8232">
        <ele>210.4</ele>
        <time>2011-02-13T10:28:02Z</time>
      </trkpt>
      <trkpt lat="49.72143" lon="4.8232">
        <ele>210.36</ele>
        <time>2011-02-13T10:28:03Z</time>
      </trkpt>
      <trkpt lat="49.72143" lon="4.82319">
        <ele>210.59</ele>
        <time>2011-02-13T10:28:05Z</time>
      </trkpt>
      <trkpt lat="49.72142" lon="4.82319">
        <ele>210.93</ele>
        <time>2011-02-13T10:28:07Z</time>
      </trkpt>
      <trkpt lat="49.72141" lon="4.82318">
        <ele>211.37</ele>
        <time>2011-02-13T10:28:09Z</time>
      </trkpt>
      <trkpt lat="49.7214" lon="4.82318">
        <ele>211.87</ele>
        <time>2011-02-13T10:28:10Z</time>
      </trkpt>
      <trkpt lat="49.72139" lon="4.82317">
        <ele>212.41</ele>
        <time>2011-02-13T10:28:12Z</time>
      </trkpt>
      <trkpt lat="49.72138" lon="4.82316">
        <ele>212.63</ele>
        <time>2011-02-13T10:28:13Z</time>
      </trkpt>
      <trkpt lat="49.72136" lon="4.82315">
        <ele>212.96</ele>
        <time>2011-02-13T10:28:15Z</time>
      </trkpt>
      <trkpt lat="49.72135" lon="4.82314">
        <ele>213.1</ele>
        <time>2011-02-13T10:28:16Z</time>
      </trkpt>
      <trkpt lat="49.72135" lon="4.82313">
        <ele>213.22</ele>
        <time>2011-02-13T10:28:17Z</time>
      </trkpt>
      <trkpt lat="49.72132" lon="4.82311">
        <ele>213.53</ele>
        <time>2011-02-13T10:28:19Z</time>
      </trkpt>
      <trkpt lat="49.72129" lon="4.82309">
        <ele>213.83</ele>
        <time>2011-02-13T10:28:21Z</time>
      </trkpt>
      <trkpt lat="49.72128" lon="4.82309">
        <ele>214.09</ele>
        <time>2011-02-13T10:28:23Z</time>
      </trkpt>
      <trkpt lat="49.72126" lon="4.82309">
        <ele>214.3</ele>
        <time>2011-02-13T10:28:25Z</time>
      </trkpt>
      <trkpt lat="49.72124" lon="4.82307">
        <ele>214.7</ele>
        <time>2011-02-13T10:28:27Z</time>
      </trkpt>
      <trkpt lat="49.72124" lon="4.82306">
        <ele>214.89</ele>
        <time>2011-02-13T10:28:28Z</time>
      </trkpt>
      <trkpt lat="49.72123" lon="4.82304">
        <ele>215.35</ele>
        <time>2011-02-13T10:28:30Z</time>
      </trkpt>
      <trkpt lat="49.72123" lon="4.82304">
        <ele>215.72</ele>
        <time>2011-02-13T10:28:31Z</time>
      </trkpt>
      <trkpt lat="49.72122" lon="4.82303">
        <ele>216.41</ele>
        <time>2011-02-13T10:28:33Z</time>
      </trkpt>
      <trkpt lat="49.7212" lon="4.82302">
        <ele>217.02</ele>
        <time>2011-02-13T10:28:35Z</time>
      </trkpt>
      <trkpt lat="49.7212" lon="4.82301">
        <ele>217.37</ele>
        <time>2011-02-13T10:28:37Z</time>
      </trkpt>
      <trkpt lat="49.72119" lon="4.82301">
        <ele>217.47</ele>
        <time>2011-02-13T10:28:38Z</time>
      </trkpt>
      <trkpt lat="49.72119" lon="4.823">
        <ele>217.4</ele>
        <time>2011-02-13T10:28:39Z</time>
      </trkpt>
      <trkpt lat="49.72117" lon="4.823">
        <ele>216.78</ele>
        <time>2011-02-13T10:28:41Z</time>
      </trkpt>
      <trkpt lat="49.72115" lon="4.823">
        <ele>216.42</ele>
        <time>2011-02-13T10:28:42Z</time>
      </trkpt>
      <trkpt lat="49.72113" lon="4.82299">
        <ele>215.74</ele>
        <time>2011-02-13T10:28:44Z</time>
      </trkpt>
      <trkpt lat="49.7211" lon="4.82297">
        <ele>215.21</ele>
        <time>2011-02-13T10:28:46Z</time>
      </trkpt>
      <trkpt lat="49.72109" lon="4.82294">
        <ele>214.74</ele>
        <time>2011-02-13T10:28:48Z</time>
      </trkpt>
      <trkpt lat="49.72107" lon="4.82291">
        <ele>215.17</ele>
        <time>2011-02-13T10:28:50Z</time>
      </trkpt>
      <trkpt lat="49.72107" lon="4.82289">
        <ele>215.49</ele>
        <time>2011-02-13T10:28:51Z</time>
      </trkpt>
      <trkpt lat="49.72106" lon="4.82286">
        <ele>216.17</ele>
        <time>2011-02-13T10:28:53Z</time>
      </trkpt>
      <trkpt lat="49.72106" lon="4.82284">
        <ele>216.86</ele>
        <time>2011-02-13T10:28:55Z</time>
      </trkpt>
      <trkpt lat="49.72106" lon="4.82283">
        <ele>217.19</ele>
        <time>2011-02-13T10:28:56Z</time>
      </trkpt>
      <trkpt lat="49.72106" lon="4.82283">
        <ele>217.87</ele>
        <time>2011-02-13T10:28:58Z</time>
      </trkpt>
      <trkpt lat="49.72106" lon="4.82282">
        <ele>218.09</ele>
        <time>2011-02-13T10:29:00Z</time>
      </trkpt>
      <trkpt lat="49.72106" lon="4.82282">
        <ele>218.16</ele>
        <time>2011-02-13T10:29:01Z</time>
      </trkpt>
      <trkpt lat="49.72107" lon="4.82281">
        <ele>218.31</ele>
        <time>2011-02-13T10:29:03Z</time>
      </trkpt>
      <trkpt lat="49.72107" lon="4.82281">
        <ele>218.37</ele>
        <time>2011-02-13T10:29:04Z</time>
      </trkpt>
      <trkpt lat="49.72107" lon="4.82281">
        <ele>218.35</ele>
        <time>2011-02-13T10:29:05Z</time>
      </trkpt>
      <trkpt lat="49.72107" lon="4.8228">
        <ele>218.3</ele>
        <time>2011-02-13T10:29:06Z</time>
      </trkpt>
      <trkpt lat="49.72107" lon="4.82279">
        <ele>218.13</ele>
        <time>2011-02-13T10:29:08Z</time>
      </trkpt>
      <trkpt lat="49.72108" lon="4.82279">
        <ele>217.99</ele>
        <time>2011-02-13T10:29:10Z</time>
      </trkpt>
      <trkpt lat="49.72108" lon="4.82278">
        <ele>217.76</ele>
        <time>2011-02-13T10:29:12Z</time>
      </trkpt>
      <trkpt lat="49.72108" lon="4.82277">
        <ele>217.62</ele>
        <time>2011-02-13T10:29:13Z</time>
      </trkpt>
      <trkpt lat="49.72108" lon="4.82276">
        <ele>217.44</ele>
        <time>2011-02-13T10:29:15Z</time>
      </trkpt>
      <trkpt lat="49.72107" lon="4.82275">
        <ele>217.355</ele>
        <time>2011-02-13T10:29:17Z</time>
      </trkpt>
      <trkpt lat="49.72106" lon="4.82273">
        <ele>217.131</ele>
        <time>2011-02-13T10:29:19Z</time>
      </trkpt>
      <trkpt lat="49.72105" lon="4.8227">
        <ele>216.611</ele>
        <time>2011-02-13T10:29:21Z</time>
      </trkpt>
      <trkpt lat="49.72104" lon="4.82268">
        <ele>216.387</ele>
        <time>2011-02-13T10:29:22Z</time>
      </trkpt>
      <trkpt lat="49.72103" lon="4.82265">
        <ele>215.939</ele>
        <time>2011-02-13T10:29:24Z</time>
      </trkpt>
      <trkpt lat="49.72101" lon="4.82262">
        <ele>215.51</ele>
        <time>2011-02-13T10:29:26Z</time>
      </trkpt>
      <trkpt lat="49.721" lon="4.82261">
        <ele>215.2</ele>
        <time>2011-02-13T10:29:28Z</time>
      </trkpt>
      <trkpt lat="49.721" lon="4.82261">
        <ele>215.13</ele>
        <time>2011-02-13T10:29:29Z</time>
      </trkpt>
      <trkpt lat="49.721" lon="4.8226">
        <ele>215.14</ele>
        <time>2011-02-13T10:29:30Z</time>
      </trkpt>
      <trkpt lat="49.721" lon="4.8226">
        <ele>215.22</ele>
        <time>2011-02-13T10:29:32Z</time>
      </trkpt>
      <trkpt lat="49.721" lon="4.82258">
        <ele>215.2</ele>
        <time>2011-02-13T10:29:34Z</time>
      </trkpt>
      <trkpt lat="49.721" lon="4.82256">
        <ele>215.12</ele>
        <time>2011-02-13T10:29:36Z</time>
      </trkpt>
      <trkpt lat="49.72099" lon="4.82255">
        <ele>215</ele>
        <time>2011-02-13T10:29:38Z</time>
      </trkpt>
      <trkpt lat="49.72098" lon="4.82254">
        <ele>215.08</ele>
        <time>2011-02-13T10:29:39Z</time>
      </trkpt>
      <trkpt lat="49.72098" lon="4.82253">
        <ele>214.85</ele>
        <time>2011-02-13T10:29:42Z</time>
      </trkpt>
      <trkpt lat="49.72098" lon="4.82251">
        <ele>214.6</ele>
        <time>2011-02-13T10:29:43Z</time>
      </trkpt>
      <trkpt lat="49.72098" lon="4.8225">
        <ele>214.54</ele>
        <time>2011-02-13T10:29:44Z</time>
      </trkpt>
      <trkpt lat="49.72097" lon="4.82249">
        <ele>214.46</ele>
        <time>2011-02-13T10:29:45Z</time>
      </trkpt>
      <trkpt lat="49.72097" lon="4.82248">
        <ele>213.94</ele>
        <time>2011-02-13T10:29:47Z</time>
      </trkpt>
      <trkpt lat="49.72095" lon="4.82247">
        <ele>213.31</ele>
        <time>2011-02-13T10:29:49Z</time>
      </trkpt>
      <trkpt lat="49.72094" lon="4.82247">
        <ele>212.99</ele>
        <time>2011-02-13T10:29:50Z</time>
      </trkpt>
      <trkpt lat="49.72093" lon="4.82247">
        <ele>212.78</ele>
        <time>2011-02-13T10:29:52Z</time>
      </trkpt>
      <trkpt lat="49.72091" lon="4.82246">
        <ele>212.54</ele>
        <time>2011-02-13T10:29:54Z</time>
      </trkpt>
      <trkpt lat="49.7209" lon="4.82244">
        <ele>212.58</ele>
        <time>2011-02-13T10:29:55Z</time>
      </trkpt>
      <trkpt lat="49.72089" lon="4.82241">
        <ele>212.65</ele>
        <time>2011-02-13T10:29:56Z</time>
      </trkpt>
      <trkpt lat="49.72088" lon="4.82237">
        <ele>213.1</ele>
        <time>2011-02-13T10:29:58Z</time>
      </trkpt>
      <trkpt lat="49.72087" lon="4.82234">
        <ele>213.39</ele>
        <time>2011-02-13T10:29:59Z</time>
      </trkpt>
      <trkpt lat="49.72084" lon="4.82229">
        <ele>214.78</ele>
        <time>2011-02-13T10:30:01Z</time>
      </trkpt>
      <trkpt lat="49.72083" lon="4.82226">
        <ele>215.62</ele>
        <time>2011-02-13T10:30:02Z</time>
      </trkpt>
      <trkpt lat="49.72082" lon="4.82224">
        <ele>216.49</ele>
        <time>2011-02-13T10:30:03Z</time>
      </trkpt>
      <trkpt lat="49.7208" lon="4.82222">
        <ele>217.37</ele>
        <time>2011-02-13T10:30:04Z</time>
      </trkpt>
      <trkpt lat="49.72078" lon="4.82219">
        <ele>219.12</ele>
        <time>2011-02-13T10:30:05Z</time>
      </trkpt>
      <trkpt lat="49.72078" lon="4.82218">
        <ele>219.9</ele>
        <time>2011-02-13T10:30:07Z</time>
      </trkpt>
      <trkpt lat="49.72077" lon="4.82217">
        <ele>221.34</ele>
        <time>2011-02-13T10:30:08Z</time>
      </trkpt>
      <trkpt lat="49.72077" lon="4.82216">
        <ele>221.82</ele>
        <time>2011-02-13T10:30:10Z</time>
      </trkpt>
      <trkpt lat="49.72076" lon="4.82216">
        <ele>221.99</ele>
        <time>2011-02-13T10:30:12Z</time>
      </trkpt>
      <trkpt lat="49.72075" lon="4.82214">
        <ele>222.02</ele>
        <time>2011-02-13T10:30:14Z</time>
      </trkpt>
      <trkpt lat="49.72074" lon="4.82211">
        <ele>221.81</ele>
        <time>2011-02-13T10:30:16Z</time>
      </trkpt>
      <trkpt lat="49.72074" lon="4.8221">
        <ele>221.68</ele>
        <time>2011-02-13T10:30:17Z</time>
      </trkpt>
      <trkpt lat="49.72073" lon="4.82209">
        <ele>221.54</ele>
        <time>2011-02-13T10:30:18Z</time>
      </trkpt>
      <trkpt lat="49.72072" lon="4.82206">
        <ele>221.37</ele>
        <time>2011-02-13T10:30:20Z</time>
      </trkpt>
      <trkpt lat="49.72071" lon="4.82204">
        <ele>221.25</ele>
        <time>2011-02-13T10:30:21Z</time>
      </trkpt>
      <trkpt lat="49.72071" lon="4.82199">
        <ele>220.9</ele>
        <time>2011-02-13T10:30:23Z</time>
      </trkpt>
      <trkpt lat="49.72072" lon="4.82194">
        <ele>220.69</ele>
        <time>2011-02-13T10:30:25Z</time>
      </trkpt>
      <trkpt lat="49.72072" lon="4.82191">
        <ele>220.61</ele>
        <time>2011-02-13T10:30:26Z</time>
      </trkpt>
      <trkpt lat="49.72071" lon="4.82188">
        <ele>220.35</ele>
        <time>2011-02-13T10:30:27Z</time>
      </trkpt>
      <trkpt lat="49.7207" lon="4.82184">
        <ele>219.86</ele>
        <time>2011-02-13T10:30:29Z</time>
      </trkpt>
      <trkpt lat="49.72067" lon="4.82181">
        <ele>219.68</ele>
        <time>2011-02-13T10:30:31Z</time>
      </trkpt>
      <trkpt lat="49.72066" lon="4.8218">
        <ele>219.75</ele>
        <time>2011-02-13T10:30:33Z</time>
      </trkpt>
      <trkpt lat="49.72065" lon="4.82179">
        <ele>219.75</ele>
        <time>2011-02-13T10:30:34Z</time>
      </trkpt>
      <trkpt lat="49.72065" lon="4.82179">
        <ele>219.84</ele>
        <time>2011-02-13T10:30:36Z</time>
      </trkpt>
      <trkpt lat="49.72065" lon="4.82178">
        <ele>219.97</ele>
        <time>2011-02-13T10:30:37Z</time>
      </trkpt>
      <trkpt lat="49.72064" lon="4.82178">
        <ele>220.09</ele>
        <time>2011-02-13T10:30:38Z</time>
      </trkpt>
      <trkpt lat="49.72062" lon="4.82177">
        <ele>220.21</ele>
        <time>2011-02-13T10:30:40Z</time>
      </trkpt>
      <trkpt lat="49.72059" lon="4.82176">
        <ele>220.03</ele>
        <time>2011-02-13T10:30:42Z</time>
      </trkpt>
      <trkpt lat="49.72056" lon="4.82177">
        <ele>219.9</ele>
        <time>2011-02-13T10:30:44Z</time>
      </trkpt>
      <trkpt lat="49.72055" lon="4.82177">
        <ele>219.82</ele>
        <time>2011-02-13T10:30:45Z</time>
      </trkpt>
      <trkpt lat="49.72054" lon="4.82177">
        <ele>219.75</ele>
        <time>2011-02-13T10:30:47Z</time>
      </trkpt>
      <trkpt lat="49.72053" lon="4.82177">
        <ele>219.76</ele>
        <time>2011-02-13T10:30:48Z</time>
      </trkpt>
      <trkpt lat="49.72052" lon="4.82177">
        <ele>219.88</ele>
        <time>2011-02-13T10:30:50Z</time>
      </trkpt>
      <trkpt lat="49.72051" lon="4.82175">
        <ele>220.02</ele>
        <time>2011-02-13T10:30:52Z</time>
      </trkpt>
      <trkpt lat="49.7205" lon="4.82174">
        <ele>220.17</ele>
        <time>2011-02-13T10:30:53Z</time>
      </trkpt>
      <trkpt lat="49.72048" lon="4.82171">
        <ele>220.72</ele>
        <time>2011-02-13T10:30:55Z</time>
      </trkpt>
      <trkpt lat="49.72047" lon="4.8217">
        <ele>220.96</ele>
        <time>2011-02-13T10:30:56Z</time>
      </trkpt>
      <trkpt lat="49.72046" lon="4.82168">
        <ele>221.2</ele>
        <time>2011-02-13T10:30:57Z</time>
      </trkpt>
      <trkpt lat="49.72045" lon="4.82166">
        <ele>221.59</ele>
        <time>2011-02-13T10:30:59Z</time>
      </trkpt>
      <trkpt lat="49.72044" lon="4.82165">
        <ele>222.03</ele>
        <time>2011-02-13T10:31:01Z</time>
      </trkpt>
      <trkpt lat="49.72042" lon="4.82163">
        <ele>222.38</ele>
        <time>2011-02-13T10:31:03Z</time>
      </trkpt>
      <trkpt lat="49.72041" lon="4.82162">
        <ele>222.49</ele>
        <time>2011-02-13T10:31:05Z</time>
      </trkpt>
      <trkpt lat="49.7204" lon="4.82162">
        <ele>222.43</ele>
        <time>2011-02-13T10:31:07Z</time>
      </trkpt>
      <trkpt lat="49.72039" lon="4.82161">
        <ele>222.32</ele>
        <time>2011-02-13T10:31:09Z</time>
      </trkpt>
      <trkpt lat="49.72039" lon="4.8216">
        <ele>222.21</ele>
        <time>2011-02-13T10:31:10Z</time>
      </trkpt>
      <trkpt lat="49.72038" lon="4.82159">
        <ele>222.18</ele>
        <time>2011-02-13T10:31:11Z</time>
      </trkpt>
      <trkpt lat="49.72036" lon="4.82157">
        <ele>221.89</ele>
        <time>2011-02-13T10:31:13Z</time>
      </trkpt>
      <trkpt lat="49.72034" lon="4.82156">
        <ele>221.72</ele>
        <time>2011-02-13T10:31:14Z</time>
      </trkpt>
      <trkpt lat="49.7203" lon="4.82153">
        <ele>221.55</ele>
        <time>2011-02-13T10:31:16Z</time>
      </trkpt>
      <trkpt lat="49.72027" lon="4.82149">
        <ele>221.44</ele>
        <time>2011-02-13T10:31:18Z</time>
      </trkpt>
      <trkpt lat="49.72026" lon="4.82147">
        <ele>221.3</ele>
        <time>2011-02-13T10:31:19Z</time>
      </trkpt>
      <trkpt lat="49.72023" lon="4.82143">
        <ele>220.98</ele>
        <time>2011-02-13T10:31:21Z</time>
      </trkpt>
      <trkpt lat="49.72021" lon="4.82139">
        <ele>221.05</ele>
        <time>2011-02-13T10:31:23Z</time>
      </trkpt>
      <trkpt lat="49.72018" lon="4.82133">
        <ele>221.03</ele>
        <time>2011-02-13T10:31:25Z</time>
      </trkpt>
      <trkpt lat="49.72015" lon="4.82128">
        <ele>220.66</ele>
        <time>2011-02-13T10:31:27Z</time>
      </trkpt>
      <trkpt lat="49.72013" lon="4.82126">
        <ele>220.49</ele>
        <time>2011-02-13T10:31:28Z</time>
      </trkpt>
      <trkpt lat="49.72011" lon="4.82123">
        <ele>220.15</ele>
        <time>2011-02-13T10:31:30Z</time>
      </trkpt>
      <trkpt lat="49.72009" lon="4.82117">
        <ele>219.62</ele>
        <time>2011-02-13T10:31:32Z</time>
      </trkpt>
      <trkpt lat="49.72008" lon="4.82111">
        <ele>219.08</ele>
        <time>2011-02-13T10:31:34Z</time>
      </trkpt>
      <trkpt lat="49.72007" lon="4.82108">
        <ele>218.78</ele>
        <time>2011-02-13T10:31:35Z</time>
      </trkpt>
      <trkpt lat="49.72005" lon="4.82106">
        <ele>218.76</ele>
        <time>2011-02-13T10:31:37Z</time>
      </trkpt>
      <trkpt lat="49.72003" lon="4.82105">
        <ele>219</ele>
        <time>2011-02-13T10:31:39Z</time>
      </trkpt>
      <trkpt lat="49.72001" lon="4.82104">
        <ele>219.43</ele>
        <time>2011-02-13T10:31:41Z</time>
      </trkpt>
      <trkpt lat="49.71999" lon="4.82101">
        <ele>219.93</ele>
        <time>2011-02-13T10:31:43Z</time>
      </trkpt>
      <trkpt lat="49.71998" lon="4.82099">
        <ele>220.4</ele>
        <time>2011-02-13T10:31:45Z</time>
      </trkpt>
      <trkpt lat="49.71997" lon="4.82098">
        <ele>220.62</ele>
        <time>2011-02-13T10:31:46Z</time>
      </trkpt>
      <trkpt lat="49.71997" lon="4.82097">
        <ele>220.83</ele>
        <time>2011-02-13T10:31:47Z</time>
      </trkpt>
      <trkpt lat="49.71996" lon="4.82096">
        <ele>220.83</ele>
        <time>2011-02-13T10:31:49Z</time>
      </trkpt>
      <trkpt lat="49.71996" lon="4.82095">
        <ele>220.54</ele>
        <time>2011-02-13T10:31:50Z</time>
      </trkpt>
      <trkpt lat="49.71995" lon="4.82092">
        <ele>219.55</ele>
        <time>2011-02-13T10:31:52Z</time>
      </trkpt>
      <trkpt lat="49.71994" lon="4.8209">
        <ele>218.91</ele>
        <time>2011-02-13T10:31:53Z</time>
      </trkpt>
      <trkpt lat="49.71991" lon="4.82086">
        <ele>217.57</ele>
        <time>2011-02-13T10:31:55Z</time>
      </trkpt>
      <trkpt lat="49.71988" lon="4.82083">
        <ele>216.27</ele>
        <time>2011-02-13T10:31:57Z</time>
      </trkpt>
      <trkpt lat="49.71986" lon="4.82083">
        <ele>215.69</ele>
        <time>2011-02-13T10:31:58Z</time>
      </trkpt>
      <trkpt lat="49.71983" lon="4.82082">
        <ele>215.26</ele>
        <time>2011-02-13T10:32:00Z</time>
      </trkpt>
      <trkpt lat="49.71981" lon="4.82082">
        <ele>215.27</ele>
        <time>2011-02-13T10:32:01Z</time>
      </trkpt>
      <trkpt lat="49.71979" lon="4.82082">
        <ele>215.39</ele>
        <time>2011-02-13T10:32:02Z</time>
      </trkpt>
      <trkpt lat="49.71978" lon="4.82081">
        <ele>215.36</ele>
        <time>2011-02-13T10:32:04Z</time>
      </trkpt>
      <trkpt lat="49.71978" lon="4.8208">
        <ele>215.38</ele>
        <time>2011-02-13T10:32:05Z</time>
      </trkpt>
      <trkpt lat="49.71978" lon="4.82079">
        <ele>215.47</ele>
        <time>2011-02-13T10:32:07Z</time>
      </trkpt>
      <trkpt lat="49.71977" lon="4.82079">
        <ele>215.39</ele>
        <time>2011-02-13T10:32:08Z</time>
      </trkpt>
      <trkpt lat="49.71976" lon="4.82079">
        <ele>214.97</ele>
        <time>2011-02-13T10:32:10Z</time>
      </trkpt>
      <trkpt lat="49.71974" lon="4.8208">
        <ele>214.67</ele>
        <time>2011-02-13T10:32:11Z</time>
      </trkpt>
      <trkpt lat="49.71973" lon="4.8208">
        <ele>214.37</ele>
        <time>2011-02-13T10:32:12Z</time>
      </trkpt>
      <trkpt lat="49.71971" lon="4.82081">
        <ele>214.19</ele>
        <time>2011-02-13T10:32:14Z</time>
      </trkpt>
      <trkpt lat="49.71969" lon="4.82082">
        <ele>214.31</ele>
        <time>2011-02-13T10:32:15Z</time>
      </trkpt>
      <trkpt lat="49.71968" lon="4.82083">
        <ele>214.8</ele>
        <time>2011-02-13T10:32:17Z</time>
      </trkpt>
      <trkpt lat="49.71966" lon="4.82085">
        <ele>215.55</ele>
        <time>2011-02-13T10:32:19Z</time>
      </trkpt>
      <trkpt lat="49.71966" lon="4.82085">
        <ele>215.95</ele>
        <time>2011-02-13T10:32:20Z</time>
      </trkpt>
      <trkpt lat="49.71966" lon="4.82086">
        <ele>216.81</ele>
        <time>2011-02-13T10:32:22Z</time>
      </trkpt>
      <trkpt lat="49.71965" lon="4.82086">
        <ele>217.66</ele>
        <time>2011-02-13T10:32:24Z</time>
      </trkpt>
      <trkpt lat="49.71964" lon="4.82087">
        <ele>217.92</ele>
        <time>2011-02-13T10:32:26Z</time>
      </trkpt>
      <trkpt lat="49.71964" lon="4.82087">
        <ele>217.8</ele>
        <time>2011-02-13T10:32:28Z</time>
      </trkpt>
      <trkpt lat="49.71964" lon="4.82087">
        <ele>217.7</ele>
        <time>2011-02-13T10:32:29Z</time>
      </trkpt>
      <trkpt lat="49.71965" lon="4.82086">
        <ele>217.6</ele>
        <time>2011-02-13T10:32:30Z</time>
      </trkpt>
      <trkpt lat="49.71967" lon="4.82083">
        <ele>217.46</ele>
        <time>2011-02-13T10:32:32Z</time>
      </trkpt>
      <trkpt lat="49.71967" lon="4.82081">
        <ele>217.45</ele>
        <time>2011-02-13T10:32:34Z</time>
      </trkpt>
      <trkpt lat="49.71967" lon="4.82079">
        <ele>217.56</ele>
        <time>2011-02-13T10:32:35Z</time>
      </trkpt>
      <trkpt lat="49.71966" lon="4.82078">
        <ele>217.96</ele>
        <time>2011-02-13T10:32:37Z</time>
      </trkpt>
      <trkpt lat="49.71965" lon="4.82076">
        <ele>218.48</ele>
        <time>2011-02-13T10:32:39Z</time>
      </trkpt>
      <trkpt lat="49.71964" lon="4.82075">
        <ele>218.72</ele>
        <time>2011-02-13T10:32:40Z</time>
      </trkpt>
      <trkpt lat="49.71963" lon="4.82073">
        <ele>219.42</ele>
        <time>2011-02-13T10:32:42Z</time>
      </trkpt>
      <trkpt lat="49.71962" lon="4.82073">
        <ele>219.84</ele>
        <time>2011-02-13T10:32:44Z</time>
      </trkpt>
      <trkpt lat="49.7196" lon="4.82073">
        <ele>219.86</ele>
        <time>2011-02-13T10:32:46Z</time>
      </trkpt>
      <trkpt lat="49.71958" lon="4.82073">
        <ele>219.73</ele>
        <time>2011-02-13T10:32:48Z</time>
      </trkpt>
      <trkpt lat="49.71956" lon="4.82073">
        <ele>219.74</ele>
        <time>2011-02-13T10:32:49Z</time>
      </trkpt>
      <trkpt lat="49.71954" lon="4.82071">
        <ele>219.83</ele>
        <time>2011-02-13T10:32:51Z</time>
      </trkpt>
      <trkpt lat="49.71953" lon="4.82069">
        <ele>219.88</ele>
        <time>2011-02-13T10:32:53Z</time>
      </trkpt>
      <trkpt lat="49.71951" lon="4.82068">
        <ele>220.27</ele>
        <time>2011-02-13T10:32:55Z</time>
      </trkpt>
      <trkpt lat="49.71949" lon="4.82068">
        <ele>221.05</ele>
        <time>2011-02-13T10:32:57Z</time>
      </trkpt>
      <trkpt lat="49.71948" lon="4.82067">
        <ele>221.71</ele>
        <time>2011-02-13T10:32:59Z</time>
      </trkpt>
      <trkpt lat="49.71947" lon="4.82066">
        <ele>221.91</ele>
        <time>2011-02-13T10:33:00Z</time>
      </trkpt>
      <trkpt lat="49.71946" lon="4.82066">
        <ele>222.25</ele>
        <time>2011-02-13T10:33:02Z</time>
      </trkpt>
      <trkpt lat="49.71945" lon="4.82065">
        <ele>222.43</ele>
        <time>2011-02-13T10:33:03Z</time>
      </trkpt>
      <trkpt lat="49.71944" lon="4.82065">
        <ele>222.56</ele>
        <time>2011-02-13T10:33:04Z</time>
      </trkpt>
      <trkpt lat="49.71942" lon="4.82063">
        <ele>222.52</ele>
        <time>2011-02-13T10:33:06Z</time>
      </trkpt>
      <trkpt lat="49.7194" lon="4.82062">
        <ele>222.31</ele>
        <time>2011-02-13T10:33:07Z</time>
      </trkpt>
      <trkpt lat="49.71939" lon="4.82061">
        <ele>222.17</ele>
        <time>2011-02-13T10:33:08Z</time>
      </trkpt>
      <trkpt lat="49.71939" lon="4.82061">
        <ele>222.05</ele>
        <time>2011-02-13T10:33:09Z</time>
      </trkpt>
      <trkpt lat="49.71937" lon="4.8206">
        <ele>221.92</ele>
        <time>2011-02-13T10:33:11Z</time>
      </trkpt>
      <trkpt lat="49.71937" lon="4.8206">
        <ele>221.81</ele>
        <time>2011-02-13T10:33:12Z</time>
      </trkpt>
      <trkpt lat="49.71936" lon="4.8206">
        <ele>221.68</ele>
        <time>2011-02-13T10:33:13Z</time>
      </trkpt>
      <trkpt lat="49.71936" lon="4.8206">
        <ele>221.55</ele>
        <time>2011-02-13T10:33:15Z</time>
      </trkpt>
      <trkpt lat="49.71936" lon="4.82061">
        <ele>221.46</ele>
        <time>2011-02-13T10:33:17Z</time>
      </trkpt>
      <trkpt lat="49.71935" lon="4.82061">
        <ele>221.3</ele>
        <time>2011-02-13T10:33:19Z</time>
      </trkpt>
      <trkpt lat="49.71932" lon="4.8206">
        <ele>220.853</ele>
        <time>2011-02-13T10:33:21Z</time>
      </trkpt>
      <trkpt lat="49.71929" lon="4.8206">
        <ele>220.353</ele>
        <time>2011-02-13T10:33:23Z</time>
      </trkpt>
      <trkpt lat="49.71926" lon="4.82061">
        <ele>219.848</ele>
        <time>2011-02-13T10:33:25Z</time>
      </trkpt>
      <trkpt lat="49.71923" lon="4.82062">
        <ele>219.423</ele>
        <time>2011-02-13T10:33:27Z</time>
      </trkpt>
      <trkpt lat="49.71921" lon="4.82062">
        <ele>219.196</ele>
        <time>2011-02-13T10:33:29Z</time>
      </trkpt>
      <trkpt lat="49.71919" lon="4.82062">
        <ele>219.16</ele>
        <time>2011-02-13T10:33:30Z</time>
      </trkpt>
      <trkpt lat="49.71919" lon="4.82062">
        <ele>219.17</ele>
        <time>2011-02-13T10:33:31Z</time>
      </trkpt>
      <trkpt lat="49.71918" lon="4.82061">
        <ele>219.19</ele>
        <time>2011-02-13T10:33:33Z</time>
      </trkpt>
      <trkpt lat="49.71918" lon="4.8206">
        <ele>219.2</ele>
        <time>2011-02-13T10:33:34Z</time>
      </trkpt>
      <trkpt lat="49.71918" lon="4.82058">
        <ele>219.175</ele>
        <time>2011-02-13T10:33:36Z</time>
      </trkpt>
      <trkpt lat="49.71918" lon="4.82057">
        <ele>219.143</ele>
        <time>2011-02-13T10:33:37Z</time>
      </trkpt>
      <trkpt lat="49.71917" lon="4.82055">
        <ele>218.987</ele>
        <time>2011-02-13T10:33:39Z</time>
      </trkpt>
      <trkpt lat="49.71915" lon="4.82051">
        <ele>218.735</ele>
        <time>2011-02-13T10:33:41Z</time>
      </trkpt>
      <trkpt lat="49.71913" lon="4.82047">
        <ele>218.521</ele>
        <time>2011-02-13T10:33:43Z</time>
      </trkpt>
      <trkpt lat="49.71912" lon="4.82044">
        <ele>218.331</ele>
        <time>2011-02-13T10:33:45Z</time>
      </trkpt>
      <trkpt lat="49.7191" lon="4.82042">
        <ele>218.14</ele>
        <time>2011-02-13T10:33:47Z</time>
      </trkpt>
      <trkpt lat="49.71908" lon="4.82039">
        <ele>218.094</ele>
        <time>2011-02-13T10:33:49Z</time>
      </trkpt>
      <trkpt lat="49.71906" lon="4.82036">
        <ele>218.149</ele>
        <time>2011-02-13T10:33:51Z</time>
      </trkpt>
      <trkpt lat="49.71905" lon="4.82035">
        <ele>218.074</ele>
        <time>2011-02-13T10:33:52Z</time>
      </trkpt>
      <trkpt lat="49.71904" lon="4.82035">
        <ele>218.001</ele>
        <time>2011-02-13T10:33:53Z</time>
      </trkpt>
      <trkpt lat="49.71901" lon="4.82034">
        <ele>217.969</ele>
        <time>2011-02-13T10:33:55Z</time>
      </trkpt>
      <trkpt lat="49.719" lon="4.82033">
        <ele>218.04</ele>
        <time>2011-02-13T10:33:56Z</time>
      </trkpt>
      <trkpt lat="49.71898" lon="4.82033">
        <ele>218.17</ele>
        <time>2011-02-13T10:33:57Z</time>
      </trkpt>
      <trkpt lat="49.71896" lon="4.82031">
        <ele>218.43</ele>
        <time>2011-02-13T10:33:59Z</time>
      </trkpt>
      <trkpt lat="49.71895" lon="4.8203">
        <ele>218.56</ele>
        <time>2011-02-13T10:34:00Z</time>
      </trkpt>
      <trkpt lat="49.71894" lon="4.82029">
        <ele>219.11</ele>
        <time>2011-02-13T10:34:02Z</time>
      </trkpt>
      <trkpt lat="49.71893" lon="4.82027">
        <ele>220</ele>
        <time>2011-02-13T10:34:04Z</time>
      </trkpt>
      <trkpt lat="49.71892" lon="4.82026">
        <ele>220.9</ele>
        <time>2011-02-13T10:34:06Z</time>
      </trkpt>
      <trkpt lat="49.7189" lon="4.82024">
        <ele>221.72</ele>
        <time>2011-02-13T10:34:08Z</time>
      </trkpt>
      <trkpt lat="49.71887" lon="4.82023">
        <ele>222.46</ele>
        <time>2011-02-13T10:34:10Z</time>
      </trkpt>
      <trkpt lat="49.71885" lon="4.82022">
        <ele>222.86</ele>
        <time>2011-02-13T10:34:11Z</time>
      </trkpt>
      <trkpt lat="49.71883" lon="4.8202">
        <ele>223.63</ele>
        <time>2011-02-13T10:34:13Z</time>
      </trkpt>
      <trkpt lat="49.71882" lon="4.82018">
        <ele>224.3</ele>
        <time>2011-02-13T10:34:15Z</time>
      </trkpt>
      <trkpt lat="49.71882" lon="4.82015">
        <ele>224.63</ele>
        <time>2011-02-13T10:34:17Z</time>
      </trkpt>
      <trkpt lat="49.7188" lon="4.82013">
        <ele>224.81</ele>
        <time>2011-02-13T10:34:19Z</time>
      </trkpt>
      <trkpt lat="49.71879" lon="4.82012">
        <ele>224.85</ele>
        <time>2011-02-13T10:34:20Z</time>
      </trkpt>
      <trkpt lat="49.71877" lon="4.82011">
        <ele>224.73</ele>
        <time>2011-02-13T10:34:22Z</time>
      </trkpt>
      <trkpt lat="49.71876" lon="4.8201">
        <ele>224.73</ele>
        <time>2011-02-13T10:34:23Z</time>
      </trkpt>
      <trkpt lat="49.71874" lon="4.82008">
        <ele>224.83</ele>
        <time>2011-02-13T10:34:25Z</time>
      </trkpt>
      <trkpt lat="49.71872" lon="4.82006">
        <ele>225.29</ele>
        <time>2011-02-13T10:34:27Z</time>
      </trkpt>
      <trkpt lat="49.7187" lon="4.82004">
        <ele>225.81</ele>
        <time>2011-02-13T10:34:29Z</time>
      </trkpt>
      <trkpt lat="49.71869" lon="4.82002">
        <ele>226.35</ele>
        <time>2011-02-13T10:34:31Z</time>
      </trkpt>
      <trkpt lat="49.71869" lon="4.82002">
        <ele>226.69</ele>
        <time>2011-02-13T10:34:33Z</time>
      </trkpt>
      <trkpt lat="49.71869" lon="4.82002">
        <ele>226.68</ele>
        <time>2011-02-13T10:34:34Z</time>
      </trkpt>
      <trkpt lat="49.71869" lon="4.82001">
        <ele>226.46</ele>
        <time>2011-02-13T10:34:36Z</time>
      </trkpt>
      <trkpt lat="49.71868" lon="4.82001">
        <ele>225.97</ele>
        <time>2011-02-13T10:34:38Z</time>
      </trkpt>
      <trkpt lat="49.71867" lon="4.81999">
        <ele>225.46</ele>
        <time>2011-02-13T10:34:40Z</time>
      </trkpt>
      <trkpt lat="49.71866" lon="4.81998">
        <ele>224.85</ele>
        <time>2011-02-13T10:34:42Z</time>
      </trkpt>
      <trkpt lat="49.71866" lon="4.81998">
        <ele>224.43</ele>
        <time>2011-02-13T10:34:43Z</time>
      </trkpt>
      <trkpt lat="49.71866" lon="4.81996">
        <ele>223.57</ele>
        <time>2011-02-13T10:34:45Z</time>
      </trkpt>
      <trkpt lat="49.71865" lon="4.81996">
        <ele>223.13</ele>
        <time>2011-02-13T10:34:46Z</time>
      </trkpt>
      <trkpt lat="49.71865" lon="4.81995">
        <ele>222.78</ele>
        <time>2011-02-13T10:34:47Z</time>
      </trkpt>
      <trkpt lat="49.71865" lon="4.81995">
        <ele>222.35</ele>
        <time>2011-02-13T10:34:49Z</time>
      </trkpt>
      <trkpt lat="49.71864" lon="4.81995">
        <ele>221.98</ele>
        <time>2011-02-13T10:34:51Z</time>
      </trkpt>
      <trkpt lat="49.71864" lon="4.81994">
        <ele>222.02</ele>
        <time>2011-02-13T10:34:53Z</time>
      </trkpt>
      <trkpt lat="49.71863" lon="4.81993">
        <ele>222.3</ele>
        <time>2011-02-13T10:34:55Z</time>
      </trkpt>
      <trkpt lat="49.71863" lon="4.81992">
        <ele>222.61</ele>
        <time>2011-02-13T10:34:57Z</time>
      </trkpt>
      <trkpt lat="49.71861" lon="4.8199">
        <ele>222.99</ele>
        <time>2011-02-13T10:34:59Z</time>
      </trkpt>
      <trkpt lat="49.7186" lon="4.81987">
        <ele>223.44</ele>
        <time>2011-02-13T10:35:01Z</time>
      </trkpt>
      <trkpt lat="49.71858" lon="4.81985">
        <ele>224.17</ele>
        <time>2011-02-13T10:35:03Z</time>
      </trkpt>
      <trkpt lat="49.71858" lon="4.81984">
        <ele>224.52</ele>
        <time>2011-02-13T10:35:04Z</time>
      </trkpt>
      <trkpt lat="49.71857" lon="4.81983">
        <ele>225.18</ele>
        <time>2011-02-13T10:35:06Z</time>
      </trkpt>
      <trkpt lat="49.71856" lon="4.81981">
        <ele>225.8</ele>
        <time>2011-02-13T10:35:08Z</time>
      </trkpt>
      <trkpt lat="49.71854" lon="4.81978">
        <ele>226.26</ele>
        <time>2011-02-13T10:35:10Z</time>
      </trkpt>
      <trkpt lat="49.71852" lon="4.81976">
        <ele>226.64</ele>
        <time>2011-02-13T10:35:12Z</time>
      </trkpt>
      <trkpt lat="49.71851" lon="4.81974">
        <ele>227.07</ele>
        <time>2011-02-13T10:35:14Z</time>
      </trkpt>
      <trkpt lat="49.7185" lon="4.81973">
        <ele>227.35</ele>
        <time>2011-02-13T10:35:15Z</time>
      </trkpt>
      <trkpt lat="49.7185" lon="4.81973">
        <ele>227.94</ele>
        <time>2011-02-13T10:35:17Z</time>
      </trkpt>
      <trkpt lat="49.7185" lon="4.81973">
        <ele>228.58</ele>
        <time>2011-02-13T10:35:19Z</time>
      </trkpt>
      <trkpt lat="49.71849" lon="4.81972">
        <ele>229.3</ele>
        <time>2011-02-13T10:35:22Z</time>
      </trkpt>
      <trkpt lat="49.71849" lon="4.81972">
        <ele>229.89</ele>
        <time>2011-02-13T10:35:23Z</time>
      </trkpt>
      <trkpt lat="49.71848" lon="4.81971">
        <ele>230.09</ele>
        <time>2011-02-13T10:35:24Z</time>
      </trkpt>
      <trkpt lat="49.71848" lon="4.81971">
        <ele>230.44</ele>
        <time>2011-02-13T10:35:26Z</time>
      </trkpt>
      <trkpt lat="49.71848" lon="4.81971">
        <ele>230.6</ele>
        <time>2011-02-13T10:35:27Z</time>
      </trkpt>
      <trkpt lat="49.71848" lon="4.81969">
        <ele>231.06</ele>
        <time>2011-02-13T10:35:29Z</time>
      </trkpt>
      <trkpt lat="49.71848" lon="4.81966">
        <ele>231.511</ele>
        <time>2011-02-13T10:35:31Z</time>
      </trkpt>
      <trkpt lat="49.71847" lon="4.81965">
        <ele>231.939</ele>
        <time>2011-02-13T10:35:33Z</time>
      </trkpt>
      <trkpt lat="49.71847" lon="4.81964">
        <ele>232.17</ele>
        <time>2011-02-13T10:35:34Z</time>
      </trkpt>
      <trkpt lat="49.71845" lon="4.81963">
        <ele>232.61</ele>
        <time>2011-02-13T10:35:36Z</time>
      </trkpt>
      <trkpt lat="49.71844" lon="4.81962">
        <ele>232.799</ele>
        <time>2011-02-13T10:35:37Z</time>
      </trkpt>
      <trkpt lat="49.71843" lon="4.81962">
        <ele>232.883</ele>
        <time>2011-02-13T10:35:38Z</time>
      </trkpt>
      <trkpt lat="49.71843" lon="4.81962">
        <ele>232.92</ele>
        <time>2011-02-13T10:35:39Z</time>
      </trkpt>
      <trkpt lat="49.71843" lon="4.81962">
        <ele>233</ele>
        <time>2011-02-13T10:35:41Z</time>
      </trkpt>
      <trkpt lat="49.71842" lon="4.81962">
        <ele>233.06</ele>
        <time>2011-02-13T10:35:42Z</time>
      </trkpt>
      <trkpt lat="49.71843" lon="4.81961">
        <ele>233.32</ele>
        <time>2011-02-13T10:35:44Z</time>
      </trkpt>
      <trkpt lat="49.71843" lon="4.81961">
        <ele>233.58</ele>
        <time>2011-02-13T10:35:46Z</time>
      </trkpt>
      <trkpt lat="49.71843" lon="4.8196">
        <ele>233.74</ele>
        <time>2011-02-13T10:35:47Z</time>
      </trkpt>
      <trkpt lat="49.71843" lon="4.8196">
        <ele>234.11</ele>
        <time>2011-02-13T10:35:49Z</time>
      </trkpt>
      <trkpt lat="49.71843" lon="4.8196">
        <ele>234.29</ele>
        <time>2011-02-13T10:35:50Z</time>
      </trkpt>
      <trkpt lat="49.71843" lon="4.81959">
        <ele>234.82</ele>
        <time>2011-02-13T10:35:52Z</time>
      </trkpt>
      <trkpt lat="49.71842" lon="4.81959">
        <ele>235</ele>
        <time>2011-02-13T10:35:53Z</time>
      </trkpt>
      <trkpt lat="49.71842" lon="4.81958">
        <ele>235.36</ele>
        <time>2011-02-13T10:35:55Z</time>
      </trkpt>
      <trkpt lat="49.71841" lon="4.81957">
        <ele>235.72</ele>
        <time>2011-02-13T10:35:57Z</time>
      </trkpt>
      <trkpt lat="49.7184" lon="4.81957">
        <ele>235.88</ele>
        <time>2011-02-13T10:35:58Z</time>
      </trkpt>
      <trkpt lat="49.71839" lon="4.81957">
        <ele>236.13</ele>
        <time>2011-02-13T10:36:00Z</time>
      </trkpt>
      <trkpt lat="49.71839" lon="4.81956">
        <ele>236.155</ele>
        <time>2011-02-13T10:36:02Z</time>
      </trkpt>
      <trkpt lat="49.71838" lon="4.81956">
        <ele>236.052</ele>
        <time>2011-02-13T10:36:04Z</time>
      </trkpt>
      <trkpt lat="49.71838" lon="4.81956">
        <ele>236</ele>
        <time>2011-02-13T10:36:05Z</time>
      </trkpt>
      <trkpt lat="49.71838" lon="4.81956">
        <ele>235.917</ele>
        <time>2011-02-13T10:36:07Z</time>
      </trkpt>
      <trkpt lat="49.71837" lon="4.81955">
        <ele>235.876</ele>
        <time>2011-02-13T10:36:09Z</time>
      </trkpt>
      <trkpt lat="49.71837" lon="4.81955">
        <ele>235.876</ele>
        <time>2011-02-13T10:36:10Z</time>
      </trkpt>
      <trkpt lat="49.71837" lon="4.81955">
        <ele>235.89</ele>
        <time>2011-02-13T10:36:12Z</time>
      </trkpt>
      <trkpt lat="49.71837" lon="4.81955">
        <ele>235.92</ele>
        <time>2011-02-13T10:36:13Z</time>
      </trkpt>
      <trkpt lat="49.71837" lon="4.81955">
        <ele>235.96</ele>
        <time>2011-02-13T10:36:14Z</time>
      </trkpt>
      <trkpt lat="49.71837" lon="4.81955">
        <ele>236.06</ele>
        <time>2011-02-13T10:36:16Z</time>
      </trkpt>
      <trkpt lat="49.71837" lon="4.81954">
        <ele>235.98</ele>
        <time>2011-02-13T10:36:18Z</time>
      </trkpt>
      <trkpt lat="49.71836" lon="4.81953">
        <ele>236.06</ele>
        <time>2011-02-13T10:36:20Z</time>
      </trkpt>
      <trkpt lat="49.71834" lon="4.8195">
        <ele>236.48</ele>
        <time>2011-02-13T10:36:22Z</time>
      </trkpt>
      <trkpt lat="49.71833" lon="4.81949">
        <ele>236.65</ele>
        <time>2011-02-13T10:36:23Z</time>
      </trkpt>
      <trkpt lat="49.71832" lon="4.81947">
        <ele>236.87</ele>
        <time>2011-02-13T10:36:25Z</time>
      </trkpt>
      <trkpt lat="49.71831" lon="4.81946">
        <ele>236.96</ele>
        <time>2011-02-13T10:36:26Z</time>
      </trkpt>
      <trkpt lat="49.7183" lon="4.81945">
        <ele>237.1</ele>
        <time>2011-02-13T10:36:27Z</time>
      </trkpt>
      <trkpt lat="49.71828" lon="4.81943">
        <ele>237.41</ele>
        <time>2011-02-13T10:36:29Z</time>
      </trkpt>
      <trkpt lat="49.71827" lon="4.81943">
        <ele>237.41</ele>
        <time>2011-02-13T10:36:30Z</time>
      </trkpt>
      <trkpt lat="49.71825" lon="4.81942">
        <ele>237.43</ele>
        <time>2011-02-13T10:36:32Z</time>
      </trkpt>
      <trkpt lat="49.71824" lon="4.81942">
        <ele>237.55</ele>
        <time>2011-02-13T10:36:33Z</time>
      </trkpt>
      <trkpt lat="49.71823" lon="4.81942">
        <ele>237.71</ele>
        <time>2011-02-13T10:36:34Z</time>
      </trkpt>
      <trkpt lat="49.71822" lon="4.8194">
        <ele>238.2</ele>
        <time>2011-02-13T10:36:36Z</time>
      </trkpt>
      <trkpt lat="49.71821" lon="4.81939">
        <ele>238.56</ele>
        <time>2011-02-13T10:36:37Z</time>
      </trkpt>
      <trkpt lat="49.71822" lon="4.81936">
        <ele>239.56</ele>
        <time>2011-02-13T10:36:39Z</time>
      </trkpt>
      <trkpt lat="49.71824" lon="4.81935">
        <ele>240.57</ele>
        <time>2011-02-13T10:36:41Z</time>
      </trkpt>
      <trkpt lat="49.71824" lon="4.81935">
        <ele>240.94</ele>
        <time>2011-02-13T10:36:42Z</time>
      </trkpt>
      <trkpt lat="49.71824" lon="4.81935">
        <ele>241.58</ele>
        <time>2011-02-13T10:36:44Z</time>
      </trkpt>
      <trkpt lat="49.71824" lon="4.81934">
        <ele>241.83</ele>
        <time>2011-02-13T10:36:45Z</time>
      </trkpt>
      <trkpt lat="49.71822" lon="4.81934">
        <ele>242.04</ele>
        <time>2011-02-13T10:36:47Z</time>
      </trkpt>
      <trkpt lat="49.71821" lon="4.81934">
        <ele>242.02</ele>
        <time>2011-02-13T10:36:48Z</time>
      </trkpt>
      <trkpt lat="49.7182" lon="4.81933">
        <ele>242.01</ele>
        <time>2011-02-13T10:36:50Z</time>
      </trkpt>
      <trkpt lat="49.71819" lon="4.81932">
        <ele>242.01</ele>
        <time>2011-02-13T10:36:51Z</time>
      </trkpt>
      <trkpt lat="49.71817" lon="4.81931">
        <ele>241.85</ele>
        <time>2011-02-13T10:36:53Z</time>
      </trkpt>
      <trkpt lat="49.71816" lon="4.81931">
        <ele>241.79</ele>
        <time>2011-02-13T10:36:54Z</time>
      </trkpt>
      <trkpt lat="49.71815" lon="4.81931">
        <ele>241.72</ele>
        <time>2011-02-13T10:36:56Z</time>
      </trkpt>
      <trkpt lat="49.71814" lon="4.81931">
        <ele>241.72</ele>
        <time>2011-02-13T10:36:58Z</time>
      </trkpt>
      <trkpt lat="49.71814" lon="4.81931">
        <ele>241.57</ele>
        <time>2011-02-13T10:37:00Z</time>
      </trkpt>
      <trkpt lat="49.71813" lon="4.8193">
        <ele>241.45</ele>
        <time>2011-02-13T10:37:01Z</time>
      </trkpt>
      <trkpt lat="49.71812" lon="4.81929">
        <ele>241.43</ele>
        <time>2011-02-13T10:37:03Z</time>
      </trkpt>
      <trkpt lat="49.7181" lon="4.81927">
        <ele>241.66</ele>
        <time>2011-02-13T10:37:05Z</time>
      </trkpt>
      <trkpt lat="49.7181" lon="4.81926">
        <ele>241.83</ele>
        <time>2011-02-13T10:37:06Z</time>
      </trkpt>
      <trkpt lat="49.71809" lon="4.81924">
        <ele>242.17</ele>
        <time>2011-02-13T10:37:08Z</time>
      </trkpt>
      <trkpt lat="49.71808" lon="4.81923">
        <ele>242.28</ele>
        <time>2011-02-13T10:37:09Z</time>
      </trkpt>
      <trkpt lat="49.71807" lon="4.81922">
        <ele>242.65</ele>
        <time>2011-02-13T10:37:11Z</time>
      </trkpt>
      <trkpt lat="49.71805" lon="4.81922">
        <ele>243.17</ele>
        <time>2011-02-13T10:37:13Z</time>
      </trkpt>
      <trkpt lat="49.71804" lon="4.81922">
        <ele>243.39</ele>
        <time>2011-02-13T10:37:14Z</time>
      </trkpt>
      <trkpt lat="49.71802" lon="4.81921">
        <ele>243.46</ele>
        <time>2011-02-13T10:37:15Z</time>
      </trkpt>
      <trkpt lat="49.718" lon="4.8192">
        <ele>243.48</ele>
        <time>2011-02-13T10:37:17Z</time>
      </trkpt>
      <trkpt lat="49.718" lon="4.81919">
        <ele>243.59</ele>
        <time>2011-02-13T10:37:19Z</time>
      </trkpt>
      <trkpt lat="49.71799" lon="4.81919">
        <ele>243.7</ele>
        <time>2011-02-13T10:37:21Z</time>
      </trkpt>
      <trkpt lat="49.71799" lon="4.81919">
        <ele>243.807</ele>
        <time>2011-02-13T10:37:23Z</time>
      </trkpt>
      <trkpt lat="49.71798" lon="4.81919">
        <ele>243.98</ele>
        <time>2011-02-13T10:37:25Z</time>
      </trkpt>
      <trkpt lat="49.71798" lon="4.81919">
        <ele>244.275</ele>
        <time>2011-02-13T10:37:27Z</time>
      </trkpt>
      <trkpt lat="49.71797" lon="4.81919">
        <ele>244.366</ele>
        <time>2011-02-13T10:37:28Z</time>
      </trkpt>
      <trkpt lat="49.71796" lon="4.81919">
        <ele>244.427</ele>
        <time>2011-02-13T10:37:29Z</time>
      </trkpt>
      <trkpt lat="49.71795" lon="4.81918">
        <ele>244.59</ele>
        <time>2011-02-13T10:37:31Z</time>
      </trkpt>
      <trkpt lat="49.71793" lon="4.81918">
        <ele>244.675</ele>
        <time>2011-02-13T10:37:33Z</time>
      </trkpt>
      <trkpt lat="49.71793" lon="4.81919">
        <ele>244.685</ele>
        <time>2011-02-13T10:37:35Z</time>
      </trkpt>
      <trkpt lat="49.71793" lon="4.8192">
        <ele>244.624</ele>
        <time>2011-02-13T10:37:36Z</time>
      </trkpt>
      <trkpt lat="49.71793" lon="4.8192">
        <ele>244.624</ele>
        <time>2011-02-13T10:37:37Z</time>
      </trkpt>
      <trkpt lat="49.71792" lon="4.81922">
        <ele>244.614</ele>
        <time>2011-02-13T10:37:39Z</time>
      </trkpt>
      <trkpt lat="49.71792" lon="4.81923">
        <ele>244.512</ele>
        <time>2011-02-13T10:37:40Z</time>
      </trkpt>
      <trkpt lat="49.7179" lon="4.81927">
        <ele>244.044</ele>
        <time>2011-02-13T10:37:42Z</time>
      </trkpt>
      <trkpt lat="49.71786" lon="4.81931">
        <ele>243.61</ele>
        <time>2011-02-13T10:37:44Z</time>
      </trkpt>
      <trkpt lat="49.71783" lon="4.81932">
        <ele>243.34</ele>
        <time>2011-02-13T10:37:46Z</time>
      </trkpt>
      <trkpt lat="49.7178" lon="4.81933">
        <ele>243.12</ele>
        <time>2011-02-13T10:37:48Z</time>
      </trkpt>
      <trkpt lat="49.71778" lon="4.81934">
        <ele>243.02</ele>
        <time>2011-02-13T10:37:49Z</time>
      </trkpt>
      <trkpt lat="49.71776" lon="4.81934">
        <ele>242.986</ele>
        <time>2011-02-13T10:37:50Z</time>
      </trkpt>
      <trkpt lat="49.71771" lon="4.81933">
        <ele>243.063</ele>
        <time>2011-02-13T10:37:52Z</time>
      </trkpt>
      <trkpt lat="49.71765" lon="4.81932">
        <ele>243.096</ele>
        <time>2011-02-13T10:37:54Z</time>
      </trkpt>
      <trkpt lat="49.7176" lon="4.81932">
        <ele>242.889</ele>
        <time>2011-02-13T10:37:56Z</time>
      </trkpt>
      <trkpt lat="49.71756" lon="4.81932">
        <ele>242.458</ele>
        <time>2011-02-13T10:37:58Z</time>
      </trkpt>
      <trkpt lat="49.71753" lon="4.81932">
        <ele>241.792</ele>
        <time>2011-02-13T10:38:00Z</time>
      </trkpt>
      <trkpt lat="49.71752" lon="4.81932">
        <ele>241.53</ele>
        <time>2011-02-13T10:38:01Z</time>
      </trkpt>
      <trkpt lat="49.71749" lon="4.81932">
        <ele>240.982</ele>
        <time>2011-02-13T10:38:03Z</time>
      </trkpt>
      <trkpt lat="49.71746" lon="4.81932">
        <ele>240.491</ele>
        <time>2011-02-13T10:38:05Z</time>
      </trkpt>
      <trkpt lat="49.71742" lon="4.81933">
        <ele>240.036</ele>
        <time>2011-02-13T10:38:07Z</time>
      </trkpt>
      <trkpt lat="49.71739" lon="4.81934">
        <ele>239.99</ele>
        <time>2011-02-13T10:38:09Z</time>
      </trkpt>
      <trkpt lat="49.71737" lon="4.81934">
        <ele>239.98</ele>
        <time>2011-02-13T10:38:10Z</time>
      </trkpt>
      <trkpt lat="49.71733" lon="4.81935">
        <ele>240.04</ele>
        <time>2011-02-13T10:38:12Z</time>
      </trkpt>
      <trkpt lat="49.7173" lon="4.81935">
        <ele>240.1</ele>
        <time>2011-02-13T10:38:13Z</time>
      </trkpt>
      <trkpt lat="49.71727" lon="4.81936">
        <ele>240.41</ele>
        <time>2011-02-13T10:38:15Z</time>
      </trkpt>
      <trkpt lat="49.71725" lon="4.81937">
        <ele>240.66</ele>
        <time>2011-02-13T10:38:16Z</time>
      </trkpt>
      <trkpt lat="49.71724" lon="4.81938">
        <ele>240.91</ele>
        <time>2011-02-13T10:38:18Z</time>
      </trkpt>
      <trkpt lat="49.71721" lon="4.8194">
        <ele>241.32</ele>
        <time>2011-02-13T10:38:19Z</time>
      </trkpt>
      <trkpt lat="49.71718" lon="4.81941">
        <ele>241.74</ele>
        <time>2011-02-13T10:38:21Z</time>
      </trkpt>
      <trkpt lat="49.71715" lon="4.81943">
        <ele>242.07</ele>
        <time>2011-02-13T10:38:22Z</time>
      </trkpt>
      <trkpt lat="49.71713" lon="4.81945">
        <ele>242.17</ele>
        <time>2011-02-13T10:38:24Z</time>
      </trkpt>
      <trkpt lat="49.7171" lon="4.81946">
        <ele>242.17</ele>
        <time>2011-02-13T10:38:26Z</time>
      </trkpt>
      <trkpt lat="49.71707" lon="4.81946">
        <ele>242.14</ele>
        <time>2011-02-13T10:38:27Z</time>
      </trkpt>
      <trkpt lat="49.71705" lon="4.81947">
        <ele>242.08</ele>
        <time>2011-02-13T10:38:29Z</time>
      </trkpt>
      <trkpt lat="49.71704" lon="4.81947">
        <ele>242.08</ele>
        <time>2011-02-13T10:38:30Z</time>
      </trkpt>
      <trkpt lat="49.71702" lon="4.81948">
        <ele>241.69</ele>
        <time>2011-02-13T10:38:31Z</time>
      </trkpt>
      <trkpt lat="49.71699" lon="4.81951">
        <ele>240.99</ele>
        <time>2011-02-13T10:38:33Z</time>
      </trkpt>
      <trkpt lat="49.71697" lon="4.81953">
        <ele>240.14</ele>
        <time>2011-02-13T10:38:34Z</time>
      </trkpt>
      <trkpt lat="49.71695" lon="4.81953">
        <ele>238.89</ele>
        <time>2011-02-13T10:38:36Z</time>
      </trkpt>
      <trkpt lat="49.71692" lon="4.81952">
        <ele>237.55</ele>
        <time>2011-02-13T10:38:38Z</time>
      </trkpt>
      <trkpt lat="49.71689" lon="4.81953">
        <ele>236.47</ele>
        <time>2011-02-13T10:38:40Z</time>
      </trkpt>
      <trkpt lat="49.71687" lon="4.81953">
        <ele>236.11</ele>
        <time>2011-02-13T10:38:41Z</time>
      </trkpt>
      <trkpt lat="49.71683" lon="4.81954">
        <ele>235.51</ele>
        <time>2011-02-13T10:38:43Z</time>
      </trkpt>
      <trkpt lat="49.71678" lon="4.81954">
        <ele>235.39</ele>
        <time>2011-02-13T10:38:45Z</time>
      </trkpt>
      <trkpt lat="49.71673" lon="4.81954">
        <ele>235.48</ele>
        <time>2011-02-13T10:38:47Z</time>
      </trkpt>
      <trkpt lat="49.71669" lon="4.81955">
        <ele>235.36</ele>
        <time>2011-02-13T10:38:49Z</time>
      </trkpt>
      <trkpt lat="49.71666" lon="4.81956">
        <ele>234.76</ele>
        <time>2011-02-13T10:38:50Z</time>
      </trkpt>
      <trkpt lat="49.71665" lon="4.81957">
        <ele>234.34</ele>
        <time>2011-02-13T10:38:52Z</time>
      </trkpt>
      <trkpt lat="49.71662" lon="4.81959">
        <ele>233.37</ele>
        <time>2011-02-13T10:38:53Z</time>
      </trkpt>
      <trkpt lat="49.71661" lon="4.8196">
        <ele>232.79</ele>
        <time>2011-02-13T10:38:54Z</time>
      </trkpt>
      <trkpt lat="49.71659" lon="4.81962">
        <ele>231.55</ele>
        <time>2011-02-13T10:38:56Z</time>
      </trkpt>
      <trkpt lat="49.71656" lon="4.81964">
        <ele>230.54</ele>
        <time>2011-02-13T10:38:58Z</time>
      </trkpt>
      <trkpt lat="49.71654" lon="4.81967">
        <ele>230.14</ele>
        <time>2011-02-13T10:39:00Z</time>
      </trkpt>
      <trkpt lat="49.71653" lon="4.81967">
        <ele>230.02</ele>
        <time>2011-02-13T10:39:01Z</time>
      </trkpt>
      <trkpt lat="49.71651" lon="4.81968">
        <ele>229.79</ele>
        <time>2011-02-13T10:39:03Z</time>
      </trkpt>
      <trkpt lat="49.71647" lon="4.81966">
        <ele>229.64</ele>
        <time>2011-02-13T10:39:05Z</time>
      </trkpt>
      <trkpt lat="49.71643" lon="4.81965">
        <ele>229.7</ele>
        <time>2011-02-13T10:39:06Z</time>
      </trkpt>
      <trkpt lat="49.7164" lon="4.81965">
        <ele>229.99</ele>
        <time>2011-02-13T10:39:07Z</time>
      </trkpt>
      <trkpt lat="49.71633" lon="4.81962">
        <ele>230.7</ele>
        <time>2011-02-13T10:39:09Z</time>
      </trkpt>
      <trkpt lat="49.71628" lon="4.81962">
        <ele>231.6</ele>
        <time>2011-02-13T10:39:11Z</time>
      </trkpt>
      <trkpt lat="49.71624" lon="4.81962">
        <ele>232.82</ele>
        <time>2011-02-13T10:39:13Z</time>
      </trkpt>
      <trkpt lat="49.7162" lon="4.81963">
        <ele>234.24</ele>
        <time>2011-02-13T10:39:15Z</time>
      </trkpt>
      <trkpt lat="49.71618" lon="4.81963">
        <ele>234.92</ele>
        <time>2011-02-13T10:39:16Z</time>
      </trkpt>
      <trkpt lat="49.71615" lon="4.81964">
        <ele>235.72</ele>
        <time>2011-02-13T10:39:18Z</time>
      </trkpt>
      <trkpt lat="49.71613" lon="4.81964">
        <ele>236.04</ele>
        <time>2011-02-13T10:39:19Z</time>
      </trkpt>
      <trkpt lat="49.71611" lon="4.81964">
        <ele>236.23</ele>
        <time>2011-02-13T10:39:20Z</time>
      </trkpt>
      <trkpt lat="49.71608" lon="4.81964">
        <ele>236.15</ele>
        <time>2011-02-13T10:39:22Z</time>
      </trkpt>
      <trkpt lat="49.71604" lon="4.81963">
        <ele>235.65</ele>
        <time>2011-02-13T10:39:24Z</time>
      </trkpt>
      <trkpt lat="49.716" lon="4.81962">
        <ele>235</ele>
        <time>2011-02-13T10:39:26Z</time>
      </trkpt>
      <trkpt lat="49.71597" lon="4.81962">
        <ele>234.35</ele>
        <time>2011-02-13T10:39:28Z</time>
      </trkpt>
      <trkpt lat="49.71594" lon="4.81961">
        <ele>233.88</ele>
        <time>2011-02-13T10:39:30Z</time>
      </trkpt>
      <trkpt lat="49.71593" lon="4.81961">
        <ele>233.95</ele>
        <time>2011-02-13T10:39:31Z</time>
      </trkpt>
      <trkpt lat="49.7159" lon="4.8196">
        <ele>234.26</ele>
        <time>2011-02-13T10:39:33Z</time>
      </trkpt>
      <trkpt lat="49.71588" lon="4.81959">
        <ele>234.72</ele>
        <time>2011-02-13T10:39:35Z</time>
      </trkpt>
      <trkpt lat="49.71587" lon="4.81959">
        <ele>234.89</ele>
        <time>2011-02-13T10:39:36Z</time>
      </trkpt>
      <trkpt lat="49.71585" lon="4.81958">
        <ele>235.02</ele>
        <time>2011-02-13T10:39:38Z</time>
      </trkpt>
      <trkpt lat="49.71582" lon="4.81957">
        <ele>235.15</ele>
        <time>2011-02-13T10:39:40Z</time>
      </trkpt>
      <trkpt lat="49.7158" lon="4.81956">
        <ele>235.12</ele>
        <time>2011-02-13T10:39:41Z</time>
      </trkpt>
      <trkpt lat="49.71577" lon="4.81956">
        <ele>235</ele>
        <time>2011-02-13T10:39:43Z</time>
      </trkpt>
      <trkpt lat="49.71574" lon="4.81955">
        <ele>234.83</ele>
        <time>2011-02-13T10:39:45Z</time>
      </trkpt>
      <trkpt lat="49.7157" lon="4.81954">
        <ele>234.89</ele>
        <time>2011-02-13T10:39:47Z</time>
      </trkpt>
      <trkpt lat="49.71569" lon="4.81954">
        <ele>235.07</ele>
        <time>2011-02-13T10:39:48Z</time>
      </trkpt>
      <trkpt lat="49.71566" lon="4.81953">
        <ele>235.51</ele>
        <time>2011-02-13T10:39:50Z</time>
      </trkpt>
      <trkpt lat="49.71564" lon="4.81953">
        <ele>235.82</ele>
        <time>2011-02-13T10:39:51Z</time>
      </trkpt>
      <trkpt lat="49.71561" lon="4.81951">
        <ele>236.49</ele>
        <time>2011-02-13T10:39:53Z</time>
      </trkpt>
      <trkpt lat="49.7156" lon="4.8195">
        <ele>236.84</ele>
        <time>2011-02-13T10:39:54Z</time>
      </trkpt>
      <trkpt lat="49.71558" lon="4.81948">
        <ele>237.66</ele>
        <time>2011-02-13T10:39:56Z</time>
      </trkpt>
      <trkpt lat="49.71556" lon="4.81945">
        <ele>238.47</ele>
        <time>2011-02-13T10:39:58Z</time>
      </trkpt>
      <trkpt lat="49.71554" lon="4.81944">
        <ele>238.8</ele>
        <time>2011-02-13T10:39:59Z</time>
      </trkpt>
      <trkpt lat="49.71553" lon="4.81942">
        <ele>239.09</ele>
        <time>2011-02-13T10:40:00Z</time>
      </trkpt>
      <trkpt lat="49.71549" lon="4.81939">
        <ele>239.49</ele>
        <time>2011-02-13T10:40:02Z</time>
      </trkpt>
      <trkpt lat="49.71547" lon="4.81937">
        <ele>239.66</ele>
        <time>2011-02-13T10:40:03Z</time>
      </trkpt>
      <trkpt lat="49.71545" lon="4.81935">
        <ele>239.83</ele>
        <time>2011-02-13T10:40:04Z</time>
      </trkpt>
      <trkpt lat="49.71541" lon="4.81928">
        <ele>240.34</ele>
        <time>2011-02-13T10:40:06Z</time>
      </trkpt>
      <trkpt lat="49.71539" lon="4.81922">
        <ele>240.77</ele>
        <time>2011-02-13T10:40:08Z</time>
      </trkpt>
      <trkpt lat="49.71538" lon="4.81919">
        <ele>240.99</ele>
        <time>2011-02-13T10:40:09Z</time>
      </trkpt>
      <trkpt lat="49.71536" lon="4.81914">
        <ele>241.46</ele>
        <time>2011-02-13T10:40:11Z</time>
      </trkpt>
      <trkpt lat="49.71536" lon="4.81909">
        <ele>242.02</ele>
        <time>2011-02-13T10:40:13Z</time>
      </trkpt>
      <trkpt lat="49.71535" lon="4.81907">
        <ele>242.31</ele>
        <time>2011-02-13T10:40:14Z</time>
      </trkpt>
      <trkpt lat="49.71534" lon="4.81903">
        <ele>242.69</ele>
        <time>2011-02-13T10:40:16Z</time>
      </trkpt>
      <trkpt lat="49.71533" lon="4.81901">
        <ele>242.88</ele>
        <time>2011-02-13T10:40:17Z</time>
      </trkpt>
      <trkpt lat="49.71531" lon="4.81897">
        <ele>243.25</ele>
        <time>2011-02-13T10:40:19Z</time>
      </trkpt>
      <trkpt lat="49.71529" lon="4.81893">
        <ele>243.5</ele>
        <time>2011-02-13T10:40:21Z</time>
      </trkpt>
      <trkpt lat="49.71528" lon="4.81891">
        <ele>243.59</ele>
        <time>2011-02-13T10:40:22Z</time>
      </trkpt>
      <trkpt lat="49.71525" lon="4.81888">
        <ele>243.79</ele>
        <time>2011-02-13T10:40:24Z</time>
      </trkpt>
      <trkpt lat="49.71523" lon="4.81884">
        <ele>244.08</ele>
        <time>2011-02-13T10:40:26Z</time>
      </trkpt>
      <trkpt lat="49.7152" lon="4.81882">
        <ele>244.39</ele>
        <time>2011-02-13T10:40:28Z</time>
      </trkpt>
      <trkpt lat="49.71518" lon="4.8188">
        <ele>244.58</ele>
        <time>2011-02-13T10:40:29Z</time>
      </trkpt>
      <trkpt lat="49.71514" lon="4.81878">
        <ele>244.7</ele>
        <time>2011-02-13T10:40:31Z</time>
      </trkpt>
      <trkpt lat="49.71511" lon="4.81876">
        <ele>244.52</ele>
        <time>2011-02-13T10:40:32Z</time>
      </trkpt>
      <trkpt lat="49.71508" lon="4.81874">
        <ele>244.24</ele>
        <time>2011-02-13T10:40:34Z</time>
      </trkpt>
      <trkpt lat="49.71507" lon="4.81873">
        <ele>244.05</ele>
        <time>2011-02-13T10:40:35Z</time>
      </trkpt>
      <trkpt lat="49.71504" lon="4.81871">
        <ele>243.77</ele>
        <time>2011-02-13T10:40:37Z</time>
      </trkpt>
      <trkpt lat="49.71501" lon="4.8187">
        <ele>243.47</ele>
        <time>2011-02-13T10:40:38Z</time>
      </trkpt>
      <trkpt lat="49.71497" lon="4.81868">
        <ele>243.85</ele>
        <time>2011-02-13T10:40:40Z</time>
      </trkpt>
      <trkpt lat="49.71494" lon="4.81865">
        <ele>244.12</ele>
        <time>2011-02-13T10:40:42Z</time>
      </trkpt>
      <trkpt lat="49.71491" lon="4.8186">
        <ele>244.51</ele>
        <time>2011-02-13T10:40:44Z</time>
      </trkpt>
      <trkpt lat="49.71489" lon="4.81856">
        <ele>244.78</ele>
        <time>2011-02-13T10:40:46Z</time>
      </trkpt>
      <trkpt lat="49.71488" lon="4.81854">
        <ele>244.85</ele>
        <time>2011-02-13T10:40:47Z</time>
      </trkpt>
      <trkpt lat="49.71488" lon="4.81851">
        <ele>244.87</ele>
        <time>2011-02-13T10:40:49Z</time>
      </trkpt>
      <trkpt lat="49.71486" lon="4.81844">
        <ele>244.9</ele>
        <time>2011-02-13T10:40:51Z</time>
      </trkpt>
      <trkpt lat="49.71482" lon="4.81835">
        <ele>244.97</ele>
        <time>2011-02-13T10:40:53Z</time>
      </trkpt>
      <trkpt lat="49.71478" lon="4.81828">
        <ele>244.91</ele>
        <time>2011-02-13T10:40:55Z</time>
      </trkpt>
      <trkpt lat="49.71473" lon="4.81822">
        <ele>244.79</ele>
        <time>2011-02-13T10:40:57Z</time>
      </trkpt>
      <trkpt lat="49.71471" lon="4.8182">
        <ele>244.78</ele>
        <time>2011-02-13T10:40:58Z</time>
      </trkpt>
      <trkpt lat="49.7147" lon="4.81818">
        <ele>244.81</ele>
        <time>2011-02-13T10:40:59Z</time>
      </trkpt>
      <trkpt lat="49.71467" lon="4.81813">
        <ele>245.14</ele>
        <time>2011-02-13T10:41:01Z</time>
      </trkpt>
      <trkpt lat="49.71464" lon="4.81807">
        <ele>246.1</ele>
        <time>2011-02-13T10:41:03Z</time>
      </trkpt>
      <trkpt lat="49.71461" lon="4.81799">
        <ele>247.2</ele>
        <time>2011-02-13T10:41:05Z</time>
      </trkpt>
      <trkpt lat="49.7146" lon="4.81797">
        <ele>247.81</ele>
        <time>2011-02-13T10:41:06Z</time>
      </trkpt>
      <trkpt lat="49.71458" lon="4.81796">
        <ele>248.2</ele>
        <time>2011-02-13T10:41:07Z</time>
      </trkpt>
      <trkpt lat="49.71453" lon="4.81797">
        <ele>248.17</ele>
        <time>2011-02-13T10:41:09Z</time>
      </trkpt>
      <trkpt lat="49.71448" lon="4.81799">
        <ele>247.579</ele>
        <time>2011-02-13T10:41:11Z</time>
      </trkpt>
      <trkpt lat="49.71445" lon="4.81799">
        <ele>246.772</ele>
        <time>2011-02-13T10:41:12Z</time>
      </trkpt>
      <trkpt lat="49.7144" lon="4.81796">
        <ele>244.724</ele>
        <time>2011-02-13T10:41:14Z</time>
      </trkpt>
      <trkpt lat="49.71436" lon="4.81792">
        <ele>242.486</ele>
        <time>2011-02-13T10:41:16Z</time>
      </trkpt>
      <trkpt lat="49.71433" lon="4.81789">
        <ele>240.825</ele>
        <time>2011-02-13T10:41:18Z</time>
      </trkpt>
      <trkpt lat="49.7143" lon="4.81788">
        <ele>240.321</ele>
        <time>2011-02-13T10:41:19Z</time>
      </trkpt>
      <trkpt lat="49.71427" lon="4.81787">
        <ele>239.61</ele>
        <time>2011-02-13T10:41:21Z</time>
      </trkpt>
      <trkpt lat="49.71425" lon="4.81786">
        <ele>239.29</ele>
        <time>2011-02-13T10:41:22Z</time>
      </trkpt>
      <trkpt lat="49.71421" lon="4.81787">
        <ele>238.793</ele>
        <time>2011-02-13T10:41:24Z</time>
      </trkpt>
      <trkpt lat="49.71418" lon="4.81787">
        <ele>238.51</ele>
        <time>2011-02-13T10:41:26Z</time>
      </trkpt>
      <trkpt lat="49.71415" lon="4.81787">
        <ele>238.21</ele>
        <time>2011-02-13T10:41:28Z</time>
      </trkpt>
      <trkpt lat="49.71413" lon="4.81787">
        <ele>238.06</ele>
        <time>2011-02-13T10:41:29Z</time>
      </trkpt>
      <trkpt lat="49.71408" lon="4.81786">
        <ele>237.88</ele>
        <time>2011-02-13T10:41:31Z</time>
      </trkpt>
      <trkpt lat="49.71405" lon="4.81784">
        <ele>237.82</ele>
        <time>2011-02-13T10:41:32Z</time>
      </trkpt>
      <trkpt lat="49.71399" lon="4.81776">
        <ele>236.86</ele>
        <time>2011-02-13T10:41:34Z</time>
      </trkpt>
      <trkpt lat="49.71395" lon="4.81771">
        <ele>236.27</ele>
        <time>2011-02-13T10:41:35Z</time>
      </trkpt>
      <trkpt lat="49.71388" lon="4.81761">
        <ele>235.1</ele>
        <time>2011-02-13T10:41:37Z</time>
      </trkpt>
      <trkpt lat="49.71382" lon="4.81757">
        <ele>233.75</ele>
        <time>2011-02-13T10:41:39Z</time>
      </trkpt>
      <trkpt lat="49.71377" lon="4.81756">
        <ele>232.19</ele>
        <time>2011-02-13T10:41:41Z</time>
      </trkpt>
      <trkpt lat="49.71375" lon="4.81756">
        <ele>231.38</ele>
        <time>2011-02-13T10:41:42Z</time>
      </trkpt>
      <trkpt lat="49.71371" lon="4.81755">
        <ele>230.64</ele>
        <time>2011-02-13T10:41:44Z</time>
      </trkpt>
      <trkpt lat="49.71368" lon="4.81754">
        <ele>230.12</ele>
        <time>2011-02-13T10:41:46Z</time>
      </trkpt>
      <trkpt lat="49.71367" lon="4.81753">
        <ele>229.85</ele>
        <time>2011-02-13T10:41:47Z</time>
      </trkpt>
      <trkpt lat="49.71363" lon="4.8175">
        <ele>229.66</ele>
        <time>2011-02-13T10:41:49Z</time>
      </trkpt>
      <trkpt lat="49.71359" lon="4.81746">
        <ele>229.65</ele>
        <time>2011-02-13T10:41:51Z</time>
      </trkpt>
      <trkpt lat="49.71357" lon="4.81744">
        <ele>229.67</ele>
        <time>2011-02-13T10:41:52Z</time>
      </trkpt>
      <trkpt lat="49.71353" lon="4.8174">
        <ele>229.67</ele>
        <time>2011-02-13T10:41:54Z</time>
      </trkpt>
      <trkpt lat="49.71348" lon="4.81735">
        <ele>229.42</ele>
        <time>2011-02-13T10:41:56Z</time>
      </trkpt>
      <trkpt lat="49.71346" lon="4.81733">
        <ele>229.22</ele>
        <time>2011-02-13T10:41:57Z</time>
      </trkpt>
      <trkpt lat="49.71343" lon="4.81731">
        <ele>228.94</ele>
        <time>2011-02-13T10:41:58Z</time>
      </trkpt>
      <trkpt lat="49.71341" lon="4.81729">
        <ele>228.65</ele>
        <time>2011-02-13T10:41:59Z</time>
      </trkpt>
      <trkpt lat="49.71336" lon="4.81726">
        <ele>227.86</ele>
        <time>2011-02-13T10:42:01Z</time>
      </trkpt>
      <trkpt lat="49.7133" lon="4.81722">
        <ele>226.94</ele>
        <time>2011-02-13T10:42:03Z</time>
      </trkpt>
      <trkpt lat="49.71328" lon="4.8172">
        <ele>226.53</ele>
        <time>2011-02-13T10:42:04Z</time>
      </trkpt>
      <trkpt lat="49.71323" lon="4.81716">
        <ele>226.16</ele>
        <time>2011-02-13T10:42:06Z</time>
      </trkpt>
      <trkpt lat="49.71318" lon="4.81713">
        <ele>226.03</ele>
        <time>2011-02-13T10:42:08Z</time>
      </trkpt>
      <trkpt lat="49.71313" lon="4.8171">
        <ele>225.84</ele>
        <time>2011-02-13T10:42:09Z</time>
      </trkpt>
      <trkpt lat="49.71311" lon="4.81708">
        <ele>225.8</ele>
        <time>2011-02-13T10:42:11Z</time>
      </trkpt>
      <trkpt lat="49.71307" lon="4.81705">
        <ele>225.75</ele>
        <time>2011-02-13T10:42:12Z</time>
      </trkpt>
      <trkpt lat="49.71304" lon="4.81703">
        <ele>225.67</ele>
        <time>2011-02-13T10:42:13Z</time>
      </trkpt>
      <trkpt lat="49.71302" lon="4.81701">
        <ele>225.58</ele>
        <time>2011-02-13T10:42:14Z</time>
      </trkpt>
      <trkpt lat="49.71298" lon="4.81697">
        <ele>225.38</ele>
        <time>2011-02-13T10:42:16Z</time>
      </trkpt>
      <trkpt lat="49.71294" lon="4.81692">
        <ele>225.29</ele>
        <time>2011-02-13T10:42:18Z</time>
      </trkpt>
      <trkpt lat="49.71292" lon="4.81689">
        <ele>225.26</ele>
        <time>2011-02-13T10:42:19Z</time>
      </trkpt>
      <trkpt lat="49.71288" lon="4.81684">
        <ele>225.08</ele>
        <time>2011-02-13T10:42:21Z</time>
      </trkpt>
      <trkpt lat="49.71285" lon="4.81681">
        <ele>224.66</ele>
        <time>2011-02-13T10:42:23Z</time>
      </trkpt>
      <trkpt lat="49.71283" lon="4.8168">
        <ele>223.98</ele>
        <time>2011-02-13T10:42:24Z</time>
      </trkpt>
      <trkpt lat="49.7128" lon="4.81679">
        <ele>223.19</ele>
        <time>2011-02-13T10:42:25Z</time>
      </trkpt>
      <trkpt lat="49.71276" lon="4.81677">
        <ele>221.28</ele>
        <time>2011-02-13T10:42:27Z</time>
      </trkpt>
      <trkpt lat="49.71272" lon="4.81677">
        <ele>219.31</ele>
        <time>2011-02-13T10:42:29Z</time>
      </trkpt>
      <trkpt lat="49.71267" lon="4.81676">
        <ele>217.29</ele>
        <time>2011-02-13T10:42:31Z</time>
      </trkpt>
      <trkpt lat="49.71262" lon="4.81674">
        <ele>215.69</ele>
        <time>2011-02-13T10:42:33Z</time>
      </trkpt>
      <trkpt lat="49.7126" lon="4.81672">
        <ele>215.29</ele>
        <time>2011-02-13T10:42:34Z</time>
      </trkpt>
      <trkpt lat="49.71257" lon="4.81671">
        <ele>214.98</ele>
        <time>2011-02-13T10:42:35Z</time>
      </trkpt>
      <trkpt lat="49.71252" lon="4.81668">
        <ele>214.55</ele>
        <time>2011-02-13T10:42:37Z</time>
      </trkpt>
      <trkpt lat="49.71246" lon="4.81665">
        <ele>214.2</ele>
        <time>2011-02-13T10:42:39Z</time>
      </trkpt>
      <trkpt lat="49.71241" lon="4.81661">
        <ele>214.06</ele>
        <time>2011-02-13T10:42:41Z</time>
      </trkpt>
      <trkpt lat="49.71239" lon="4.8166">
        <ele>214.05</ele>
        <time>2011-02-13T10:42:42Z</time>
      </trkpt>
      <trkpt lat="49.71235" lon="4.81659">
        <ele>214.27</ele>
        <time>2011-02-13T10:42:44Z</time>
      </trkpt>
      <trkpt lat="49.71233" lon="4.81659">
        <ele>214.41</ele>
        <time>2011-02-13T10:42:45Z</time>
      </trkpt>
      <trkpt lat="49.71229" lon="4.81659">
        <ele>214.82</ele>
        <time>2011-02-13T10:42:47Z</time>
      </trkpt>
      <trkpt lat="49.71225" lon="4.81658">
        <ele>215.29</ele>
        <time>2011-02-13T10:42:49Z</time>
      </trkpt>
      <trkpt lat="49.71222" lon="4.81657">
        <ele>215.768</ele>
        <time>2011-02-13T10:42:51Z</time>
      </trkpt>
      <trkpt lat="49.71219" lon="4.81657">
        <ele>215.939</ele>
        <time>2011-02-13T10:42:52Z</time>
      </trkpt>
      <trkpt lat="49.71214" lon="4.81654">
        <ele>216.079</ele>
        <time>2011-02-13T10:42:54Z</time>
      </trkpt>
      <trkpt lat="49.7121" lon="4.81652">
        <ele>216.207</ele>
        <time>2011-02-13T10:42:56Z</time>
      </trkpt>
      <trkpt lat="49.71207" lon="4.81649">
        <ele>216.304</ele>
        <time>2011-02-13T10:42:57Z</time>
      </trkpt>
      <trkpt lat="49.71202" lon="4.81644">
        <ele>216.85</ele>
        <time>2011-02-13T10:42:59Z</time>
      </trkpt>
      <trkpt lat="49.71196" lon="4.81639">
        <ele>217.42</ele>
        <time>2011-02-13T10:43:01Z</time>
      </trkpt>
      <trkpt lat="49.71193" lon="4.81638">
        <ele>217.81</ele>
        <time>2011-02-13T10:43:02Z</time>
      </trkpt>
      <trkpt lat="49.71188" lon="4.81636">
        <ele>218.63</ele>
        <time>2011-02-13T10:43:04Z</time>
      </trkpt>
      <trkpt lat="49.71184" lon="4.81634">
        <ele>219.43</ele>
        <time>2011-02-13T10:43:06Z</time>
      </trkpt>
      <trkpt lat="49.71181" lon="4.81634">
        <ele>219.77</ele>
        <time>2011-02-13T10:43:07Z</time>
      </trkpt>
      <trkpt lat="49.71177" lon="4.81633">
        <ele>220.11</ele>
        <time>2011-02-13T10:43:09Z</time>
      </trkpt>
      <trkpt lat="49.71173" lon="4.81631">
        <ele>220.19</ele>
        <time>2011-02-13T10:43:11Z</time>
      </trkpt>
      <trkpt lat="49.71168" lon="4.81628">
        <ele>220.1</ele>
        <time>2011-02-13T10:43:13Z</time>
      </trkpt>
      <trkpt lat="49.71164" lon="4.81625">
        <ele>219.93</ele>
        <time>2011-02-13T10:43:15Z</time>
      </trkpt>
      <trkpt lat="49.71162" lon="4.81623">
        <ele>219.85</ele>
        <time>2011-02-13T10:43:16Z</time>
      </trkpt>
      <trkpt lat="49.71158" lon="4.8162">
        <ele>219.67</ele>
        <time>2011-02-13T10:43:18Z</time>
      </trkpt>
      <trkpt lat="49.71155" lon="4.81618">
        <ele>219.57</ele>
        <time>2011-02-13T10:43:19Z</time>
      </trkpt>
      <trkpt lat="49.7115" lon="4.81613">
        <ele>219.35</ele>
        <time>2011-02-13T10:43:21Z</time>
      </trkpt>
      <trkpt lat="49.71147" lon="4.8161">
        <ele>219.29</ele>
        <time>2011-02-13T10:43:22Z</time>
      </trkpt>
      <trkpt lat="49.71141" lon="4.81606">
        <ele>219.22</ele>
        <time>2011-02-13T10:43:24Z</time>
      </trkpt>
      <trkpt lat="49.71139" lon="4.81604">
        <ele>219.17</ele>
        <time>2011-02-13T10:43:25Z</time>
      </trkpt>
      <trkpt lat="49.71135" lon="4.81601">
        <ele>219.06</ele>
        <time>2011-02-13T10:43:27Z</time>
      </trkpt>
      <trkpt lat="49.71132" lon="4.81599">
        <ele>218.934</ele>
        <time>2011-02-13T10:43:29Z</time>
      </trkpt>
      <trkpt lat="49.71128" lon="4.81596">
        <ele>218.914</ele>
        <time>2011-02-13T10:43:31Z</time>
      </trkpt>
      <trkpt lat="49.71125" lon="4.81595">
        <ele>218.883</ele>
        <time>2011-02-13T10:43:32Z</time>
      </trkpt>
      <trkpt lat="49.71123" lon="4.81593">
        <ele>218.862</ele>
        <time>2011-02-13T10:43:33Z</time>
      </trkpt>
      <trkpt lat="49.71119" lon="4.81589">
        <ele>218.81</ele>
        <time>2011-02-13T10:43:35Z</time>
      </trkpt>
      <trkpt lat="49.71115" lon="4.81585">
        <ele>218.759</ele>
        <time>2011-02-13T10:43:37Z</time>
      </trkpt>
      <trkpt lat="49.71111" lon="4.81582">
        <ele>218.59</ele>
        <time>2011-02-13T10:43:39Z</time>
      </trkpt>
      <trkpt lat="49.71109" lon="4.8158">
        <ele>218.5</ele>
        <time>2011-02-13T10:43:40Z</time>
      </trkpt>
      <trkpt lat="49.71105" lon="4.81577">
        <ele>218.3</ele>
        <time>2011-02-13T10:43:42Z</time>
      </trkpt>
      <trkpt lat="49.711" lon="4.81573">
        <ele>218.45</ele>
        <time>2011-02-13T10:43:44Z</time>
      </trkpt>
      <trkpt lat="49.71098" lon="4.81571">
        <ele>218.59</ele>
        <time>2011-02-13T10:43:45Z</time>
      </trkpt>
      <trkpt lat="49.71094" lon="4.81566">
        <ele>219.03</ele>
        <time>2011-02-13T10:43:47Z</time>
      </trkpt>
      <trkpt lat="49.71091" lon="4.8156">
        <ele>219.59</ele>
        <time>2011-02-13T10:43:49Z</time>
      </trkpt>
      <trkpt lat="49.71088" lon="4.81555">
        <ele>220.01</ele>
        <time>2011-02-13T10:43:51Z</time>
      </trkpt>
      <trkpt lat="49.71083" lon="4.8155">
        <ele>220.06</ele>
        <time>2011-02-13T10:43:52Z</time>
      </trkpt>
      <trkpt lat="49.71081" lon="4.81547">
        <ele>219.784</ele>
        <time>2011-02-13T10:43:54Z</time>
      </trkpt>
      <trkpt lat="49.71077" lon="4.81543">
        <ele>219.043</ele>
        <time>2011-02-13T10:43:55Z</time>
      </trkpt>
      <trkpt lat="49.71075" lon="4.81541">
        <ele>218.57</ele>
        <time>2011-02-13T10:43:56Z</time>
      </trkpt>
      <trkpt lat="49.71071" lon="4.81536">
        <ele>217.608</ele>
        <time>2011-02-13T10:43:58Z</time>
      </trkpt>
      <trkpt lat="49.71066" lon="4.81531">
        <ele>216.857</ele>
        <time>2011-02-13T10:43:59Z</time>
      </trkpt>
      <trkpt lat="49.71064" lon="4.81528">
        <ele>216.513</ele>
        <time>2011-02-13T10:44:00Z</time>
      </trkpt>
      <trkpt lat="49.71062" lon="4.81526">
        <ele>216.23</ele>
        <time>2011-02-13T10:44:01Z</time>
      </trkpt>
      <trkpt lat="49.71059" lon="4.81524">
        <ele>215.97</ele>
        <time>2011-02-13T10:44:02Z</time>
      </trkpt>
      <trkpt lat="49.71055" lon="4.8152">
        <ele>215.79</ele>
        <time>2011-02-13T10:44:04Z</time>
      </trkpt>
      <trkpt lat="49.71052" lon="4.81518">
        <ele>215.93</ele>
        <time>2011-02-13T10:44:05Z</time>
      </trkpt>
      <trkpt lat="49.71049" lon="4.81515">
        <ele>216.3</ele>
        <time>2011-02-13T10:44:07Z</time>
      </trkpt>
      <trkpt lat="49.71046" lon="4.81512">
        <ele>216.6</ele>
        <time>2011-02-13T10:44:09Z</time>
      </trkpt>
      <trkpt lat="49.71046" lon="4.81511">
        <ele>216.69</ele>
        <time>2011-02-13T10:44:10Z</time>
      </trkpt>
      <trkpt lat="49.71044" lon="4.81509">
        <ele>216.83</ele>
        <time>2011-02-13T10:44:12Z</time>
      </trkpt>
      <trkpt lat="49.71041" lon="4.81506">
        <ele>216.62</ele>
        <time>2011-02-13T10:44:14Z</time>
      </trkpt>
      <trkpt lat="49.71038" lon="4.81503">
        <ele>216.06</ele>
        <time>2011-02-13T10:44:15Z</time>
      </trkpt>
      <trkpt lat="49.71035" lon="4.81499">
        <ele>215.48</ele>
        <time>2011-02-13T10:44:17Z</time>
      </trkpt>
      <trkpt lat="49.71033" lon="4.81496">
        <ele>215.04</ele>
        <time>2011-02-13T10:44:18Z</time>
      </trkpt>
      <trkpt lat="49.7103" lon="4.81493">
        <ele>214.53</ele>
        <time>2011-02-13T10:44:20Z</time>
      </trkpt>
      <trkpt lat="49.71027" lon="4.81488">
        <ele>214.05</ele>
        <time>2011-02-13T10:44:22Z</time>
      </trkpt>
      <trkpt lat="49.71024" lon="4.81483">
        <ele>213.55</ele>
        <time>2011-02-13T10:44:23Z</time>
      </trkpt>
      <trkpt lat="49.71023" lon="4.81481">
        <ele>213.3</ele>
        <time>2011-02-13T10:44:24Z</time>
      </trkpt>
      <trkpt lat="49.71019" lon="4.81477">
        <ele>212.81</ele>
        <time>2011-02-13T10:44:26Z</time>
      </trkpt>
      <trkpt lat="49.71017" lon="4.81475">
        <ele>212.6</ele>
        <time>2011-02-13T10:44:27Z</time>
      </trkpt>
      <trkpt lat="49.71013" lon="4.81471">
        <ele>212.27</ele>
        <time>2011-02-13T10:44:29Z</time>
      </trkpt>
      <trkpt lat="49.71008" lon="4.81466">
        <ele>212.06</ele>
        <time>2011-02-13T10:44:31Z</time>
      </trkpt>
      <trkpt lat="49.71006" lon="4.81463">
        <ele>211.98</ele>
        <time>2011-02-13T10:44:32Z</time>
      </trkpt>
      <trkpt lat="49.71002" lon="4.81457">
        <ele>211.81</ele>
        <time>2011-02-13T10:44:34Z</time>
      </trkpt>
      <trkpt lat="49.71" lon="4.81455">
        <ele>211.66</ele>
        <time>2011-02-13T10:44:35Z</time>
      </trkpt>
      <trkpt lat="49.70996" lon="4.8145">
        <ele>211.32</ele>
        <time>2011-02-13T10:44:37Z</time>
      </trkpt>
      <trkpt lat="49.70993" lon="4.81444">
        <ele>210.81</ele>
        <time>2011-02-13T10:44:39Z</time>
      </trkpt>
      <trkpt lat="49.7099" lon="4.81437">
        <ele>210.34</ele>
        <time>2011-02-13T10:44:41Z</time>
      </trkpt>
      <trkpt lat="49.70988" lon="4.81434">
        <ele>210.09</ele>
        <time>2011-02-13T10:44:42Z</time>
      </trkpt>
      <trkpt lat="49.70984" lon="4.81427">
        <ele>209.53</ele>
        <time>2011-02-13T10:44:44Z</time>
      </trkpt>
      <trkpt lat="49.70981" lon="4.81422">
        <ele>209.15</ele>
        <time>2011-02-13T10:44:46Z</time>
      </trkpt>
      <trkpt lat="49.7098" lon="4.81419">
        <ele>209.03</ele>
        <time>2011-02-13T10:44:47Z</time>
      </trkpt>
      <trkpt lat="49.70976" lon="4.81413">
        <ele>208.86</ele>
        <time>2011-02-13T10:44:49Z</time>
      </trkpt>
      <trkpt lat="49.70972" lon="4.81408">
        <ele>208.39</ele>
        <time>2011-02-13T10:44:51Z</time>
      </trkpt>
      <trkpt lat="49.70968" lon="4.81403">
        <ele>207.96</ele>
        <time>2011-02-13T10:44:53Z</time>
      </trkpt>
      <trkpt lat="49.70966" lon="4.814">
        <ele>207.79</ele>
        <time>2011-02-13T10:44:54Z</time>
      </trkpt>
      <trkpt lat="49.70964" lon="4.81398">
        <ele>207.6</ele>
        <time>2011-02-13T10:44:55Z</time>
      </trkpt>
      <trkpt lat="49.7096" lon="4.81392">
        <ele>206.95</ele>
        <time>2011-02-13T10:44:57Z</time>
      </trkpt>
      <trkpt lat="49.70955" lon="4.81386">
        <ele>206.13</ele>
        <time>2011-02-13T10:44:59Z</time>
      </trkpt>
      <trkpt lat="49.70952" lon="4.81384">
        <ele>205.75</ele>
        <time>2011-02-13T10:45:00Z</time>
      </trkpt>
      <trkpt lat="49.70947" lon="4.81379">
        <ele>204.88</ele>
        <time>2011-02-13T10:45:02Z</time>
      </trkpt>
      <trkpt lat="49.70942" lon="4.81374">
        <ele>203.99</ele>
        <time>2011-02-13T10:45:04Z</time>
      </trkpt>
      <trkpt lat="49.70937" lon="4.81369">
        <ele>203.28</ele>
        <time>2011-02-13T10:45:06Z</time>
      </trkpt>
      <trkpt lat="49.70932" lon="4.81363">
        <ele>202.92</ele>
        <time>2011-02-13T10:45:08Z</time>
      </trkpt>
      <trkpt lat="49.70927" lon="4.81356">
        <ele>203.43</ele>
        <time>2011-02-13T10:45:10Z</time>
      </trkpt>
      <trkpt lat="49.70925" lon="4.81352">
        <ele>203.89</ele>
        <time>2011-02-13T10:45:11Z</time>
      </trkpt>
      <trkpt lat="49.70922" lon="4.81349">
        <ele>204.44</ele>
        <time>2011-02-13T10:45:12Z</time>
      </trkpt>
      <trkpt lat="49.70918" lon="4.81342">
        <ele>205.63</ele>
        <time>2011-02-13T10:45:14Z</time>
      </trkpt>
      <trkpt lat="49.70916" lon="4.8134">
        <ele>206.2</ele>
        <time>2011-02-13T10:45:15Z</time>
      </trkpt>
      <trkpt lat="49.70911" lon="4.81334">
        <ele>207.49</ele>
        <time>2011-02-13T10:45:17Z</time>
      </trkpt>
      <trkpt lat="49.70908" lon="4.81331">
        <ele>208.19</ele>
        <time>2011-02-13T10:45:18Z</time>
      </trkpt>
      <trkpt lat="49.70904" lon="4.81323">
        <ele>208.97</ele>
        <time>2011-02-13T10:45:20Z</time>
      </trkpt>
      <trkpt lat="49.709" lon="4.81315">
        <ele>209.44</ele>
        <time>2011-02-13T10:45:22Z</time>
      </trkpt>
      <trkpt lat="49.70897" lon="4.8131">
        <ele>209.58</ele>
        <time>2011-02-13T10:45:23Z</time>
      </trkpt>
      <trkpt lat="49.70891" lon="4.81301">
        <ele>209.78</ele>
        <time>2011-02-13T10:45:25Z</time>
      </trkpt>
      <trkpt lat="49.70889" lon="4.81296">
        <ele>209.81</ele>
        <time>2011-02-13T10:45:26Z</time>
      </trkpt>
      <trkpt lat="49.70883" lon="4.81291">
        <ele>209.61</ele>
        <time>2011-02-13T10:45:28Z</time>
      </trkpt>
      <trkpt lat="49.7088" lon="4.81288">
        <ele>209.48</ele>
        <time>2011-02-13T10:45:29Z</time>
      </trkpt>
      <trkpt lat="49.70876" lon="4.81283">
        <ele>209.17</ele>
        <time>2011-02-13T10:45:31Z</time>
      </trkpt>
      <trkpt lat="49.70874" lon="4.81279">
        <ele>208.95</ele>
        <time>2011-02-13T10:45:32Z</time>
      </trkpt>
      <trkpt lat="49.70869" lon="4.81272">
        <ele>208.38</ele>
        <time>2011-02-13T10:45:34Z</time>
      </trkpt>
      <trkpt lat="49.70864" lon="4.81262">
        <ele>207.7</ele>
        <time>2011-02-13T10:45:36Z</time>
      </trkpt>
      <trkpt lat="49.70859" lon="4.81253">
        <ele>207.15</ele>
        <time>2011-02-13T10:45:38Z</time>
      </trkpt>
      <trkpt lat="49.70854" lon="4.81243">
        <ele>206.75</ele>
        <time>2011-02-13T10:45:40Z</time>
      </trkpt>
      <trkpt lat="49.70847" lon="4.81235">
        <ele>206.64</ele>
        <time>2011-02-13T10:45:42Z</time>
      </trkpt>
      <trkpt lat="49.7084" lon="4.81226">
        <ele>207.15</ele>
        <time>2011-02-13T10:45:44Z</time>
      </trkpt>
      <trkpt lat="49.70833" lon="4.81218">
        <ele>207.9</ele>
        <time>2011-02-13T10:45:46Z</time>
      </trkpt>
      <trkpt lat="49.70828" lon="4.8121">
        <ele>208.78</ele>
        <time>2011-02-13T10:45:48Z</time>
      </trkpt>
      <trkpt lat="49.70823" lon="4.81203">
        <ele>209.59</ele>
        <time>2011-02-13T10:45:50Z</time>
      </trkpt>
      <trkpt lat="49.70819" lon="4.81196">
        <ele>210.22</ele>
        <time>2011-02-13T10:45:52Z</time>
      </trkpt>
      <trkpt lat="49.70817" lon="4.81193">
        <ele>210.36</ele>
        <time>2011-02-13T10:45:53Z</time>
      </trkpt>
      <trkpt lat="49.70812" lon="4.81187">
        <ele>210.26</ele>
        <time>2011-02-13T10:45:55Z</time>
      </trkpt>
      <trkpt lat="49.70809" lon="4.81184">
        <ele>210.08</ele>
        <time>2011-02-13T10:45:56Z</time>
      </trkpt>
      <trkpt lat="49.70804" lon="4.81178">
        <ele>209.732</ele>
        <time>2011-02-13T10:45:57Z</time>
      </trkpt>
      <trkpt lat="49.70799" lon="4.81171">
        <ele>209.546</ele>
        <time>2011-02-13T10:45:59Z</time>
      </trkpt>
      <trkpt lat="49.70794" lon="4.81163">
        <ele>209.491</ele>
        <time>2011-02-13T10:46:01Z</time>
      </trkpt>
      <trkpt lat="49.70791" lon="4.81159">
        <ele>209.398</ele>
        <time>2011-02-13T10:46:03Z</time>
      </trkpt>
      <trkpt lat="49.70787" lon="4.81153">
        <ele>209.419</ele>
        <time>2011-02-13T10:46:04Z</time>
      </trkpt>
      <trkpt lat="49.70784" lon="4.81149">
        <ele>209.452</ele>
        <time>2011-02-13T10:46:05Z</time>
      </trkpt>
      <trkpt lat="49.70777" lon="4.8114">
        <ele>209.253</ele>
        <time>2011-02-13T10:46:07Z</time>
      </trkpt>
      <trkpt lat="49.70772" lon="4.8113">
        <ele>208.658</ele>
        <time>2011-02-13T10:46:09Z</time>
      </trkpt>
      <trkpt lat="49.7077" lon="4.81125">
        <ele>208.26</ele>
        <time>2011-02-13T10:46:10Z</time>
      </trkpt>
      <trkpt lat="49.70764" lon="4.81116">
        <ele>207.613</ele>
        <time>2011-02-13T10:46:12Z</time>
      </trkpt>
      <trkpt lat="49.70759" lon="4.81108">
        <ele>207.217</ele>
        <time>2011-02-13T10:46:14Z</time>
      </trkpt>
      <trkpt lat="49.70755" lon="4.81101">
        <ele>206.86</ele>
        <time>2011-02-13T10:46:15Z</time>
      </trkpt>
      <trkpt lat="49.70753" lon="4.81098">
        <ele>206.72</ele>
        <time>2011-02-13T10:46:16Z</time>
      </trkpt>
      <trkpt lat="49.70748" lon="4.81092">
        <ele>206.65</ele>
        <time>2011-02-13T10:46:17Z</time>
      </trkpt>
      <trkpt lat="49.70746" lon="4.81088">
        <ele>206.66</ele>
        <time>2011-02-13T10:46:20Z</time>
      </trkpt>
      <trkpt lat="49.70745" lon="4.81088">
        <ele>206.58</ele>
        <time>2011-02-13T10:46:21Z</time>
      </trkpt>
      <trkpt lat="49.70745" lon="4.81087">
        <ele>206.49</ele>
        <time>2011-02-13T10:46:22Z</time>
      </trkpt>
      <trkpt lat="49.70743" lon="4.81083">
        <ele>206.361</ele>
        <time>2011-02-13T10:46:23Z</time>
      </trkpt>
      <trkpt lat="49.70741" lon="4.81076">
        <ele>206.297</ele>
        <time>2011-02-13T10:46:25Z</time>
      </trkpt>
      <trkpt lat="49.70739" lon="4.81073">
        <ele>206.287</ele>
        <time>2011-02-13T10:46:27Z</time>
      </trkpt>
      <trkpt lat="49.70736" lon="4.81066">
        <ele>206.235</ele>
        <time>2011-02-13T10:46:28Z</time>
      </trkpt>
      <trkpt lat="49.70734" lon="4.81063">
        <ele>206.215</ele>
        <time>2011-02-13T10:46:29Z</time>
      </trkpt>
      <trkpt lat="49.7073" lon="4.81053">
        <ele>206.27</ele>
        <time>2011-02-13T10:46:31Z</time>
      </trkpt>
      <trkpt lat="49.70726" lon="4.81043">
        <ele>206.169</ele>
        <time>2011-02-13T10:46:33Z</time>
      </trkpt>
      <trkpt lat="49.70723" lon="4.81035">
        <ele>206.026</ele>
        <time>2011-02-13T10:46:35Z</time>
      </trkpt>
      <trkpt lat="49.70714" lon="4.81016">
        <ele>205.45</ele>
        <time>2011-02-13T10:46:36Z</time>
      </trkpt>
      <trkpt lat="49.70707" lon="4.80998">
        <ele>204.717</ele>
        <time>2011-02-13T10:46:38Z</time>
      </trkpt>
      <trkpt lat="49.70704" lon="4.80989">
        <ele>203.921</ele>
        <time>2011-02-13T10:46:39Z</time>
      </trkpt>
      <trkpt lat="49.70703" lon="4.80985">
        <ele>203.699</ele>
        <time>2011-02-13T10:46:41Z</time>
      </trkpt>
      <trkpt lat="49.70702" lon="4.80978">
        <ele>203.466</ele>
        <time>2011-02-13T10:46:42Z</time>
      </trkpt>
      <trkpt lat="49.707" lon="4.80969">
        <ele>203.084</ele>
        <time>2011-02-13T10:46:44Z</time>
      </trkpt>
      <trkpt lat="49.707" lon="4.8096">
        <ele>202.737</ele>
        <time>2011-02-13T10:46:46Z</time>
      </trkpt>
      <trkpt lat="49.70699" lon="4.80949">
        <ele>202.469</ele>
        <time>2011-02-13T10:46:48Z</time>
      </trkpt>
      <trkpt lat="49.70697" lon="4.80939">
        <ele>201.85</ele>
        <time>2011-02-13T10:46:50Z</time>
      </trkpt>
      <trkpt lat="49.70696" lon="4.8093">
        <ele>201.33</ele>
        <time>2011-02-13T10:46:51Z</time>
      </trkpt>
      <trkpt lat="49.70695" lon="4.80926">
        <ele>201.275</ele>
        <time>2011-02-13T10:46:52Z</time>
      </trkpt>
      <trkpt lat="49.70695" lon="4.80922">
        <ele>201.405</ele>
        <time>2011-02-13T10:46:54Z</time>
      </trkpt>
      <trkpt lat="49.70694" lon="4.80915">
        <ele>201.609</ele>
        <time>2011-02-13T10:46:55Z</time>
      </trkpt>
      <trkpt lat="49.70692" lon="4.80907">
        <ele>201.728</ele>
        <time>2011-02-13T10:46:57Z</time>
      </trkpt>
      <trkpt lat="49.70692" lon="4.80902">
        <ele>201.856</ele>
        <time>2011-02-13T10:46:58Z</time>
      </trkpt>
      <trkpt lat="49.70689" lon="4.80889">
        <ele>202.161</ele>
        <time>2011-02-13T10:47:00Z</time>
      </trkpt>
      <trkpt lat="49.70685" lon="4.80876">
        <ele>202.37</ele>
        <time>2011-02-13T10:47:02Z</time>
      </trkpt>
      <trkpt lat="49.70682" lon="4.80869">
        <ele>202.34</ele>
        <time>2011-02-13T10:47:03Z</time>
      </trkpt>
      <trkpt lat="49.7068" lon="4.80863">
        <ele>202.3</ele>
        <time>2011-02-13T10:47:04Z</time>
      </trkpt>
      <trkpt lat="49.70674" lon="4.80851">
        <ele>202.38</ele>
        <time>2011-02-13T10:47:06Z</time>
      </trkpt>
      <trkpt lat="49.70667" lon="4.80838">
        <ele>202.52</ele>
        <time>2011-02-13T10:47:08Z</time>
      </trkpt>
      <trkpt lat="49.7066" lon="4.80825">
        <ele>202.69</ele>
        <time>2011-02-13T10:47:10Z</time>
      </trkpt>
      <trkpt lat="49.70652" lon="4.80812">
        <ele>202.97</ele>
        <time>2011-02-13T10:47:12Z</time>
      </trkpt>
      <trkpt lat="49.70646" lon="4.80801">
        <ele>203.19</ele>
        <time>2011-02-13T10:47:13Z</time>
      </trkpt>
      <trkpt lat="49.70639" lon="4.80789">
        <ele>203.31</ele>
        <time>2011-02-13T10:47:15Z</time>
      </trkpt>
      <trkpt lat="49.70632" lon="4.80775">
        <ele>203.34</ele>
        <time>2011-02-13T10:47:17Z</time>
      </trkpt>
      <trkpt lat="49.70628" lon="4.80768">
        <ele>203.31</ele>
        <time>2011-02-13T10:47:18Z</time>
      </trkpt>
      <trkpt lat="49.70625" lon="4.80761">
        <ele>203.26</ele>
        <time>2011-02-13T10:47:19Z</time>
      </trkpt>
      <trkpt lat="49.70619" lon="4.80748">
        <ele>202.92</ele>
        <time>2011-02-13T10:47:21Z</time>
      </trkpt>
      <trkpt lat="49.70613" lon="4.80735">
        <ele>202.51</ele>
        <time>2011-02-13T10:47:23Z</time>
      </trkpt>
      <trkpt lat="49.7061" lon="4.80729">
        <ele>202.32</ele>
        <time>2011-02-13T10:47:24Z</time>
      </trkpt>
      <trkpt lat="49.70607" lon="4.80722">
        <ele>202.15</ele>
        <time>2011-02-13T10:47:25Z</time>
      </trkpt>
      <trkpt lat="49.70601" lon="4.80705">
        <ele>201.87</ele>
        <time>2011-02-13T10:47:27Z</time>
      </trkpt>
      <trkpt lat="49.70597" lon="4.80697">
        <ele>201.71</ele>
        <time>2011-02-13T10:47:28Z</time>
      </trkpt>
      <trkpt lat="49.70594" lon="4.80688">
        <ele>201.53</ele>
        <time>2011-02-13T10:47:29Z</time>
      </trkpt>
      <trkpt lat="49.70592" lon="4.80681">
        <ele>201.3</ele>
        <time>2011-02-13T10:47:30Z</time>
      </trkpt>
      <trkpt lat="49.70591" lon="4.80675">
        <ele>201.02</ele>
        <time>2011-02-13T10:47:31Z</time>
      </trkpt>
      <trkpt lat="49.7059" lon="4.80666">
        <ele>200.35</ele>
        <time>2011-02-13T10:47:33Z</time>
      </trkpt>
      <trkpt lat="49.70591" lon="4.80662">
        <ele>200.02</ele>
        <time>2011-02-13T10:47:34Z</time>
      </trkpt>
      <trkpt lat="49.7059" lon="4.80653">
        <ele>199.26</ele>
        <time>2011-02-13T10:47:36Z</time>
      </trkpt>
      <trkpt lat="49.70588" lon="4.80645">
        <ele>198.36</ele>
        <time>2011-02-13T10:47:37Z</time>
      </trkpt>
      <trkpt lat="49.70585" lon="4.8064">
        <ele>197.85</ele>
        <time>2011-02-13T10:47:39Z</time>
      </trkpt>
      <trkpt lat="49.7058" lon="4.80634">
        <ele>196.98</ele>
        <time>2011-02-13T10:47:40Z</time>
      </trkpt>
      <trkpt lat="49.70575" lon="4.80625">
        <ele>195.806</ele>
        <time>2011-02-13T10:47:41Z</time>
      </trkpt>
      <trkpt lat="49.70572" lon="4.80617">
        <ele>194.337</ele>
        <time>2011-02-13T10:47:44Z</time>
      </trkpt>
      <trkpt lat="49.7057" lon="4.80609">
        <ele>192.764</ele>
        <time>2011-02-13T10:47:45Z</time>
      </trkpt>
      <trkpt lat="49.70568" lon="4.806">
        <ele>191.117</ele>
        <time>2011-02-13T10:47:47Z</time>
      </trkpt>
      <trkpt lat="49.70566" lon="4.80595">
        <ele>190.257</ele>
        <time>2011-02-13T10:47:48Z</time>
      </trkpt>
      <trkpt lat="49.70561" lon="4.80583">
        <ele>188.785</ele>
        <time>2011-02-13T10:47:49Z</time>
      </trkpt>
      <trkpt lat="49.70557" lon="4.80572">
        <ele>187.663</ele>
        <time>2011-02-13T10:47:51Z</time>
      </trkpt>
      <trkpt lat="49.70555" lon="4.80568">
        <ele>187.265</ele>
        <time>2011-02-13T10:47:53Z</time>
      </trkpt>
      <trkpt lat="49.70553" lon="4.8056">
        <ele>186.547</ele>
        <time>2011-02-13T10:47:54Z</time>
      </trkpt>
      <trkpt lat="49.70552" lon="4.80556">
        <ele>186.272</ele>
        <time>2011-02-13T10:47:55Z</time>
      </trkpt>
      <trkpt lat="49.7055" lon="4.80548">
        <ele>185.655</ele>
        <time>2011-02-13T10:47:57Z</time>
      </trkpt>
      <trkpt lat="49.70545" lon="4.80533">
        <ele>184.963</ele>
        <time>2011-02-13T10:47:58Z</time>
      </trkpt>
      <trkpt lat="49.70543" lon="4.80526">
        <ele>184.828</ele>
        <time>2011-02-13T10:48:00Z</time>
      </trkpt>
      <trkpt lat="49.7054" lon="4.80516">
        <ele>184.524</ele>
        <time>2011-02-13T10:48:01Z</time>
      </trkpt>
      <trkpt lat="49.70535" lon="4.80502">
        <ele>184.126</ele>
        <time>2011-02-13T10:48:03Z</time>
      </trkpt>
      <trkpt lat="49.7053" lon="4.80491">
        <ele>183.555</ele>
        <time>2011-02-13T10:48:04Z</time>
      </trkpt>
      <trkpt lat="49.70525" lon="4.8048">
        <ele>183.045</ele>
        <time>2011-02-13T10:48:06Z</time>
      </trkpt>
      <trkpt lat="49.7052" lon="4.80466">
        <ele>182.578</ele>
        <time>2011-02-13T10:48:08Z</time>
      </trkpt>
      <trkpt lat="49.70517" lon="4.80459">
        <ele>182.459</ele>
        <time>2011-02-13T10:48:10Z</time>
      </trkpt>
      <trkpt lat="49.70514" lon="4.8045">
        <ele>182.23</ele>
        <time>2011-02-13T10:48:11Z</time>
      </trkpt>
      <trkpt lat="49.70512" lon="4.80447">
        <ele>182.086</ele>
        <time>2011-02-13T10:48:12Z</time>
      </trkpt>
      <trkpt lat="49.70508" lon="4.80436">
        <ele>181.901</ele>
        <time>2011-02-13T10:48:13Z</time>
      </trkpt>
      <trkpt lat="49.70504" lon="4.80424">
        <ele>181.886</ele>
        <time>2011-02-13T10:48:15Z</time>
      </trkpt>
      <trkpt lat="49.705" lon="4.80413">
        <ele>181.859</ele>
        <time>2011-02-13T10:48:16Z</time>
      </trkpt>
      <trkpt lat="49.70494" lon="4.80398">
        <ele>181.372</ele>
        <time>2011-02-13T10:48:17Z</time>
      </trkpt>
      <trkpt lat="49.70493" lon="4.80396">
        <ele>181.148</ele>
        <time>2011-02-13T10:48:19Z</time>
      </trkpt>
      <trkpt lat="49.70491" lon="4.8039">
        <ele>180.648</ele>
        <time>2011-02-13T10:48:20Z</time>
      </trkpt>
      <trkpt lat="49.70487" lon="4.80376">
        <ele>180.292</ele>
        <time>2011-02-13T10:48:21Z</time>
      </trkpt>
      <trkpt lat="49.70483" lon="4.80365">
        <ele>179.959</ele>
        <time>2011-02-13T10:48:23Z</time>
      </trkpt>
      <trkpt lat="49.70481" lon="4.8036">
        <ele>179.839</ele>
        <time>2011-02-13T10:48:25Z</time>
      </trkpt>
      <trkpt lat="49.70478" lon="4.80352">
        <ele>179.467</ele>
        <time>2011-02-13T10:48:26Z</time>
      </trkpt>
      <trkpt lat="49.70474" lon="4.80343">
        <ele>179.093</ele>
        <time>2011-02-13T10:48:28Z</time>
      </trkpt>
      <trkpt lat="49.70469" lon="4.80327">
        <ele>178.963</ele>
        <time>2011-02-13T10:48:30Z</time>
      </trkpt>
      <trkpt lat="49.70466" lon="4.80321">
        <ele>178.891</ele>
        <time>2011-02-13T10:48:31Z</time>
      </trkpt>
      <trkpt lat="49.70463" lon="4.80311">
        <ele>178.78</ele>
        <time>2011-02-13T10:48:32Z</time>
      </trkpt>
      <trkpt lat="49.70461" lon="4.80303">
        <ele>178.754</ele>
        <time>2011-02-13T10:48:34Z</time>
      </trkpt>
      <trkpt lat="49.70456" lon="4.80291">
        <ele>178.709</ele>
        <time>2011-02-13T10:48:35Z</time>
      </trkpt>
      <trkpt lat="49.7045" lon="4.80277">
        <ele>178.661</ele>
        <time>2011-02-13T10:48:37Z</time>
      </trkpt>
      <trkpt lat="49.70444" lon="4.80261">
        <ele>178.625</ele>
        <time>2011-02-13T10:48:39Z</time>
      </trkpt>
      <trkpt lat="49.70439" lon="4.80248">
        <ele>178.571</ele>
        <time>2011-02-13T10:48:40Z</time>
      </trkpt>
      <trkpt lat="49.70437" lon="4.80242">
        <ele>178.519</ele>
        <time>2011-02-13T10:48:41Z</time>
      </trkpt>
      <trkpt lat="49.70433" lon="4.80232">
        <ele>178.424</ele>
        <time>2011-02-13T10:48:42Z</time>
      </trkpt>
      <trkpt lat="49.70429" lon="4.80221">
        <ele>178.282</ele>
        <time>2011-02-13T10:48:45Z</time>
      </trkpt>
      <trkpt lat="49.70424" lon="4.8021">
        <ele>177.86</ele>
        <time>2011-02-13T10:48:46Z</time>
      </trkpt>
      <trkpt lat="49.70419" lon="4.80198">
        <ele>177.523</ele>
        <time>2011-02-13T10:48:47Z</time>
      </trkpt>
      <trkpt lat="49.70411" lon="4.80177">
        <ele>176.66</ele>
        <time>2011-02-13T10:48:49Z</time>
      </trkpt>
      <trkpt lat="49.70408" lon="4.80171">
        <ele>176.345</ele>
        <time>2011-02-13T10:48:50Z</time>
      </trkpt>
      <trkpt lat="49.70406" lon="4.80164">
        <ele>176.111</ele>
        <time>2011-02-13T10:48:51Z</time>
      </trkpt>
      <trkpt lat="49.70403" lon="4.80151">
        <ele>175.563</ele>
        <time>2011-02-13T10:48:53Z</time>
      </trkpt>
      <trkpt lat="49.70399" lon="4.8014">
        <ele>175.198</ele>
        <time>2011-02-13T10:48:54Z</time>
      </trkpt>
      <trkpt lat="49.70397" lon="4.80136">
        <ele>175.184</ele>
        <time>2011-02-13T10:48:56Z</time>
      </trkpt>
      <trkpt lat="49.70395" lon="4.8013">
        <ele>175.106</ele>
        <time>2011-02-13T10:48:57Z</time>
      </trkpt>
      <trkpt lat="49.70393" lon="4.80125">
        <ele>174.998</ele>
        <time>2011-02-13T10:48:58Z</time>
      </trkpt>
      <trkpt lat="49.70391" lon="4.80119">
        <ele>174.829</ele>
        <time>2011-02-13T10:48:59Z</time>
      </trkpt>
      <trkpt lat="49.70389" lon="4.80106">
        <ele>174.754</ele>
        <time>2011-02-13T10:49:01Z</time>
      </trkpt>
      <trkpt lat="49.70387" lon="4.80094">
        <ele>174.796</ele>
        <time>2011-02-13T10:49:02Z</time>
      </trkpt>
      <trkpt lat="49.70385" lon="4.80085">
        <ele>174.776</ele>
        <time>2011-02-13T10:49:04Z</time>
      </trkpt>
      <trkpt lat="49.70381" lon="4.80074">
        <ele>174.839</ele>
        <time>2011-02-13T10:49:06Z</time>
      </trkpt>
      <trkpt lat="49.70377" lon="4.80064">
        <ele>174.953</ele>
        <time>2011-02-13T10:49:07Z</time>
      </trkpt>
      <trkpt lat="49.70373" lon="4.80052">
        <ele>174.875</ele>
        <time>2011-02-13T10:49:09Z</time>
      </trkpt>
      <trkpt lat="49.70368" lon="4.80036">
        <ele>174.68</ele>
        <time>2011-02-13T10:49:11Z</time>
      </trkpt>
      <trkpt lat="49.70365" lon="4.80028">
        <ele>174.609</ele>
        <time>2011-02-13T10:49:12Z</time>
      </trkpt>
      <trkpt lat="49.70358" lon="4.8001">
        <ele>174.45</ele>
        <time>2011-02-13T10:49:14Z</time>
      </trkpt>
      <trkpt lat="49.70351" lon="4.79992">
        <ele>174.19</ele>
        <time>2011-02-13T10:49:16Z</time>
      </trkpt>
      <trkpt lat="49.70343" lon="4.79973">
        <ele>173.96</ele>
        <time>2011-02-13T10:49:18Z</time>
      </trkpt>
      <trkpt lat="49.70336" lon="4.79955">
        <ele>173.72</ele>
        <time>2011-02-13T10:49:20Z</time>
      </trkpt>
      <trkpt lat="49.70333" lon="4.79947">
        <ele>173.59</ele>
        <time>2011-02-13T10:49:21Z</time>
      </trkpt>
      <trkpt lat="49.70328" lon="4.79932">
        <ele>173.13</ele>
        <time>2011-02-13T10:49:23Z</time>
      </trkpt>
      <trkpt lat="49.70326" lon="4.79927">
        <ele>172.953</ele>
        <time>2011-02-13T10:49:24Z</time>
      </trkpt>
      <trkpt lat="49.70323" lon="4.79914">
        <ele>172.535</ele>
        <time>2011-02-13T10:49:26Z</time>
      </trkpt>
      <trkpt lat="49.70315" lon="4.79889">
        <ele>172.147</ele>
        <time>2011-02-13T10:49:28Z</time>
      </trkpt>
      <trkpt lat="49.7031" lon="4.79874">
        <ele>171.731</ele>
        <time>2011-02-13T10:49:29Z</time>
      </trkpt>
      <trkpt lat="49.70307" lon="4.79866">
        <ele>171.392</ele>
        <time>2011-02-13T10:49:30Z</time>
      </trkpt>
      <trkpt lat="49.70298" lon="4.79847">
        <ele>170.775</ele>
        <time>2011-02-13T10:49:32Z</time>
      </trkpt>
      <trkpt lat="49.70294" lon="4.79839">
        <ele>170.523</ele>
        <time>2011-02-13T10:49:33Z</time>
      </trkpt>
      <trkpt lat="49.70288" lon="4.79828">
        <ele>170.12</ele>
        <time>2011-02-13T10:49:35Z</time>
      </trkpt>
      <trkpt lat="49.70284" lon="4.7982">
        <ele>169.944</ele>
        <time>2011-02-13T10:49:36Z</time>
      </trkpt>
      <trkpt lat="49.70277" lon="4.798">
        <ele>169.439</ele>
        <time>2011-02-13T10:49:38Z</time>
      </trkpt>
      <trkpt lat="49.70272" lon="4.79777">
        <ele>169</ele>
        <time>2011-02-13T10:49:40Z</time>
      </trkpt>
      <trkpt lat="49.7027" lon="4.7977">
        <ele>168.77</ele>
        <time>2011-02-13T10:49:41Z</time>
      </trkpt>
      <trkpt lat="49.70263" lon="4.79756">
        <ele>168.121</ele>
        <time>2011-02-13T10:49:43Z</time>
      </trkpt>
      <trkpt lat="49.70256" lon="4.79752">
        <ele>167.584</ele>
        <time>2011-02-13T10:49:44Z</time>
      </trkpt>
      <trkpt lat="49.70242" lon="4.79747">
        <ele>166.247</ele>
        <time>2011-02-13T10:49:46Z</time>
      </trkpt>
      <trkpt lat="49.70238" lon="4.79745">
        <ele>165.532</ele>
        <time>2011-02-13T10:49:47Z</time>
      </trkpt>
      <trkpt lat="49.70225" lon="4.79734">
        <ele>164.205</ele>
        <time>2011-02-13T10:49:49Z</time>
      </trkpt>
      <trkpt lat="49.70219" lon="4.79727">
        <ele>163.542</ele>
        <time>2011-02-13T10:49:50Z</time>
      </trkpt>
      <trkpt lat="49.70208" lon="4.7971">
        <ele>162.61</ele>
        <time>2011-02-13T10:49:52Z</time>
      </trkpt>
      <trkpt lat="49.70196" lon="4.79686">
        <ele>161.84</ele>
        <time>2011-02-13T10:49:54Z</time>
      </trkpt>
      <trkpt lat="49.70189" lon="4.79673">
        <ele>161.58</ele>
        <time>2011-02-13T10:49:55Z</time>
      </trkpt>
      <trkpt lat="49.70183" lon="4.79665">
        <ele>161.49</ele>
        <time>2011-02-13T10:49:56Z</time>
      </trkpt>
      <trkpt lat="49.70173" lon="4.79647">
        <ele>161.32</ele>
        <time>2011-02-13T10:49:58Z</time>
      </trkpt>
      <trkpt lat="49.70163" lon="4.79629">
        <ele>161.07</ele>
        <time>2011-02-13T10:49:59Z</time>
      </trkpt>
      <trkpt lat="49.70155" lon="4.79611">
        <ele>160.51</ele>
        <time>2011-02-13T10:50:01Z</time>
      </trkpt>
      <trkpt lat="49.70144" lon="4.79588">
        <ele>160.15</ele>
        <time>2011-02-13T10:50:03Z</time>
      </trkpt>
      <trkpt lat="49.70139" lon="4.79575">
        <ele>159.93</ele>
        <time>2011-02-13T10:50:04Z</time>
      </trkpt>
      <trkpt lat="49.70133" lon="4.79563">
        <ele>159.7</ele>
        <time>2011-02-13T10:50:05Z</time>
      </trkpt>
      <trkpt lat="49.70128" lon="4.79551">
        <ele>159.47</ele>
        <time>2011-02-13T10:50:06Z</time>
      </trkpt>
      <trkpt lat="49.70119" lon="4.79527">
        <ele>158.94</ele>
        <time>2011-02-13T10:50:08Z</time>
      </trkpt>
      <trkpt lat="49.7011" lon="4.79505">
        <ele>158.38</ele>
        <time>2011-02-13T10:50:10Z</time>
      </trkpt>
      <trkpt lat="49.70101" lon="4.79484">
        <ele>157.71</ele>
        <time>2011-02-13T10:50:12Z</time>
      </trkpt>
      <trkpt lat="49.70092" lon="4.79464">
        <ele>157.19</ele>
        <time>2011-02-13T10:50:14Z</time>
      </trkpt>
      <trkpt lat="49.70087" lon="4.79453">
        <ele>157.08</ele>
        <time>2011-02-13T10:50:15Z</time>
      </trkpt>
      <trkpt lat="49.70077" lon="4.79432">
        <ele>156.96</ele>
        <time>2011-02-13T10:50:17Z</time>
      </trkpt>
      <trkpt lat="49.70067" lon="4.79411">
        <ele>157.08</ele>
        <time>2011-02-13T10:50:19Z</time>
      </trkpt>
      <trkpt lat="49.70062" lon="4.79401">
        <ele>157.3</ele>
        <time>2011-02-13T10:50:20Z</time>
      </trkpt>
      <trkpt lat="49.70057" lon="4.79392">
        <ele>157.55</ele>
        <time>2011-02-13T10:50:21Z</time>
      </trkpt>
      <trkpt lat="49.70045" lon="4.79376">
        <ele>157.79</ele>
        <time>2011-02-13T10:50:23Z</time>
      </trkpt>
      <trkpt lat="49.70034" lon="4.79362">
        <ele>157.49</ele>
        <time>2011-02-13T10:50:25Z</time>
      </trkpt>
      <trkpt lat="49.70021" lon="4.79351">
        <ele>156.91</ele>
        <time>2011-02-13T10:50:27Z</time>
      </trkpt>
      <trkpt lat="49.70014" lon="4.79347">
        <ele>156.48</ele>
        <time>2011-02-13T10:50:28Z</time>
      </trkpt>
      <trkpt lat="49.7" lon="4.79344">
        <ele>155.64</ele>
        <time>2011-02-13T10:50:30Z</time>
      </trkpt>
      <trkpt lat="49.69985" lon="4.79345">
        <ele>154.93</ele>
        <time>2011-02-13T10:50:32Z</time>
      </trkpt>
      <trkpt lat="49.69978" lon="4.79345">
        <ele>154.73</ele>
        <time>2011-02-13T10:50:33Z</time>
      </trkpt>
      <trkpt lat="49.6997" lon="4.79347">
        <ele>154.61</ele>
        <time>2011-02-13T10:50:34Z</time>
      </trkpt>
      <trkpt lat="49.69957" lon="4.79351">
        <ele>154.43</ele>
        <time>2011-02-13T10:50:36Z</time>
      </trkpt>
      <trkpt lat="49.69943" lon="4.79352">
        <ele>154.37</ele>
        <time>2011-02-13T10:50:38Z</time>
      </trkpt>
      <trkpt lat="49.69932" lon="4.79347">
        <ele>154.34</ele>
        <time>2011-02-13T10:50:40Z</time>
      </trkpt>
      <trkpt lat="49.69922" lon="4.79336">
        <ele>154.24</ele>
        <time>2011-02-13T10:50:42Z</time>
      </trkpt>
      <trkpt lat="49.69912" lon="4.79322">
        <ele>153.98</ele>
        <time>2011-02-13T10:50:44Z</time>
      </trkpt>
      <trkpt lat="49.69908" lon="4.79315">
        <ele>153.9</ele>
        <time>2011-02-13T10:50:45Z</time>
      </trkpt>
      <trkpt lat="49.69905" lon="4.79309">
        <ele>153.87</ele>
        <time>2011-02-13T10:50:46Z</time>
      </trkpt>
      <trkpt lat="49.69899" lon="4.79298">
        <ele>153.73</ele>
        <time>2011-02-13T10:50:48Z</time>
      </trkpt>
      <trkpt lat="49.69893" lon="4.79284">
        <ele>153.55</ele>
        <time>2011-02-13T10:50:50Z</time>
      </trkpt>
      <trkpt lat="49.69887" lon="4.79274">
        <ele>153.44</ele>
        <time>2011-02-13T10:50:52Z</time>
      </trkpt>
      <trkpt lat="49.69883" lon="4.79268">
        <ele>153.34</ele>
        <time>2011-02-13T10:50:54Z</time>
      </trkpt>
      <trkpt lat="49.6988" lon="4.79266">
        <ele>153.31</ele>
        <time>2011-02-13T10:50:55Z</time>
      </trkpt>
      <trkpt lat="49.69874" lon="4.79264">
        <ele>153.28</ele>
        <time>2011-02-13T10:50:57Z</time>
      </trkpt>
      <trkpt lat="49.69871" lon="4.79263">
        <ele>153.33</ele>
        <time>2011-02-13T10:50:58Z</time>
      </trkpt>
      <trkpt lat="49.69865" lon="4.7926">
        <ele>153.45</ele>
        <time>2011-02-13T10:51:00Z</time>
      </trkpt>
      <trkpt lat="49.6986" lon="4.79257">
        <ele>153.52</ele>
        <time>2011-02-13T10:51:02Z</time>
      </trkpt>
      <trkpt lat="49.69855" lon="4.79256">
        <ele>153.6</ele>
        <time>2011-02-13T10:51:04Z</time>
      </trkpt>
      <trkpt lat="49.69853" lon="4.79255">
        <ele>153.62</ele>
        <time>2011-02-13T10:51:05Z</time>
      </trkpt>
      <trkpt lat="49.69848" lon="4.79253">
        <ele>153.3</ele>
        <time>2011-02-13T10:51:07Z</time>
      </trkpt>
      <trkpt lat="49.69846" lon="4.79252">
        <ele>153.13</ele>
        <time>2011-02-13T10:51:08Z</time>
      </trkpt>
      <trkpt lat="49.69841" lon="4.79249">
        <ele>152.73</ele>
        <time>2011-02-13T10:51:10Z</time>
      </trkpt>
      <trkpt lat="49.69837" lon="4.79246">
        <ele>152.18</ele>
        <time>2011-02-13T10:51:12Z</time>
      </trkpt>
      <trkpt lat="49.69835" lon="4.79245">
        <ele>151.88</ele>
        <time>2011-02-13T10:51:13Z</time>
      </trkpt>
      <trkpt lat="49.69831" lon="4.79242">
        <ele>151.38</ele>
        <time>2011-02-13T10:51:15Z</time>
      </trkpt>
      <trkpt lat="49.69829" lon="4.79241">
        <ele>151.33</ele>
        <time>2011-02-13T10:51:16Z</time>
      </trkpt>
      <trkpt lat="49.69826" lon="4.79239">
        <ele>151.26</ele>
        <time>2011-02-13T10:51:18Z</time>
      </trkpt>
      <trkpt lat="49.69824" lon="4.79238">
        <ele>151.27</ele>
        <time>2011-02-13T10:51:20Z</time>
      </trkpt>
      <trkpt lat="49.69823" lon="4.79238">
        <ele>151.34</ele>
        <time>2011-02-13T10:51:21Z</time>
      </trkpt>
      <trkpt lat="49.69821" lon="4.79237">
        <ele>151.45</ele>
        <time>2011-02-13T10:51:22Z</time>
      </trkpt>
      <trkpt lat="49.69817" lon="4.79234">
        <ele>151.67</ele>
        <time>2011-02-13T10:51:24Z</time>
      </trkpt>
      <trkpt lat="49.69812" lon="4.79231">
        <ele>151.76</ele>
        <time>2011-02-13T10:51:26Z</time>
      </trkpt>
      <trkpt lat="49.69806" lon="4.79229">
        <ele>151.95</ele>
        <time>2011-02-13T10:51:28Z</time>
      </trkpt>
      <trkpt lat="49.698" lon="4.79226">
        <ele>152.3</ele>
        <time>2011-02-13T10:51:30Z</time>
      </trkpt>
      <trkpt lat="49.69792" lon="4.79221">
        <ele>152.8</ele>
        <time>2011-02-13T10:51:32Z</time>
      </trkpt>
      <trkpt lat="49.69788" lon="4.79219">
        <ele>153.05</ele>
        <time>2011-02-13T10:51:33Z</time>
      </trkpt>
      <trkpt lat="49.69783" lon="4.79215">
        <ele>153.55</ele>
        <time>2011-02-13T10:51:35Z</time>
      </trkpt>
      <trkpt lat="49.69781" lon="4.79214">
        <ele>153.79</ele>
        <time>2011-02-13T10:51:36Z</time>
      </trkpt>
      <trkpt lat="49.69779" lon="4.79213">
        <ele>154.05</ele>
        <time>2011-02-13T10:51:38Z</time>
      </trkpt>
      <trkpt lat="49.69775" lon="4.79211">
        <ele>154.41</ele>
        <time>2011-02-13T10:51:40Z</time>
      </trkpt>
      <trkpt lat="49.69772" lon="4.79206">
        <ele>155.16</ele>
        <time>2011-02-13T10:51:42Z</time>
      </trkpt>
      <trkpt lat="49.69771" lon="4.79204">
        <ele>155.54</ele>
        <time>2011-02-13T10:51:43Z</time>
      </trkpt>
      <trkpt lat="49.69768" lon="4.79198">
        <ele>156.32</ele>
        <time>2011-02-13T10:51:45Z</time>
      </trkpt>
      <trkpt lat="49.69766" lon="4.79195">
        <ele>156.65</ele>
        <time>2011-02-13T10:51:46Z</time>
      </trkpt>
      <trkpt lat="49.69765" lon="4.79193">
        <ele>157.43</ele>
        <time>2011-02-13T10:51:48Z</time>
      </trkpt>
      <trkpt lat="49.69765" lon="4.79192">
        <ele>157.65</ele>
        <time>2011-02-13T10:51:49Z</time>
      </trkpt>
      <trkpt lat="49.69765" lon="4.79192">
        <ele>157.74</ele>
        <time>2011-02-13T10:51:51Z</time>
      </trkpt>
      <trkpt lat="49.69765" lon="4.79192">
        <ele>157.75</ele>
        <time>2011-02-13T10:51:52Z</time>
      </trkpt>
      <trkpt lat="49.69765" lon="4.79191">
        <ele>157.79</ele>
        <time>2011-02-13T10:51:53Z</time>
      </trkpt>
      <trkpt lat="49.69765" lon="4.79191">
        <ele>157.86</ele>
        <time>2011-02-13T10:51:55Z</time>
      </trkpt>
      <trkpt lat="49.69765" lon="4.79191">
        <ele>157.94</ele>
        <time>2011-02-13T10:51:56Z</time>
      </trkpt>
      <trkpt lat="49.69765" lon="4.79191">
        <ele>158.02</ele>
        <time>2011-02-13T10:51:57Z</time>
      </trkpt>
      <trkpt lat="49.69765" lon="4.79191">
        <ele>158.24</ele>
        <time>2011-02-13T10:51:59Z</time>
      </trkpt>
      <trkpt lat="49.69765" lon="4.79191">
        <ele>158.38</ele>
        <time>2011-02-13T10:52:00Z</time>
      </trkpt>
      <trkpt lat="49.69765" lon="4.79191">
        <ele>158.54</ele>
        <time>2011-02-13T10:52:02Z</time>
      </trkpt>
      <trkpt lat="49.69765" lon="4.79191">
        <ele>158.49</ele>
        <time>2011-02-13T10:52:04Z</time>
      </trkpt>
      <trkpt lat="49.69765" lon="4.79191">
        <ele>158.47</ele>
        <time>2011-02-13T10:52:05Z</time>
      </trkpt>
      <trkpt lat="49.69765" lon="4.79191">
        <ele>158.46</ele>
        <time>2011-02-13T10:52:06Z</time>
      </trkpt>
      <trkpt lat="49.69765" lon="4.79191">
        <ele>158.449</ele>
        <time>2011-02-13T10:52:07Z</time>
      </trkpt>
    </trkseg>
  </trk>
</gpx>